<?xml version="1.0" encoding="UTF-8" standalone="no" ?>
<gpx xmlns="http://www.topografix.com/GPX/1/1" xmlns:xsi="http://www.w3.org/2001/XMLSchema-instance" xsi:schemaLocation="http://www.topografix.com/GPX/1/1 http://www.topografix.com/GPX/1/1/gpx.xsd" version="1.1" creator="VisuGPX - https://www.visugpx.com">
  <metadata>
    <name>Lot boucle 1 jour 5</name>
    <desc><![CDATA[Au départ du centre équestre Pech Merle ; chambre confortable, table correcte seul bémol : le propriétaire un peu "dépassé"... arrivée à 17h et rien de prêt.. du coup repas servi à 21 h.
Pour les chevaux et bien pas de granulés sur place attendre à 20heures qu'une personne en livre un sac... parc ok à proximité.
Pour la rando avec une journée caniculaire nous avons faite l'étape sans arrêt et fini par la route car marre des cailloux ]]></desc>
  </metadata>
  <trk>
    <name><![CDATA[SityTrail - Lot 2019-1-5]]></name>
    <trkseg>
      <trkpt lat="44.50762" lon="1.63369">
        <ele>323</ele>
        <time>2019-08-09T07:03:35.756Z</time>
      </trkpt>
      <trkpt lat="44.50769" lon="1.63373">
        <ele>323</ele>
        <time>2019-08-09T07:04:26.770Z</time>
      </trkpt>
      <trkpt lat="44.50771" lon="1.6337">
        <ele>323</ele>
        <time>2019-08-09T07:04:31.768Z</time>
      </trkpt>
      <trkpt lat="44.50773" lon="1.63374">
        <ele>323</ele>
        <time>2019-08-09T07:04:35.790Z</time>
      </trkpt>
      <trkpt lat="44.50774" lon="1.63374">
        <ele>323</ele>
        <time>2019-08-09T07:04:40.785Z</time>
      </trkpt>
      <trkpt lat="44.50777" lon="1.63368">
        <ele>323</ele>
        <time>2019-08-09T07:04:44.788Z</time>
      </trkpt>
      <trkpt lat="44.50783" lon="1.63362">
        <ele>323</ele>
        <time>2019-08-09T07:04:48.796Z</time>
      </trkpt>
      <trkpt lat="44.50789" lon="1.6336">
        <ele>323</ele>
        <time>2019-08-09T07:04:53.775Z</time>
      </trkpt>
      <trkpt lat="44.50794" lon="1.63364">
        <ele>322</ele>
        <time>2019-08-09T07:04:56.767Z</time>
      </trkpt>
      <trkpt lat="44.50798" lon="1.6337">
        <ele>322</ele>
        <time>2019-08-09T07:05:00.771Z</time>
      </trkpt>
      <trkpt lat="44.50802" lon="1.63375">
        <ele>322</ele>
        <time>2019-08-09T07:05:05.773Z</time>
      </trkpt>
      <trkpt lat="44.50805" lon="1.63381">
        <ele>322</ele>
        <time>2019-08-09T07:05:10.772Z</time>
      </trkpt>
      <trkpt lat="44.50807" lon="1.63389">
        <ele>322</ele>
        <time>2019-08-09T07:05:14.800Z</time>
      </trkpt>
      <trkpt lat="44.50809" lon="1.634">
        <ele>322</ele>
        <time>2019-08-09T07:05:19.794Z</time>
      </trkpt>
      <trkpt lat="44.50811" lon="1.63409">
        <ele>323</ele>
        <time>2019-08-09T07:05:24.787Z</time>
      </trkpt>
      <trkpt lat="44.50813" lon="1.63417">
        <ele>323</ele>
        <time>2019-08-09T07:05:28.825Z</time>
      </trkpt>
      <trkpt lat="44.50816" lon="1.63425">
        <ele>323</ele>
        <time>2019-08-09T07:05:33.769Z</time>
      </trkpt>
      <trkpt lat="44.50815" lon="1.63436">
        <ele>322</ele>
        <time>2019-08-09T07:05:38.777Z</time>
      </trkpt>
      <trkpt lat="44.50815" lon="1.63446">
        <ele>322</ele>
        <time>2019-08-09T07:05:43.801Z</time>
      </trkpt>
      <trkpt lat="44.50815" lon="1.63452">
        <ele>322</ele>
        <time>2019-08-09T07:05:47.817Z</time>
      </trkpt>
      <trkpt lat="44.50813" lon="1.63457">
        <ele>322</ele>
        <time>2019-08-09T07:05:52.796Z</time>
      </trkpt>
      <trkpt lat="44.50811" lon="1.63466">
        <ele>322</ele>
        <time>2019-08-09T07:05:57.790Z</time>
      </trkpt>
      <trkpt lat="44.50812" lon="1.63474">
        <ele>322</ele>
        <time>2019-08-09T07:06:02.791Z</time>
      </trkpt>
      <trkpt lat="44.50814" lon="1.63485">
        <ele>322</ele>
        <time>2019-08-09T07:06:07.784Z</time>
      </trkpt>
      <trkpt lat="44.50816" lon="1.63495">
        <ele>320</ele>
        <time>2019-08-09T07:06:12.787Z</time>
      </trkpt>
      <trkpt lat="44.50818" lon="1.63507">
        <ele>320</ele>
        <time>2019-08-09T07:06:17.776Z</time>
      </trkpt>
      <trkpt lat="44.50817" lon="1.63517">
        <ele>319</ele>
        <time>2019-08-09T07:06:21.795Z</time>
      </trkpt>
      <trkpt lat="44.50813" lon="1.63525">
        <ele>319</ele>
        <time>2019-08-09T07:06:26.786Z</time>
      </trkpt>
      <trkpt lat="44.50807" lon="1.63534">
        <ele>319</ele>
        <time>2019-08-09T07:06:31.781Z</time>
      </trkpt>
      <trkpt lat="44.50801" lon="1.63542">
        <ele>316</ele>
        <time>2019-08-09T07:06:36.787Z</time>
      </trkpt>
      <trkpt lat="44.50796" lon="1.63551">
        <ele>316</ele>
        <time>2019-08-09T07:06:41.784Z</time>
      </trkpt>
      <trkpt lat="44.50793" lon="1.63554">
        <ele>316</ele>
        <time>2019-08-09T07:06:46.782Z</time>
      </trkpt>
      <trkpt lat="44.50789" lon="1.63558">
        <ele>319</ele>
        <time>2019-08-09T07:06:51.782Z</time>
      </trkpt>
      <trkpt lat="44.50783" lon="1.63563">
        <ele>319</ele>
        <time>2019-08-09T07:06:56.778Z</time>
      </trkpt>
      <trkpt lat="44.50779" lon="1.63571">
        <ele>315</ele>
        <time>2019-08-09T07:07:01.801Z</time>
      </trkpt>
      <trkpt lat="44.50774" lon="1.63579">
        <ele>315</ele>
        <time>2019-08-09T07:07:06.787Z</time>
      </trkpt>
      <trkpt lat="44.50769" lon="1.63587">
        <ele>315</ele>
        <time>2019-08-09T07:07:11.783Z</time>
      </trkpt>
      <trkpt lat="44.50763" lon="1.63596">
        <ele>319</ele>
        <time>2019-08-09T07:07:16.778Z</time>
      </trkpt>
      <trkpt lat="44.50759" lon="1.63605">
        <ele>315</ele>
        <time>2019-08-09T07:07:21.758Z</time>
      </trkpt>
      <trkpt lat="44.50758" lon="1.63612">
        <ele>315</ele>
        <time>2019-08-09T07:07:25.782Z</time>
      </trkpt>
      <trkpt lat="44.50753" lon="1.63621">
        <ele>315</ele>
        <time>2019-08-09T07:07:30.785Z</time>
      </trkpt>
      <trkpt lat="44.5075" lon="1.63628">
        <ele>312</ele>
        <time>2019-08-09T07:07:34.808Z</time>
      </trkpt>
      <trkpt lat="44.50746" lon="1.63638">
        <ele>312</ele>
        <time>2019-08-09T07:07:39.769Z</time>
      </trkpt>
      <trkpt lat="44.50743" lon="1.63648">
        <ele>312</ele>
        <time>2019-08-09T07:07:44.788Z</time>
      </trkpt>
      <trkpt lat="44.50742" lon="1.63658">
        <ele>309</ele>
        <time>2019-08-09T07:07:49.758Z</time>
      </trkpt>
      <trkpt lat="44.50739" lon="1.63665">
        <ele>309</ele>
        <time>2019-08-09T07:07:53.772Z</time>
      </trkpt>
      <trkpt lat="44.50736" lon="1.63673">
        <ele>317</ele>
        <time>2019-08-09T07:07:58.784Z</time>
      </trkpt>
      <trkpt lat="44.50733" lon="1.63684">
        <ele>315</ele>
        <time>2019-08-09T07:08:03.770Z</time>
      </trkpt>
      <trkpt lat="44.50731" lon="1.63694">
        <ele>315</ele>
        <time>2019-08-09T07:08:08.780Z</time>
      </trkpt>
      <trkpt lat="44.50728" lon="1.63703">
        <ele>315</ele>
        <time>2019-08-09T07:08:13.760Z</time>
      </trkpt>
      <trkpt lat="44.50725" lon="1.63711">
        <ele>314</ele>
        <time>2019-08-09T07:08:18.785Z</time>
      </trkpt>
      <trkpt lat="44.50723" lon="1.63719">
        <ele>314</ele>
        <time>2019-08-09T07:08:23.770Z</time>
      </trkpt>
      <trkpt lat="44.50718" lon="1.63727">
        <ele>314</ele>
        <time>2019-08-09T07:08:28.775Z</time>
      </trkpt>
      <trkpt lat="44.50716" lon="1.63737">
        <ele>312</ele>
        <time>2019-08-09T07:08:33.759Z</time>
      </trkpt>
      <trkpt lat="44.50713" lon="1.63748">
        <ele>312</ele>
        <time>2019-08-09T07:08:38.793Z</time>
      </trkpt>
      <trkpt lat="44.50711" lon="1.63759">
        <ele>312</ele>
        <time>2019-08-09T07:08:43.781Z</time>
      </trkpt>
      <trkpt lat="44.50709" lon="1.63767">
        <ele>311</ele>
        <time>2019-08-09T07:08:48.789Z</time>
      </trkpt>
      <trkpt lat="44.50707" lon="1.63778">
        <ele>319</ele>
        <time>2019-08-09T07:08:53.775Z</time>
      </trkpt>
      <trkpt lat="44.50707" lon="1.63781">
        <ele>319</ele>
        <time>2019-08-09T07:08:58.793Z</time>
      </trkpt>
      <trkpt lat="44.50706" lon="1.6378">
        <ele>319</ele>
        <time>2019-08-09T07:09:03.777Z</time>
      </trkpt>
      <trkpt lat="44.50706" lon="1.6378">
        <ele>319</ele>
        <time>2019-08-09T07:09:08.811Z</time>
      </trkpt>
      <trkpt lat="44.50703" lon="1.63789">
        <ele>319</ele>
        <time>2019-08-09T07:09:13.772Z</time>
      </trkpt>
      <trkpt lat="44.50701" lon="1.63795">
        <ele>316</ele>
        <time>2019-08-09T07:09:17.781Z</time>
      </trkpt>
      <trkpt lat="44.50699" lon="1.63795">
        <ele>316</ele>
        <time>2019-08-09T07:12:52.787Z</time>
      </trkpt>
      <trkpt lat="44.50698" lon="1.63797">
        <ele>316</ele>
        <time>2019-08-09T07:12:57.743Z</time>
      </trkpt>
      <trkpt lat="44.50698" lon="1.63805">
        <ele>316</ele>
        <time>2019-08-09T07:13:01.789Z</time>
      </trkpt>
      <trkpt lat="44.50697" lon="1.63815">
        <ele>316</ele>
        <time>2019-08-09T07:13:06.787Z</time>
      </trkpt>
      <trkpt lat="44.50697" lon="1.63827">
        <ele>315</ele>
        <time>2019-08-09T07:13:11.779Z</time>
      </trkpt>
      <trkpt lat="44.50696" lon="1.63836">
        <ele>315</ele>
        <time>2019-08-09T07:13:15.792Z</time>
      </trkpt>
      <trkpt lat="44.50695" lon="1.63846">
        <ele>315</ele>
        <time>2019-08-09T07:13:20.783Z</time>
      </trkpt>
      <trkpt lat="44.50694" lon="1.63855">
        <ele>314</ele>
        <time>2019-08-09T07:13:25.847Z</time>
      </trkpt>
      <trkpt lat="44.50692" lon="1.63866">
        <ele>314</ele>
        <time>2019-08-09T07:13:30.803Z</time>
      </trkpt>
      <trkpt lat="44.5069" lon="1.63876">
        <ele>314</ele>
        <time>2019-08-09T07:13:35.815Z</time>
      </trkpt>
      <trkpt lat="44.50689" lon="1.63888">
        <ele>314</ele>
        <time>2019-08-09T07:13:40.781Z</time>
      </trkpt>
      <trkpt lat="44.50688" lon="1.63899">
        <ele>314</ele>
        <time>2019-08-09T07:13:45.852Z</time>
      </trkpt>
      <trkpt lat="44.50687" lon="1.63909">
        <ele>316</ele>
        <time>2019-08-09T07:13:50.797Z</time>
      </trkpt>
      <trkpt lat="44.50687" lon="1.63919">
        <ele>316</ele>
        <time>2019-08-09T07:13:55.782Z</time>
      </trkpt>
      <trkpt lat="44.50688" lon="1.63929">
        <ele>316</ele>
        <time>2019-08-09T07:13:59.783Z</time>
      </trkpt>
      <trkpt lat="44.50689" lon="1.63936">
        <ele>319</ele>
        <time>2019-08-09T07:14:03.827Z</time>
      </trkpt>
      <trkpt lat="44.50691" lon="1.63946">
        <ele>319</ele>
        <time>2019-08-09T07:14:08.784Z</time>
      </trkpt>
      <trkpt lat="44.50696" lon="1.63955">
        <ele>319</ele>
        <time>2019-08-09T07:14:13.786Z</time>
      </trkpt>
      <trkpt lat="44.50699" lon="1.63961">
        <ele>320</ele>
        <time>2019-08-09T07:14:17.822Z</time>
      </trkpt>
      <trkpt lat="44.50702" lon="1.63972">
        <ele>320</ele>
        <time>2019-08-09T07:14:22.799Z</time>
      </trkpt>
      <trkpt lat="44.50705" lon="1.63982">
        <ele>320</ele>
        <time>2019-08-09T07:14:27.780Z</time>
      </trkpt>
      <trkpt lat="44.50708" lon="1.6399">
        <ele>320</ele>
        <time>2019-08-09T07:14:31.826Z</time>
      </trkpt>
      <trkpt lat="44.5071" lon="1.64">
        <ele>315</ele>
        <time>2019-08-09T07:14:36.795Z</time>
      </trkpt>
      <trkpt lat="44.50713" lon="1.6401">
        <ele>315</ele>
        <time>2019-08-09T07:14:41.798Z</time>
      </trkpt>
      <trkpt lat="44.50716" lon="1.64023">
        <ele>315</ele>
        <time>2019-08-09T07:14:46.804Z</time>
      </trkpt>
      <trkpt lat="44.50719" lon="1.64034">
        <ele>315</ele>
        <time>2019-08-09T07:14:51.817Z</time>
      </trkpt>
      <trkpt lat="44.50722" lon="1.64045">
        <ele>316</ele>
        <time>2019-08-09T07:14:56.792Z</time>
      </trkpt>
      <trkpt lat="44.50724" lon="1.64057">
        <ele>316</ele>
        <time>2019-08-09T07:15:01.787Z</time>
      </trkpt>
      <trkpt lat="44.50726" lon="1.64067">
        <ele>316</ele>
        <time>2019-08-09T07:15:06.799Z</time>
      </trkpt>
      <trkpt lat="44.50728" lon="1.64077">
        <ele>317</ele>
        <time>2019-08-09T07:15:11.786Z</time>
      </trkpt>
      <trkpt lat="44.5073" lon="1.64087">
        <ele>317</ele>
        <time>2019-08-09T07:15:16.792Z</time>
      </trkpt>
      <trkpt lat="44.50733" lon="1.64097">
        <ele>316</ele>
        <time>2019-08-09T07:15:21.811Z</time>
      </trkpt>
      <trkpt lat="44.50735" lon="1.64107">
        <ele>316</ele>
        <time>2019-08-09T07:15:26.796Z</time>
      </trkpt>
      <trkpt lat="44.50736" lon="1.64116">
        <ele>313</ele>
        <time>2019-08-09T07:15:31.823Z</time>
      </trkpt>
      <trkpt lat="44.5074" lon="1.64127">
        <ele>312</ele>
        <time>2019-08-09T07:15:36.800Z</time>
      </trkpt>
      <trkpt lat="44.50744" lon="1.64137">
        <ele>312</ele>
        <time>2019-08-09T07:15:41.910Z</time>
      </trkpt>
      <trkpt lat="44.50745" lon="1.64145">
        <ele>312</ele>
        <time>2019-08-09T07:15:46.790Z</time>
      </trkpt>
      <trkpt lat="44.50749" lon="1.64155">
        <ele>311</ele>
        <time>2019-08-09T07:15:51.799Z</time>
      </trkpt>
      <trkpt lat="44.50752" lon="1.64163">
        <ele>311</ele>
        <time>2019-08-09T07:15:55.820Z</time>
      </trkpt>
      <trkpt lat="44.50757" lon="1.64174">
        <ele>311</ele>
        <time>2019-08-09T07:16:00.786Z</time>
      </trkpt>
      <trkpt lat="44.50759" lon="1.64181">
        <ele>309</ele>
        <time>2019-08-09T07:16:05.817Z</time>
      </trkpt>
      <trkpt lat="44.50758" lon="1.64183">
        <ele>309</ele>
        <time>2019-08-09T07:16:09.844Z</time>
      </trkpt>
      <trkpt lat="44.50761" lon="1.64189">
        <ele>309</ele>
        <time>2019-08-09T07:16:14.785Z</time>
      </trkpt>
      <trkpt lat="44.50767" lon="1.64199">
        <ele>305</ele>
        <time>2019-08-09T07:16:19.803Z</time>
      </trkpt>
      <trkpt lat="44.50771" lon="1.6421">
        <ele>304</ele>
        <time>2019-08-09T07:16:24.777Z</time>
      </trkpt>
      <trkpt lat="44.50774" lon="1.64217">
        <ele>304</ele>
        <time>2019-08-09T07:16:28.786Z</time>
      </trkpt>
      <trkpt lat="44.50778" lon="1.64225">
        <ele>304</ele>
        <time>2019-08-09T07:16:33.802Z</time>
      </trkpt>
      <trkpt lat="44.50784" lon="1.64237">
        <ele>303</ele>
        <time>2019-08-09T07:16:38.807Z</time>
      </trkpt>
      <trkpt lat="44.50787" lon="1.64249">
        <ele>303</ele>
        <time>2019-08-09T07:16:43.797Z</time>
      </trkpt>
      <trkpt lat="44.50788" lon="1.64257">
        <ele>303</ele>
        <time>2019-08-09T07:16:48.792Z</time>
      </trkpt>
      <trkpt lat="44.50791" lon="1.64266">
        <ele>303</ele>
        <time>2019-08-09T07:16:53.831Z</time>
      </trkpt>
      <trkpt lat="44.50794" lon="1.64277">
        <ele>301</ele>
        <time>2019-08-09T07:16:58.804Z</time>
      </trkpt>
      <trkpt lat="44.50797" lon="1.64289">
        <ele>301</ele>
        <time>2019-08-09T07:17:03.833Z</time>
      </trkpt>
      <trkpt lat="44.50799" lon="1.64301">
        <ele>300</ele>
        <time>2019-08-09T07:17:08.793Z</time>
      </trkpt>
      <trkpt lat="44.508" lon="1.6431">
        <ele>300</ele>
        <time>2019-08-09T07:17:13.791Z</time>
      </trkpt>
      <trkpt lat="44.50803" lon="1.6432">
        <ele>298</ele>
        <time>2019-08-09T07:17:18.797Z</time>
      </trkpt>
      <trkpt lat="44.50807" lon="1.64329">
        <ele>298</ele>
        <time>2019-08-09T07:17:23.794Z</time>
      </trkpt>
      <trkpt lat="44.50812" lon="1.64337">
        <ele>298</ele>
        <time>2019-08-09T07:17:28.784Z</time>
      </trkpt>
      <trkpt lat="44.50817" lon="1.64346">
        <ele>298</ele>
        <time>2019-08-09T07:17:33.806Z</time>
      </trkpt>
      <trkpt lat="44.50822" lon="1.64355">
        <ele>295</ele>
        <time>2019-08-09T07:17:38.782Z</time>
      </trkpt>
      <trkpt lat="44.50828" lon="1.64363">
        <ele>295</ele>
        <time>2019-08-09T07:17:43.790Z</time>
      </trkpt>
      <trkpt lat="44.50835" lon="1.6437">
        <ele>295</ele>
        <time>2019-08-09T07:17:48.783Z</time>
      </trkpt>
      <trkpt lat="44.50841" lon="1.64375">
        <ele>295</ele>
        <time>2019-08-09T07:17:53.841Z</time>
      </trkpt>
      <trkpt lat="44.50846" lon="1.64379">
        <ele>293</ele>
        <time>2019-08-09T07:17:58.817Z</time>
      </trkpt>
      <trkpt lat="44.50852" lon="1.64382">
        <ele>291</ele>
        <time>2019-08-09T07:18:03.795Z</time>
      </trkpt>
      <trkpt lat="44.50858" lon="1.64382">
        <ele>291</ele>
        <time>2019-08-09T07:18:08.786Z</time>
      </trkpt>
      <trkpt lat="44.50863" lon="1.64387">
        <ele>291</ele>
        <time>2019-08-09T07:18:13.780Z</time>
      </trkpt>
      <trkpt lat="44.50866" lon="1.64392">
        <ele>291</ele>
        <time>2019-08-09T07:18:18.784Z</time>
      </trkpt>
      <trkpt lat="44.50866" lon="1.64392">
        <ele>291</ele>
        <time>2019-08-09T07:18:22.801Z</time>
      </trkpt>
      <trkpt lat="44.50866" lon="1.64393">
        <ele>291</ele>
        <time>2019-08-09T07:18:55.786Z</time>
      </trkpt>
      <trkpt lat="44.50867" lon="1.64394">
        <ele>291</ele>
        <time>2019-08-09T07:19:00.757Z</time>
      </trkpt>
      <trkpt lat="44.50867" lon="1.64394">
        <ele>291</ele>
        <time>2019-08-09T07:19:05.776Z</time>
      </trkpt>
      <trkpt lat="44.50866" lon="1.64402">
        <ele>291</ele>
        <time>2019-08-09T07:19:10.806Z</time>
      </trkpt>
      <trkpt lat="44.50864" lon="1.64412">
        <ele>288</ele>
        <time>2019-08-09T07:19:15.841Z</time>
      </trkpt>
      <trkpt lat="44.50857" lon="1.6442">
        <ele>288</ele>
        <time>2019-08-09T07:19:20.786Z</time>
      </trkpt>
      <trkpt lat="44.5085" lon="1.64425">
        <ele>288</ele>
        <time>2019-08-09T07:19:25.783Z</time>
      </trkpt>
      <trkpt lat="44.50845" lon="1.64427">
        <ele>290</ele>
        <time>2019-08-09T07:19:29.780Z</time>
      </trkpt>
      <trkpt lat="44.50836" lon="1.64426">
        <ele>290</ele>
        <time>2019-08-09T07:19:34.777Z</time>
      </trkpt>
      <trkpt lat="44.50832" lon="1.64425">
        <ele>290</ele>
        <time>2019-08-09T07:19:38.789Z</time>
      </trkpt>
      <trkpt lat="44.50826" lon="1.64426">
        <ele>290</ele>
        <time>2019-08-09T07:19:43.783Z</time>
      </trkpt>
      <trkpt lat="44.50819" lon="1.64428">
        <ele>289</ele>
        <time>2019-08-09T07:19:48.808Z</time>
      </trkpt>
      <trkpt lat="44.50813" lon="1.6443">
        <ele>289</ele>
        <time>2019-08-09T07:19:53.784Z</time>
      </trkpt>
      <trkpt lat="44.5081" lon="1.64431">
        <ele>285</ele>
        <time>2019-08-09T07:20:18.782Z</time>
      </trkpt>
      <trkpt lat="44.50809" lon="1.64431">
        <ele>285</ele>
        <time>2019-08-09T07:20:23.780Z</time>
      </trkpt>
      <trkpt lat="44.5081" lon="1.64434">
        <ele>285</ele>
        <time>2019-08-09T07:20:28.785Z</time>
      </trkpt>
      <trkpt lat="44.50809" lon="1.64434">
        <ele>285</ele>
        <time>2019-08-09T07:20:32.804Z</time>
      </trkpt>
      <trkpt lat="44.50804" lon="1.64438">
        <ele>285</ele>
        <time>2019-08-09T07:20:37.780Z</time>
      </trkpt>
      <trkpt lat="44.50806" lon="1.64446">
        <ele>285</ele>
        <time>2019-08-09T07:22:00.755Z</time>
      </trkpt>
      <trkpt lat="44.50807" lon="1.6445">
        <ele>285</ele>
        <time>2019-08-09T07:22:04.780Z</time>
      </trkpt>
      <trkpt lat="44.50812" lon="1.64461">
        <ele>281</ele>
        <time>2019-08-09T07:22:09.794Z</time>
      </trkpt>
      <trkpt lat="44.50817" lon="1.64467">
        <ele>281</ele>
        <time>2019-08-09T07:22:14.789Z</time>
      </trkpt>
      <trkpt lat="44.50824" lon="1.64474">
        <ele>283</ele>
        <time>2019-08-09T07:22:19.786Z</time>
      </trkpt>
      <trkpt lat="44.5083" lon="1.64481">
        <ele>283</ele>
        <time>2019-08-09T07:22:24.782Z</time>
      </trkpt>
      <trkpt lat="44.50835" lon="1.64487">
        <ele>279</ele>
        <time>2019-08-09T07:22:29.780Z</time>
      </trkpt>
      <trkpt lat="44.50842" lon="1.64492">
        <ele>279</ele>
        <time>2019-08-09T07:22:34.785Z</time>
      </trkpt>
      <trkpt lat="44.50848" lon="1.64501">
        <ele>281</ele>
        <time>2019-08-09T07:22:39.763Z</time>
      </trkpt>
      <trkpt lat="44.50853" lon="1.64506">
        <ele>281</ele>
        <time>2019-08-09T07:22:43.786Z</time>
      </trkpt>
      <trkpt lat="44.50862" lon="1.64511">
        <ele>281</ele>
        <time>2019-08-09T07:22:48.787Z</time>
      </trkpt>
      <trkpt lat="44.50868" lon="1.64515">
        <ele>276</ele>
        <time>2019-08-09T07:22:53.770Z</time>
      </trkpt>
      <trkpt lat="44.50875" lon="1.6452">
        <ele>276</ele>
        <time>2019-08-09T07:22:58.776Z</time>
      </trkpt>
      <trkpt lat="44.50881" lon="1.64527">
        <ele>277</ele>
        <time>2019-08-09T07:23:03.785Z</time>
      </trkpt>
      <trkpt lat="44.50886" lon="1.64532">
        <ele>277</ele>
        <time>2019-08-09T07:23:07.796Z</time>
      </trkpt>
      <trkpt lat="44.50893" lon="1.64539">
        <ele>277</ele>
        <time>2019-08-09T07:23:12.790Z</time>
      </trkpt>
      <trkpt lat="44.50899" lon="1.64542">
        <ele>270</ele>
        <time>2019-08-09T07:23:17.783Z</time>
      </trkpt>
      <trkpt lat="44.50905" lon="1.64543">
        <ele>268</ele>
        <time>2019-08-09T07:23:22.780Z</time>
      </trkpt>
      <trkpt lat="44.50912" lon="1.64545">
        <ele>268</ele>
        <time>2019-08-09T07:23:26.808Z</time>
      </trkpt>
      <trkpt lat="44.5092" lon="1.64547">
        <ele>268</ele>
        <time>2019-08-09T07:23:31.833Z</time>
      </trkpt>
      <trkpt lat="44.50926" lon="1.64548">
        <ele>268</ele>
        <time>2019-08-09T07:23:36.807Z</time>
      </trkpt>
      <trkpt lat="44.50932" lon="1.64549">
        <ele>267</ele>
        <time>2019-08-09T07:23:41.788Z</time>
      </trkpt>
      <trkpt lat="44.50938" lon="1.64549">
        <ele>267</ele>
        <time>2019-08-09T07:23:46.799Z</time>
      </trkpt>
      <trkpt lat="44.50945" lon="1.64548">
        <ele>267</ele>
        <time>2019-08-09T07:23:50.762Z</time>
      </trkpt>
      <trkpt lat="44.50951" lon="1.64547">
        <ele>267</ele>
        <time>2019-08-09T07:23:54.797Z</time>
      </trkpt>
      <trkpt lat="44.50958" lon="1.64544">
        <ele>267</ele>
        <time>2019-08-09T07:23:58.803Z</time>
      </trkpt>
      <trkpt lat="44.50965" lon="1.64542">
        <ele>263</ele>
        <time>2019-08-09T07:24:03.802Z</time>
      </trkpt>
      <trkpt lat="44.50971" lon="1.6454">
        <ele>267</ele>
        <time>2019-08-09T07:24:08.806Z</time>
      </trkpt>
      <trkpt lat="44.50978" lon="1.64536">
        <ele>267</ele>
        <time>2019-08-09T07:24:13.798Z</time>
      </trkpt>
      <trkpt lat="44.50985" lon="1.64533">
        <ele>267</ele>
        <time>2019-08-09T07:24:18.784Z</time>
      </trkpt>
      <trkpt lat="44.50992" lon="1.64528">
        <ele>261</ele>
        <time>2019-08-09T07:24:23.791Z</time>
      </trkpt>
      <trkpt lat="44.50999" lon="1.64522">
        <ele>261</ele>
        <time>2019-08-09T07:24:28.777Z</time>
      </trkpt>
      <trkpt lat="44.51004" lon="1.64515">
        <ele>261</ele>
        <time>2019-08-09T07:24:32.812Z</time>
      </trkpt>
      <trkpt lat="44.51017" lon="1.645">
        <ele>257</ele>
        <time>2019-08-09T07:25:01.782Z</time>
      </trkpt>
      <trkpt lat="44.51018" lon="1.64497">
        <ele>257</ele>
        <time>2019-08-09T07:25:06.782Z</time>
      </trkpt>
      <trkpt lat="44.51022" lon="1.64485">
        <ele>259</ele>
        <time>2019-08-09T07:25:11.777Z</time>
      </trkpt>
      <trkpt lat="44.51026" lon="1.64475">
        <ele>259</ele>
        <time>2019-08-09T07:25:16.782Z</time>
      </trkpt>
      <trkpt lat="44.5103" lon="1.64469">
        <ele>259</ele>
        <time>2019-08-09T07:25:21.786Z</time>
      </trkpt>
      <trkpt lat="44.51032" lon="1.64473">
        <ele>259</ele>
        <time>2019-08-09T07:25:26.786Z</time>
      </trkpt>
      <trkpt lat="44.51032" lon="1.64471">
        <ele>259</ele>
        <time>2019-08-09T07:25:31.777Z</time>
      </trkpt>
      <trkpt lat="44.51034" lon="1.64466">
        <ele>259</ele>
        <time>2019-08-09T07:25:36.778Z</time>
      </trkpt>
      <trkpt lat="44.51036" lon="1.64463">
        <ele>259</ele>
        <time>2019-08-09T07:25:41.788Z</time>
      </trkpt>
      <trkpt lat="44.51039" lon="1.64454">
        <ele>258</ele>
        <time>2019-08-09T07:25:46.783Z</time>
      </trkpt>
      <trkpt lat="44.51041" lon="1.64449">
        <ele>258</ele>
        <time>2019-08-09T07:25:51.788Z</time>
      </trkpt>
      <trkpt lat="44.51043" lon="1.64441">
        <ele>251</ele>
        <time>2019-08-09T07:25:56.783Z</time>
      </trkpt>
      <trkpt lat="44.51046" lon="1.64431">
        <ele>251</ele>
        <time>2019-08-09T07:26:01.784Z</time>
      </trkpt>
      <trkpt lat="44.51048" lon="1.64425">
        <ele>252</ele>
        <time>2019-08-09T07:26:06.788Z</time>
      </trkpt>
      <trkpt lat="44.5105" lon="1.64413">
        <ele>252</ele>
        <time>2019-08-09T07:26:11.791Z</time>
      </trkpt>
      <trkpt lat="44.51051" lon="1.64405">
        <ele>252</ele>
        <time>2019-08-09T07:26:16.783Z</time>
      </trkpt>
      <trkpt lat="44.51052" lon="1.64398">
        <ele>252</ele>
        <time>2019-08-09T07:26:21.786Z</time>
      </trkpt>
      <trkpt lat="44.51053" lon="1.64388">
        <ele>252</ele>
        <time>2019-08-09T07:26:26.788Z</time>
      </trkpt>
      <trkpt lat="44.51053" lon="1.64378">
        <ele>252</ele>
        <time>2019-08-09T07:26:31.784Z</time>
      </trkpt>
      <trkpt lat="44.51054" lon="1.64371">
        <ele>253</ele>
        <time>2019-08-09T07:26:36.796Z</time>
      </trkpt>
      <trkpt lat="44.51056" lon="1.64363">
        <ele>253</ele>
        <time>2019-08-09T07:26:41.787Z</time>
      </trkpt>
      <trkpt lat="44.51058" lon="1.64355">
        <ele>253</ele>
        <time>2019-08-09T07:26:46.782Z</time>
      </trkpt>
      <trkpt lat="44.51057" lon="1.64342">
        <ele>251</ele>
        <time>2019-08-09T07:26:51.792Z</time>
      </trkpt>
      <trkpt lat="44.51056" lon="1.64333">
        <ele>251</ele>
        <time>2019-08-09T07:26:56.791Z</time>
      </trkpt>
      <trkpt lat="44.51056" lon="1.64325">
        <ele>251</ele>
        <time>2019-08-09T07:27:01.785Z</time>
      </trkpt>
      <trkpt lat="44.51055" lon="1.64313">
        <ele>249</ele>
        <time>2019-08-09T07:27:06.777Z</time>
      </trkpt>
      <trkpt lat="44.51054" lon="1.64306">
        <ele>249</ele>
        <time>2019-08-09T07:27:11.788Z</time>
      </trkpt>
      <trkpt lat="44.51055" lon="1.64306">
        <ele>249</ele>
        <time>2019-08-09T07:27:16.773Z</time>
      </trkpt>
      <trkpt lat="44.51055" lon="1.64295">
        <ele>249</ele>
        <time>2019-08-09T07:27:21.786Z</time>
      </trkpt>
      <trkpt lat="44.51056" lon="1.64285">
        <ele>248</ele>
        <time>2019-08-09T07:27:26.781Z</time>
      </trkpt>
      <trkpt lat="44.51056" lon="1.64276">
        <ele>248</ele>
        <time>2019-08-09T07:27:31.786Z</time>
      </trkpt>
      <trkpt lat="44.51058" lon="1.64267">
        <ele>248</ele>
        <time>2019-08-09T07:27:36.778Z</time>
      </trkpt>
      <trkpt lat="44.51058" lon="1.64257">
        <ele>247</ele>
        <time>2019-08-09T07:27:41.784Z</time>
      </trkpt>
      <trkpt lat="44.51059" lon="1.64246">
        <ele>247</ele>
        <time>2019-08-09T07:27:46.778Z</time>
      </trkpt>
      <trkpt lat="44.51059" lon="1.64236">
        <ele>247</ele>
        <time>2019-08-09T07:27:51.780Z</time>
      </trkpt>
      <trkpt lat="44.5106" lon="1.64227">
        <ele>245</ele>
        <time>2019-08-09T07:27:56.788Z</time>
      </trkpt>
      <trkpt lat="44.51061" lon="1.64218">
        <ele>245</ele>
        <time>2019-08-09T07:28:00.774Z</time>
      </trkpt>
      <trkpt lat="44.51061" lon="1.64207">
        <ele>246</ele>
        <time>2019-08-09T07:28:05.777Z</time>
      </trkpt>
      <trkpt lat="44.51062" lon="1.64199">
        <ele>246</ele>
        <time>2019-08-09T07:28:10.786Z</time>
      </trkpt>
      <trkpt lat="44.51063" lon="1.64192">
        <ele>246</ele>
        <time>2019-08-09T07:28:15.774Z</time>
      </trkpt>
      <trkpt lat="44.51063" lon="1.64185">
        <ele>246</ele>
        <time>2019-08-09T07:28:20.775Z</time>
      </trkpt>
      <trkpt lat="44.51063" lon="1.64179">
        <ele>246</ele>
        <time>2019-08-09T07:28:24.804Z</time>
      </trkpt>
      <trkpt lat="44.51067" lon="1.64169">
        <ele>246</ele>
        <time>2019-08-09T07:28:29.776Z</time>
      </trkpt>
      <trkpt lat="44.5107" lon="1.6416">
        <ele>238</ele>
        <time>2019-08-09T07:28:34.783Z</time>
      </trkpt>
      <trkpt lat="44.51074" lon="1.6415">
        <ele>240</ele>
        <time>2019-08-09T07:28:38.794Z</time>
      </trkpt>
      <trkpt lat="44.5108" lon="1.6414">
        <ele>240</ele>
        <time>2019-08-09T07:28:43.796Z</time>
      </trkpt>
      <trkpt lat="44.51088" lon="1.64138">
        <ele>240</ele>
        <time>2019-08-09T07:28:48.772Z</time>
      </trkpt>
      <trkpt lat="44.51094" lon="1.64138">
        <ele>240</ele>
        <time>2019-08-09T07:28:52.786Z</time>
      </trkpt>
      <trkpt lat="44.51104" lon="1.64138">
        <ele>239</ele>
        <time>2019-08-09T07:28:57.776Z</time>
      </trkpt>
      <trkpt lat="44.51112" lon="1.6414">
        <ele>239</ele>
        <time>2019-08-09T07:29:02.784Z</time>
      </trkpt>
      <trkpt lat="44.5112" lon="1.64144">
        <ele>239</ele>
        <time>2019-08-09T07:29:07.777Z</time>
      </trkpt>
      <trkpt lat="44.51128" lon="1.6415">
        <ele>243</ele>
        <time>2019-08-09T07:29:12.790Z</time>
      </trkpt>
      <trkpt lat="44.51133" lon="1.64158">
        <ele>242</ele>
        <time>2019-08-09T07:29:17.784Z</time>
      </trkpt>
      <trkpt lat="44.51135" lon="1.6417">
        <ele>242</ele>
        <time>2019-08-09T07:29:22.780Z</time>
      </trkpt>
      <trkpt lat="44.51132" lon="1.64189">
        <ele>240</ele>
        <time>2019-08-09T07:29:57.778Z</time>
      </trkpt>
      <trkpt lat="44.51132" lon="1.64189">
        <ele>240</ele>
        <time>2019-08-09T07:30:02.779Z</time>
      </trkpt>
      <trkpt lat="44.51132" lon="1.64189">
        <ele>240</ele>
        <time>2019-08-09T07:30:07.762Z</time>
      </trkpt>
      <trkpt lat="44.51131" lon="1.64191">
        <ele>240</ele>
        <time>2019-08-09T07:30:12.763Z</time>
      </trkpt>
      <trkpt lat="44.51131" lon="1.64193">
        <ele>240</ele>
        <time>2019-08-09T07:30:16.779Z</time>
      </trkpt>
      <trkpt lat="44.51132" lon="1.64203">
        <ele>240</ele>
        <time>2019-08-09T07:30:20.788Z</time>
      </trkpt>
      <trkpt lat="44.51134" lon="1.64215">
        <ele>237</ele>
        <time>2019-08-09T07:30:25.786Z</time>
      </trkpt>
      <trkpt lat="44.51137" lon="1.64227">
        <ele>237</ele>
        <time>2019-08-09T07:30:30.773Z</time>
      </trkpt>
      <trkpt lat="44.51139" lon="1.64235">
        <ele>237</ele>
        <time>2019-08-09T07:30:34.785Z</time>
      </trkpt>
      <trkpt lat="44.51143" lon="1.64246">
        <ele>234</ele>
        <time>2019-08-09T07:30:39.780Z</time>
      </trkpt>
      <trkpt lat="44.51145" lon="1.64257">
        <ele>234</ele>
        <time>2019-08-09T07:30:44.781Z</time>
      </trkpt>
      <trkpt lat="44.51149" lon="1.64268">
        <ele>232</ele>
        <time>2019-08-09T07:30:49.786Z</time>
      </trkpt>
      <trkpt lat="44.51152" lon="1.64278">
        <ele>232</ele>
        <time>2019-08-09T07:30:54.775Z</time>
      </trkpt>
      <trkpt lat="44.51155" lon="1.64287">
        <ele>235</ele>
        <time>2019-08-09T07:30:59.792Z</time>
      </trkpt>
      <trkpt lat="44.51157" lon="1.64291">
        <ele>235</ele>
        <time>2019-08-09T07:31:04.780Z</time>
      </trkpt>
      <trkpt lat="44.51161" lon="1.64302">
        <ele>232</ele>
        <time>2019-08-09T07:31:09.789Z</time>
      </trkpt>
      <trkpt lat="44.51166" lon="1.64311">
        <ele>232</ele>
        <time>2019-08-09T07:31:14.782Z</time>
      </trkpt>
      <trkpt lat="44.51172" lon="1.64321">
        <ele>228</ele>
        <time>2019-08-09T07:31:19.798Z</time>
      </trkpt>
      <trkpt lat="44.51177" lon="1.6433">
        <ele>228</ele>
        <time>2019-08-09T07:31:24.785Z</time>
      </trkpt>
      <trkpt lat="44.5118" lon="1.64339">
        <ele>228</ele>
        <time>2019-08-09T07:31:29.779Z</time>
      </trkpt>
      <trkpt lat="44.51182" lon="1.6435">
        <ele>226</ele>
        <time>2019-08-09T07:31:33.803Z</time>
      </trkpt>
      <trkpt lat="44.51186" lon="1.64359">
        <ele>226</ele>
        <time>2019-08-09T07:31:38.770Z</time>
      </trkpt>
      <trkpt lat="44.51189" lon="1.64366">
        <ele>226</ele>
        <time>2019-08-09T07:31:42.779Z</time>
      </trkpt>
      <trkpt lat="44.51195" lon="1.64373">
        <ele>226</ele>
        <time>2019-08-09T07:31:47.784Z</time>
      </trkpt>
      <trkpt lat="44.512" lon="1.64383">
        <ele>222</ele>
        <time>2019-08-09T07:31:52.770Z</time>
      </trkpt>
      <trkpt lat="44.51204" lon="1.64392">
        <ele>222</ele>
        <time>2019-08-09T07:31:56.808Z</time>
      </trkpt>
      <trkpt lat="44.51207" lon="1.64403">
        <ele>219</ele>
        <time>2019-08-09T07:32:01.786Z</time>
      </trkpt>
      <trkpt lat="44.51211" lon="1.64409">
        <ele>222</ele>
        <time>2019-08-09T07:32:06.786Z</time>
      </trkpt>
      <trkpt lat="44.51215" lon="1.64417">
        <ele>222</ele>
        <time>2019-08-09T07:32:11.786Z</time>
      </trkpt>
      <trkpt lat="44.51219" lon="1.64428">
        <ele>222</ele>
        <time>2019-08-09T07:32:16.783Z</time>
      </trkpt>
      <trkpt lat="44.51224" lon="1.64436">
        <ele>218</ele>
        <time>2019-08-09T07:32:21.792Z</time>
      </trkpt>
      <trkpt lat="44.51228" lon="1.64445">
        <ele>218</ele>
        <time>2019-08-09T07:32:26.792Z</time>
      </trkpt>
      <trkpt lat="44.51233" lon="1.64457">
        <ele>218</ele>
        <time>2019-08-09T07:32:31.786Z</time>
      </trkpt>
      <trkpt lat="44.51235" lon="1.64469">
        <ele>214</ele>
        <time>2019-08-09T07:32:36.788Z</time>
      </trkpt>
      <trkpt lat="44.51238" lon="1.64482">
        <ele>220</ele>
        <time>2019-08-09T07:32:41.799Z</time>
      </trkpt>
      <trkpt lat="44.51241" lon="1.64497">
        <ele>216</ele>
        <time>2019-08-09T07:32:46.777Z</time>
      </trkpt>
      <trkpt lat="44.51245" lon="1.64508">
        <ele>216</ele>
        <time>2019-08-09T07:32:51.786Z</time>
      </trkpt>
      <trkpt lat="44.51247" lon="1.64519">
        <ele>211</ele>
        <time>2019-08-09T07:32:56.774Z</time>
      </trkpt>
      <trkpt lat="44.51251" lon="1.6453">
        <ele>211</ele>
        <time>2019-08-09T07:33:01.780Z</time>
      </trkpt>
      <trkpt lat="44.51255" lon="1.64542">
        <ele>208</ele>
        <time>2019-08-09T07:33:06.785Z</time>
      </trkpt>
      <trkpt lat="44.51258" lon="1.64553">
        <ele>208</ele>
        <time>2019-08-09T07:33:11.778Z</time>
      </trkpt>
      <trkpt lat="44.51262" lon="1.64563">
        <ele>208</ele>
        <time>2019-08-09T07:33:16.792Z</time>
      </trkpt>
      <trkpt lat="44.51266" lon="1.64573">
        <ele>210</ele>
        <time>2019-08-09T07:33:21.801Z</time>
      </trkpt>
      <trkpt lat="44.51269" lon="1.64584">
        <ele>210</ele>
        <time>2019-08-09T07:33:26.782Z</time>
      </trkpt>
      <trkpt lat="44.51273" lon="1.64594">
        <ele>210</ele>
        <time>2019-08-09T07:33:31.774Z</time>
      </trkpt>
      <trkpt lat="44.51277" lon="1.64604">
        <ele>205</ele>
        <time>2019-08-09T07:33:36.794Z</time>
      </trkpt>
      <trkpt lat="44.51282" lon="1.64613">
        <ele>205</ele>
        <time>2019-08-09T07:33:41.792Z</time>
      </trkpt>
      <trkpt lat="44.51287" lon="1.64621">
        <ele>205</ele>
        <time>2019-08-09T07:33:46.786Z</time>
      </trkpt>
      <trkpt lat="44.5129" lon="1.64625">
        <ele>205</ele>
        <time>2019-08-09T07:33:51.779Z</time>
      </trkpt>
      <trkpt lat="44.51287" lon="1.64625">
        <ele>205</ele>
        <time>2019-08-09T07:34:15.788Z</time>
      </trkpt>
      <trkpt lat="44.51288" lon="1.64628">
        <ele>199</ele>
        <time>2019-08-09T07:34:20.807Z</time>
      </trkpt>
      <trkpt lat="44.51291" lon="1.64634">
        <ele>199</ele>
        <time>2019-08-09T07:34:25.772Z</time>
      </trkpt>
      <trkpt lat="44.51293" lon="1.64636">
        <ele>204</ele>
        <time>2019-08-09T07:34:30.794Z</time>
      </trkpt>
      <trkpt lat="44.51293" lon="1.64636">
        <ele>204</ele>
        <time>2019-08-09T07:34:35.784Z</time>
      </trkpt>
      <trkpt lat="44.51293" lon="1.64636">
        <ele>204</ele>
        <time>2019-08-09T07:34:40.783Z</time>
      </trkpt>
      <trkpt lat="44.51296" lon="1.64639">
        <ele>204</ele>
        <time>2019-08-09T07:34:45.785Z</time>
      </trkpt>
      <trkpt lat="44.51301" lon="1.64647">
        <ele>204</ele>
        <time>2019-08-09T07:34:50.783Z</time>
      </trkpt>
      <trkpt lat="44.51307" lon="1.64653">
        <ele>196</ele>
        <time>2019-08-09T07:34:55.779Z</time>
      </trkpt>
      <trkpt lat="44.51315" lon="1.64659">
        <ele>196</ele>
        <time>2019-08-09T07:35:00.770Z</time>
      </trkpt>
      <trkpt lat="44.51321" lon="1.64665">
        <ele>195</ele>
        <time>2019-08-09T07:35:04.820Z</time>
      </trkpt>
      <trkpt lat="44.51329" lon="1.64668">
        <ele>195</ele>
        <time>2019-08-09T07:35:09.798Z</time>
      </trkpt>
      <trkpt lat="44.51337" lon="1.64667">
        <ele>195</ele>
        <time>2019-08-09T07:35:14.791Z</time>
      </trkpt>
      <trkpt lat="44.51345" lon="1.64665">
        <ele>195</ele>
        <time>2019-08-09T07:35:19.784Z</time>
      </trkpt>
      <trkpt lat="44.51352" lon="1.64662">
        <ele>192</ele>
        <time>2019-08-09T07:35:24.788Z</time>
      </trkpt>
      <trkpt lat="44.51359" lon="1.6466">
        <ele>192</ele>
        <time>2019-08-09T07:35:29.790Z</time>
      </trkpt>
      <trkpt lat="44.51366" lon="1.64655">
        <ele>192</ele>
        <time>2019-08-09T07:35:34.790Z</time>
      </trkpt>
      <trkpt lat="44.51372" lon="1.64651">
        <ele>201</ele>
        <time>2019-08-09T07:35:39.779Z</time>
      </trkpt>
      <trkpt lat="44.51381" lon="1.64651">
        <ele>198</ele>
        <time>2019-08-09T07:35:44.789Z</time>
      </trkpt>
      <trkpt lat="44.51389" lon="1.64651">
        <ele>198</ele>
        <time>2019-08-09T07:35:49.788Z</time>
      </trkpt>
      <trkpt lat="44.51398" lon="1.64652">
        <ele>198</ele>
        <time>2019-08-09T07:35:54.789Z</time>
      </trkpt>
      <trkpt lat="44.51407" lon="1.64652">
        <ele>192</ele>
        <time>2019-08-09T07:35:59.780Z</time>
      </trkpt>
      <trkpt lat="44.51416" lon="1.64652">
        <ele>192</ele>
        <time>2019-08-09T07:36:04.786Z</time>
      </trkpt>
      <trkpt lat="44.51425" lon="1.64652">
        <ele>192</ele>
        <time>2019-08-09T07:36:09.785Z</time>
      </trkpt>
      <trkpt lat="44.51432" lon="1.64652">
        <ele>189</ele>
        <time>2019-08-09T07:36:14.763Z</time>
      </trkpt>
      <trkpt lat="44.5144" lon="1.64649">
        <ele>189</ele>
        <time>2019-08-09T07:36:19.762Z</time>
      </trkpt>
      <trkpt lat="44.51449" lon="1.64646">
        <ele>189</ele>
        <time>2019-08-09T07:36:24.761Z</time>
      </trkpt>
      <trkpt lat="44.51452" lon="1.64641">
        <ele>189</ele>
        <time>2019-08-09T07:36:29.760Z</time>
      </trkpt>
      <trkpt lat="44.51453" lon="1.64642">
        <ele>189</ele>
        <time>2019-08-09T07:36:34.757Z</time>
      </trkpt>
      <trkpt lat="44.51457" lon="1.64644">
        <ele>189</ele>
        <time>2019-08-09T07:36:54.760Z</time>
      </trkpt>
      <trkpt lat="44.51458" lon="1.64643">
        <ele>189</ele>
        <time>2019-08-09T07:36:59.763Z</time>
      </trkpt>
      <trkpt lat="44.51461" lon="1.64649">
        <ele>184</ele>
        <time>2019-08-09T07:37:04.763Z</time>
      </trkpt>
      <trkpt lat="44.51457" lon="1.64659">
        <ele>181</ele>
        <time>2019-08-09T07:37:09.763Z</time>
      </trkpt>
      <trkpt lat="44.51451" lon="1.64664">
        <ele>181</ele>
        <time>2019-08-09T07:37:14.764Z</time>
      </trkpt>
      <trkpt lat="44.5145" lon="1.6466">
        <ele>181</ele>
        <time>2019-08-09T07:37:24.766Z</time>
      </trkpt>
      <trkpt lat="44.5145" lon="1.6466">
        <ele>181</ele>
        <time>2019-08-09T07:37:29.763Z</time>
      </trkpt>
      <trkpt lat="44.51449" lon="1.6466">
        <ele>181</ele>
        <time>2019-08-09T07:37:34.762Z</time>
      </trkpt>
      <trkpt lat="44.51443" lon="1.64659">
        <ele>181</ele>
        <time>2019-08-09T07:37:39.762Z</time>
      </trkpt>
      <trkpt lat="44.51435" lon="1.6466">
        <ele>181</ele>
        <time>2019-08-09T07:37:44.756Z</time>
      </trkpt>
      <trkpt lat="44.51427" lon="1.64663">
        <ele>183</ele>
        <time>2019-08-09T07:37:48.775Z</time>
      </trkpt>
      <trkpt lat="44.51418" lon="1.64666">
        <ele>183</ele>
        <time>2019-08-09T07:37:53.763Z</time>
      </trkpt>
      <trkpt lat="44.5141" lon="1.6467">
        <ele>183</ele>
        <time>2019-08-09T07:37:58.765Z</time>
      </trkpt>
      <trkpt lat="44.51403" lon="1.64673">
        <ele>183</ele>
        <time>2019-08-09T07:38:03.762Z</time>
      </trkpt>
      <trkpt lat="44.51396" lon="1.64675">
        <ele>187</ele>
        <time>2019-08-09T07:38:08.764Z</time>
      </trkpt>
      <trkpt lat="44.51391" lon="1.64681">
        <ele>176</ele>
        <time>2019-08-09T07:38:13.762Z</time>
      </trkpt>
      <trkpt lat="44.51384" lon="1.64684">
        <ele>176</ele>
        <time>2019-08-09T07:38:18.760Z</time>
      </trkpt>
      <trkpt lat="44.51378" lon="1.64691">
        <ele>176</ele>
        <time>2019-08-09T07:38:23.767Z</time>
      </trkpt>
      <trkpt lat="44.51373" lon="1.64697">
        <ele>181</ele>
        <time>2019-08-09T07:38:28.763Z</time>
      </trkpt>
      <trkpt lat="44.51369" lon="1.64703">
        <ele>181</ele>
        <time>2019-08-09T07:38:33.759Z</time>
      </trkpt>
      <trkpt lat="44.51363" lon="1.64709">
        <ele>171</ele>
        <time>2019-08-09T07:38:38.763Z</time>
      </trkpt>
      <trkpt lat="44.51358" lon="1.64712">
        <ele>171</ele>
        <time>2019-08-09T07:38:42.777Z</time>
      </trkpt>
      <trkpt lat="44.51351" lon="1.64717">
        <ele>171</ele>
        <time>2019-08-09T07:38:47.756Z</time>
      </trkpt>
      <trkpt lat="44.51345" lon="1.64721">
        <ele>177</ele>
        <time>2019-08-09T07:38:51.771Z</time>
      </trkpt>
      <trkpt lat="44.51338" lon="1.64726">
        <ele>177</ele>
        <time>2019-08-09T07:38:56.764Z</time>
      </trkpt>
      <trkpt lat="44.5133" lon="1.64732">
        <ele>177</ele>
        <time>2019-08-09T07:39:01.766Z</time>
      </trkpt>
      <trkpt lat="44.51325" lon="1.64736">
        <ele>168</ele>
        <time>2019-08-09T07:39:05.762Z</time>
      </trkpt>
      <trkpt lat="44.51318" lon="1.64739">
        <ele>170</ele>
        <time>2019-08-09T07:39:10.756Z</time>
      </trkpt>
      <trkpt lat="44.51313" lon="1.64741">
        <ele>170</ele>
        <time>2019-08-09T07:39:14.766Z</time>
      </trkpt>
      <trkpt lat="44.51305" lon="1.64744">
        <ele>170</ele>
        <time>2019-08-09T07:39:19.760Z</time>
      </trkpt>
      <trkpt lat="44.51298" lon="1.64744">
        <ele>170</ele>
        <time>2019-08-09T07:39:24.761Z</time>
      </trkpt>
      <trkpt lat="44.5129" lon="1.64744">
        <ele>170</ele>
        <time>2019-08-09T07:39:29.766Z</time>
      </trkpt>
      <trkpt lat="44.51283" lon="1.64744">
        <ele>170</ele>
        <time>2019-08-09T07:39:34.758Z</time>
      </trkpt>
      <trkpt lat="44.51276" lon="1.64742">
        <ele>170</ele>
        <time>2019-08-09T07:39:39.763Z</time>
      </trkpt>
      <trkpt lat="44.51268" lon="1.64741">
        <ele>170</ele>
        <time>2019-08-09T07:39:44.765Z</time>
      </trkpt>
      <trkpt lat="44.51259" lon="1.64742">
        <ele>172</ele>
        <time>2019-08-09T07:39:49.763Z</time>
      </trkpt>
      <trkpt lat="44.51254" lon="1.64741">
        <ele>172</ele>
        <time>2019-08-09T07:39:53.768Z</time>
      </trkpt>
      <trkpt lat="44.51249" lon="1.64743">
        <ele>172</ele>
        <time>2019-08-09T07:39:58.774Z</time>
      </trkpt>
      <trkpt lat="44.51242" lon="1.64748">
        <ele>172</ele>
        <time>2019-08-09T07:40:03.760Z</time>
      </trkpt>
      <trkpt lat="44.51236" lon="1.64753">
        <ele>175</ele>
        <time>2019-08-09T07:40:08.766Z</time>
      </trkpt>
      <trkpt lat="44.51227" lon="1.64759">
        <ele>175</ele>
        <time>2019-08-09T07:40:13.760Z</time>
      </trkpt>
      <trkpt lat="44.51221" lon="1.64764">
        <ele>168</ele>
        <time>2019-08-09T07:40:18.763Z</time>
      </trkpt>
      <trkpt lat="44.51214" lon="1.64767">
        <ele>168</ele>
        <time>2019-08-09T07:40:23.763Z</time>
      </trkpt>
      <trkpt lat="44.51207" lon="1.64772">
        <ele>172</ele>
        <time>2019-08-09T07:40:28.768Z</time>
      </trkpt>
      <trkpt lat="44.512" lon="1.64778">
        <ele>172</ele>
        <time>2019-08-09T07:40:33.761Z</time>
      </trkpt>
      <trkpt lat="44.51194" lon="1.64782">
        <ele>172</ele>
        <time>2019-08-09T07:40:38.751Z</time>
      </trkpt>
      <trkpt lat="44.51188" lon="1.64787">
        <ele>172</ele>
        <time>2019-08-09T07:40:43.762Z</time>
      </trkpt>
      <trkpt lat="44.5118" lon="1.64793">
        <ele>172</ele>
        <time>2019-08-09T07:40:48.762Z</time>
      </trkpt>
      <trkpt lat="44.51172" lon="1.64796">
        <ele>172</ele>
        <time>2019-08-09T07:40:53.765Z</time>
      </trkpt>
      <trkpt lat="44.51166" lon="1.648">
        <ele>172</ele>
        <time>2019-08-09T07:40:58.774Z</time>
      </trkpt>
      <trkpt lat="44.51162" lon="1.64806">
        <ele>172</ele>
        <time>2019-08-09T07:41:03.767Z</time>
      </trkpt>
      <trkpt lat="44.51156" lon="1.6481">
        <ele>172</ele>
        <time>2019-08-09T07:41:08.766Z</time>
      </trkpt>
      <trkpt lat="44.51149" lon="1.64817">
        <ele>177</ele>
        <time>2019-08-09T07:41:13.766Z</time>
      </trkpt>
      <trkpt lat="44.51142" lon="1.64825">
        <ele>171</ele>
        <time>2019-08-09T07:41:18.767Z</time>
      </trkpt>
      <trkpt lat="44.5114" lon="1.64829">
        <ele>171</ele>
        <time>2019-08-09T07:42:03.755Z</time>
      </trkpt>
      <trkpt lat="44.5114" lon="1.64829">
        <ele>171</ele>
        <time>2019-08-09T07:42:08.757Z</time>
      </trkpt>
      <trkpt lat="44.51137" lon="1.64833">
        <ele>171</ele>
        <time>2019-08-09T07:42:12.766Z</time>
      </trkpt>
      <trkpt lat="44.51131" lon="1.64839">
        <ele>171</ele>
        <time>2019-08-09T07:42:17.781Z</time>
      </trkpt>
      <trkpt lat="44.51124" lon="1.64849">
        <ele>169</ele>
        <time>2019-08-09T07:42:22.780Z</time>
      </trkpt>
      <trkpt lat="44.51117" lon="1.64856">
        <ele>169</ele>
        <time>2019-08-09T07:42:27.773Z</time>
      </trkpt>
      <trkpt lat="44.51113" lon="1.64863">
        <ele>169</ele>
        <time>2019-08-09T07:42:31.813Z</time>
      </trkpt>
      <trkpt lat="44.51108" lon="1.64871">
        <ele>169</ele>
        <time>2019-08-09T07:42:36.781Z</time>
      </trkpt>
      <trkpt lat="44.51104" lon="1.64877">
        <ele>163</ele>
        <time>2019-08-09T07:42:40.799Z</time>
      </trkpt>
      <trkpt lat="44.511" lon="1.64884">
        <ele>163</ele>
        <time>2019-08-09T07:42:45.782Z</time>
      </trkpt>
      <trkpt lat="44.51099" lon="1.64892">
        <ele>163</ele>
        <time>2019-08-09T07:42:49.802Z</time>
      </trkpt>
      <trkpt lat="44.5109" lon="1.64896">
        <ele>166</ele>
        <time>2019-08-09T07:42:54.788Z</time>
      </trkpt>
      <trkpt lat="44.51084" lon="1.64899">
        <ele>166</ele>
        <time>2019-08-09T07:42:59.785Z</time>
      </trkpt>
      <trkpt lat="44.51083" lon="1.64904">
        <ele>163</ele>
        <time>2019-08-09T07:43:04.792Z</time>
      </trkpt>
      <trkpt lat="44.51087" lon="1.64905">
        <ele>163</ele>
        <time>2019-08-09T07:43:09.782Z</time>
      </trkpt>
      <trkpt lat="44.51091" lon="1.649">
        <ele>166</ele>
        <time>2019-08-09T07:43:14.796Z</time>
      </trkpt>
      <trkpt lat="44.51092" lon="1.64896">
        <ele>166</ele>
        <time>2019-08-09T07:43:19.785Z</time>
      </trkpt>
      <trkpt lat="44.51093" lon="1.64894">
        <ele>166</ele>
        <time>2019-08-09T07:44:08.759Z</time>
      </trkpt>
      <trkpt lat="44.51091" lon="1.64897">
        <ele>166</ele>
        <time>2019-08-09T07:44:13.756Z</time>
      </trkpt>
      <trkpt lat="44.51087" lon="1.64901">
        <ele>166</ele>
        <time>2019-08-09T07:44:17.769Z</time>
      </trkpt>
      <trkpt lat="44.51079" lon="1.64905">
        <ele>163</ele>
        <time>2019-08-09T07:44:22.765Z</time>
      </trkpt>
      <trkpt lat="44.51076" lon="1.6491">
        <ele>163</ele>
        <time>2019-08-09T07:44:27.759Z</time>
      </trkpt>
      <trkpt lat="44.51075" lon="1.64908">
        <ele>163</ele>
        <time>2019-08-09T07:45:10.741Z</time>
      </trkpt>
      <trkpt lat="44.51074" lon="1.64908">
        <ele>163</ele>
        <time>2019-08-09T07:45:15.756Z</time>
      </trkpt>
      <trkpt lat="44.51074" lon="1.64907">
        <ele>163</ele>
        <time>2019-08-09T07:45:20.748Z</time>
      </trkpt>
      <trkpt lat="44.51069" lon="1.64908">
        <ele>162</ele>
        <time>2019-08-09T07:45:25.750Z</time>
      </trkpt>
      <trkpt lat="44.51064" lon="1.64906">
        <ele>162</ele>
        <time>2019-08-09T07:45:30.752Z</time>
      </trkpt>
      <trkpt lat="44.51055" lon="1.64902">
        <ele>162</ele>
        <time>2019-08-09T07:45:35.756Z</time>
      </trkpt>
      <trkpt lat="44.51044" lon="1.64898">
        <ele>162</ele>
        <time>2019-08-09T07:45:40.763Z</time>
      </trkpt>
      <trkpt lat="44.51035" lon="1.64898">
        <ele>164</ele>
        <time>2019-08-09T07:45:45.761Z</time>
      </trkpt>
      <trkpt lat="44.5103" lon="1.64898">
        <ele>164</ele>
        <time>2019-08-09T07:45:50.747Z</time>
      </trkpt>
      <trkpt lat="44.51023" lon="1.649">
        <ele>164</ele>
        <time>2019-08-09T07:45:55.759Z</time>
      </trkpt>
      <trkpt lat="44.51017" lon="1.64902">
        <ele>164</ele>
        <time>2019-08-09T07:46:00.763Z</time>
      </trkpt>
      <trkpt lat="44.51009" lon="1.64904">
        <ele>163</ele>
        <time>2019-08-09T07:46:05.760Z</time>
      </trkpt>
      <trkpt lat="44.51001" lon="1.64911">
        <ele>163</ele>
        <time>2019-08-09T07:46:10.762Z</time>
      </trkpt>
      <trkpt lat="44.50999" lon="1.64921">
        <ele>163</ele>
        <time>2019-08-09T07:46:15.759Z</time>
      </trkpt>
      <trkpt lat="44.51" lon="1.6493">
        <ele>163</ele>
        <time>2019-08-09T07:46:20.754Z</time>
      </trkpt>
      <trkpt lat="44.51001" lon="1.64939">
        <ele>165</ele>
        <time>2019-08-09T07:46:25.749Z</time>
      </trkpt>
      <trkpt lat="44.51005" lon="1.64949">
        <ele>165</ele>
        <time>2019-08-09T07:46:30.744Z</time>
      </trkpt>
      <trkpt lat="44.51007" lon="1.64956">
        <ele>165</ele>
        <time>2019-08-09T07:46:34.756Z</time>
      </trkpt>
      <trkpt lat="44.51011" lon="1.64964">
        <ele>170</ele>
        <time>2019-08-09T07:46:39.760Z</time>
      </trkpt>
      <trkpt lat="44.51016" lon="1.64971">
        <ele>163</ele>
        <time>2019-08-09T07:46:44.760Z</time>
      </trkpt>
      <trkpt lat="44.51021" lon="1.6498">
        <ele>163</ele>
        <time>2019-08-09T07:46:49.757Z</time>
      </trkpt>
      <trkpt lat="44.51026" lon="1.64988">
        <ele>172</ele>
        <time>2019-08-09T07:46:54.757Z</time>
      </trkpt>
      <trkpt lat="44.51032" lon="1.64997">
        <ele>172</ele>
        <time>2019-08-09T07:46:59.764Z</time>
      </trkpt>
      <trkpt lat="44.51037" lon="1.65004">
        <ele>172</ele>
        <time>2019-08-09T07:47:04.759Z</time>
      </trkpt>
      <trkpt lat="44.51044" lon="1.65009">
        <ele>168</ele>
        <time>2019-08-09T07:47:09.763Z</time>
      </trkpt>
      <trkpt lat="44.5105" lon="1.65013">
        <ele>168</ele>
        <time>2019-08-09T07:47:14.756Z</time>
      </trkpt>
      <trkpt lat="44.51058" lon="1.65014">
        <ele>168</ele>
        <time>2019-08-09T07:47:19.759Z</time>
      </trkpt>
      <trkpt lat="44.51065" lon="1.65014">
        <ele>168</ele>
        <time>2019-08-09T07:47:24.760Z</time>
      </trkpt>
      <trkpt lat="44.51072" lon="1.65013">
        <ele>171</ele>
        <time>2019-08-09T07:47:29.762Z</time>
      </trkpt>
      <trkpt lat="44.51079" lon="1.6501">
        <ele>171</ele>
        <time>2019-08-09T07:47:34.761Z</time>
      </trkpt>
      <trkpt lat="44.51084" lon="1.65006">
        <ele>171</ele>
        <time>2019-08-09T07:47:39.757Z</time>
      </trkpt>
      <trkpt lat="44.51089" lon="1.65004">
        <ele>171</ele>
        <time>2019-08-09T07:47:43.770Z</time>
      </trkpt>
      <trkpt lat="44.51095" lon="1.64999">
        <ele>171</ele>
        <time>2019-08-09T07:47:48.755Z</time>
      </trkpt>
      <trkpt lat="44.51102" lon="1.64997">
        <ele>175</ele>
        <time>2019-08-09T07:47:53.756Z</time>
      </trkpt>
      <trkpt lat="44.5111" lon="1.64993">
        <ele>175</ele>
        <time>2019-08-09T07:47:58.759Z</time>
      </trkpt>
      <trkpt lat="44.51115" lon="1.64989">
        <ele>175</ele>
        <time>2019-08-09T07:48:03.756Z</time>
      </trkpt>
      <trkpt lat="44.51121" lon="1.64985">
        <ele>168</ele>
        <time>2019-08-09T07:48:08.757Z</time>
      </trkpt>
      <trkpt lat="44.51129" lon="1.64981">
        <ele>174</ele>
        <time>2019-08-09T07:48:13.744Z</time>
      </trkpt>
      <trkpt lat="44.51135" lon="1.64976">
        <ele>174</ele>
        <time>2019-08-09T07:48:18.752Z</time>
      </trkpt>
      <trkpt lat="44.51141" lon="1.64969">
        <ele>174</ele>
        <time>2019-08-09T07:48:23.757Z</time>
      </trkpt>
      <trkpt lat="44.51147" lon="1.64961">
        <ele>174</ele>
        <time>2019-08-09T07:48:28.751Z</time>
      </trkpt>
      <trkpt lat="44.51153" lon="1.64955">
        <ele>167</ele>
        <time>2019-08-09T07:48:33.745Z</time>
      </trkpt>
      <trkpt lat="44.51158" lon="1.6495">
        <ele>171</ele>
        <time>2019-08-09T07:48:38.754Z</time>
      </trkpt>
      <trkpt lat="44.51164" lon="1.64945">
        <ele>171</ele>
        <time>2019-08-09T07:48:43.756Z</time>
      </trkpt>
      <trkpt lat="44.51168" lon="1.64938">
        <ele>171</ele>
        <time>2019-08-09T07:48:48.744Z</time>
      </trkpt>
      <trkpt lat="44.51173" lon="1.64934">
        <ele>171</ele>
        <time>2019-08-09T07:48:52.755Z</time>
      </trkpt>
      <trkpt lat="44.51178" lon="1.64933">
        <ele>171</ele>
        <time>2019-08-09T07:48:57.754Z</time>
      </trkpt>
      <trkpt lat="44.51184" lon="1.64928">
        <ele>169</ele>
        <time>2019-08-09T07:49:02.757Z</time>
      </trkpt>
      <trkpt lat="44.51191" lon="1.64923">
        <ele>169</ele>
        <time>2019-08-09T07:49:07.758Z</time>
      </trkpt>
      <trkpt lat="44.51196" lon="1.64916">
        <ele>169</ele>
        <time>2019-08-09T07:49:12.755Z</time>
      </trkpt>
      <trkpt lat="44.51201" lon="1.64908">
        <ele>169</ele>
        <time>2019-08-09T07:49:17.758Z</time>
      </trkpt>
      <trkpt lat="44.51205" lon="1.64901">
        <ele>163</ele>
        <time>2019-08-09T07:49:22.758Z</time>
      </trkpt>
      <trkpt lat="44.51211" lon="1.64893">
        <ele>169</ele>
        <time>2019-08-09T07:49:27.764Z</time>
      </trkpt>
      <trkpt lat="44.51217" lon="1.64888">
        <ele>169</ele>
        <time>2019-08-09T07:49:32.750Z</time>
      </trkpt>
      <trkpt lat="44.51224" lon="1.64885">
        <ele>169</ele>
        <time>2019-08-09T07:49:37.757Z</time>
      </trkpt>
      <trkpt lat="44.51232" lon="1.64882">
        <ele>169</ele>
        <time>2019-08-09T07:49:42.753Z</time>
      </trkpt>
      <trkpt lat="44.51238" lon="1.64882">
        <ele>174</ele>
        <time>2019-08-09T07:49:47.761Z</time>
      </trkpt>
      <trkpt lat="44.51257" lon="1.64878">
        <ele>174</ele>
        <time>2019-08-09T07:50:07.753Z</time>
      </trkpt>
      <trkpt lat="44.51261" lon="1.64877">
        <ele>174</ele>
        <time>2019-08-09T07:50:12.758Z</time>
      </trkpt>
      <trkpt lat="44.51268" lon="1.64877">
        <ele>177</ele>
        <time>2019-08-09T07:50:17.760Z</time>
      </trkpt>
      <trkpt lat="44.51277" lon="1.64881">
        <ele>177</ele>
        <time>2019-08-09T07:50:22.758Z</time>
      </trkpt>
      <trkpt lat="44.51284" lon="1.64882">
        <ele>177</ele>
        <time>2019-08-09T07:50:27.751Z</time>
      </trkpt>
      <trkpt lat="44.5129" lon="1.64885">
        <ele>177</ele>
        <time>2019-08-09T07:50:31.758Z</time>
      </trkpt>
      <trkpt lat="44.51297" lon="1.64889">
        <ele>177</ele>
        <time>2019-08-09T07:50:36.755Z</time>
      </trkpt>
      <trkpt lat="44.51305" lon="1.64893">
        <ele>177</ele>
        <time>2019-08-09T07:50:41.759Z</time>
      </trkpt>
      <trkpt lat="44.51312" lon="1.64894">
        <ele>177</ele>
        <time>2019-08-09T07:50:46.758Z</time>
      </trkpt>
      <trkpt lat="44.51321" lon="1.64898">
        <ele>177</ele>
        <time>2019-08-09T07:50:51.754Z</time>
      </trkpt>
      <trkpt lat="44.51327" lon="1.64897">
        <ele>177</ele>
        <time>2019-08-09T07:50:56.755Z</time>
      </trkpt>
      <trkpt lat="44.51335" lon="1.64897">
        <ele>177</ele>
        <time>2019-08-09T07:51:01.762Z</time>
      </trkpt>
      <trkpt lat="44.51341" lon="1.64897">
        <ele>177</ele>
        <time>2019-08-09T07:51:06.759Z</time>
      </trkpt>
      <trkpt lat="44.51347" lon="1.64899">
        <ele>177</ele>
        <time>2019-08-09T07:51:11.756Z</time>
      </trkpt>
      <trkpt lat="44.51354" lon="1.64903">
        <ele>185</ele>
        <time>2019-08-09T07:51:16.764Z</time>
      </trkpt>
      <trkpt lat="44.51361" lon="1.64907">
        <ele>185</ele>
        <time>2019-08-09T07:51:21.757Z</time>
      </trkpt>
      <trkpt lat="44.51368" lon="1.64913">
        <ele>185</ele>
        <time>2019-08-09T07:51:26.765Z</time>
      </trkpt>
      <trkpt lat="44.51373" lon="1.64921">
        <ele>185</ele>
        <time>2019-08-09T07:51:31.760Z</time>
      </trkpt>
      <trkpt lat="44.51375" lon="1.6493">
        <ele>185</ele>
        <time>2019-08-09T07:51:36.764Z</time>
      </trkpt>
      <trkpt lat="44.51379" lon="1.64938">
        <ele>189</ele>
        <time>2019-08-09T07:51:41.759Z</time>
      </trkpt>
      <trkpt lat="44.51383" lon="1.64946">
        <ele>189</ele>
        <time>2019-08-09T07:51:46.756Z</time>
      </trkpt>
      <trkpt lat="44.51388" lon="1.64955">
        <ele>189</ele>
        <time>2019-08-09T07:51:51.761Z</time>
      </trkpt>
      <trkpt lat="44.51393" lon="1.64963">
        <ele>192</ele>
        <time>2019-08-09T07:51:56.760Z</time>
      </trkpt>
      <trkpt lat="44.51397" lon="1.6497">
        <ele>192</ele>
        <time>2019-08-09T07:52:01.761Z</time>
      </trkpt>
      <trkpt lat="44.51403" lon="1.64977">
        <ele>192</ele>
        <time>2019-08-09T07:52:06.765Z</time>
      </trkpt>
      <trkpt lat="44.51408" lon="1.64985">
        <ele>191</ele>
        <time>2019-08-09T07:52:11.765Z</time>
      </trkpt>
      <trkpt lat="44.51413" lon="1.64993">
        <ele>193</ele>
        <time>2019-08-09T07:52:16.771Z</time>
      </trkpt>
      <trkpt lat="44.51417" lon="1.64998">
        <ele>193</ele>
        <time>2019-08-09T07:52:21.766Z</time>
      </trkpt>
      <trkpt lat="44.51422" lon="1.65005">
        <ele>193</ele>
        <time>2019-08-09T07:52:26.764Z</time>
      </trkpt>
      <trkpt lat="44.51428" lon="1.65013">
        <ele>193</ele>
        <time>2019-08-09T07:52:31.760Z</time>
      </trkpt>
      <trkpt lat="44.51432" lon="1.6502">
        <ele>197</ele>
        <time>2019-08-09T07:52:36.760Z</time>
      </trkpt>
      <trkpt lat="44.51437" lon="1.65027">
        <ele>197</ele>
        <time>2019-08-09T07:52:41.763Z</time>
      </trkpt>
      <trkpt lat="44.51443" lon="1.65035">
        <ele>197</ele>
        <time>2019-08-09T07:52:46.769Z</time>
      </trkpt>
      <trkpt lat="44.51447" lon="1.65044">
        <ele>201</ele>
        <time>2019-08-09T07:52:51.763Z</time>
      </trkpt>
      <trkpt lat="44.51452" lon="1.65052">
        <ele>201</ele>
        <time>2019-08-09T07:52:56.763Z</time>
      </trkpt>
      <trkpt lat="44.51456" lon="1.65058">
        <ele>201</ele>
        <time>2019-08-09T07:53:01.762Z</time>
      </trkpt>
      <trkpt lat="44.51458" lon="1.65059">
        <ele>201</ele>
        <time>2019-08-09T07:53:06.765Z</time>
      </trkpt>
      <trkpt lat="44.51461" lon="1.65062">
        <ele>200</ele>
        <time>2019-08-09T07:53:11.759Z</time>
      </trkpt>
      <trkpt lat="44.51466" lon="1.6507">
        <ele>203</ele>
        <time>2019-08-09T07:53:16.760Z</time>
      </trkpt>
      <trkpt lat="44.51469" lon="1.65076">
        <ele>203</ele>
        <time>2019-08-09T07:53:21.760Z</time>
      </trkpt>
      <trkpt lat="44.51475" lon="1.65084">
        <ele>203</ele>
        <time>2019-08-09T07:53:26.758Z</time>
      </trkpt>
      <trkpt lat="44.5148" lon="1.65093">
        <ele>203</ele>
        <time>2019-08-09T07:53:31.758Z</time>
      </trkpt>
      <trkpt lat="44.51486" lon="1.65101">
        <ele>207</ele>
        <time>2019-08-09T07:53:36.762Z</time>
      </trkpt>
      <trkpt lat="44.51492" lon="1.65109">
        <ele>206</ele>
        <time>2019-08-09T07:53:41.767Z</time>
      </trkpt>
      <trkpt lat="44.51496" lon="1.65117">
        <ele>206</ele>
        <time>2019-08-09T07:53:46.760Z</time>
      </trkpt>
      <trkpt lat="44.51501" lon="1.65125">
        <ele>206</ele>
        <time>2019-08-09T07:53:51.766Z</time>
      </trkpt>
      <trkpt lat="44.51505" lon="1.6513">
        <ele>208</ele>
        <time>2019-08-09T07:53:56.760Z</time>
      </trkpt>
      <trkpt lat="44.51512" lon="1.6514">
        <ele>208</ele>
        <time>2019-08-09T07:54:01.758Z</time>
      </trkpt>
      <trkpt lat="44.51518" lon="1.65149">
        <ele>206</ele>
        <time>2019-08-09T07:54:06.757Z</time>
      </trkpt>
      <trkpt lat="44.51522" lon="1.65158">
        <ele>208</ele>
        <time>2019-08-09T07:54:11.757Z</time>
      </trkpt>
      <trkpt lat="44.51526" lon="1.65166">
        <ele>208</ele>
        <time>2019-08-09T07:54:16.755Z</time>
      </trkpt>
      <trkpt lat="44.5153" lon="1.65174">
        <ele>208</ele>
        <time>2019-08-09T07:54:21.761Z</time>
      </trkpt>
      <trkpt lat="44.51535" lon="1.65183">
        <ele>210</ele>
        <time>2019-08-09T07:54:26.747Z</time>
      </trkpt>
      <trkpt lat="44.5154" lon="1.6519">
        <ele>210</ele>
        <time>2019-08-09T07:54:30.762Z</time>
      </trkpt>
      <trkpt lat="44.51545" lon="1.65198">
        <ele>213</ele>
        <time>2019-08-09T07:54:35.763Z</time>
      </trkpt>
      <trkpt lat="44.51549" lon="1.65205">
        <ele>213</ele>
        <time>2019-08-09T07:54:40.763Z</time>
      </trkpt>
      <trkpt lat="44.51557" lon="1.65212">
        <ele>214</ele>
        <time>2019-08-09T07:54:45.759Z</time>
      </trkpt>
      <trkpt lat="44.51563" lon="1.6522">
        <ele>214</ele>
        <time>2019-08-09T07:54:50.764Z</time>
      </trkpt>
      <trkpt lat="44.51568" lon="1.65226">
        <ele>214</ele>
        <time>2019-08-09T07:54:55.762Z</time>
      </trkpt>
      <trkpt lat="44.51572" lon="1.65232">
        <ele>217</ele>
        <time>2019-08-09T07:55:00.760Z</time>
      </trkpt>
      <trkpt lat="44.51577" lon="1.65239">
        <ele>216</ele>
        <time>2019-08-09T07:55:05.759Z</time>
      </trkpt>
      <trkpt lat="44.51583" lon="1.65246">
        <ele>216</ele>
        <time>2019-08-09T07:55:10.762Z</time>
      </trkpt>
      <trkpt lat="44.51589" lon="1.65253">
        <ele>216</ele>
        <time>2019-08-09T07:55:15.757Z</time>
      </trkpt>
      <trkpt lat="44.51594" lon="1.6526">
        <ele>216</ele>
        <time>2019-08-09T07:55:20.761Z</time>
      </trkpt>
      <trkpt lat="44.51598" lon="1.65269">
        <ele>218</ele>
        <time>2019-08-09T07:55:25.759Z</time>
      </trkpt>
      <trkpt lat="44.51602" lon="1.65277">
        <ele>218</ele>
        <time>2019-08-09T07:55:30.757Z</time>
      </trkpt>
      <trkpt lat="44.51606" lon="1.65287">
        <ele>218</ele>
        <time>2019-08-09T07:55:35.759Z</time>
      </trkpt>
      <trkpt lat="44.5161" lon="1.65297">
        <ele>218</ele>
        <time>2019-08-09T07:55:40.756Z</time>
      </trkpt>
      <trkpt lat="44.51613" lon="1.65304">
        <ele>218</ele>
        <time>2019-08-09T07:55:44.766Z</time>
      </trkpt>
      <trkpt lat="44.51618" lon="1.65314">
        <ele>218</ele>
        <time>2019-08-09T07:55:49.764Z</time>
      </trkpt>
      <trkpt lat="44.51623" lon="1.65322">
        <ele>219</ele>
        <time>2019-08-09T07:55:54.760Z</time>
      </trkpt>
      <trkpt lat="44.51629" lon="1.6533">
        <ele>219</ele>
        <time>2019-08-09T07:55:59.759Z</time>
      </trkpt>
      <trkpt lat="44.51635" lon="1.65338">
        <ele>219</ele>
        <time>2019-08-09T07:56:04.763Z</time>
      </trkpt>
      <trkpt lat="44.51641" lon="1.65345">
        <ele>219</ele>
        <time>2019-08-09T07:56:09.762Z</time>
      </trkpt>
      <trkpt lat="44.51646" lon="1.65352">
        <ele>217</ele>
        <time>2019-08-09T07:56:14.762Z</time>
      </trkpt>
      <trkpt lat="44.51652" lon="1.65359">
        <ele>217</ele>
        <time>2019-08-09T07:56:19.761Z</time>
      </trkpt>
      <trkpt lat="44.51658" lon="1.65366">
        <ele>221</ele>
        <time>2019-08-09T07:56:24.760Z</time>
      </trkpt>
      <trkpt lat="44.51663" lon="1.65373">
        <ele>221</ele>
        <time>2019-08-09T07:56:29.764Z</time>
      </trkpt>
      <trkpt lat="44.51664" lon="1.65383">
        <ele>219</ele>
        <time>2019-08-09T07:56:34.764Z</time>
      </trkpt>
      <trkpt lat="44.51662" lon="1.65393">
        <ele>219</ele>
        <time>2019-08-09T07:56:39.760Z</time>
      </trkpt>
      <trkpt lat="44.5166" lon="1.65399">
        <ele>219</ele>
        <time>2019-08-09T07:56:44.762Z</time>
      </trkpt>
      <trkpt lat="44.5166" lon="1.65399">
        <ele>219</ele>
        <time>2019-08-09T07:56:54.760Z</time>
      </trkpt>
      <trkpt lat="44.5166" lon="1.65399">
        <ele>219</ele>
        <time>2019-08-09T07:56:59.761Z</time>
      </trkpt>
      <trkpt lat="44.5166" lon="1.654">
        <ele>219</ele>
        <time>2019-08-09T07:57:04.763Z</time>
      </trkpt>
      <trkpt lat="44.51659" lon="1.65403">
        <ele>221</ele>
        <time>2019-08-09T07:57:09.759Z</time>
      </trkpt>
      <trkpt lat="44.51656" lon="1.65411">
        <ele>221</ele>
        <time>2019-08-09T07:57:14.759Z</time>
      </trkpt>
      <trkpt lat="44.51647" lon="1.65447">
        <ele>223</ele>
        <time>2019-08-09T07:57:19.764Z</time>
      </trkpt>
      <trkpt lat="44.51632" lon="1.65492">
        <ele>228</ele>
        <time>2019-08-09T07:57:24.763Z</time>
      </trkpt>
      <trkpt lat="44.51608" lon="1.65527">
        <ele>232</ele>
        <time>2019-08-09T07:57:29.766Z</time>
      </trkpt>
      <trkpt lat="44.5158" lon="1.65548">
        <ele>236</ele>
        <time>2019-08-09T07:57:34.761Z</time>
      </trkpt>
      <trkpt lat="44.5158" lon="1.65579">
        <ele>238</ele>
        <time>2019-08-09T07:57:39.765Z</time>
      </trkpt>
      <trkpt lat="44.51578" lon="1.65604">
        <ele>242</ele>
        <time>2019-08-09T07:57:44.760Z</time>
      </trkpt>
      <trkpt lat="44.51561" lon="1.65625">
        <ele>248</ele>
        <time>2019-08-09T07:57:49.763Z</time>
      </trkpt>
      <trkpt lat="44.51553" lon="1.65635">
        <ele>248</ele>
        <time>2019-08-09T07:57:54.762Z</time>
      </trkpt>
      <trkpt lat="44.51549" lon="1.65643">
        <ele>248</ele>
        <time>2019-08-09T07:57:59.754Z</time>
      </trkpt>
      <trkpt lat="44.51548" lon="1.65644">
        <ele>248</ele>
        <time>2019-08-09T07:58:04.765Z</time>
      </trkpt>
      <trkpt lat="44.51541" lon="1.65648">
        <ele>253</ele>
        <time>2019-08-09T07:58:09.768Z</time>
      </trkpt>
      <trkpt lat="44.51534" lon="1.6565">
        <ele>253</ele>
        <time>2019-08-09T07:58:14.759Z</time>
      </trkpt>
      <trkpt lat="44.51528" lon="1.65654">
        <ele>255</ele>
        <time>2019-08-09T07:58:19.763Z</time>
      </trkpt>
      <trkpt lat="44.51522" lon="1.65658">
        <ele>255</ele>
        <time>2019-08-09T07:58:24.763Z</time>
      </trkpt>
      <trkpt lat="44.51515" lon="1.65662">
        <ele>255</ele>
        <time>2019-08-09T07:58:29.761Z</time>
      </trkpt>
      <trkpt lat="44.51509" lon="1.65666">
        <ele>258</ele>
        <time>2019-08-09T07:58:34.761Z</time>
      </trkpt>
      <trkpt lat="44.51502" lon="1.65671">
        <ele>258</ele>
        <time>2019-08-09T07:58:39.762Z</time>
      </trkpt>
      <trkpt lat="44.51495" lon="1.65675">
        <ele>258</ele>
        <time>2019-08-09T07:58:44.765Z</time>
      </trkpt>
      <trkpt lat="44.51488" lon="1.65679">
        <ele>258</ele>
        <time>2019-08-09T07:58:49.767Z</time>
      </trkpt>
      <trkpt lat="44.51483" lon="1.65683">
        <ele>261</ele>
        <time>2019-08-09T07:58:54.763Z</time>
      </trkpt>
      <trkpt lat="44.51476" lon="1.6569">
        <ele>261</ele>
        <time>2019-08-09T07:58:59.762Z</time>
      </trkpt>
      <trkpt lat="44.51468" lon="1.65693">
        <ele>261</ele>
        <time>2019-08-09T07:59:04.767Z</time>
      </trkpt>
      <trkpt lat="44.51461" lon="1.65693">
        <ele>261</ele>
        <time>2019-08-09T07:59:09.765Z</time>
      </trkpt>
      <trkpt lat="44.51454" lon="1.65693">
        <ele>261</ele>
        <time>2019-08-09T07:59:14.762Z</time>
      </trkpt>
      <trkpt lat="44.51453" lon="1.65694">
        <ele>261</ele>
        <time>2019-08-09T07:59:19.763Z</time>
      </trkpt>
      <trkpt lat="44.51449" lon="1.65691">
        <ele>261</ele>
        <time>2019-08-09T07:59:24.763Z</time>
      </trkpt>
      <trkpt lat="44.51443" lon="1.65685">
        <ele>261</ele>
        <time>2019-08-09T07:59:29.758Z</time>
      </trkpt>
      <trkpt lat="44.51438" lon="1.65689">
        <ele>261</ele>
        <time>2019-08-09T07:59:33.765Z</time>
      </trkpt>
      <trkpt lat="44.51436" lon="1.65693">
        <ele>261</ele>
        <time>2019-08-09T07:59:38.761Z</time>
      </trkpt>
      <trkpt lat="44.51437" lon="1.65694">
        <ele>261</ele>
        <time>2019-08-09T07:59:43.745Z</time>
      </trkpt>
      <trkpt lat="44.51441" lon="1.65686">
        <ele>261</ele>
        <time>2019-08-09T07:59:47.753Z</time>
      </trkpt>
      <trkpt lat="44.51447" lon="1.65688">
        <ele>261</ele>
        <time>2019-08-09T07:59:51.762Z</time>
      </trkpt>
      <trkpt lat="44.51455" lon="1.65698">
        <ele>261</ele>
        <time>2019-08-09T07:59:56.765Z</time>
      </trkpt>
      <trkpt lat="44.51471" lon="1.65729">
        <ele>263</ele>
        <time>2019-08-09T08:00:01.754Z</time>
      </trkpt>
      <trkpt lat="44.51482" lon="1.65765">
        <ele>265</ele>
        <time>2019-08-09T08:00:05.761Z</time>
      </trkpt>
      <trkpt lat="44.5149" lon="1.65817">
        <ele>266</ele>
        <time>2019-08-09T08:00:10.766Z</time>
      </trkpt>
      <trkpt lat="44.51495" lon="1.65869">
        <ele>270</ele>
        <time>2019-08-09T08:00:15.746Z</time>
      </trkpt>
      <trkpt lat="44.51497" lon="1.65907">
        <ele>274</ele>
        <time>2019-08-09T08:00:19.760Z</time>
      </trkpt>
      <trkpt lat="44.51493" lon="1.65949">
        <ele>274</ele>
        <time>2019-08-09T08:00:24.766Z</time>
      </trkpt>
      <trkpt lat="44.51492" lon="1.65974">
        <ele>275</ele>
        <time>2019-08-09T08:00:29.747Z</time>
      </trkpt>
      <trkpt lat="44.51494" lon="1.65984">
        <ele>275</ele>
        <time>2019-08-09T08:00:33.754Z</time>
      </trkpt>
      <trkpt lat="44.51494" lon="1.65996">
        <ele>277</ele>
        <time>2019-08-09T08:00:38.755Z</time>
      </trkpt>
      <trkpt lat="44.51492" lon="1.66005">
        <ele>277</ele>
        <time>2019-08-09T08:00:43.753Z</time>
      </trkpt>
      <trkpt lat="44.51491" lon="1.66014">
        <ele>277</ele>
        <time>2019-08-09T08:00:47.755Z</time>
      </trkpt>
      <trkpt lat="44.51491" lon="1.66022">
        <ele>279</ele>
        <time>2019-08-09T08:00:52.762Z</time>
      </trkpt>
      <trkpt lat="44.51491" lon="1.66031">
        <ele>279</ele>
        <time>2019-08-09T08:00:57.756Z</time>
      </trkpt>
      <trkpt lat="44.5149" lon="1.66041">
        <ele>279</ele>
        <time>2019-08-09T08:01:02.760Z</time>
      </trkpt>
      <trkpt lat="44.51489" lon="1.6605">
        <ele>279</ele>
        <time>2019-08-09T08:01:07.775Z</time>
      </trkpt>
      <trkpt lat="44.51489" lon="1.6606">
        <ele>279</ele>
        <time>2019-08-09T08:01:12.766Z</time>
      </trkpt>
      <trkpt lat="44.5149" lon="1.6607">
        <ele>279</ele>
        <time>2019-08-09T08:01:17.762Z</time>
      </trkpt>
      <trkpt lat="44.5149" lon="1.66079">
        <ele>279</ele>
        <time>2019-08-09T08:01:22.772Z</time>
      </trkpt>
      <trkpt lat="44.5149" lon="1.66088">
        <ele>279</ele>
        <time>2019-08-09T08:01:27.760Z</time>
      </trkpt>
      <trkpt lat="44.51491" lon="1.66093">
        <ele>279</ele>
        <time>2019-08-09T08:01:32.768Z</time>
      </trkpt>
      <trkpt lat="44.51497" lon="1.6609">
        <ele>279</ele>
        <time>2019-08-09T08:01:37.757Z</time>
      </trkpt>
      <trkpt lat="44.51504" lon="1.66088">
        <ele>279</ele>
        <time>2019-08-09T08:01:41.764Z</time>
      </trkpt>
      <trkpt lat="44.5151" lon="1.66085">
        <ele>279</ele>
        <time>2019-08-09T08:01:46.768Z</time>
      </trkpt>
      <trkpt lat="44.51516" lon="1.6608">
        <ele>282</ele>
        <time>2019-08-09T08:01:51.756Z</time>
      </trkpt>
      <trkpt lat="44.51521" lon="1.66075">
        <ele>282</ele>
        <time>2019-08-09T08:01:56.764Z</time>
      </trkpt>
      <trkpt lat="44.51529" lon="1.66072">
        <ele>282</ele>
        <time>2019-08-09T08:02:01.755Z</time>
      </trkpt>
      <trkpt lat="44.51534" lon="1.66068">
        <ele>282</ele>
        <time>2019-08-09T08:02:05.757Z</time>
      </trkpt>
      <trkpt lat="44.51541" lon="1.66065">
        <ele>282</ele>
        <time>2019-08-09T08:02:10.765Z</time>
      </trkpt>
      <trkpt lat="44.51547" lon="1.66061">
        <ele>285</ele>
        <time>2019-08-09T08:02:15.753Z</time>
      </trkpt>
      <trkpt lat="44.51552" lon="1.6606">
        <ele>285</ele>
        <time>2019-08-09T08:02:19.767Z</time>
      </trkpt>
      <trkpt lat="44.51557" lon="1.66055">
        <ele>285</ele>
        <time>2019-08-09T08:02:24.771Z</time>
      </trkpt>
      <trkpt lat="44.51565" lon="1.66051">
        <ele>285</ele>
        <time>2019-08-09T08:02:29.756Z</time>
      </trkpt>
      <trkpt lat="44.51572" lon="1.66048">
        <ele>287</ele>
        <time>2019-08-09T08:02:34.771Z</time>
      </trkpt>
      <trkpt lat="44.5158" lon="1.66046">
        <ele>287</ele>
        <time>2019-08-09T08:02:39.759Z</time>
      </trkpt>
      <trkpt lat="44.51586" lon="1.66045">
        <ele>287</ele>
        <time>2019-08-09T08:02:44.768Z</time>
      </trkpt>
      <trkpt lat="44.51593" lon="1.66044">
        <ele>287</ele>
        <time>2019-08-09T08:02:49.754Z</time>
      </trkpt>
      <trkpt lat="44.51601" lon="1.66045">
        <ele>287</ele>
        <time>2019-08-09T08:02:54.767Z</time>
      </trkpt>
      <trkpt lat="44.51608" lon="1.66045">
        <ele>287</ele>
        <time>2019-08-09T08:02:59.757Z</time>
      </trkpt>
      <trkpt lat="44.51614" lon="1.66044">
        <ele>287</ele>
        <time>2019-08-09T08:03:04.759Z</time>
      </trkpt>
      <trkpt lat="44.51621" lon="1.66043">
        <ele>287</ele>
        <time>2019-08-09T08:03:09.755Z</time>
      </trkpt>
      <trkpt lat="44.51629" lon="1.66041">
        <ele>284</ele>
        <time>2019-08-09T08:03:14.763Z</time>
      </trkpt>
      <trkpt lat="44.51638" lon="1.66039">
        <ele>284</ele>
        <time>2019-08-09T08:03:19.768Z</time>
      </trkpt>
      <trkpt lat="44.51647" lon="1.66039">
        <ele>284</ele>
        <time>2019-08-09T08:03:24.766Z</time>
      </trkpt>
      <trkpt lat="44.51654" lon="1.66038">
        <ele>286</ele>
        <time>2019-08-09T08:03:29.755Z</time>
      </trkpt>
      <trkpt lat="44.51662" lon="1.6604">
        <ele>286</ele>
        <time>2019-08-09T08:03:34.769Z</time>
      </trkpt>
      <trkpt lat="44.51669" lon="1.66039">
        <ele>286</ele>
        <time>2019-08-09T08:03:39.759Z</time>
      </trkpt>
      <trkpt lat="44.51676" lon="1.66038">
        <ele>286</ele>
        <time>2019-08-09T08:03:44.764Z</time>
      </trkpt>
      <trkpt lat="44.51684" lon="1.66038">
        <ele>287</ele>
        <time>2019-08-09T08:03:49.767Z</time>
      </trkpt>
      <trkpt lat="44.51692" lon="1.66038">
        <ele>287</ele>
        <time>2019-08-09T08:03:54.765Z</time>
      </trkpt>
      <trkpt lat="44.51701" lon="1.66038">
        <ele>287</ele>
        <time>2019-08-09T08:03:59.762Z</time>
      </trkpt>
      <trkpt lat="44.5171" lon="1.66039">
        <ele>288</ele>
        <time>2019-08-09T08:04:04.767Z</time>
      </trkpt>
      <trkpt lat="44.51716" lon="1.66039">
        <ele>288</ele>
        <time>2019-08-09T08:04:09.759Z</time>
      </trkpt>
      <trkpt lat="44.51723" lon="1.6604">
        <ele>288</ele>
        <time>2019-08-09T08:04:14.769Z</time>
      </trkpt>
      <trkpt lat="44.5173" lon="1.66039">
        <ele>288</ele>
        <time>2019-08-09T08:04:19.755Z</time>
      </trkpt>
      <trkpt lat="44.51738" lon="1.66039">
        <ele>288</ele>
        <time>2019-08-09T08:04:24.786Z</time>
      </trkpt>
      <trkpt lat="44.51746" lon="1.66039">
        <ele>288</ele>
        <time>2019-08-09T08:04:29.750Z</time>
      </trkpt>
      <trkpt lat="44.51753" lon="1.66039">
        <ele>288</ele>
        <time>2019-08-09T08:04:34.760Z</time>
      </trkpt>
      <trkpt lat="44.5176" lon="1.6604">
        <ele>288</ele>
        <time>2019-08-09T08:04:39.754Z</time>
      </trkpt>
      <trkpt lat="44.51766" lon="1.6604">
        <ele>290</ele>
        <time>2019-08-09T08:04:43.760Z</time>
      </trkpt>
      <trkpt lat="44.51771" lon="1.66041">
        <ele>290</ele>
        <time>2019-08-09T08:04:47.763Z</time>
      </trkpt>
      <trkpt lat="44.51777" lon="1.66042">
        <ele>292</ele>
        <time>2019-08-09T08:04:52.772Z</time>
      </trkpt>
      <trkpt lat="44.51782" lon="1.66044">
        <ele>292</ele>
        <time>2019-08-09T08:04:57.766Z</time>
      </trkpt>
      <trkpt lat="44.51788" lon="1.66046">
        <ele>292</ele>
        <time>2019-08-09T08:05:02.769Z</time>
      </trkpt>
      <trkpt lat="44.51794" lon="1.66046">
        <ele>293</ele>
        <time>2019-08-09T08:05:07.763Z</time>
      </trkpt>
      <trkpt lat="44.51802" lon="1.66048">
        <ele>293</ele>
        <time>2019-08-09T08:05:12.763Z</time>
      </trkpt>
      <trkpt lat="44.51809" lon="1.66051">
        <ele>293</ele>
        <time>2019-08-09T08:05:17.757Z</time>
      </trkpt>
      <trkpt lat="44.51815" lon="1.66053">
        <ele>293</ele>
        <time>2019-08-09T08:05:22.762Z</time>
      </trkpt>
      <trkpt lat="44.51822" lon="1.66054">
        <ele>293</ele>
        <time>2019-08-09T08:05:27.761Z</time>
      </trkpt>
      <trkpt lat="44.51829" lon="1.66056">
        <ele>293</ele>
        <time>2019-08-09T08:05:32.771Z</time>
      </trkpt>
      <trkpt lat="44.51836" lon="1.66058">
        <ele>293</ele>
        <time>2019-08-09T08:05:37.755Z</time>
      </trkpt>
      <trkpt lat="44.51841" lon="1.66061">
        <ele>293</ele>
        <time>2019-08-09T08:05:41.759Z</time>
      </trkpt>
      <trkpt lat="44.51846" lon="1.66064">
        <ele>293</ele>
        <time>2019-08-09T08:05:45.764Z</time>
      </trkpt>
      <trkpt lat="44.51853" lon="1.66068">
        <ele>290</ele>
        <time>2019-08-09T08:05:50.760Z</time>
      </trkpt>
      <trkpt lat="44.51859" lon="1.66071">
        <ele>291</ele>
        <time>2019-08-09T08:05:55.758Z</time>
      </trkpt>
      <trkpt lat="44.51865" lon="1.66073">
        <ele>291</ele>
        <time>2019-08-09T08:06:00.770Z</time>
      </trkpt>
      <trkpt lat="44.51871" lon="1.66077">
        <ele>291</ele>
        <time>2019-08-09T08:06:05.752Z</time>
      </trkpt>
      <trkpt lat="44.51876" lon="1.66081">
        <ele>289</ele>
        <time>2019-08-09T08:06:09.763Z</time>
      </trkpt>
      <trkpt lat="44.51881" lon="1.66086">
        <ele>289</ele>
        <time>2019-08-09T08:06:14.788Z</time>
      </trkpt>
      <trkpt lat="44.51886" lon="1.66091">
        <ele>289</ele>
        <time>2019-08-09T08:06:19.762Z</time>
      </trkpt>
      <trkpt lat="44.51892" lon="1.66095">
        <ele>289</ele>
        <time>2019-08-09T08:06:24.772Z</time>
      </trkpt>
      <trkpt lat="44.51897" lon="1.66098">
        <ele>291</ele>
        <time>2019-08-09T08:06:29.762Z</time>
      </trkpt>
      <trkpt lat="44.51901" lon="1.661">
        <ele>291</ele>
        <time>2019-08-09T08:06:33.770Z</time>
      </trkpt>
      <trkpt lat="44.51908" lon="1.66104">
        <ele>289</ele>
        <time>2019-08-09T08:06:38.763Z</time>
      </trkpt>
      <trkpt lat="44.51914" lon="1.6611">
        <ele>289</ele>
        <time>2019-08-09T08:06:43.779Z</time>
      </trkpt>
      <trkpt lat="44.51919" lon="1.66115">
        <ele>289</ele>
        <time>2019-08-09T08:06:48.772Z</time>
      </trkpt>
      <trkpt lat="44.51924" lon="1.66121">
        <ele>289</ele>
        <time>2019-08-09T08:06:53.771Z</time>
      </trkpt>
      <trkpt lat="44.51929" lon="1.66126">
        <ele>290</ele>
        <time>2019-08-09T08:06:58.772Z</time>
      </trkpt>
      <trkpt lat="44.51934" lon="1.66134">
        <ele>285</ele>
        <time>2019-08-09T08:07:03.765Z</time>
      </trkpt>
      <trkpt lat="44.51938" lon="1.66141">
        <ele>285</ele>
        <time>2019-08-09T08:07:08.764Z</time>
      </trkpt>
      <trkpt lat="44.51943" lon="1.66147">
        <ele>285</ele>
        <time>2019-08-09T08:07:13.776Z</time>
      </trkpt>
      <trkpt lat="44.51948" lon="1.66153">
        <ele>285</ele>
        <time>2019-08-09T08:07:18.763Z</time>
      </trkpt>
      <trkpt lat="44.51952" lon="1.66158">
        <ele>285</ele>
        <time>2019-08-09T08:07:23.784Z</time>
      </trkpt>
      <trkpt lat="44.51956" lon="1.66161">
        <ele>285</ele>
        <time>2019-08-09T08:07:28.766Z</time>
      </trkpt>
      <trkpt lat="44.51962" lon="1.66166">
        <ele>281</ele>
        <time>2019-08-09T08:07:33.768Z</time>
      </trkpt>
      <trkpt lat="44.51967" lon="1.66171">
        <ele>281</ele>
        <time>2019-08-09T08:07:38.774Z</time>
      </trkpt>
      <trkpt lat="44.51973" lon="1.66173">
        <ele>281</ele>
        <time>2019-08-09T08:07:43.769Z</time>
      </trkpt>
      <trkpt lat="44.51977" lon="1.66177">
        <ele>281</ele>
        <time>2019-08-09T08:07:48.765Z</time>
      </trkpt>
      <trkpt lat="44.51982" lon="1.66178">
        <ele>281</ele>
        <time>2019-08-09T08:07:53.770Z</time>
      </trkpt>
      <trkpt lat="44.5199" lon="1.66182">
        <ele>277</ele>
        <time>2019-08-09T08:07:58.767Z</time>
      </trkpt>
      <trkpt lat="44.51998" lon="1.66183">
        <ele>277</ele>
        <time>2019-08-09T08:08:02.782Z</time>
      </trkpt>
      <trkpt lat="44.52004" lon="1.66183">
        <ele>277</ele>
        <time>2019-08-09T08:08:07.775Z</time>
      </trkpt>
      <trkpt lat="44.52009" lon="1.66182">
        <ele>277</ele>
        <time>2019-08-09T08:08:12.767Z</time>
      </trkpt>
      <trkpt lat="44.52014" lon="1.6618">
        <ele>278</ele>
        <time>2019-08-09T08:08:17.766Z</time>
      </trkpt>
      <trkpt lat="44.52018" lon="1.66179">
        <ele>275</ele>
        <time>2019-08-09T08:08:21.774Z</time>
      </trkpt>
      <trkpt lat="44.5202" lon="1.66181">
        <ele>275</ele>
        <time>2019-08-09T08:08:26.764Z</time>
      </trkpt>
      <trkpt lat="44.52023" lon="1.6618">
        <ele>275</ele>
        <time>2019-08-09T08:08:31.768Z</time>
      </trkpt>
      <trkpt lat="44.52028" lon="1.66178">
        <ele>275</ele>
        <time>2019-08-09T08:08:35.775Z</time>
      </trkpt>
      <trkpt lat="44.52034" lon="1.66173">
        <ele>275</ele>
        <time>2019-08-09T08:08:40.783Z</time>
      </trkpt>
      <trkpt lat="44.52041" lon="1.66171">
        <ele>275</ele>
        <time>2019-08-09T08:08:45.775Z</time>
      </trkpt>
      <trkpt lat="44.52047" lon="1.6617">
        <ele>273</ele>
        <time>2019-08-09T08:08:50.774Z</time>
      </trkpt>
      <trkpt lat="44.52053" lon="1.66167">
        <ele>273</ele>
        <time>2019-08-09T08:08:55.770Z</time>
      </trkpt>
      <trkpt lat="44.52057" lon="1.66166">
        <ele>273</ele>
        <time>2019-08-09T08:08:59.762Z</time>
      </trkpt>
      <trkpt lat="44.52063" lon="1.66166">
        <ele>273</ele>
        <time>2019-08-09T08:09:04.766Z</time>
      </trkpt>
      <trkpt lat="44.52069" lon="1.66165">
        <ele>272</ele>
        <time>2019-08-09T08:09:09.773Z</time>
      </trkpt>
      <trkpt lat="44.52076" lon="1.66162">
        <ele>272</ele>
        <time>2019-08-09T08:09:14.762Z</time>
      </trkpt>
      <trkpt lat="44.52081" lon="1.66159">
        <ele>272</ele>
        <time>2019-08-09T08:09:19.754Z</time>
      </trkpt>
      <trkpt lat="44.52086" lon="1.66154">
        <ele>272</ele>
        <time>2019-08-09T08:09:24.775Z</time>
      </trkpt>
      <trkpt lat="44.52092" lon="1.66149">
        <ele>271</ele>
        <time>2019-08-09T08:09:29.759Z</time>
      </trkpt>
      <trkpt lat="44.52098" lon="1.66145">
        <ele>269</ele>
        <time>2019-08-09T08:09:34.778Z</time>
      </trkpt>
      <trkpt lat="44.52108" lon="1.66143">
        <ele>269</ele>
        <time>2019-08-09T08:09:39.752Z</time>
      </trkpt>
      <trkpt lat="44.52109" lon="1.66143">
        <ele>269</ele>
        <time>2019-08-09T08:09:44.765Z</time>
      </trkpt>
      <trkpt lat="44.52112" lon="1.66144">
        <ele>269</ele>
        <time>2019-08-09T08:09:48.775Z</time>
      </trkpt>
      <trkpt lat="44.52119" lon="1.66146">
        <ele>269</ele>
        <time>2019-08-09T08:09:53.772Z</time>
      </trkpt>
      <trkpt lat="44.52128" lon="1.66149">
        <ele>267</ele>
        <time>2019-08-09T08:09:58.769Z</time>
      </trkpt>
      <trkpt lat="44.52135" lon="1.66153">
        <ele>267</ele>
        <time>2019-08-09T08:10:03.775Z</time>
      </trkpt>
      <trkpt lat="44.52144" lon="1.66159">
        <ele>267</ele>
        <time>2019-08-09T08:10:08.766Z</time>
      </trkpt>
      <trkpt lat="44.52149" lon="1.66164">
        <ele>267</ele>
        <time>2019-08-09T08:10:13.768Z</time>
      </trkpt>
      <trkpt lat="44.52153" lon="1.66168">
        <ele>267</ele>
        <time>2019-08-09T08:10:17.775Z</time>
      </trkpt>
      <trkpt lat="44.52158" lon="1.66176">
        <ele>266</ele>
        <time>2019-08-09T08:10:22.775Z</time>
      </trkpt>
      <trkpt lat="44.52161" lon="1.66182">
        <ele>266</ele>
        <time>2019-08-09T08:10:26.779Z</time>
      </trkpt>
      <trkpt lat="44.52167" lon="1.66191">
        <ele>266</ele>
        <time>2019-08-09T08:10:31.766Z</time>
      </trkpt>
      <trkpt lat="44.52173" lon="1.66197">
        <ele>266</ele>
        <time>2019-08-09T08:10:36.768Z</time>
      </trkpt>
      <trkpt lat="44.52181" lon="1.662">
        <ele>266</ele>
        <time>2019-08-09T08:10:41.777Z</time>
      </trkpt>
      <trkpt lat="44.52188" lon="1.66203">
        <ele>266</ele>
        <time>2019-08-09T08:10:46.765Z</time>
      </trkpt>
      <trkpt lat="44.52196" lon="1.66208">
        <ele>266</ele>
        <time>2019-08-09T08:10:51.775Z</time>
      </trkpt>
      <trkpt lat="44.52203" lon="1.66215">
        <ele>266</ele>
        <time>2019-08-09T08:10:56.768Z</time>
      </trkpt>
      <trkpt lat="44.52211" lon="1.6622">
        <ele>266</ele>
        <time>2019-08-09T08:11:01.754Z</time>
      </trkpt>
      <trkpt lat="44.52217" lon="1.66224">
        <ele>266</ele>
        <time>2019-08-09T08:11:05.780Z</time>
      </trkpt>
      <trkpt lat="44.52224" lon="1.6623">
        <ele>266</ele>
        <time>2019-08-09T08:11:10.776Z</time>
      </trkpt>
      <trkpt lat="44.5223" lon="1.66238">
        <ele>267</ele>
        <time>2019-08-09T08:11:15.764Z</time>
      </trkpt>
      <trkpt lat="44.52235" lon="1.66245">
        <ele>267</ele>
        <time>2019-08-09T08:11:20.770Z</time>
      </trkpt>
      <trkpt lat="44.5224" lon="1.66252">
        <ele>267</ele>
        <time>2019-08-09T08:11:25.753Z</time>
      </trkpt>
      <trkpt lat="44.52244" lon="1.66256">
        <ele>267</ele>
        <time>2019-08-09T08:11:30.777Z</time>
      </trkpt>
      <trkpt lat="44.52245" lon="1.66257">
        <ele>267</ele>
        <time>2019-08-09T08:11:35.760Z</time>
      </trkpt>
      <trkpt lat="44.52249" lon="1.66263">
        <ele>267</ele>
        <time>2019-08-09T08:11:40.773Z</time>
      </trkpt>
      <trkpt lat="44.52253" lon="1.66269">
        <ele>268</ele>
        <time>2019-08-09T08:11:45.772Z</time>
      </trkpt>
      <trkpt lat="44.52259" lon="1.66278">
        <ele>268</ele>
        <time>2019-08-09T08:11:50.778Z</time>
      </trkpt>
      <trkpt lat="44.52265" lon="1.66286">
        <ele>271</ele>
        <time>2019-08-09T08:11:55.781Z</time>
      </trkpt>
      <trkpt lat="44.52271" lon="1.6629">
        <ele>271</ele>
        <time>2019-08-09T08:12:00.776Z</time>
      </trkpt>
      <trkpt lat="44.52275" lon="1.66291">
        <ele>271</ele>
        <time>2019-08-09T08:12:05.769Z</time>
      </trkpt>
      <trkpt lat="44.52275" lon="1.66292">
        <ele>271</ele>
        <time>2019-08-09T08:12:10.773Z</time>
      </trkpt>
      <trkpt lat="44.52277" lon="1.66292">
        <ele>271</ele>
        <time>2019-08-09T08:16:06.774Z</time>
      </trkpt>
      <trkpt lat="44.52278" lon="1.66291">
        <ele>271</ele>
        <time>2019-08-09T08:16:11.771Z</time>
      </trkpt>
      <trkpt lat="44.52284" lon="1.6629">
        <ele>271</ele>
        <time>2019-08-09T08:16:16.775Z</time>
      </trkpt>
      <trkpt lat="44.52291" lon="1.66288">
        <ele>271</ele>
        <time>2019-08-09T08:16:21.764Z</time>
      </trkpt>
      <trkpt lat="44.52298" lon="1.66287">
        <ele>271</ele>
        <time>2019-08-09T08:16:25.774Z</time>
      </trkpt>
      <trkpt lat="44.52304" lon="1.66284">
        <ele>271</ele>
        <time>2019-08-09T08:16:30.777Z</time>
      </trkpt>
      <trkpt lat="44.5231" lon="1.66282">
        <ele>271</ele>
        <time>2019-08-09T08:16:35.779Z</time>
      </trkpt>
      <trkpt lat="44.52312" lon="1.66281">
        <ele>271</ele>
        <time>2019-08-09T08:16:40.772Z</time>
      </trkpt>
      <trkpt lat="44.52313" lon="1.66282">
        <ele>271</ele>
        <time>2019-08-09T08:16:45.769Z</time>
      </trkpt>
      <trkpt lat="44.52319" lon="1.6628">
        <ele>271</ele>
        <time>2019-08-09T08:16:50.773Z</time>
      </trkpt>
      <trkpt lat="44.52326" lon="1.66275">
        <ele>271</ele>
        <time>2019-08-09T08:16:55.779Z</time>
      </trkpt>
      <trkpt lat="44.52333" lon="1.66272">
        <ele>271</ele>
        <time>2019-08-09T08:17:00.775Z</time>
      </trkpt>
      <trkpt lat="44.52339" lon="1.6627">
        <ele>271</ele>
        <time>2019-08-09T08:17:05.778Z</time>
      </trkpt>
      <trkpt lat="44.52346" lon="1.66268">
        <ele>271</ele>
        <time>2019-08-09T08:17:10.768Z</time>
      </trkpt>
      <trkpt lat="44.52354" lon="1.66264">
        <ele>273</ele>
        <time>2019-08-09T08:17:15.755Z</time>
      </trkpt>
      <trkpt lat="44.52361" lon="1.66263">
        <ele>273</ele>
        <time>2019-08-09T08:17:20.784Z</time>
      </trkpt>
      <trkpt lat="44.52367" lon="1.66259">
        <ele>273</ele>
        <time>2019-08-09T08:17:25.778Z</time>
      </trkpt>
      <trkpt lat="44.52375" lon="1.66254">
        <ele>274</ele>
        <time>2019-08-09T08:17:30.776Z</time>
      </trkpt>
      <trkpt lat="44.52382" lon="1.6625">
        <ele>274</ele>
        <time>2019-08-09T08:17:35.768Z</time>
      </trkpt>
      <trkpt lat="44.52389" lon="1.66247">
        <ele>274</ele>
        <time>2019-08-09T08:17:40.773Z</time>
      </trkpt>
      <trkpt lat="44.52395" lon="1.66243">
        <ele>274</ele>
        <time>2019-08-09T08:17:45.785Z</time>
      </trkpt>
      <trkpt lat="44.52401" lon="1.6624">
        <ele>274</ele>
        <time>2019-08-09T08:17:50.771Z</time>
      </trkpt>
      <trkpt lat="44.52407" lon="1.66238">
        <ele>274</ele>
        <time>2019-08-09T08:17:55.774Z</time>
      </trkpt>
      <trkpt lat="44.52414" lon="1.66236">
        <ele>277</ele>
        <time>2019-08-09T08:18:00.771Z</time>
      </trkpt>
      <trkpt lat="44.52421" lon="1.66233">
        <ele>277</ele>
        <time>2019-08-09T08:18:05.773Z</time>
      </trkpt>
      <trkpt lat="44.52427" lon="1.66232">
        <ele>277</ele>
        <time>2019-08-09T08:18:10.767Z</time>
      </trkpt>
      <trkpt lat="44.52433" lon="1.6623">
        <ele>277</ele>
        <time>2019-08-09T08:18:14.775Z</time>
      </trkpt>
      <trkpt lat="44.5244" lon="1.66231">
        <ele>277</ele>
        <time>2019-08-09T08:18:19.773Z</time>
      </trkpt>
      <trkpt lat="44.52446" lon="1.66237">
        <ele>275</ele>
        <time>2019-08-09T08:18:24.780Z</time>
      </trkpt>
      <trkpt lat="44.5245" lon="1.6624">
        <ele>275</ele>
        <time>2019-08-09T08:18:29.785Z</time>
      </trkpt>
      <trkpt lat="44.52454" lon="1.66246">
        <ele>275</ele>
        <time>2019-08-09T08:18:34.780Z</time>
      </trkpt>
      <trkpt lat="44.52457" lon="1.66254">
        <ele>275</ele>
        <time>2019-08-09T08:18:39.770Z</time>
      </trkpt>
      <trkpt lat="44.5246" lon="1.66261">
        <ele>273</ele>
        <time>2019-08-09T08:18:44.773Z</time>
      </trkpt>
      <trkpt lat="44.52463" lon="1.66269">
        <ele>270</ele>
        <time>2019-08-09T08:18:49.778Z</time>
      </trkpt>
      <trkpt lat="44.52467" lon="1.66277">
        <ele>270</ele>
        <time>2019-08-09T08:18:54.783Z</time>
      </trkpt>
      <trkpt lat="44.52468" lon="1.66284">
        <ele>270</ele>
        <time>2019-08-09T08:18:59.783Z</time>
      </trkpt>
      <trkpt lat="44.52469" lon="1.66293">
        <ele>267</ele>
        <time>2019-08-09T08:19:04.777Z</time>
      </trkpt>
      <trkpt lat="44.52472" lon="1.66301">
        <ele>267</ele>
        <time>2019-08-09T08:19:09.777Z</time>
      </trkpt>
      <trkpt lat="44.52475" lon="1.66308">
        <ele>267</ele>
        <time>2019-08-09T08:19:14.778Z</time>
      </trkpt>
      <trkpt lat="44.52478" lon="1.66316">
        <ele>267</ele>
        <time>2019-08-09T08:19:19.769Z</time>
      </trkpt>
      <trkpt lat="44.52481" lon="1.66323">
        <ele>266</ele>
        <time>2019-08-09T08:19:24.768Z</time>
      </trkpt>
      <trkpt lat="44.52483" lon="1.6633">
        <ele>266</ele>
        <time>2019-08-09T08:19:29.768Z</time>
      </trkpt>
      <trkpt lat="44.52484" lon="1.66336">
        <ele>266</ele>
        <time>2019-08-09T08:19:34.765Z</time>
      </trkpt>
      <trkpt lat="44.52485" lon="1.66341">
        <ele>266</ele>
        <time>2019-08-09T08:19:38.777Z</time>
      </trkpt>
      <trkpt lat="44.52487" lon="1.66348">
        <ele>266</ele>
        <time>2019-08-09T08:19:43.788Z</time>
      </trkpt>
      <trkpt lat="44.52488" lon="1.66358">
        <ele>266</ele>
        <time>2019-08-09T08:19:48.780Z</time>
      </trkpt>
      <trkpt lat="44.52491" lon="1.66369">
        <ele>266</ele>
        <time>2019-08-09T08:19:53.757Z</time>
      </trkpt>
      <trkpt lat="44.52494" lon="1.66377">
        <ele>266</ele>
        <time>2019-08-09T08:19:57.784Z</time>
      </trkpt>
      <trkpt lat="44.525" lon="1.66386">
        <ele>266</ele>
        <time>2019-08-09T08:20:02.764Z</time>
      </trkpt>
      <trkpt lat="44.52506" lon="1.6639">
        <ele>266</ele>
        <time>2019-08-09T08:20:06.774Z</time>
      </trkpt>
      <trkpt lat="44.52513" lon="1.66394">
        <ele>266</ele>
        <time>2019-08-09T08:20:11.769Z</time>
      </trkpt>
      <trkpt lat="44.52519" lon="1.66399">
        <ele>262</ele>
        <time>2019-08-09T08:20:16.774Z</time>
      </trkpt>
      <trkpt lat="44.52527" lon="1.66405">
        <ele>261</ele>
        <time>2019-08-09T08:20:21.765Z</time>
      </trkpt>
      <trkpt lat="44.52534" lon="1.6641">
        <ele>261</ele>
        <time>2019-08-09T08:20:25.775Z</time>
      </trkpt>
      <trkpt lat="44.52539" lon="1.66417">
        <ele>261</ele>
        <time>2019-08-09T08:20:30.779Z</time>
      </trkpt>
      <trkpt lat="44.52544" lon="1.66426">
        <ele>258</ele>
        <time>2019-08-09T08:20:35.783Z</time>
      </trkpt>
      <trkpt lat="44.52549" lon="1.66434">
        <ele>257</ele>
        <time>2019-08-09T08:20:40.768Z</time>
      </trkpt>
      <trkpt lat="44.52555" lon="1.66443">
        <ele>257</ele>
        <time>2019-08-09T08:20:45.766Z</time>
      </trkpt>
      <trkpt lat="44.5256" lon="1.66452">
        <ele>257</ele>
        <time>2019-08-09T08:20:50.767Z</time>
      </trkpt>
      <trkpt lat="44.52564" lon="1.66459">
        <ele>256</ele>
        <time>2019-08-09T08:20:54.779Z</time>
      </trkpt>
      <trkpt lat="44.52567" lon="1.66467">
        <ele>256</ele>
        <time>2019-08-09T08:20:59.760Z</time>
      </trkpt>
      <trkpt lat="44.52568" lon="1.66476">
        <ele>256</ele>
        <time>2019-08-09T08:21:03.771Z</time>
      </trkpt>
      <trkpt lat="44.5257" lon="1.66485">
        <ele>251</ele>
        <time>2019-08-09T08:21:08.757Z</time>
      </trkpt>
      <trkpt lat="44.52573" lon="1.66495">
        <ele>251</ele>
        <time>2019-08-09T08:21:12.775Z</time>
      </trkpt>
      <trkpt lat="44.52576" lon="1.66506">
        <ele>251</ele>
        <time>2019-08-09T08:21:17.765Z</time>
      </trkpt>
      <trkpt lat="44.52582" lon="1.66513">
        <ele>251</ele>
        <time>2019-08-09T08:21:22.771Z</time>
      </trkpt>
      <trkpt lat="44.52588" lon="1.6652">
        <ele>252</ele>
        <time>2019-08-09T08:21:27.766Z</time>
      </trkpt>
      <trkpt lat="44.52595" lon="1.66529">
        <ele>252</ele>
        <time>2019-08-09T08:21:32.772Z</time>
      </trkpt>
      <trkpt lat="44.526" lon="1.66537">
        <ele>248</ele>
        <time>2019-08-09T08:21:37.768Z</time>
      </trkpt>
      <trkpt lat="44.52606" lon="1.66545">
        <ele>249</ele>
        <time>2019-08-09T08:21:42.766Z</time>
      </trkpt>
      <trkpt lat="44.52611" lon="1.66553">
        <ele>249</ele>
        <time>2019-08-09T08:21:47.770Z</time>
      </trkpt>
      <trkpt lat="44.52615" lon="1.66561">
        <ele>249</ele>
        <time>2019-08-09T08:21:52.769Z</time>
      </trkpt>
      <trkpt lat="44.5262" lon="1.6657">
        <ele>250</ele>
        <time>2019-08-09T08:21:57.765Z</time>
      </trkpt>
      <trkpt lat="44.52625" lon="1.66576">
        <ele>250</ele>
        <time>2019-08-09T08:22:02.766Z</time>
      </trkpt>
      <trkpt lat="44.52629" lon="1.66584">
        <ele>244</ele>
        <time>2019-08-09T08:22:07.762Z</time>
      </trkpt>
      <trkpt lat="44.52635" lon="1.66593">
        <ele>244</ele>
        <time>2019-08-09T08:22:12.779Z</time>
      </trkpt>
      <trkpt lat="44.52641" lon="1.66602">
        <ele>245</ele>
        <time>2019-08-09T08:22:17.776Z</time>
      </trkpt>
      <trkpt lat="44.52646" lon="1.6661">
        <ele>245</ele>
        <time>2019-08-09T08:22:22.772Z</time>
      </trkpt>
      <trkpt lat="44.52653" lon="1.66619">
        <ele>241</ele>
        <time>2019-08-09T08:22:27.777Z</time>
      </trkpt>
      <trkpt lat="44.52659" lon="1.66627">
        <ele>240</ele>
        <time>2019-08-09T08:22:32.778Z</time>
      </trkpt>
      <trkpt lat="44.52665" lon="1.66634">
        <ele>240</ele>
        <time>2019-08-09T08:22:37.765Z</time>
      </trkpt>
      <trkpt lat="44.5267" lon="1.66639">
        <ele>240</ele>
        <time>2019-08-09T08:22:42.763Z</time>
      </trkpt>
      <trkpt lat="44.52674" lon="1.66649">
        <ele>240</ele>
        <time>2019-08-09T08:22:47.768Z</time>
      </trkpt>
      <trkpt lat="44.52679" lon="1.66659">
        <ele>240</ele>
        <time>2019-08-09T08:22:52.773Z</time>
      </trkpt>
      <trkpt lat="44.52683" lon="1.66665">
        <ele>238</ele>
        <time>2019-08-09T08:22:56.783Z</time>
      </trkpt>
      <trkpt lat="44.52688" lon="1.66671">
        <ele>238</ele>
        <time>2019-08-09T08:23:01.776Z</time>
      </trkpt>
      <trkpt lat="44.52694" lon="1.66677">
        <ele>238</ele>
        <time>2019-08-09T08:23:06.774Z</time>
      </trkpt>
      <trkpt lat="44.52699" lon="1.66683">
        <ele>239</ele>
        <time>2019-08-09T08:23:11.770Z</time>
      </trkpt>
      <trkpt lat="44.52706" lon="1.6669">
        <ele>239</ele>
        <time>2019-08-09T08:23:16.766Z</time>
      </trkpt>
      <trkpt lat="44.52711" lon="1.66696">
        <ele>241</ele>
        <time>2019-08-09T08:23:21.769Z</time>
      </trkpt>
      <trkpt lat="44.52713" lon="1.66699">
        <ele>241</ele>
        <time>2019-08-09T08:23:26.769Z</time>
      </trkpt>
      <trkpt lat="44.52714" lon="1.66702">
        <ele>241</ele>
        <time>2019-08-09T08:23:31.767Z</time>
      </trkpt>
      <trkpt lat="44.52717" lon="1.66712">
        <ele>242</ele>
        <time>2019-08-09T08:23:36.768Z</time>
      </trkpt>
      <trkpt lat="44.52719" lon="1.66721">
        <ele>242</ele>
        <time>2019-08-09T08:23:41.772Z</time>
      </trkpt>
      <trkpt lat="44.52721" lon="1.66733">
        <ele>242</ele>
        <time>2019-08-09T08:23:46.767Z</time>
      </trkpt>
      <trkpt lat="44.52721" lon="1.66742">
        <ele>243</ele>
        <time>2019-08-09T08:23:51.766Z</time>
      </trkpt>
      <trkpt lat="44.52722" lon="1.6675">
        <ele>243</ele>
        <time>2019-08-09T08:23:56.769Z</time>
      </trkpt>
      <trkpt lat="44.52723" lon="1.66759">
        <ele>243</ele>
        <time>2019-08-09T08:24:01.768Z</time>
      </trkpt>
      <trkpt lat="44.52723" lon="1.66769">
        <ele>244</ele>
        <time>2019-08-09T08:24:06.775Z</time>
      </trkpt>
      <trkpt lat="44.52724" lon="1.66779">
        <ele>244</ele>
        <time>2019-08-09T08:24:11.766Z</time>
      </trkpt>
      <trkpt lat="44.52724" lon="1.6679">
        <ele>244</ele>
        <time>2019-08-09T08:24:16.765Z</time>
      </trkpt>
      <trkpt lat="44.52724" lon="1.66798">
        <ele>247</ele>
        <time>2019-08-09T08:24:21.767Z</time>
      </trkpt>
      <trkpt lat="44.52723" lon="1.66809">
        <ele>247</ele>
        <time>2019-08-09T08:24:26.767Z</time>
      </trkpt>
      <trkpt lat="44.52721" lon="1.6682">
        <ele>250</ele>
        <time>2019-08-09T08:24:31.767Z</time>
      </trkpt>
      <trkpt lat="44.52721" lon="1.6683">
        <ele>250</ele>
        <time>2019-08-09T08:24:36.766Z</time>
      </trkpt>
      <trkpt lat="44.52719" lon="1.66841">
        <ele>250</ele>
        <time>2019-08-09T08:24:41.767Z</time>
      </trkpt>
      <trkpt lat="44.52718" lon="1.66849">
        <ele>251</ele>
        <time>2019-08-09T08:24:46.768Z</time>
      </trkpt>
      <trkpt lat="44.52716" lon="1.66858">
        <ele>251</ele>
        <time>2019-08-09T08:24:51.766Z</time>
      </trkpt>
      <trkpt lat="44.52713" lon="1.66869">
        <ele>251</ele>
        <time>2019-08-09T08:24:56.766Z</time>
      </trkpt>
      <trkpt lat="44.52711" lon="1.6688">
        <ele>253</ele>
        <time>2019-08-09T08:25:01.763Z</time>
      </trkpt>
      <trkpt lat="44.52708" lon="1.66892">
        <ele>245</ele>
        <time>2019-08-09T08:25:06.772Z</time>
      </trkpt>
      <trkpt lat="44.52704" lon="1.66903">
        <ele>245</ele>
        <time>2019-08-09T08:25:11.771Z</time>
      </trkpt>
      <trkpt lat="44.52702" lon="1.66914">
        <ele>246</ele>
        <time>2019-08-09T08:25:16.770Z</time>
      </trkpt>
      <trkpt lat="44.527" lon="1.66925">
        <ele>246</ele>
        <time>2019-08-09T08:25:21.777Z</time>
      </trkpt>
      <trkpt lat="44.52699" lon="1.66936">
        <ele>248</ele>
        <time>2019-08-09T08:25:26.767Z</time>
      </trkpt>
      <trkpt lat="44.52697" lon="1.66947">
        <ele>248</ele>
        <time>2019-08-09T08:25:31.768Z</time>
      </trkpt>
      <trkpt lat="44.52695" lon="1.66957">
        <ele>248</ele>
        <time>2019-08-09T08:25:36.767Z</time>
      </trkpt>
      <trkpt lat="44.52693" lon="1.66966">
        <ele>249</ele>
        <time>2019-08-09T08:25:41.767Z</time>
      </trkpt>
      <trkpt lat="44.52691" lon="1.66976">
        <ele>249</ele>
        <time>2019-08-09T08:25:46.771Z</time>
      </trkpt>
      <trkpt lat="44.5269" lon="1.66986">
        <ele>251</ele>
        <time>2019-08-09T08:25:51.766Z</time>
      </trkpt>
      <trkpt lat="44.5269" lon="1.66996">
        <ele>251</ele>
        <time>2019-08-09T08:25:56.769Z</time>
      </trkpt>
      <trkpt lat="44.52689" lon="1.67006">
        <ele>251</ele>
        <time>2019-08-09T08:26:01.771Z</time>
      </trkpt>
      <trkpt lat="44.5269" lon="1.67015">
        <ele>252</ele>
        <time>2019-08-09T08:26:06.769Z</time>
      </trkpt>
      <trkpt lat="44.5269" lon="1.67026">
        <ele>252</ele>
        <time>2019-08-09T08:26:11.767Z</time>
      </trkpt>
      <trkpt lat="44.5269" lon="1.67034">
        <ele>252</ele>
        <time>2019-08-09T08:26:15.780Z</time>
      </trkpt>
      <trkpt lat="44.5269" lon="1.67044">
        <ele>252</ele>
        <time>2019-08-09T08:26:20.771Z</time>
      </trkpt>
      <trkpt lat="44.5269" lon="1.67055">
        <ele>252</ele>
        <time>2019-08-09T08:26:25.763Z</time>
      </trkpt>
      <trkpt lat="44.52688" lon="1.67065">
        <ele>252</ele>
        <time>2019-08-09T08:26:30.769Z</time>
      </trkpt>
      <trkpt lat="44.52686" lon="1.67074">
        <ele>252</ele>
        <time>2019-08-09T08:26:35.769Z</time>
      </trkpt>
      <trkpt lat="44.52685" lon="1.67082">
        <ele>252</ele>
        <time>2019-08-09T08:26:40.769Z</time>
      </trkpt>
      <trkpt lat="44.52682" lon="1.6709">
        <ele>252</ele>
        <time>2019-08-09T08:26:45.768Z</time>
      </trkpt>
      <trkpt lat="44.5268" lon="1.67098">
        <ele>250</ele>
        <time>2019-08-09T08:26:50.772Z</time>
      </trkpt>
      <trkpt lat="44.52681" lon="1.67105">
        <ele>250</ele>
        <time>2019-08-09T08:26:55.769Z</time>
      </trkpt>
      <trkpt lat="44.52683" lon="1.67109">
        <ele>250</ele>
        <time>2019-08-09T08:27:00.771Z</time>
      </trkpt>
      <trkpt lat="44.52684" lon="1.67111">
        <ele>250</ele>
        <time>2019-08-09T08:27:05.767Z</time>
      </trkpt>
      <trkpt lat="44.52684" lon="1.67114">
        <ele>250</ele>
        <time>2019-08-09T08:27:10.772Z</time>
      </trkpt>
      <trkpt lat="44.52687" lon="1.67122">
        <ele>250</ele>
        <time>2019-08-09T08:27:15.768Z</time>
      </trkpt>
      <trkpt lat="44.52691" lon="1.6713">
        <ele>248</ele>
        <time>2019-08-09T08:27:20.774Z</time>
      </trkpt>
      <trkpt lat="44.52696" lon="1.67137">
        <ele>248</ele>
        <time>2019-08-09T08:27:25.774Z</time>
      </trkpt>
      <trkpt lat="44.52701" lon="1.67142">
        <ele>248</ele>
        <time>2019-08-09T08:27:30.770Z</time>
      </trkpt>
      <trkpt lat="44.52705" lon="1.6715">
        <ele>248</ele>
        <time>2019-08-09T08:27:35.772Z</time>
      </trkpt>
      <trkpt lat="44.5271" lon="1.67157">
        <ele>243</ele>
        <time>2019-08-09T08:27:40.771Z</time>
      </trkpt>
      <trkpt lat="44.52714" lon="1.67166">
        <ele>243</ele>
        <time>2019-08-09T08:27:45.769Z</time>
      </trkpt>
      <trkpt lat="44.52718" lon="1.67172">
        <ele>243</ele>
        <time>2019-08-09T08:27:50.770Z</time>
      </trkpt>
      <trkpt lat="44.52722" lon="1.67177">
        <ele>243</ele>
        <time>2019-08-09T08:27:55.772Z</time>
      </trkpt>
      <trkpt lat="44.52725" lon="1.67181">
        <ele>239</ele>
        <time>2019-08-09T08:28:00.769Z</time>
      </trkpt>
      <trkpt lat="44.52728" lon="1.67185">
        <ele>239</ele>
        <time>2019-08-09T08:28:05.769Z</time>
      </trkpt>
      <trkpt lat="44.52732" lon="1.67188">
        <ele>239</ele>
        <time>2019-08-09T08:28:10.771Z</time>
      </trkpt>
      <trkpt lat="44.52735" lon="1.67194">
        <ele>239</ele>
        <time>2019-08-09T08:28:15.769Z</time>
      </trkpt>
      <trkpt lat="44.52739" lon="1.67202">
        <ele>238</ele>
        <time>2019-08-09T08:28:20.772Z</time>
      </trkpt>
      <trkpt lat="44.52741" lon="1.67212">
        <ele>236</ele>
        <time>2019-08-09T08:28:25.769Z</time>
      </trkpt>
      <trkpt lat="44.52741" lon="1.67222">
        <ele>236</ele>
        <time>2019-08-09T08:28:30.774Z</time>
      </trkpt>
      <trkpt lat="44.52741" lon="1.6723">
        <ele>236</ele>
        <time>2019-08-09T08:28:35.768Z</time>
      </trkpt>
      <trkpt lat="44.52741" lon="1.67239">
        <ele>234</ele>
        <time>2019-08-09T08:28:40.772Z</time>
      </trkpt>
      <trkpt lat="44.52741" lon="1.67249">
        <ele>234</ele>
        <time>2019-08-09T08:28:45.765Z</time>
      </trkpt>
      <trkpt lat="44.5274" lon="1.67259">
        <ele>234</ele>
        <time>2019-08-09T08:28:50.770Z</time>
      </trkpt>
      <trkpt lat="44.52738" lon="1.6727">
        <ele>233</ele>
        <time>2019-08-09T08:28:55.772Z</time>
      </trkpt>
      <trkpt lat="44.52738" lon="1.6728">
        <ele>233</ele>
        <time>2019-08-09T08:29:00.770Z</time>
      </trkpt>
      <trkpt lat="44.52738" lon="1.67291">
        <ele>233</ele>
        <time>2019-08-09T08:29:05.788Z</time>
      </trkpt>
      <trkpt lat="44.52737" lon="1.67302">
        <ele>232</ele>
        <time>2019-08-09T08:29:10.780Z</time>
      </trkpt>
      <trkpt lat="44.52738" lon="1.67313">
        <ele>232</ele>
        <time>2019-08-09T08:29:15.770Z</time>
      </trkpt>
      <trkpt lat="44.52738" lon="1.67324">
        <ele>232</ele>
        <time>2019-08-09T08:29:20.770Z</time>
      </trkpt>
      <trkpt lat="44.5274" lon="1.67334">
        <ele>232</ele>
        <time>2019-08-09T08:29:25.770Z</time>
      </trkpt>
      <trkpt lat="44.52746" lon="1.67343">
        <ele>232</ele>
        <time>2019-08-09T08:29:30.768Z</time>
      </trkpt>
      <trkpt lat="44.52753" lon="1.6735">
        <ele>232</ele>
        <time>2019-08-09T08:29:35.768Z</time>
      </trkpt>
      <trkpt lat="44.52759" lon="1.67357">
        <ele>232</ele>
        <time>2019-08-09T08:29:40.768Z</time>
      </trkpt>
      <trkpt lat="44.52763" lon="1.67363">
        <ele>232</ele>
        <time>2019-08-09T08:29:45.776Z</time>
      </trkpt>
      <trkpt lat="44.52766" lon="1.67373">
        <ele>235</ele>
        <time>2019-08-09T08:29:50.768Z</time>
      </trkpt>
      <trkpt lat="44.52767" lon="1.6738">
        <ele>233</ele>
        <time>2019-08-09T08:29:54.784Z</time>
      </trkpt>
      <trkpt lat="44.52768" lon="1.67388">
        <ele>233</ele>
        <time>2019-08-09T08:29:59.782Z</time>
      </trkpt>
      <trkpt lat="44.52768" lon="1.67397">
        <ele>233</ele>
        <time>2019-08-09T08:30:04.773Z</time>
      </trkpt>
      <trkpt lat="44.52767" lon="1.67408">
        <ele>230</ele>
        <time>2019-08-09T08:30:09.775Z</time>
      </trkpt>
      <trkpt lat="44.52764" lon="1.67419">
        <ele>230</ele>
        <time>2019-08-09T08:30:14.751Z</time>
      </trkpt>
      <trkpt lat="44.52762" lon="1.67426">
        <ele>227</ele>
        <time>2019-08-09T08:30:18.772Z</time>
      </trkpt>
      <trkpt lat="44.52759" lon="1.67435">
        <ele>226</ele>
        <time>2019-08-09T08:30:23.769Z</time>
      </trkpt>
      <trkpt lat="44.52757" lon="1.67444">
        <ele>226</ele>
        <time>2019-08-09T08:30:28.762Z</time>
      </trkpt>
      <trkpt lat="44.52755" lon="1.6745">
        <ele>226</ele>
        <time>2019-08-09T08:30:32.769Z</time>
      </trkpt>
      <trkpt lat="44.52753" lon="1.67455">
        <ele>226</ele>
        <time>2019-08-09T08:30:42.764Z</time>
      </trkpt>
      <trkpt lat="44.52753" lon="1.67456">
        <ele>226</ele>
        <time>2019-08-09T08:30:46.773Z</time>
      </trkpt>
      <trkpt lat="44.52753" lon="1.67458">
        <ele>226</ele>
        <time>2019-08-09T08:30:51.770Z</time>
      </trkpt>
      <trkpt lat="44.52751" lon="1.67462">
        <ele>226</ele>
        <time>2019-08-09T08:30:56.770Z</time>
      </trkpt>
      <trkpt lat="44.5275" lon="1.67471">
        <ele>226</ele>
        <time>2019-08-09T08:31:01.775Z</time>
      </trkpt>
      <trkpt lat="44.52748" lon="1.67479">
        <ele>226</ele>
        <time>2019-08-09T08:31:06.770Z</time>
      </trkpt>
      <trkpt lat="44.52744" lon="1.67488">
        <ele>229</ele>
        <time>2019-08-09T08:31:11.771Z</time>
      </trkpt>
      <trkpt lat="44.52741" lon="1.67497">
        <ele>229</ele>
        <time>2019-08-09T08:31:16.772Z</time>
      </trkpt>
      <trkpt lat="44.52737" lon="1.67505">
        <ele>229</ele>
        <time>2019-08-09T08:31:21.769Z</time>
      </trkpt>
      <trkpt lat="44.52735" lon="1.67513">
        <ele>225</ele>
        <time>2019-08-09T08:31:26.772Z</time>
      </trkpt>
      <trkpt lat="44.52732" lon="1.67522">
        <ele>225</ele>
        <time>2019-08-09T08:31:31.769Z</time>
      </trkpt>
      <trkpt lat="44.52729" lon="1.67533">
        <ele>225</ele>
        <time>2019-08-09T08:31:36.768Z</time>
      </trkpt>
      <trkpt lat="44.52729" lon="1.67543">
        <ele>225</ele>
        <time>2019-08-09T08:31:41.772Z</time>
      </trkpt>
      <trkpt lat="44.52729" lon="1.67553">
        <ele>225</ele>
        <time>2019-08-09T08:31:46.770Z</time>
      </trkpt>
      <trkpt lat="44.52728" lon="1.67562">
        <ele>225</ele>
        <time>2019-08-09T08:31:51.773Z</time>
      </trkpt>
      <trkpt lat="44.52729" lon="1.67569">
        <ele>225</ele>
        <time>2019-08-09T08:31:56.769Z</time>
      </trkpt>
      <trkpt lat="44.52732" lon="1.67577">
        <ele>224</ele>
        <time>2019-08-09T08:32:01.771Z</time>
      </trkpt>
      <trkpt lat="44.52738" lon="1.67588">
        <ele>228</ele>
        <time>2019-08-09T08:32:06.774Z</time>
      </trkpt>
      <trkpt lat="44.52744" lon="1.67595">
        <ele>228</ele>
        <time>2019-08-09T08:32:11.774Z</time>
      </trkpt>
      <trkpt lat="44.5275" lon="1.67602">
        <ele>226</ele>
        <time>2019-08-09T08:32:16.771Z</time>
      </trkpt>
      <trkpt lat="44.52754" lon="1.67607">
        <ele>226</ele>
        <time>2019-08-09T08:32:21.775Z</time>
      </trkpt>
      <trkpt lat="44.52757" lon="1.67614">
        <ele>226</ele>
        <time>2019-08-09T08:32:26.770Z</time>
      </trkpt>
      <trkpt lat="44.52761" lon="1.67621">
        <ele>226</ele>
        <time>2019-08-09T08:32:31.770Z</time>
      </trkpt>
      <trkpt lat="44.52766" lon="1.67629">
        <ele>226</ele>
        <time>2019-08-09T08:32:36.772Z</time>
      </trkpt>
      <trkpt lat="44.5277" lon="1.67638">
        <ele>226</ele>
        <time>2019-08-09T08:32:41.775Z</time>
      </trkpt>
      <trkpt lat="44.52774" lon="1.67647">
        <ele>226</ele>
        <time>2019-08-09T08:32:46.760Z</time>
      </trkpt>
      <trkpt lat="44.52777" lon="1.67655">
        <ele>225</ele>
        <time>2019-08-09T08:32:50.787Z</time>
      </trkpt>
      <trkpt lat="44.52781" lon="1.67665">
        <ele>225</ele>
        <time>2019-08-09T08:32:55.774Z</time>
      </trkpt>
      <trkpt lat="44.52787" lon="1.6767">
        <ele>225</ele>
        <time>2019-08-09T08:33:00.773Z</time>
      </trkpt>
      <trkpt lat="44.52792" lon="1.67676">
        <ele>225</ele>
        <time>2019-08-09T08:33:05.765Z</time>
      </trkpt>
      <trkpt lat="44.52799" lon="1.67679">
        <ele>225</ele>
        <time>2019-08-09T08:33:10.771Z</time>
      </trkpt>
      <trkpt lat="44.52807" lon="1.67683">
        <ele>224</ele>
        <time>2019-08-09T08:33:15.777Z</time>
      </trkpt>
      <trkpt lat="44.52813" lon="1.67687">
        <ele>224</ele>
        <time>2019-08-09T08:33:19.785Z</time>
      </trkpt>
      <trkpt lat="44.52819" lon="1.67691">
        <ele>224</ele>
        <time>2019-08-09T08:33:24.773Z</time>
      </trkpt>
      <trkpt lat="44.52825" lon="1.67696">
        <ele>227</ele>
        <time>2019-08-09T08:33:29.770Z</time>
      </trkpt>
      <trkpt lat="44.52831" lon="1.67704">
        <ele>227</ele>
        <time>2019-08-09T08:33:34.771Z</time>
      </trkpt>
      <trkpt lat="44.52837" lon="1.67713">
        <ele>227</ele>
        <time>2019-08-09T08:33:39.765Z</time>
      </trkpt>
      <trkpt lat="44.52843" lon="1.67721">
        <ele>227</ele>
        <time>2019-08-09T08:33:44.766Z</time>
      </trkpt>
      <trkpt lat="44.52848" lon="1.67729">
        <ele>228</ele>
        <time>2019-08-09T08:33:49.775Z</time>
      </trkpt>
      <trkpt lat="44.52853" lon="1.67737">
        <ele>228</ele>
        <time>2019-08-09T08:33:54.771Z</time>
      </trkpt>
      <trkpt lat="44.52858" lon="1.67745">
        <ele>228</ele>
        <time>2019-08-09T08:33:59.770Z</time>
      </trkpt>
      <trkpt lat="44.52863" lon="1.6775">
        <ele>228</ele>
        <time>2019-08-09T08:34:04.774Z</time>
      </trkpt>
      <trkpt lat="44.52866" lon="1.67754">
        <ele>228</ele>
        <time>2019-08-09T08:34:09.771Z</time>
      </trkpt>
      <trkpt lat="44.52871" lon="1.67759">
        <ele>228</ele>
        <time>2019-08-09T08:34:14.770Z</time>
      </trkpt>
      <trkpt lat="44.52877" lon="1.67766">
        <ele>224</ele>
        <time>2019-08-09T08:34:19.765Z</time>
      </trkpt>
      <trkpt lat="44.52881" lon="1.6777">
        <ele>224</ele>
        <time>2019-08-09T08:34:24.770Z</time>
      </trkpt>
      <trkpt lat="44.52885" lon="1.67777">
        <ele>224</ele>
        <time>2019-08-09T08:34:29.771Z</time>
      </trkpt>
      <trkpt lat="44.52889" lon="1.67785">
        <ele>224</ele>
        <time>2019-08-09T08:34:34.770Z</time>
      </trkpt>
      <trkpt lat="44.52895" lon="1.67791">
        <ele>224</ele>
        <time>2019-08-09T08:34:39.771Z</time>
      </trkpt>
      <trkpt lat="44.52902" lon="1.67794">
        <ele>222</ele>
        <time>2019-08-09T08:34:44.771Z</time>
      </trkpt>
      <trkpt lat="44.52907" lon="1.67795">
        <ele>219</ele>
        <time>2019-08-09T08:34:48.778Z</time>
      </trkpt>
      <trkpt lat="44.52913" lon="1.67794">
        <ele>219</ele>
        <time>2019-08-09T08:34:53.777Z</time>
      </trkpt>
      <trkpt lat="44.52919" lon="1.67795">
        <ele>219</ele>
        <time>2019-08-09T08:34:58.773Z</time>
      </trkpt>
      <trkpt lat="44.52925" lon="1.67797">
        <ele>219</ele>
        <time>2019-08-09T08:35:03.779Z</time>
      </trkpt>
      <trkpt lat="44.52931" lon="1.67798">
        <ele>219</ele>
        <time>2019-08-09T08:35:08.778Z</time>
      </trkpt>
      <trkpt lat="44.52936" lon="1.678">
        <ele>219</ele>
        <time>2019-08-09T08:35:13.776Z</time>
      </trkpt>
      <trkpt lat="44.52942" lon="1.67802">
        <ele>219</ele>
        <time>2019-08-09T08:35:18.776Z</time>
      </trkpt>
      <trkpt lat="44.52947" lon="1.67803">
        <ele>219</ele>
        <time>2019-08-09T08:35:23.777Z</time>
      </trkpt>
      <trkpt lat="44.52952" lon="1.67805">
        <ele>219</ele>
        <time>2019-08-09T08:35:28.776Z</time>
      </trkpt>
      <trkpt lat="44.52958" lon="1.67806">
        <ele>219</ele>
        <time>2019-08-09T08:35:33.770Z</time>
      </trkpt>
      <trkpt lat="44.52964" lon="1.67809">
        <ele>220</ele>
        <time>2019-08-09T08:35:38.775Z</time>
      </trkpt>
      <trkpt lat="44.52971" lon="1.67811">
        <ele>220</ele>
        <time>2019-08-09T08:35:43.773Z</time>
      </trkpt>
      <trkpt lat="44.52979" lon="1.67814">
        <ele>220</ele>
        <time>2019-08-09T08:35:48.773Z</time>
      </trkpt>
      <trkpt lat="44.52985" lon="1.67816">
        <ele>220</ele>
        <time>2019-08-09T08:35:53.778Z</time>
      </trkpt>
      <trkpt lat="44.52992" lon="1.67819">
        <ele>219</ele>
        <time>2019-08-09T08:35:58.771Z</time>
      </trkpt>
      <trkpt lat="44.52998" lon="1.67822">
        <ele>215</ele>
        <time>2019-08-09T08:36:03.778Z</time>
      </trkpt>
      <trkpt lat="44.53004" lon="1.67827">
        <ele>215</ele>
        <time>2019-08-09T08:36:08.777Z</time>
      </trkpt>
      <trkpt lat="44.5301" lon="1.67835">
        <ele>215</ele>
        <time>2019-08-09T08:36:13.775Z</time>
      </trkpt>
      <trkpt lat="44.53018" lon="1.67841">
        <ele>215</ele>
        <time>2019-08-09T08:36:18.772Z</time>
      </trkpt>
      <trkpt lat="44.53024" lon="1.67846">
        <ele>215</ele>
        <time>2019-08-09T08:36:23.772Z</time>
      </trkpt>
      <trkpt lat="44.5303" lon="1.67853">
        <ele>213</ele>
        <time>2019-08-09T08:36:28.786Z</time>
      </trkpt>
      <trkpt lat="44.53034" lon="1.67862">
        <ele>213</ele>
        <time>2019-08-09T08:36:33.783Z</time>
      </trkpt>
      <trkpt lat="44.53037" lon="1.67871">
        <ele>213</ele>
        <time>2019-08-09T08:36:38.788Z</time>
      </trkpt>
      <trkpt lat="44.53038" lon="1.67877">
        <ele>212</ele>
        <time>2019-08-09T08:36:43.774Z</time>
      </trkpt>
      <trkpt lat="44.53036" lon="1.67882">
        <ele>212</ele>
        <time>2019-08-09T08:36:48.765Z</time>
      </trkpt>
      <trkpt lat="44.53032" lon="1.6789">
        <ele>212</ele>
        <time>2019-08-09T08:36:52.775Z</time>
      </trkpt>
      <trkpt lat="44.53027" lon="1.67895">
        <ele>212</ele>
        <time>2019-08-09T08:36:57.776Z</time>
      </trkpt>
      <trkpt lat="44.5302" lon="1.67898">
        <ele>212</ele>
        <time>2019-08-09T08:37:02.770Z</time>
      </trkpt>
      <trkpt lat="44.53012" lon="1.679">
        <ele>213</ele>
        <time>2019-08-09T08:37:07.774Z</time>
      </trkpt>
      <trkpt lat="44.53005" lon="1.67901">
        <ele>213</ele>
        <time>2019-08-09T08:37:12.772Z</time>
      </trkpt>
      <trkpt lat="44.52997" lon="1.67903">
        <ele>213</ele>
        <time>2019-08-09T08:37:17.770Z</time>
      </trkpt>
      <trkpt lat="44.52991" lon="1.67908">
        <ele>214</ele>
        <time>2019-08-09T08:37:22.773Z</time>
      </trkpt>
      <trkpt lat="44.52985" lon="1.67914">
        <ele>214</ele>
        <time>2019-08-09T08:37:27.773Z</time>
      </trkpt>
      <trkpt lat="44.52978" lon="1.6792">
        <ele>214</ele>
        <time>2019-08-09T08:37:32.772Z</time>
      </trkpt>
      <trkpt lat="44.52974" lon="1.67928">
        <ele>214</ele>
        <time>2019-08-09T08:37:37.773Z</time>
      </trkpt>
      <trkpt lat="44.5297" lon="1.67936">
        <ele>217</ele>
        <time>2019-08-09T08:37:42.776Z</time>
      </trkpt>
      <trkpt lat="44.52966" lon="1.67943">
        <ele>217</ele>
        <time>2019-08-09T08:37:47.780Z</time>
      </trkpt>
      <trkpt lat="44.52962" lon="1.67951">
        <ele>217</ele>
        <time>2019-08-09T08:37:52.771Z</time>
      </trkpt>
      <trkpt lat="44.52957" lon="1.67957">
        <ele>217</ele>
        <time>2019-08-09T08:37:57.774Z</time>
      </trkpt>
      <trkpt lat="44.52955" lon="1.67962">
        <ele>221</ele>
        <time>2019-08-09T08:38:02.776Z</time>
      </trkpt>
      <trkpt lat="44.5295" lon="1.67969">
        <ele>221</ele>
        <time>2019-08-09T08:38:07.775Z</time>
      </trkpt>
      <trkpt lat="44.52946" lon="1.67976">
        <ele>221</ele>
        <time>2019-08-09T08:38:12.772Z</time>
      </trkpt>
      <trkpt lat="44.52942" lon="1.67982">
        <ele>221</ele>
        <time>2019-08-09T08:38:17.174Z</time>
      </trkpt>
      <trkpt lat="44.52937" lon="1.67988">
        <ele>224</ele>
        <time>2019-08-09T08:38:21.773Z</time>
      </trkpt>
      <trkpt lat="44.52932" lon="1.67995">
        <ele>224</ele>
        <time>2019-08-09T08:38:26.777Z</time>
      </trkpt>
      <trkpt lat="44.52928" lon="1.68002">
        <ele>223</ele>
        <time>2019-08-09T08:38:31.775Z</time>
      </trkpt>
      <trkpt lat="44.52923" lon="1.68008">
        <ele>223</ele>
        <time>2019-08-09T08:38:36.775Z</time>
      </trkpt>
      <trkpt lat="44.52917" lon="1.68015">
        <ele>227</ele>
        <time>2019-08-09T08:38:41.775Z</time>
      </trkpt>
      <trkpt lat="44.52912" lon="1.68022">
        <ele>227</ele>
        <time>2019-08-09T08:38:46.775Z</time>
      </trkpt>
      <trkpt lat="44.52907" lon="1.68029">
        <ele>227</ele>
        <time>2019-08-09T08:38:51.775Z</time>
      </trkpt>
      <trkpt lat="44.52902" lon="1.68035">
        <ele>223</ele>
        <time>2019-08-09T08:38:56.776Z</time>
      </trkpt>
      <trkpt lat="44.52897" lon="1.68042">
        <ele>223</ele>
        <time>2019-08-09T08:39:01.777Z</time>
      </trkpt>
      <trkpt lat="44.52892" lon="1.68048">
        <ele>227</ele>
        <time>2019-08-09T08:39:06.773Z</time>
      </trkpt>
      <trkpt lat="44.52887" lon="1.68054">
        <ele>227</ele>
        <time>2019-08-09T08:39:11.774Z</time>
      </trkpt>
      <trkpt lat="44.52881" lon="1.6806">
        <ele>227</ele>
        <time>2019-08-09T08:39:16.777Z</time>
      </trkpt>
      <trkpt lat="44.52876" lon="1.68066">
        <ele>227</ele>
        <time>2019-08-09T08:39:21.761Z</time>
      </trkpt>
      <trkpt lat="44.52871" lon="1.68074">
        <ele>226</ele>
        <time>2019-08-09T08:39:26.772Z</time>
      </trkpt>
      <trkpt lat="44.52865" lon="1.6808">
        <ele>226</ele>
        <time>2019-08-09T08:39:31.775Z</time>
      </trkpt>
      <trkpt lat="44.52859" lon="1.68087">
        <ele>226</ele>
        <time>2019-08-09T08:39:36.773Z</time>
      </trkpt>
      <trkpt lat="44.52855" lon="1.68095">
        <ele>226</ele>
        <time>2019-08-09T08:39:41.791Z</time>
      </trkpt>
      <trkpt lat="44.52851" lon="1.68106">
        <ele>228</ele>
        <time>2019-08-09T08:39:46.771Z</time>
      </trkpt>
      <trkpt lat="44.52848" lon="1.68116">
        <ele>228</ele>
        <time>2019-08-09T08:39:51.772Z</time>
      </trkpt>
      <trkpt lat="44.52848" lon="1.68124">
        <ele>228</ele>
        <time>2019-08-09T08:39:56.772Z</time>
      </trkpt>
      <trkpt lat="44.52848" lon="1.68134">
        <ele>229</ele>
        <time>2019-08-09T08:40:01.775Z</time>
      </trkpt>
      <trkpt lat="44.52849" lon="1.68144">
        <ele>229</ele>
        <time>2019-08-09T08:40:06.777Z</time>
      </trkpt>
      <trkpt lat="44.5285" lon="1.68154">
        <ele>229</ele>
        <time>2019-08-09T08:40:11.772Z</time>
      </trkpt>
      <trkpt lat="44.52851" lon="1.68163">
        <ele>229</ele>
        <time>2019-08-09T08:40:16.774Z</time>
      </trkpt>
      <trkpt lat="44.52852" lon="1.68169">
        <ele>229</ele>
        <time>2019-08-09T08:40:20.784Z</time>
      </trkpt>
      <trkpt lat="44.52854" lon="1.68178">
        <ele>229</ele>
        <time>2019-08-09T08:40:25.782Z</time>
      </trkpt>
      <trkpt lat="44.52855" lon="1.68188">
        <ele>228</ele>
        <time>2019-08-09T08:40:30.781Z</time>
      </trkpt>
      <trkpt lat="44.52858" lon="1.68199">
        <ele>228</ele>
        <time>2019-08-09T08:40:35.767Z</time>
      </trkpt>
      <trkpt lat="44.5286" lon="1.68209">
        <ele>225</ele>
        <time>2019-08-09T08:40:40.778Z</time>
      </trkpt>
      <trkpt lat="44.52861" lon="1.68217">
        <ele>225</ele>
        <time>2019-08-09T08:40:45.772Z</time>
      </trkpt>
      <trkpt lat="44.52863" lon="1.68225">
        <ele>225</ele>
        <time>2019-08-09T08:40:50.773Z</time>
      </trkpt>
      <trkpt lat="44.52864" lon="1.68235">
        <ele>225</ele>
        <time>2019-08-09T08:40:55.776Z</time>
      </trkpt>
      <trkpt lat="44.52864" lon="1.68245">
        <ele>223</ele>
        <time>2019-08-09T08:41:00.772Z</time>
      </trkpt>
      <trkpt lat="44.52863" lon="1.68258">
        <ele>223</ele>
        <time>2019-08-09T08:41:05.777Z</time>
      </trkpt>
      <trkpt lat="44.52861" lon="1.6827">
        <ele>224</ele>
        <time>2019-08-09T08:41:10.778Z</time>
      </trkpt>
      <trkpt lat="44.5286" lon="1.6828">
        <ele>224</ele>
        <time>2019-08-09T08:41:15.777Z</time>
      </trkpt>
      <trkpt lat="44.52859" lon="1.68288">
        <ele>224</ele>
        <time>2019-08-09T08:41:20.774Z</time>
      </trkpt>
      <trkpt lat="44.52854" lon="1.68294">
        <ele>223</ele>
        <time>2019-08-09T08:41:25.775Z</time>
      </trkpt>
      <trkpt lat="44.52846" lon="1.68299">
        <ele>222</ele>
        <time>2019-08-09T08:41:30.775Z</time>
      </trkpt>
      <trkpt lat="44.5284" lon="1.68305">
        <ele>222</ele>
        <time>2019-08-09T08:41:35.780Z</time>
      </trkpt>
      <trkpt lat="44.52833" lon="1.6831">
        <ele>222</ele>
        <time>2019-08-09T08:41:40.775Z</time>
      </trkpt>
      <trkpt lat="44.52826" lon="1.68311">
        <ele>222</ele>
        <time>2019-08-09T08:41:45.775Z</time>
      </trkpt>
      <trkpt lat="44.5282" lon="1.68306">
        <ele>222</ele>
        <time>2019-08-09T08:41:50.775Z</time>
      </trkpt>
      <trkpt lat="44.52813" lon="1.68301">
        <ele>223</ele>
        <time>2019-08-09T08:41:55.779Z</time>
      </trkpt>
      <trkpt lat="44.52806" lon="1.68297">
        <ele>223</ele>
        <time>2019-08-09T08:42:00.772Z</time>
      </trkpt>
      <trkpt lat="44.528" lon="1.68293">
        <ele>223</ele>
        <time>2019-08-09T08:42:05.776Z</time>
      </trkpt>
      <trkpt lat="44.52794" lon="1.68289">
        <ele>222</ele>
        <time>2019-08-09T08:42:10.772Z</time>
      </trkpt>
      <trkpt lat="44.52788" lon="1.68286">
        <ele>227</ele>
        <time>2019-08-09T08:42:15.771Z</time>
      </trkpt>
      <trkpt lat="44.52782" lon="1.68281">
        <ele>227</ele>
        <time>2019-08-09T08:42:20.774Z</time>
      </trkpt>
      <trkpt lat="44.52776" lon="1.68278">
        <ele>227</ele>
        <time>2019-08-09T08:42:25.773Z</time>
      </trkpt>
      <trkpt lat="44.52769" lon="1.68274">
        <ele>227</ele>
        <time>2019-08-09T08:42:30.772Z</time>
      </trkpt>
      <trkpt lat="44.52762" lon="1.6827">
        <ele>231</ele>
        <time>2019-08-09T08:42:35.769Z</time>
      </trkpt>
      <trkpt lat="44.52755" lon="1.6827">
        <ele>231</ele>
        <time>2019-08-09T08:42:40.775Z</time>
      </trkpt>
      <trkpt lat="44.52752" lon="1.68275">
        <ele>231</ele>
        <time>2019-08-09T08:42:45.775Z</time>
      </trkpt>
      <trkpt lat="44.52752" lon="1.68283">
        <ele>231</ele>
        <time>2019-08-09T08:42:50.777Z</time>
      </trkpt>
      <trkpt lat="44.52752" lon="1.68295">
        <ele>233</ele>
        <time>2019-08-09T08:42:55.773Z</time>
      </trkpt>
      <trkpt lat="44.52754" lon="1.68306">
        <ele>233</ele>
        <time>2019-08-09T08:43:00.768Z</time>
      </trkpt>
      <trkpt lat="44.52756" lon="1.68313">
        <ele>233</ele>
        <time>2019-08-09T08:43:05.776Z</time>
      </trkpt>
      <trkpt lat="44.52757" lon="1.6832">
        <ele>235</ele>
        <time>2019-08-09T08:43:10.773Z</time>
      </trkpt>
      <trkpt lat="44.52759" lon="1.68326">
        <ele>235</ele>
        <time>2019-08-09T08:43:15.773Z</time>
      </trkpt>
      <trkpt lat="44.52759" lon="1.68334">
        <ele>235</ele>
        <time>2019-08-09T08:43:20.772Z</time>
      </trkpt>
      <trkpt lat="44.52756" lon="1.68341">
        <ele>235</ele>
        <time>2019-08-09T08:43:25.775Z</time>
      </trkpt>
      <trkpt lat="44.52753" lon="1.68349">
        <ele>237</ele>
        <time>2019-08-09T08:43:30.772Z</time>
      </trkpt>
      <trkpt lat="44.52752" lon="1.68353">
        <ele>237</ele>
        <time>2019-08-09T08:43:35.776Z</time>
      </trkpt>
      <trkpt lat="44.52752" lon="1.6836">
        <ele>237</ele>
        <time>2019-08-09T08:43:40.768Z</time>
      </trkpt>
      <trkpt lat="44.52753" lon="1.68365">
        <ele>237</ele>
        <time>2019-08-09T08:43:44.776Z</time>
      </trkpt>
      <trkpt lat="44.52753" lon="1.68373">
        <ele>237</ele>
        <time>2019-08-09T08:43:49.775Z</time>
      </trkpt>
      <trkpt lat="44.52753" lon="1.68382">
        <ele>239</ele>
        <time>2019-08-09T08:43:54.774Z</time>
      </trkpt>
      <trkpt lat="44.52755" lon="1.68393">
        <ele>239</ele>
        <time>2019-08-09T08:43:59.778Z</time>
      </trkpt>
      <trkpt lat="44.52758" lon="1.68403">
        <ele>241</ele>
        <time>2019-08-09T08:44:04.772Z</time>
      </trkpt>
      <trkpt lat="44.52761" lon="1.68414">
        <ele>241</ele>
        <time>2019-08-09T08:44:09.776Z</time>
      </trkpt>
      <trkpt lat="44.52762" lon="1.68426">
        <ele>241</ele>
        <time>2019-08-09T08:44:14.770Z</time>
      </trkpt>
      <trkpt lat="44.52765" lon="1.68437">
        <ele>240</ele>
        <time>2019-08-09T08:44:19.773Z</time>
      </trkpt>
      <trkpt lat="44.52768" lon="1.68447">
        <ele>240</ele>
        <time>2019-08-09T08:44:24.781Z</time>
      </trkpt>
      <trkpt lat="44.52771" lon="1.68457">
        <ele>240</ele>
        <time>2019-08-09T08:44:29.781Z</time>
      </trkpt>
      <trkpt lat="44.52775" lon="1.68462">
        <ele>244</ele>
        <time>2019-08-09T08:44:34.776Z</time>
      </trkpt>
      <trkpt lat="44.52778" lon="1.68473">
        <ele>244</ele>
        <time>2019-08-09T08:44:38.790Z</time>
      </trkpt>
      <trkpt lat="44.52779" lon="1.68485">
        <ele>244</ele>
        <time>2019-08-09T08:44:43.781Z</time>
      </trkpt>
      <trkpt lat="44.52779" lon="1.68495">
        <ele>246</ele>
        <time>2019-08-09T08:44:48.783Z</time>
      </trkpt>
      <trkpt lat="44.52776" lon="1.68504">
        <ele>246</ele>
        <time>2019-08-09T08:44:53.774Z</time>
      </trkpt>
      <trkpt lat="44.52771" lon="1.68513">
        <ele>246</ele>
        <time>2019-08-09T08:44:58.777Z</time>
      </trkpt>
      <trkpt lat="44.52765" lon="1.6852">
        <ele>247</ele>
        <time>2019-08-09T08:45:03.773Z</time>
      </trkpt>
      <trkpt lat="44.52762" lon="1.68526">
        <ele>254</ele>
        <time>2019-08-09T08:45:08.773Z</time>
      </trkpt>
      <trkpt lat="44.5276" lon="1.68533">
        <ele>254</ele>
        <time>2019-08-09T08:45:13.774Z</time>
      </trkpt>
      <trkpt lat="44.52756" lon="1.6854">
        <ele>254</ele>
        <time>2019-08-09T08:45:18.775Z</time>
      </trkpt>
      <trkpt lat="44.52757" lon="1.68553">
        <ele>254</ele>
        <time>2019-08-09T08:45:23.779Z</time>
      </trkpt>
      <trkpt lat="44.52755" lon="1.68563">
        <ele>254</ele>
        <time>2019-08-09T08:45:28.773Z</time>
      </trkpt>
      <trkpt lat="44.52754" lon="1.68571">
        <ele>253</ele>
        <time>2019-08-09T08:45:32.783Z</time>
      </trkpt>
      <trkpt lat="44.52754" lon="1.68582">
        <ele>253</ele>
        <time>2019-08-09T08:45:37.784Z</time>
      </trkpt>
      <trkpt lat="44.5275" lon="1.68591">
        <ele>253</ele>
        <time>2019-08-09T08:45:42.780Z</time>
      </trkpt>
      <trkpt lat="44.5275" lon="1.68599">
        <ele>255</ele>
        <time>2019-08-09T08:45:46.794Z</time>
      </trkpt>
      <trkpt lat="44.52748" lon="1.68609">
        <ele>255</ele>
        <time>2019-08-09T08:45:51.776Z</time>
      </trkpt>
      <trkpt lat="44.52749" lon="1.68618">
        <ele>255</ele>
        <time>2019-08-09T08:45:56.786Z</time>
      </trkpt>
      <trkpt lat="44.52747" lon="1.68627">
        <ele>258</ele>
        <time>2019-08-09T08:46:01.792Z</time>
      </trkpt>
      <trkpt lat="44.52746" lon="1.68637">
        <ele>258</ele>
        <time>2019-08-09T08:46:06.794Z</time>
      </trkpt>
      <trkpt lat="44.52744" lon="1.68645">
        <ele>258</ele>
        <time>2019-08-09T08:46:11.788Z</time>
      </trkpt>
      <trkpt lat="44.52739" lon="1.68648">
        <ele>258</ele>
        <time>2019-08-09T08:46:16.780Z</time>
      </trkpt>
      <trkpt lat="44.52735" lon="1.68655">
        <ele>262</ele>
        <time>2019-08-09T08:46:21.786Z</time>
      </trkpt>
      <trkpt lat="44.52734" lon="1.68664">
        <ele>262</ele>
        <time>2019-08-09T08:46:26.790Z</time>
      </trkpt>
      <trkpt lat="44.52734" lon="1.68674">
        <ele>262</ele>
        <time>2019-08-09T08:46:31.795Z</time>
      </trkpt>
      <trkpt lat="44.52733" lon="1.68684">
        <ele>263</ele>
        <time>2019-08-09T08:46:36.796Z</time>
      </trkpt>
      <trkpt lat="44.52728" lon="1.68692">
        <ele>263</ele>
        <time>2019-08-09T08:46:41.764Z</time>
      </trkpt>
      <trkpt lat="44.52723" lon="1.68699">
        <ele>263</ele>
        <time>2019-08-09T08:46:46.775Z</time>
      </trkpt>
      <trkpt lat="44.5272" lon="1.68708">
        <ele>264</ele>
        <time>2019-08-09T08:46:51.776Z</time>
      </trkpt>
      <trkpt lat="44.52716" lon="1.68717">
        <ele>264</ele>
        <time>2019-08-09T08:46:56.776Z</time>
      </trkpt>
      <trkpt lat="44.52712" lon="1.68726">
        <ele>264</ele>
        <time>2019-08-09T08:47:01.777Z</time>
      </trkpt>
      <trkpt lat="44.52708" lon="1.68736">
        <ele>265</ele>
        <time>2019-08-09T08:47:06.775Z</time>
      </trkpt>
      <trkpt lat="44.52705" lon="1.68743">
        <ele>266</ele>
        <time>2019-08-09T08:47:10.784Z</time>
      </trkpt>
      <trkpt lat="44.52702" lon="1.68752">
        <ele>266</ele>
        <time>2019-08-09T08:47:15.780Z</time>
      </trkpt>
      <trkpt lat="44.52697" lon="1.68758">
        <ele>266</ele>
        <time>2019-08-09T08:47:19.794Z</time>
      </trkpt>
      <trkpt lat="44.52691" lon="1.68765">
        <ele>266</ele>
        <time>2019-08-09T08:47:24.791Z</time>
      </trkpt>
      <trkpt lat="44.52687" lon="1.68773">
        <ele>266</ele>
        <time>2019-08-09T08:47:29.787Z</time>
      </trkpt>
      <trkpt lat="44.52684" lon="1.68782">
        <ele>266</ele>
        <time>2019-08-09T08:47:34.782Z</time>
      </trkpt>
      <trkpt lat="44.52678" lon="1.68791">
        <ele>266</ele>
        <time>2019-08-09T08:47:39.796Z</time>
      </trkpt>
      <trkpt lat="44.52676" lon="1.68799">
        <ele>264</ele>
        <time>2019-08-09T08:47:44.789Z</time>
      </trkpt>
      <trkpt lat="44.52674" lon="1.68809">
        <ele>264</ele>
        <time>2019-08-09T08:47:49.780Z</time>
      </trkpt>
      <trkpt lat="44.52671" lon="1.68818">
        <ele>264</ele>
        <time>2019-08-09T08:47:54.779Z</time>
      </trkpt>
      <trkpt lat="44.52671" lon="1.68821">
        <ele>264</ele>
        <time>2019-08-09T08:47:59.764Z</time>
      </trkpt>
      <trkpt lat="44.52671" lon="1.68822">
        <ele>264</ele>
        <time>2019-08-09T08:48:03.779Z</time>
      </trkpt>
      <trkpt lat="44.52668" lon="1.6883">
        <ele>264</ele>
        <time>2019-08-09T08:48:08.773Z</time>
      </trkpt>
      <trkpt lat="44.52664" lon="1.68835">
        <ele>264</ele>
        <time>2019-08-09T08:48:13.777Z</time>
      </trkpt>
      <trkpt lat="44.52661" lon="1.68845">
        <ele>264</ele>
        <time>2019-08-09T08:48:18.776Z</time>
      </trkpt>
      <trkpt lat="44.52658" lon="1.68855">
        <ele>263</ele>
        <time>2019-08-09T08:48:23.775Z</time>
      </trkpt>
      <trkpt lat="44.52655" lon="1.68866">
        <ele>263</ele>
        <time>2019-08-09T08:48:28.777Z</time>
      </trkpt>
      <trkpt lat="44.52651" lon="1.68873">
        <ele>261</ele>
        <time>2019-08-09T08:48:33.778Z</time>
      </trkpt>
      <trkpt lat="44.52648" lon="1.68887">
        <ele>262</ele>
        <time>2019-08-09T08:48:38.778Z</time>
      </trkpt>
      <trkpt lat="44.52647" lon="1.68899">
        <ele>262</ele>
        <time>2019-08-09T08:48:43.777Z</time>
      </trkpt>
      <trkpt lat="44.52647" lon="1.68909">
        <ele>261</ele>
        <time>2019-08-09T08:48:48.780Z</time>
      </trkpt>
      <trkpt lat="44.52647" lon="1.68919">
        <ele>261</ele>
        <time>2019-08-09T08:48:53.775Z</time>
      </trkpt>
      <trkpt lat="44.52642" lon="1.68925">
        <ele>261</ele>
        <time>2019-08-09T08:48:58.782Z</time>
      </trkpt>
      <trkpt lat="44.52636" lon="1.68932">
        <ele>259</ele>
        <time>2019-08-09T08:49:03.788Z</time>
      </trkpt>
      <trkpt lat="44.52628" lon="1.68935">
        <ele>259</ele>
        <time>2019-08-09T08:49:08.793Z</time>
      </trkpt>
      <trkpt lat="44.5262" lon="1.68937">
        <ele>259</ele>
        <time>2019-08-09T08:49:13.780Z</time>
      </trkpt>
      <trkpt lat="44.52614" lon="1.68943">
        <ele>259</ele>
        <time>2019-08-09T08:49:18.781Z</time>
      </trkpt>
      <trkpt lat="44.52606" lon="1.68947">
        <ele>259</ele>
        <time>2019-08-09T08:49:23.774Z</time>
      </trkpt>
      <trkpt lat="44.52598" lon="1.68951">
        <ele>259</ele>
        <time>2019-08-09T08:49:28.777Z</time>
      </trkpt>
      <trkpt lat="44.52594" lon="1.68958">
        <ele>257</ele>
        <time>2019-08-09T08:49:33.773Z</time>
      </trkpt>
      <trkpt lat="44.52591" lon="1.68966">
        <ele>257</ele>
        <time>2019-08-09T08:49:38.775Z</time>
      </trkpt>
      <trkpt lat="44.52586" lon="1.68975">
        <ele>257</ele>
        <time>2019-08-09T08:49:43.780Z</time>
      </trkpt>
      <trkpt lat="44.52583" lon="1.68984">
        <ele>257</ele>
        <time>2019-08-09T08:49:48.777Z</time>
      </trkpt>
      <trkpt lat="44.52583" lon="1.68991">
        <ele>256</ele>
        <time>2019-08-09T08:49:53.777Z</time>
      </trkpt>
      <trkpt lat="44.52583" lon="1.69001">
        <ele>256</ele>
        <time>2019-08-09T08:49:58.778Z</time>
      </trkpt>
      <trkpt lat="44.52583" lon="1.69013">
        <ele>256</ele>
        <time>2019-08-09T08:50:03.776Z</time>
      </trkpt>
      <trkpt lat="44.52584" lon="1.69022">
        <ele>255</ele>
        <time>2019-08-09T08:50:08.778Z</time>
      </trkpt>
      <trkpt lat="44.52582" lon="1.6903">
        <ele>255</ele>
        <time>2019-08-09T08:50:13.787Z</time>
      </trkpt>
      <trkpt lat="44.5258" lon="1.69041">
        <ele>255</ele>
        <time>2019-08-09T08:50:18.776Z</time>
      </trkpt>
      <trkpt lat="44.52582" lon="1.69054">
        <ele>254</ele>
        <time>2019-08-09T08:50:23.781Z</time>
      </trkpt>
      <trkpt lat="44.52583" lon="1.69066">
        <ele>254</ele>
        <time>2019-08-09T08:50:28.779Z</time>
      </trkpt>
      <trkpt lat="44.52585" lon="1.69077">
        <ele>253</ele>
        <time>2019-08-09T08:50:33.779Z</time>
      </trkpt>
      <trkpt lat="44.52585" lon="1.69086">
        <ele>253</ele>
        <time>2019-08-09T08:50:38.778Z</time>
      </trkpt>
      <trkpt lat="44.52584" lon="1.69095">
        <ele>253</ele>
        <time>2019-08-09T08:50:43.778Z</time>
      </trkpt>
      <trkpt lat="44.52584" lon="1.69103">
        <ele>252</ele>
        <time>2019-08-09T08:50:48.777Z</time>
      </trkpt>
      <trkpt lat="44.52584" lon="1.69115">
        <ele>252</ele>
        <time>2019-08-09T08:50:53.776Z</time>
      </trkpt>
      <trkpt lat="44.52583" lon="1.69126">
        <ele>252</ele>
        <time>2019-08-09T08:50:58.786Z</time>
      </trkpt>
      <trkpt lat="44.52585" lon="1.69137">
        <ele>252</ele>
        <time>2019-08-09T08:51:03.774Z</time>
      </trkpt>
      <trkpt lat="44.52587" lon="1.69148">
        <ele>252</ele>
        <time>2019-08-09T08:51:08.782Z</time>
      </trkpt>
      <trkpt lat="44.52589" lon="1.69156">
        <ele>252</ele>
        <time>2019-08-09T08:51:13.780Z</time>
      </trkpt>
      <trkpt lat="44.52588" lon="1.69165">
        <ele>252</ele>
        <time>2019-08-09T08:51:18.778Z</time>
      </trkpt>
      <trkpt lat="44.52586" lon="1.69172">
        <ele>252</ele>
        <time>2019-08-09T08:51:22.790Z</time>
      </trkpt>
      <trkpt lat="44.5258" lon="1.6918">
        <ele>252</ele>
        <time>2019-08-09T08:51:27.769Z</time>
      </trkpt>
      <trkpt lat="44.52578" lon="1.69187">
        <ele>251</ele>
        <time>2019-08-09T08:51:32.778Z</time>
      </trkpt>
      <trkpt lat="44.52575" lon="1.69194">
        <ele>251</ele>
        <time>2019-08-09T08:51:36.806Z</time>
      </trkpt>
      <trkpt lat="44.52572" lon="1.69203">
        <ele>251</ele>
        <time>2019-08-09T08:51:41.794Z</time>
      </trkpt>
      <trkpt lat="44.52572" lon="1.69213">
        <ele>250</ele>
        <time>2019-08-09T08:51:46.791Z</time>
      </trkpt>
      <trkpt lat="44.52572" lon="1.69223">
        <ele>250</ele>
        <time>2019-08-09T08:51:51.795Z</time>
      </trkpt>
      <trkpt lat="44.52575" lon="1.69231">
        <ele>250</ele>
        <time>2019-08-09T08:51:56.798Z</time>
      </trkpt>
      <trkpt lat="44.52575" lon="1.6924">
        <ele>249</ele>
        <time>2019-08-09T08:52:01.796Z</time>
      </trkpt>
      <trkpt lat="44.52574" lon="1.69245">
        <ele>249</ele>
        <time>2019-08-09T08:52:06.790Z</time>
      </trkpt>
      <trkpt lat="44.52574" lon="1.69252">
        <ele>249</ele>
        <time>2019-08-09T08:52:11.792Z</time>
      </trkpt>
      <trkpt lat="44.52573" lon="1.69255">
        <ele>249</ele>
        <time>2019-08-09T08:52:16.793Z</time>
      </trkpt>
      <trkpt lat="44.52572" lon="1.69261">
        <ele>249</ele>
        <time>2019-08-09T08:52:21.795Z</time>
      </trkpt>
      <trkpt lat="44.52572" lon="1.69273">
        <ele>247</ele>
        <time>2019-08-09T08:52:26.811Z</time>
      </trkpt>
      <trkpt lat="44.5257" lon="1.69281">
        <ele>247</ele>
        <time>2019-08-09T08:52:41.794Z</time>
      </trkpt>
      <trkpt lat="44.52569" lon="1.69284">
        <ele>247</ele>
        <time>2019-08-09T08:52:46.793Z</time>
      </trkpt>
      <trkpt lat="44.52569" lon="1.69287">
        <ele>247</ele>
        <time>2019-08-09T08:52:51.783Z</time>
      </trkpt>
      <trkpt lat="44.52568" lon="1.69288">
        <ele>247</ele>
        <time>2019-08-09T08:52:56.784Z</time>
      </trkpt>
      <trkpt lat="44.52566" lon="1.6929">
        <ele>247</ele>
        <time>2019-08-09T08:53:01.783Z</time>
      </trkpt>
      <trkpt lat="44.52566" lon="1.69295">
        <ele>243</ele>
        <time>2019-08-09T08:53:06.788Z</time>
      </trkpt>
      <trkpt lat="44.52565" lon="1.69304">
        <ele>243</ele>
        <time>2019-08-09T08:53:11.795Z</time>
      </trkpt>
      <trkpt lat="44.52563" lon="1.69313">
        <ele>243</ele>
        <time>2019-08-09T08:53:16.801Z</time>
      </trkpt>
      <trkpt lat="44.52563" lon="1.69322">
        <ele>240</ele>
        <time>2019-08-09T08:53:21.792Z</time>
      </trkpt>
      <trkpt lat="44.52565" lon="1.69329">
        <ele>240</ele>
        <time>2019-08-09T08:53:25.818Z</time>
      </trkpt>
      <trkpt lat="44.52566" lon="1.6934">
        <ele>240</ele>
        <time>2019-08-09T08:53:30.798Z</time>
      </trkpt>
      <trkpt lat="44.52566" lon="1.69349">
        <ele>240</ele>
        <time>2019-08-09T08:53:34.818Z</time>
      </trkpt>
      <trkpt lat="44.52561" lon="1.69353">
        <ele>240</ele>
        <time>2019-08-09T08:53:39.806Z</time>
      </trkpt>
      <trkpt lat="44.5256" lon="1.69357">
        <ele>240</ele>
        <time>2019-08-09T08:53:44.814Z</time>
      </trkpt>
      <trkpt lat="44.52563" lon="1.69364">
        <ele>240</ele>
        <time>2019-08-09T08:53:49.813Z</time>
      </trkpt>
      <trkpt lat="44.52564" lon="1.69372">
        <ele>240</ele>
        <time>2019-08-09T08:53:54.811Z</time>
      </trkpt>
      <trkpt lat="44.5256" lon="1.69379">
        <ele>238</ele>
        <time>2019-08-09T08:53:59.822Z</time>
      </trkpt>
      <trkpt lat="44.52558" lon="1.69388">
        <ele>238</ele>
        <time>2019-08-09T08:54:04.796Z</time>
      </trkpt>
      <trkpt lat="44.52555" lon="1.69397">
        <ele>238</ele>
        <time>2019-08-09T08:54:09.811Z</time>
      </trkpt>
      <trkpt lat="44.52553" lon="1.69406">
        <ele>235</ele>
        <time>2019-08-09T08:54:14.791Z</time>
      </trkpt>
      <trkpt lat="44.52552" lon="1.69414">
        <ele>235</ele>
        <time>2019-08-09T08:54:18.814Z</time>
      </trkpt>
      <trkpt lat="44.52553" lon="1.69422">
        <ele>235</ele>
        <time>2019-08-09T08:54:23.802Z</time>
      </trkpt>
      <trkpt lat="44.52554" lon="1.69431">
        <ele>232</ele>
        <time>2019-08-09T08:54:28.823Z</time>
      </trkpt>
      <trkpt lat="44.52554" lon="1.69439">
        <ele>232</ele>
        <time>2019-08-09T08:54:33.812Z</time>
      </trkpt>
      <trkpt lat="44.52553" lon="1.69443">
        <ele>232</ele>
        <time>2019-08-09T08:54:37.824Z</time>
      </trkpt>
      <trkpt lat="44.52552" lon="1.69449">
        <ele>232</ele>
        <time>2019-08-09T08:54:42.833Z</time>
      </trkpt>
      <trkpt lat="44.52553" lon="1.69458">
        <ele>232</ele>
        <time>2019-08-09T08:54:47.808Z</time>
      </trkpt>
      <trkpt lat="44.5255" lon="1.69464">
        <ele>229</ele>
        <time>2019-08-09T08:54:52.781Z</time>
      </trkpt>
      <trkpt lat="44.52549" lon="1.69471">
        <ele>229</ele>
        <time>2019-08-09T08:54:56.813Z</time>
      </trkpt>
      <trkpt lat="44.52554" lon="1.69477">
        <ele>229</ele>
        <time>2019-08-09T08:55:01.811Z</time>
      </trkpt>
      <trkpt lat="44.52556" lon="1.69484">
        <ele>229</ele>
        <time>2019-08-09T08:55:06.777Z</time>
      </trkpt>
      <trkpt lat="44.52558" lon="1.69489">
        <ele>228</ele>
        <time>2019-08-09T08:55:11.808Z</time>
      </trkpt>
      <trkpt lat="44.52557" lon="1.69494">
        <ele>228</ele>
        <time>2019-08-09T08:55:16.788Z</time>
      </trkpt>
      <trkpt lat="44.52555" lon="1.69499">
        <ele>228</ele>
        <time>2019-08-09T08:55:21.821Z</time>
      </trkpt>
      <trkpt lat="44.52555" lon="1.69509">
        <ele>228</ele>
        <time>2019-08-09T08:55:26.787Z</time>
      </trkpt>
      <trkpt lat="44.52554" lon="1.69517">
        <ele>227</ele>
        <time>2019-08-09T08:55:31.769Z</time>
      </trkpt>
      <trkpt lat="44.52554" lon="1.69524">
        <ele>227</ele>
        <time>2019-08-09T08:55:35.794Z</time>
      </trkpt>
      <trkpt lat="44.52557" lon="1.69531">
        <ele>227</ele>
        <time>2019-08-09T08:55:40.785Z</time>
      </trkpt>
      <trkpt lat="44.52555" lon="1.69536">
        <ele>227</ele>
        <time>2019-08-09T08:55:45.799Z</time>
      </trkpt>
      <trkpt lat="44.52552" lon="1.69545">
        <ele>225</ele>
        <time>2019-08-09T08:55:50.798Z</time>
      </trkpt>
      <trkpt lat="44.52549" lon="1.69552">
        <ele>225</ele>
        <time>2019-08-09T08:55:55.807Z</time>
      </trkpt>
      <trkpt lat="44.52547" lon="1.69561">
        <ele>225</ele>
        <time>2019-08-09T08:56:00.806Z</time>
      </trkpt>
      <trkpt lat="44.52547" lon="1.6957">
        <ele>224</ele>
        <time>2019-08-09T08:56:05.787Z</time>
      </trkpt>
      <trkpt lat="44.52548" lon="1.69579">
        <ele>224</ele>
        <time>2019-08-09T08:56:09.799Z</time>
      </trkpt>
      <trkpt lat="44.5255" lon="1.69589">
        <ele>224</ele>
        <time>2019-08-09T08:56:14.784Z</time>
      </trkpt>
      <trkpt lat="44.52552" lon="1.69595">
        <ele>224</ele>
        <time>2019-08-09T08:56:19.796Z</time>
      </trkpt>
      <trkpt lat="44.52549" lon="1.69602">
        <ele>223</ele>
        <time>2019-08-09T08:56:24.794Z</time>
      </trkpt>
      <trkpt lat="44.52546" lon="1.6961">
        <ele>223</ele>
        <time>2019-08-09T08:56:29.793Z</time>
      </trkpt>
      <trkpt lat="44.52541" lon="1.69616">
        <ele>222</ele>
        <time>2019-08-09T08:56:34.798Z</time>
      </trkpt>
      <trkpt lat="44.52539" lon="1.6962">
        <ele>222</ele>
        <time>2019-08-09T08:56:38.823Z</time>
      </trkpt>
      <trkpt lat="44.52542" lon="1.69628">
        <ele>225</ele>
        <time>2019-08-09T08:56:43.807Z</time>
      </trkpt>
      <trkpt lat="44.52546" lon="1.69638">
        <ele>225</ele>
        <time>2019-08-09T08:56:48.825Z</time>
      </trkpt>
      <trkpt lat="44.52553" lon="1.6965">
        <ele>225</ele>
        <time>2019-08-09T08:56:53.821Z</time>
      </trkpt>
      <trkpt lat="44.5256" lon="1.69659">
        <ele>227</ele>
        <time>2019-08-09T08:56:58.793Z</time>
      </trkpt>
      <trkpt lat="44.52567" lon="1.69663">
        <ele>227</ele>
        <time>2019-08-09T08:57:03.784Z</time>
      </trkpt>
      <trkpt lat="44.52573" lon="1.69665">
        <ele>227</ele>
        <time>2019-08-09T08:57:08.796Z</time>
      </trkpt>
      <trkpt lat="44.52581" lon="1.69667">
        <ele>227</ele>
        <time>2019-08-09T08:57:13.812Z</time>
      </trkpt>
      <trkpt lat="44.52588" lon="1.69672">
        <ele>227</ele>
        <time>2019-08-09T08:57:17.825Z</time>
      </trkpt>
      <trkpt lat="44.52597" lon="1.69677">
        <ele>228</ele>
        <time>2019-08-09T08:57:22.804Z</time>
      </trkpt>
      <trkpt lat="44.52602" lon="1.69682">
        <ele>231</ele>
        <time>2019-08-09T08:57:27.795Z</time>
      </trkpt>
      <trkpt lat="44.52607" lon="1.69686">
        <ele>231</ele>
        <time>2019-08-09T08:57:31.822Z</time>
      </trkpt>
      <trkpt lat="44.52613" lon="1.69689">
        <ele>231</ele>
        <time>2019-08-09T08:57:36.785Z</time>
      </trkpt>
      <trkpt lat="44.5262" lon="1.69694">
        <ele>231</ele>
        <time>2019-08-09T08:57:41.769Z</time>
      </trkpt>
      <trkpt lat="44.52627" lon="1.69699">
        <ele>231</ele>
        <time>2019-08-09T08:57:45.796Z</time>
      </trkpt>
      <trkpt lat="44.52633" lon="1.69706">
        <ele>231</ele>
        <time>2019-08-09T08:57:50.791Z</time>
      </trkpt>
      <trkpt lat="44.52639" lon="1.69709">
        <ele>235</ele>
        <time>2019-08-09T08:57:54.804Z</time>
      </trkpt>
      <trkpt lat="44.52646" lon="1.69716">
        <ele>235</ele>
        <time>2019-08-09T08:57:59.813Z</time>
      </trkpt>
      <trkpt lat="44.52651" lon="1.69721">
        <ele>235</ele>
        <time>2019-08-09T08:58:04.804Z</time>
      </trkpt>
      <trkpt lat="44.52656" lon="1.69729">
        <ele>233</ele>
        <time>2019-08-09T08:58:09.799Z</time>
      </trkpt>
      <trkpt lat="44.52662" lon="1.69733">
        <ele>233</ele>
        <time>2019-08-09T08:58:13.834Z</time>
      </trkpt>
      <trkpt lat="44.52667" lon="1.69738">
        <ele>236</ele>
        <time>2019-08-09T08:58:18.795Z</time>
      </trkpt>
      <trkpt lat="44.52672" lon="1.69743">
        <ele>236</ele>
        <time>2019-08-09T08:58:23.800Z</time>
      </trkpt>
      <trkpt lat="44.52679" lon="1.69752">
        <ele>236</ele>
        <time>2019-08-09T08:58:28.795Z</time>
      </trkpt>
      <trkpt lat="44.52686" lon="1.6976">
        <ele>233</ele>
        <time>2019-08-09T08:58:33.798Z</time>
      </trkpt>
      <trkpt lat="44.52693" lon="1.69771">
        <ele>237</ele>
        <time>2019-08-09T08:58:38.782Z</time>
      </trkpt>
      <trkpt lat="44.52697" lon="1.69779">
        <ele>237</ele>
        <time>2019-08-09T08:58:43.803Z</time>
      </trkpt>
      <trkpt lat="44.52702" lon="1.69786">
        <ele>237</ele>
        <time>2019-08-09T08:58:48.788Z</time>
      </trkpt>
      <trkpt lat="44.52708" lon="1.69794">
        <ele>241</ele>
        <time>2019-08-09T08:58:53.798Z</time>
      </trkpt>
      <trkpt lat="44.52715" lon="1.69804">
        <ele>238</ele>
        <time>2019-08-09T08:58:58.780Z</time>
      </trkpt>
      <trkpt lat="44.52721" lon="1.69811">
        <ele>238</ele>
        <time>2019-08-09T08:59:03.786Z</time>
      </trkpt>
      <trkpt lat="44.52728" lon="1.69814">
        <ele>238</ele>
        <time>2019-08-09T08:59:08.760Z</time>
      </trkpt>
      <trkpt lat="44.52734" lon="1.69815">
        <ele>238</ele>
        <time>2019-08-09T08:59:12.790Z</time>
      </trkpt>
      <trkpt lat="44.5274" lon="1.69818">
        <ele>237</ele>
        <time>2019-08-09T08:59:17.779Z</time>
      </trkpt>
      <trkpt lat="44.52745" lon="1.6982">
        <ele>241</ele>
        <time>2019-08-09T08:59:21.801Z</time>
      </trkpt>
      <trkpt lat="44.5275" lon="1.69823">
        <ele>241</ele>
        <time>2019-08-09T08:59:26.810Z</time>
      </trkpt>
      <trkpt lat="44.52756" lon="1.69825">
        <ele>241</ele>
        <time>2019-08-09T08:59:31.831Z</time>
      </trkpt>
      <trkpt lat="44.52764" lon="1.69833">
        <ele>240</ele>
        <time>2019-08-09T08:59:36.814Z</time>
      </trkpt>
      <trkpt lat="44.52771" lon="1.69837">
        <ele>240</ele>
        <time>2019-08-09T08:59:41.812Z</time>
      </trkpt>
      <trkpt lat="44.52778" lon="1.69841">
        <ele>240</ele>
        <time>2019-08-09T08:59:46.816Z</time>
      </trkpt>
      <trkpt lat="44.52785" lon="1.69843">
        <ele>240</ele>
        <time>2019-08-09T08:59:51.797Z</time>
      </trkpt>
      <trkpt lat="44.52792" lon="1.69846">
        <ele>238</ele>
        <time>2019-08-09T08:59:56.815Z</time>
      </trkpt>
      <trkpt lat="44.528" lon="1.69849">
        <ele>242</ele>
        <time>2019-08-09T09:00:01.813Z</time>
      </trkpt>
      <trkpt lat="44.52807" lon="1.69852">
        <ele>242</ele>
        <time>2019-08-09T09:00:06.816Z</time>
      </trkpt>
      <trkpt lat="44.52815" lon="1.69852">
        <ele>242</ele>
        <time>2019-08-09T09:00:11.808Z</time>
      </trkpt>
      <trkpt lat="44.52824" lon="1.69852">
        <ele>241</ele>
        <time>2019-08-09T09:00:16.797Z</time>
      </trkpt>
      <trkpt lat="44.52832" lon="1.69855">
        <ele>241</ele>
        <time>2019-08-09T09:00:21.798Z</time>
      </trkpt>
      <trkpt lat="44.52837" lon="1.69856">
        <ele>241</ele>
        <time>2019-08-09T09:00:25.812Z</time>
      </trkpt>
      <trkpt lat="44.52845" lon="1.69856">
        <ele>241</ele>
        <time>2019-08-09T09:00:30.814Z</time>
      </trkpt>
      <trkpt lat="44.52853" lon="1.69855">
        <ele>241</ele>
        <time>2019-08-09T09:00:35.805Z</time>
      </trkpt>
      <trkpt lat="44.52862" lon="1.69856">
        <ele>241</ele>
        <time>2019-08-09T09:00:40.799Z</time>
      </trkpt>
      <trkpt lat="44.52871" lon="1.69858">
        <ele>241</ele>
        <time>2019-08-09T09:00:45.788Z</time>
      </trkpt>
      <trkpt lat="44.5288" lon="1.69859">
        <ele>242</ele>
        <time>2019-08-09T09:00:50.788Z</time>
      </trkpt>
      <trkpt lat="44.52888" lon="1.69861">
        <ele>242</ele>
        <time>2019-08-09T09:00:55.799Z</time>
      </trkpt>
      <trkpt lat="44.52897" lon="1.69861">
        <ele>242</ele>
        <time>2019-08-09T09:01:00.790Z</time>
      </trkpt>
      <trkpt lat="44.52904" lon="1.69862">
        <ele>242</ele>
        <time>2019-08-09T09:01:05.794Z</time>
      </trkpt>
      <trkpt lat="44.52912" lon="1.6986">
        <ele>242</ele>
        <time>2019-08-09T09:01:10.794Z</time>
      </trkpt>
      <trkpt lat="44.52921" lon="1.69858">
        <ele>242</ele>
        <time>2019-08-09T09:01:15.774Z</time>
      </trkpt>
      <trkpt lat="44.52929" lon="1.69858">
        <ele>242</ele>
        <time>2019-08-09T09:01:20.760Z</time>
      </trkpt>
      <trkpt lat="44.52937" lon="1.69859">
        <ele>241</ele>
        <time>2019-08-09T09:01:24.793Z</time>
      </trkpt>
      <trkpt lat="44.52941" lon="1.69863">
        <ele>241</ele>
        <time>2019-08-09T09:01:29.810Z</time>
      </trkpt>
      <trkpt lat="44.52951" lon="1.69863">
        <ele>241</ele>
        <time>2019-08-09T09:01:34.792Z</time>
      </trkpt>
      <trkpt lat="44.52959" lon="1.69865">
        <ele>241</ele>
        <time>2019-08-09T09:01:39.798Z</time>
      </trkpt>
      <trkpt lat="44.52969" lon="1.69869">
        <ele>241</ele>
        <time>2019-08-09T09:01:44.791Z</time>
      </trkpt>
      <trkpt lat="44.52977" lon="1.69874">
        <ele>241</ele>
        <time>2019-08-09T09:01:49.802Z</time>
      </trkpt>
      <trkpt lat="44.52985" lon="1.69875">
        <ele>241</ele>
        <time>2019-08-09T09:01:54.788Z</time>
      </trkpt>
      <trkpt lat="44.52992" lon="1.69877">
        <ele>245</ele>
        <time>2019-08-09T09:01:59.780Z</time>
      </trkpt>
      <trkpt lat="44.52998" lon="1.69881">
        <ele>245</ele>
        <time>2019-08-09T09:02:03.795Z</time>
      </trkpt>
      <trkpt lat="44.53005" lon="1.69882">
        <ele>245</ele>
        <time>2019-08-09T09:02:08.795Z</time>
      </trkpt>
      <trkpt lat="44.53014" lon="1.69881">
        <ele>245</ele>
        <time>2019-08-09T09:02:13.776Z</time>
      </trkpt>
      <trkpt lat="44.53019" lon="1.69878">
        <ele>246</ele>
        <time>2019-08-09T09:02:17.831Z</time>
      </trkpt>
      <trkpt lat="44.53025" lon="1.69877">
        <ele>246</ele>
        <time>2019-08-09T09:02:22.808Z</time>
      </trkpt>
      <trkpt lat="44.53032" lon="1.69875">
        <ele>246</ele>
        <time>2019-08-09T09:02:27.783Z</time>
      </trkpt>
      <trkpt lat="44.53038" lon="1.69875">
        <ele>244</ele>
        <time>2019-08-09T09:02:31.794Z</time>
      </trkpt>
      <trkpt lat="44.53045" lon="1.69873">
        <ele>244</ele>
        <time>2019-08-09T09:02:36.789Z</time>
      </trkpt>
      <trkpt lat="44.53052" lon="1.69873">
        <ele>244</ele>
        <time>2019-08-09T09:02:41.767Z</time>
      </trkpt>
      <trkpt lat="44.53059" lon="1.69874">
        <ele>244</ele>
        <time>2019-08-09T09:02:45.779Z</time>
      </trkpt>
      <trkpt lat="44.53066" lon="1.69874">
        <ele>244</ele>
        <time>2019-08-09T09:02:50.789Z</time>
      </trkpt>
      <trkpt lat="44.53072" lon="1.69875">
        <ele>244</ele>
        <time>2019-08-09T09:02:54.812Z</time>
      </trkpt>
      <trkpt lat="44.5308" lon="1.69876">
        <ele>247</ele>
        <time>2019-08-09T09:02:59.790Z</time>
      </trkpt>
      <trkpt lat="44.5309" lon="1.6988">
        <ele>247</ele>
        <time>2019-08-09T09:03:04.793Z</time>
      </trkpt>
      <trkpt lat="44.53098" lon="1.69883">
        <ele>248</ele>
        <time>2019-08-09T09:03:09.795Z</time>
      </trkpt>
      <trkpt lat="44.53109" lon="1.69886">
        <ele>248</ele>
        <time>2019-08-09T09:03:14.785Z</time>
      </trkpt>
      <trkpt lat="44.53117" lon="1.69887">
        <ele>248</ele>
        <time>2019-08-09T09:03:19.788Z</time>
      </trkpt>
      <trkpt lat="44.53126" lon="1.69886">
        <ele>249</ele>
        <time>2019-08-09T09:03:24.785Z</time>
      </trkpt>
      <trkpt lat="44.5314" lon="1.69891">
        <ele>249</ele>
        <time>2019-08-09T09:03:29.772Z</time>
      </trkpt>
      <trkpt lat="44.5315" lon="1.69892">
        <ele>249</ele>
        <time>2019-08-09T09:03:33.790Z</time>
      </trkpt>
      <trkpt lat="44.5316" lon="1.6989">
        <ele>249</ele>
        <time>2019-08-09T09:03:38.794Z</time>
      </trkpt>
      <trkpt lat="44.53167" lon="1.69892">
        <ele>249</ele>
        <time>2019-08-09T09:03:43.789Z</time>
      </trkpt>
      <trkpt lat="44.53174" lon="1.69892">
        <ele>249</ele>
        <time>2019-08-09T09:03:48.784Z</time>
      </trkpt>
      <trkpt lat="44.53181" lon="1.69893">
        <ele>251</ele>
        <time>2019-08-09T09:03:53.782Z</time>
      </trkpt>
      <trkpt lat="44.53188" lon="1.69899">
        <ele>251</ele>
        <time>2019-08-09T09:03:58.786Z</time>
      </trkpt>
      <trkpt lat="44.5318" lon="1.69904">
        <ele>252</ele>
        <time>2019-08-09T09:04:03.791Z</time>
      </trkpt>
      <trkpt lat="44.53171" lon="1.6991">
        <ele>252</ele>
        <time>2019-08-09T09:04:08.776Z</time>
      </trkpt>
      <trkpt lat="44.53164" lon="1.69914">
        <ele>252</ele>
        <time>2019-08-09T09:04:13.798Z</time>
      </trkpt>
      <trkpt lat="44.53157" lon="1.6992">
        <ele>252</ele>
        <time>2019-08-09T09:04:18.799Z</time>
      </trkpt>
      <trkpt lat="44.53151" lon="1.69924">
        <ele>252</ele>
        <time>2019-08-09T09:04:23.787Z</time>
      </trkpt>
      <trkpt lat="44.53145" lon="1.69926">
        <ele>252</ele>
        <time>2019-08-09T09:04:28.791Z</time>
      </trkpt>
      <trkpt lat="44.53139" lon="1.6993">
        <ele>252</ele>
        <time>2019-08-09T09:04:33.777Z</time>
      </trkpt>
      <trkpt lat="44.53134" lon="1.69932">
        <ele>256</ele>
        <time>2019-08-09T09:04:38.789Z</time>
      </trkpt>
      <trkpt lat="44.53127" lon="1.69939">
        <ele>256</ele>
        <time>2019-08-09T09:04:43.779Z</time>
      </trkpt>
      <trkpt lat="44.5312" lon="1.69942">
        <ele>257</ele>
        <time>2019-08-09T09:04:48.791Z</time>
      </trkpt>
      <trkpt lat="44.53114" lon="1.69947">
        <ele>257</ele>
        <time>2019-08-09T09:04:53.780Z</time>
      </trkpt>
      <trkpt lat="44.53108" lon="1.69953">
        <ele>257</ele>
        <time>2019-08-09T09:04:58.797Z</time>
      </trkpt>
      <trkpt lat="44.53102" lon="1.69958">
        <ele>257</ele>
        <time>2019-08-09T09:05:02.825Z</time>
      </trkpt>
      <trkpt lat="44.53096" lon="1.69966">
        <ele>259</ele>
        <time>2019-08-09T09:05:07.773Z</time>
      </trkpt>
      <trkpt lat="44.53092" lon="1.69975">
        <ele>259</ele>
        <time>2019-08-09T09:05:12.783Z</time>
      </trkpt>
      <trkpt lat="44.53087" lon="1.6998">
        <ele>259</ele>
        <time>2019-08-09T09:05:17.773Z</time>
      </trkpt>
      <trkpt lat="44.5308" lon="1.69989">
        <ele>262</ele>
        <time>2019-08-09T09:05:22.806Z</time>
      </trkpt>
      <trkpt lat="44.53073" lon="1.69996">
        <ele>262</ele>
        <time>2019-08-09T09:05:27.765Z</time>
      </trkpt>
      <trkpt lat="44.53069" lon="1.69999">
        <ele>261</ele>
        <time>2019-08-09T09:05:31.791Z</time>
      </trkpt>
      <trkpt lat="44.53063" lon="1.70005">
        <ele>261</ele>
        <time>2019-08-09T09:05:36.805Z</time>
      </trkpt>
      <trkpt lat="44.53057" lon="1.70011">
        <ele>261</ele>
        <time>2019-08-09T09:05:41.778Z</time>
      </trkpt>
      <trkpt lat="44.53053" lon="1.70016">
        <ele>263</ele>
        <time>2019-08-09T09:05:46.788Z</time>
      </trkpt>
      <trkpt lat="44.53047" lon="1.70024">
        <ele>263</ele>
        <time>2019-08-09T09:05:51.789Z</time>
      </trkpt>
      <trkpt lat="44.53041" lon="1.70031">
        <ele>261</ele>
        <time>2019-08-09T09:05:56.787Z</time>
      </trkpt>
      <trkpt lat="44.53035" lon="1.70037">
        <ele>261</ele>
        <time>2019-08-09T09:06:01.777Z</time>
      </trkpt>
      <trkpt lat="44.53029" lon="1.70045">
        <ele>263</ele>
        <time>2019-08-09T09:06:06.792Z</time>
      </trkpt>
      <trkpt lat="44.53023" lon="1.70052">
        <ele>263</ele>
        <time>2019-08-09T09:06:11.790Z</time>
      </trkpt>
      <trkpt lat="44.5302" lon="1.70055">
        <ele>263</ele>
        <time>2019-08-09T09:06:16.794Z</time>
      </trkpt>
      <trkpt lat="44.53016" lon="1.70062">
        <ele>263</ele>
        <time>2019-08-09T09:06:21.765Z</time>
      </trkpt>
      <trkpt lat="44.53014" lon="1.70073">
        <ele>264</ele>
        <time>2019-08-09T09:06:26.798Z</time>
      </trkpt>
      <trkpt lat="44.53014" lon="1.70084">
        <ele>264</ele>
        <time>2019-08-09T09:06:31.784Z</time>
      </trkpt>
      <trkpt lat="44.53016" lon="1.70093">
        <ele>264</ele>
        <time>2019-08-09T09:06:36.768Z</time>
      </trkpt>
      <trkpt lat="44.53016" lon="1.70104">
        <ele>266</ele>
        <time>2019-08-09T09:06:41.769Z</time>
      </trkpt>
      <trkpt lat="44.53017" lon="1.70115">
        <ele>266</ele>
        <time>2019-08-09T09:06:46.768Z</time>
      </trkpt>
      <trkpt lat="44.53018" lon="1.70125">
        <ele>266</ele>
        <time>2019-08-09T09:06:51.757Z</time>
      </trkpt>
      <trkpt lat="44.53017" lon="1.70137">
        <ele>266</ele>
        <time>2019-08-09T09:06:56.771Z</time>
      </trkpt>
      <trkpt lat="44.53018" lon="1.7015">
        <ele>266</ele>
        <time>2019-08-09T09:07:01.758Z</time>
      </trkpt>
      <trkpt lat="44.53018" lon="1.70157">
        <ele>266</ele>
        <time>2019-08-09T09:07:05.766Z</time>
      </trkpt>
      <trkpt lat="44.5302" lon="1.70166">
        <ele>266</ele>
        <time>2019-08-09T09:07:09.790Z</time>
      </trkpt>
      <trkpt lat="44.53022" lon="1.70177">
        <ele>266</ele>
        <time>2019-08-09T09:07:14.779Z</time>
      </trkpt>
      <trkpt lat="44.53026" lon="1.70188">
        <ele>265</ele>
        <time>2019-08-09T09:07:19.765Z</time>
      </trkpt>
      <trkpt lat="44.53026" lon="1.70198">
        <ele>265</ele>
        <time>2019-08-09T09:07:24.768Z</time>
      </trkpt>
      <trkpt lat="44.53026" lon="1.70207">
        <ele>265</ele>
        <time>2019-08-09T09:07:29.768Z</time>
      </trkpt>
      <trkpt lat="44.53025" lon="1.70215">
        <ele>264</ele>
        <time>2019-08-09T09:07:34.772Z</time>
      </trkpt>
      <trkpt lat="44.53025" lon="1.70223">
        <ele>264</ele>
        <time>2019-08-09T09:07:39.762Z</time>
      </trkpt>
      <trkpt lat="44.53021" lon="1.70231">
        <ele>264</ele>
        <time>2019-08-09T09:07:44.769Z</time>
      </trkpt>
      <trkpt lat="44.53018" lon="1.70237">
        <ele>264</ele>
        <time>2019-08-09T09:07:48.779Z</time>
      </trkpt>
      <trkpt lat="44.53013" lon="1.70243">
        <ele>264</ele>
        <time>2019-08-09T09:07:53.769Z</time>
      </trkpt>
      <trkpt lat="44.53009" lon="1.70253">
        <ele>264</ele>
        <time>2019-08-09T09:07:58.766Z</time>
      </trkpt>
      <trkpt lat="44.53001" lon="1.70264">
        <ele>264</ele>
        <time>2019-08-09T09:08:03.770Z</time>
      </trkpt>
      <trkpt lat="44.52997" lon="1.7027">
        <ele>262</ele>
        <time>2019-08-09T09:08:08.768Z</time>
      </trkpt>
      <trkpt lat="44.52991" lon="1.70273">
        <ele>262</ele>
        <time>2019-08-09T09:08:13.771Z</time>
      </trkpt>
      <trkpt lat="44.52988" lon="1.70281">
        <ele>262</ele>
        <time>2019-08-09T09:08:18.759Z</time>
      </trkpt>
      <trkpt lat="44.52983" lon="1.70295">
        <ele>261</ele>
        <time>2019-08-09T09:08:23.775Z</time>
      </trkpt>
      <trkpt lat="44.52975" lon="1.70301">
        <ele>261</ele>
        <time>2019-08-09T09:08:28.761Z</time>
      </trkpt>
      <trkpt lat="44.5297" lon="1.70311">
        <ele>261</ele>
        <time>2019-08-09T09:08:32.774Z</time>
      </trkpt>
      <trkpt lat="44.52962" lon="1.70316">
        <ele>261</ele>
        <time>2019-08-09T09:08:37.769Z</time>
      </trkpt>
      <trkpt lat="44.52955" lon="1.70323">
        <ele>262</ele>
        <time>2019-08-09T09:08:42.770Z</time>
      </trkpt>
      <trkpt lat="44.52952" lon="1.70328">
        <ele>262</ele>
        <time>2019-08-09T09:08:47.772Z</time>
      </trkpt>
      <trkpt lat="44.52944" lon="1.7033">
        <ele>262</ele>
        <time>2019-08-09T09:08:52.770Z</time>
      </trkpt>
      <trkpt lat="44.52936" lon="1.7034">
        <ele>262</ele>
        <time>2019-08-09T09:08:57.771Z</time>
      </trkpt>
      <trkpt lat="44.52932" lon="1.70339">
        <ele>262</ele>
        <time>2019-08-09T09:09:02.766Z</time>
      </trkpt>
      <trkpt lat="44.5293" lon="1.70342">
        <ele>263</ele>
        <time>2019-08-09T09:09:07.761Z</time>
      </trkpt>
      <trkpt lat="44.52923" lon="1.70349">
        <ele>261</ele>
        <time>2019-08-09T09:09:12.771Z</time>
      </trkpt>
      <trkpt lat="44.52916" lon="1.70356">
        <ele>261</ele>
        <time>2019-08-09T09:09:17.771Z</time>
      </trkpt>
      <trkpt lat="44.5291" lon="1.7036">
        <ele>261</ele>
        <time>2019-08-09T09:09:22.786Z</time>
      </trkpt>
      <trkpt lat="44.529" lon="1.70364">
        <ele>260</ele>
        <time>2019-08-09T09:09:27.766Z</time>
      </trkpt>
      <trkpt lat="44.52893" lon="1.70368">
        <ele>260</ele>
        <time>2019-08-09T09:09:32.769Z</time>
      </trkpt>
      <trkpt lat="44.52886" lon="1.70371">
        <ele>260</ele>
        <time>2019-08-09T09:09:37.757Z</time>
      </trkpt>
      <trkpt lat="44.52878" lon="1.70369">
        <ele>260</ele>
        <time>2019-08-09T09:09:42.771Z</time>
      </trkpt>
      <trkpt lat="44.52874" lon="1.70371">
        <ele>260</ele>
        <time>2019-08-09T09:09:47.759Z</time>
      </trkpt>
      <trkpt lat="44.52869" lon="1.70377">
        <ele>259</ele>
        <time>2019-08-09T09:09:52.771Z</time>
      </trkpt>
      <trkpt lat="44.52865" lon="1.70387">
        <ele>259</ele>
        <time>2019-08-09T09:09:57.758Z</time>
      </trkpt>
      <trkpt lat="44.52859" lon="1.70393">
        <ele>259</ele>
        <time>2019-08-09T09:10:02.766Z</time>
      </trkpt>
      <trkpt lat="44.52856" lon="1.70399">
        <ele>259</ele>
        <time>2019-08-09T09:10:07.760Z</time>
      </trkpt>
      <trkpt lat="44.5285" lon="1.70404">
        <ele>257</ele>
        <time>2019-08-09T09:10:12.770Z</time>
      </trkpt>
      <trkpt lat="44.52847" lon="1.70415">
        <ele>258</ele>
        <time>2019-08-09T09:10:17.757Z</time>
      </trkpt>
      <trkpt lat="44.5284" lon="1.70426">
        <ele>258</ele>
        <time>2019-08-09T09:10:22.766Z</time>
      </trkpt>
      <trkpt lat="44.52835" lon="1.70436">
        <ele>254</ele>
        <time>2019-08-09T09:10:27.757Z</time>
      </trkpt>
      <trkpt lat="44.52834" lon="1.70438">
        <ele>254</ele>
        <time>2019-08-09T09:10:32.770Z</time>
      </trkpt>
      <trkpt lat="44.52835" lon="1.70439">
        <ele>254</ele>
        <time>2019-08-09T09:10:37.756Z</time>
      </trkpt>
      <trkpt lat="44.52833" lon="1.70439">
        <ele>254</ele>
        <time>2019-08-09T09:10:42.772Z</time>
      </trkpt>
      <trkpt lat="44.5283" lon="1.70439">
        <ele>254</ele>
        <time>2019-08-09T09:10:47.757Z</time>
      </trkpt>
      <trkpt lat="44.52829" lon="1.7044">
        <ele>254</ele>
        <time>2019-08-09T09:10:51.764Z</time>
      </trkpt>
      <trkpt lat="44.52825" lon="1.70443">
        <ele>254</ele>
        <time>2019-08-09T09:10:56.767Z</time>
      </trkpt>
      <trkpt lat="44.52817" lon="1.70452">
        <ele>254</ele>
        <time>2019-08-09T09:11:01.760Z</time>
      </trkpt>
      <trkpt lat="44.52809" lon="1.70453">
        <ele>254</ele>
        <time>2019-08-09T09:11:06.763Z</time>
      </trkpt>
      <trkpt lat="44.52803" lon="1.70458">
        <ele>254</ele>
        <time>2019-08-09T09:11:10.774Z</time>
      </trkpt>
      <trkpt lat="44.52794" lon="1.70458">
        <ele>254</ele>
        <time>2019-08-09T09:11:15.756Z</time>
      </trkpt>
      <trkpt lat="44.52785" lon="1.70455">
        <ele>254</ele>
        <time>2019-08-09T09:11:20.767Z</time>
      </trkpt>
      <trkpt lat="44.52781" lon="1.70454">
        <ele>254</ele>
        <time>2019-08-09T09:11:25.761Z</time>
      </trkpt>
      <trkpt lat="44.52775" lon="1.70454">
        <ele>254</ele>
        <time>2019-08-09T09:11:30.770Z</time>
      </trkpt>
      <trkpt lat="44.52773" lon="1.70469">
        <ele>251</ele>
        <time>2019-08-09T09:11:35.763Z</time>
      </trkpt>
      <trkpt lat="44.52765" lon="1.70474">
        <ele>251</ele>
        <time>2019-08-09T09:11:40.776Z</time>
      </trkpt>
      <trkpt lat="44.52762" lon="1.7048">
        <ele>251</ele>
        <time>2019-08-09T09:11:45.761Z</time>
      </trkpt>
      <trkpt lat="44.52762" lon="1.70494">
        <ele>248</ele>
        <time>2019-08-09T09:11:50.772Z</time>
      </trkpt>
      <trkpt lat="44.52766" lon="1.70503">
        <ele>247</ele>
        <time>2019-08-09T09:11:55.755Z</time>
      </trkpt>
      <trkpt lat="44.52773" lon="1.70509">
        <ele>247</ele>
        <time>2019-08-09T09:11:59.777Z</time>
      </trkpt>
      <trkpt lat="44.52781" lon="1.70517">
        <ele>247</ele>
        <time>2019-08-09T09:12:04.771Z</time>
      </trkpt>
      <trkpt lat="44.52787" lon="1.70527">
        <ele>247</ele>
        <time>2019-08-09T09:12:09.762Z</time>
      </trkpt>
      <trkpt lat="44.52793" lon="1.70536">
        <ele>246</ele>
        <time>2019-08-09T09:12:14.772Z</time>
      </trkpt>
      <trkpt lat="44.52795" lon="1.70545">
        <ele>245</ele>
        <time>2019-08-09T09:12:19.758Z</time>
      </trkpt>
      <trkpt lat="44.52798" lon="1.70554">
        <ele>245</ele>
        <time>2019-08-09T09:12:24.775Z</time>
      </trkpt>
      <trkpt lat="44.528" lon="1.70559">
        <ele>245</ele>
        <time>2019-08-09T09:12:29.757Z</time>
      </trkpt>
      <trkpt lat="44.52794" lon="1.70562">
        <ele>245</ele>
        <time>2019-08-09T09:12:34.773Z</time>
      </trkpt>
      <trkpt lat="44.52789" lon="1.70565">
        <ele>246</ele>
        <time>2019-08-09T09:12:39.761Z</time>
      </trkpt>
      <trkpt lat="44.52784" lon="1.70573">
        <ele>244</ele>
        <time>2019-08-09T09:12:44.777Z</time>
      </trkpt>
      <trkpt lat="44.5278" lon="1.70577">
        <ele>244</ele>
        <time>2019-08-09T09:12:49.759Z</time>
      </trkpt>
      <trkpt lat="44.52778" lon="1.70582">
        <ele>244</ele>
        <time>2019-08-09T09:12:54.774Z</time>
      </trkpt>
      <trkpt lat="44.52775" lon="1.70585">
        <ele>244</ele>
        <time>2019-08-09T09:12:59.760Z</time>
      </trkpt>
      <trkpt lat="44.52765" lon="1.70596">
        <ele>244</ele>
        <time>2019-08-09T09:13:04.768Z</time>
      </trkpt>
      <trkpt lat="44.5276" lon="1.70599">
        <ele>241</ele>
        <time>2019-08-09T09:13:09.762Z</time>
      </trkpt>
      <trkpt lat="44.52753" lon="1.70598">
        <ele>241</ele>
        <time>2019-08-09T09:13:14.774Z</time>
      </trkpt>
      <trkpt lat="44.52747" lon="1.70595">
        <ele>243</ele>
        <time>2019-08-09T09:13:19.759Z</time>
      </trkpt>
      <trkpt lat="44.5274" lon="1.70606">
        <ele>241</ele>
        <time>2019-08-09T09:13:24.774Z</time>
      </trkpt>
      <trkpt lat="44.52735" lon="1.70611">
        <ele>239</ele>
        <time>2019-08-09T09:13:29.761Z</time>
      </trkpt>
      <trkpt lat="44.52733" lon="1.70611">
        <ele>239</ele>
        <time>2019-08-09T09:13:34.770Z</time>
      </trkpt>
      <trkpt lat="44.52728" lon="1.70617">
        <ele>239</ele>
        <time>2019-08-09T09:13:39.764Z</time>
      </trkpt>
      <trkpt lat="44.52723" lon="1.7062">
        <ele>239</ele>
        <time>2019-08-09T09:13:44.768Z</time>
      </trkpt>
      <trkpt lat="44.52719" lon="1.70626">
        <ele>237</ele>
        <time>2019-08-09T09:13:49.758Z</time>
      </trkpt>
      <trkpt lat="44.52716" lon="1.70634">
        <ele>237</ele>
        <time>2019-08-09T09:13:54.771Z</time>
      </trkpt>
      <trkpt lat="44.52712" lon="1.70635">
        <ele>237</ele>
        <time>2019-08-09T09:13:59.760Z</time>
      </trkpt>
      <trkpt lat="44.52711" lon="1.70648">
        <ele>237</ele>
        <time>2019-08-09T09:14:04.774Z</time>
      </trkpt>
      <trkpt lat="44.52708" lon="1.70654">
        <ele>234</ele>
        <time>2019-08-09T09:14:09.759Z</time>
      </trkpt>
      <trkpt lat="44.52706" lon="1.70658">
        <ele>234</ele>
        <time>2019-08-09T09:14:13.768Z</time>
      </trkpt>
      <trkpt lat="44.52698" lon="1.70669">
        <ele>234</ele>
        <time>2019-08-09T09:14:18.771Z</time>
      </trkpt>
      <trkpt lat="44.5269" lon="1.70678">
        <ele>234</ele>
        <time>2019-08-09T09:14:23.762Z</time>
      </trkpt>
      <trkpt lat="44.52687" lon="1.70687">
        <ele>231</ele>
        <time>2019-08-09T09:14:28.776Z</time>
      </trkpt>
      <trkpt lat="44.52685" lon="1.70691">
        <ele>231</ele>
        <time>2019-08-09T09:14:33.761Z</time>
      </trkpt>
      <trkpt lat="44.52683" lon="1.70695">
        <ele>231</ele>
        <time>2019-08-09T09:14:38.777Z</time>
      </trkpt>
      <trkpt lat="44.52678" lon="1.70699">
        <ele>230</ele>
        <time>2019-08-09T09:14:43.762Z</time>
      </trkpt>
      <trkpt lat="44.52675" lon="1.70702">
        <ele>230</ele>
        <time>2019-08-09T09:14:48.762Z</time>
      </trkpt>
      <trkpt lat="44.52674" lon="1.70703">
        <ele>230</ele>
        <time>2019-08-09T09:14:53.762Z</time>
      </trkpt>
      <trkpt lat="44.52673" lon="1.70703">
        <ele>230</ele>
        <time>2019-08-09T09:14:58.771Z</time>
      </trkpt>
      <trkpt lat="44.52669" lon="1.7071">
        <ele>226</ele>
        <time>2019-08-09T09:15:03.756Z</time>
      </trkpt>
      <trkpt lat="44.52662" lon="1.70717">
        <ele>226</ele>
        <time>2019-08-09T09:15:08.763Z</time>
      </trkpt>
      <trkpt lat="44.52654" lon="1.70722">
        <ele>226</ele>
        <time>2019-08-09T09:15:13.756Z</time>
      </trkpt>
      <trkpt lat="44.52649" lon="1.70725">
        <ele>224</ele>
        <time>2019-08-09T09:15:18.771Z</time>
      </trkpt>
      <trkpt lat="44.52644" lon="1.70728">
        <ele>224</ele>
        <time>2019-08-09T09:15:23.762Z</time>
      </trkpt>
      <trkpt lat="44.5264" lon="1.7073">
        <ele>224</ele>
        <time>2019-08-09T09:15:28.771Z</time>
      </trkpt>
      <trkpt lat="44.52638" lon="1.70734">
        <ele>224</ele>
        <time>2019-08-09T09:15:33.758Z</time>
      </trkpt>
      <trkpt lat="44.52634" lon="1.70736">
        <ele>224</ele>
        <time>2019-08-09T09:15:38.771Z</time>
      </trkpt>
      <trkpt lat="44.52628" lon="1.70741">
        <ele>221</ele>
        <time>2019-08-09T09:15:43.757Z</time>
      </trkpt>
      <trkpt lat="44.52625" lon="1.70743">
        <ele>217</ele>
        <time>2019-08-09T09:15:48.771Z</time>
      </trkpt>
      <trkpt lat="44.52621" lon="1.70747">
        <ele>217</ele>
        <time>2019-08-09T09:15:53.759Z</time>
      </trkpt>
      <trkpt lat="44.52616" lon="1.7075">
        <ele>217</ele>
        <time>2019-08-09T09:15:58.775Z</time>
      </trkpt>
      <trkpt lat="44.5261" lon="1.70753">
        <ele>217</ele>
        <time>2019-08-09T09:16:03.759Z</time>
      </trkpt>
      <trkpt lat="44.52602" lon="1.70755">
        <ele>217</ele>
        <time>2019-08-09T09:16:08.765Z</time>
      </trkpt>
      <trkpt lat="44.52596" lon="1.70761">
        <ele>217</ele>
        <time>2019-08-09T09:16:13.759Z</time>
      </trkpt>
      <trkpt lat="44.5258" lon="1.70768">
        <ele>215</ele>
        <time>2019-08-09T09:16:37.758Z</time>
      </trkpt>
      <trkpt lat="44.52576" lon="1.70767">
        <ele>215</ele>
        <time>2019-08-09T09:16:42.768Z</time>
      </trkpt>
      <trkpt lat="44.52572" lon="1.70768">
        <ele>215</ele>
        <time>2019-08-09T09:16:47.759Z</time>
      </trkpt>
      <trkpt lat="44.52568" lon="1.70772">
        <ele>216</ele>
        <time>2019-08-09T09:16:52.762Z</time>
      </trkpt>
      <trkpt lat="44.52562" lon="1.70772">
        <ele>216</ele>
        <time>2019-08-09T09:16:57.761Z</time>
      </trkpt>
      <trkpt lat="44.52557" lon="1.70775">
        <ele>216</ele>
        <time>2019-08-09T09:17:02.770Z</time>
      </trkpt>
      <trkpt lat="44.52547" lon="1.70778">
        <ele>216</ele>
        <time>2019-08-09T09:17:07.760Z</time>
      </trkpt>
      <trkpt lat="44.52538" lon="1.7078">
        <ele>214</ele>
        <time>2019-08-09T09:17:12.765Z</time>
      </trkpt>
      <trkpt lat="44.5253" lon="1.7078">
        <ele>214</ele>
        <time>2019-08-09T09:17:17.757Z</time>
      </trkpt>
      <trkpt lat="44.52525" lon="1.70784">
        <ele>214</ele>
        <time>2019-08-09T09:17:22.764Z</time>
      </trkpt>
      <trkpt lat="44.52522" lon="1.70784">
        <ele>214</ele>
        <time>2019-08-09T09:17:27.753Z</time>
      </trkpt>
      <trkpt lat="44.52522" lon="1.70784">
        <ele>214</ele>
        <time>2019-08-09T09:17:32.767Z</time>
      </trkpt>
      <trkpt lat="44.5252" lon="1.70786">
        <ele>214</ele>
        <time>2019-08-09T09:17:37.760Z</time>
      </trkpt>
      <trkpt lat="44.52515" lon="1.70794">
        <ele>218</ele>
        <time>2019-08-09T09:17:42.776Z</time>
      </trkpt>
      <trkpt lat="44.52509" lon="1.708">
        <ele>214</ele>
        <time>2019-08-09T09:17:47.756Z</time>
      </trkpt>
      <trkpt lat="44.52502" lon="1.70809">
        <ele>214</ele>
        <time>2019-08-09T09:17:52.784Z</time>
      </trkpt>
      <trkpt lat="44.52497" lon="1.70811">
        <ele>214</ele>
        <time>2019-08-09T09:17:57.757Z</time>
      </trkpt>
      <trkpt lat="44.52493" lon="1.70813">
        <ele>214</ele>
        <time>2019-08-09T09:18:01.761Z</time>
      </trkpt>
      <trkpt lat="44.52489" lon="1.70815">
        <ele>214</ele>
        <time>2019-08-09T09:18:06.769Z</time>
      </trkpt>
      <trkpt lat="44.52484" lon="1.7082">
        <ele>217</ele>
        <time>2019-08-09T09:18:11.755Z</time>
      </trkpt>
      <trkpt lat="44.52479" lon="1.70827">
        <ele>217</ele>
        <time>2019-08-09T09:18:16.769Z</time>
      </trkpt>
      <trkpt lat="44.52474" lon="1.70831">
        <ele>217</ele>
        <time>2019-08-09T09:18:21.750Z</time>
      </trkpt>
      <trkpt lat="44.5247" lon="1.70834">
        <ele>217</ele>
        <time>2019-08-09T09:18:25.761Z</time>
      </trkpt>
      <trkpt lat="44.52465" lon="1.70842">
        <ele>217</ele>
        <time>2019-08-09T09:18:30.770Z</time>
      </trkpt>
      <trkpt lat="44.5246" lon="1.70852">
        <ele>224</ele>
        <time>2019-08-09T09:18:35.758Z</time>
      </trkpt>
      <trkpt lat="44.52455" lon="1.70859">
        <ele>219</ele>
        <time>2019-08-09T09:18:40.769Z</time>
      </trkpt>
      <trkpt lat="44.52449" lon="1.70868">
        <ele>219</ele>
        <time>2019-08-09T09:18:45.756Z</time>
      </trkpt>
      <trkpt lat="44.52445" lon="1.70872">
        <ele>219</ele>
        <time>2019-08-09T09:18:50.767Z</time>
      </trkpt>
      <trkpt lat="44.52441" lon="1.70879">
        <ele>226</ele>
        <time>2019-08-09T09:18:55.755Z</time>
      </trkpt>
      <trkpt lat="44.52438" lon="1.70885">
        <ele>226</ele>
        <time>2019-08-09T09:19:00.774Z</time>
      </trkpt>
      <trkpt lat="44.52432" lon="1.70891">
        <ele>226</ele>
        <time>2019-08-09T09:19:05.756Z</time>
      </trkpt>
      <trkpt lat="44.52429" lon="1.70894">
        <ele>221</ele>
        <time>2019-08-09T09:19:10.768Z</time>
      </trkpt>
      <trkpt lat="44.52423" lon="1.70896">
        <ele>221</ele>
        <time>2019-08-09T09:19:15.759Z</time>
      </trkpt>
      <trkpt lat="44.52418" lon="1.709">
        <ele>221</ele>
        <time>2019-08-09T09:19:19.756Z</time>
      </trkpt>
      <trkpt lat="44.52414" lon="1.70912">
        <ele>228</ele>
        <time>2019-08-09T09:19:24.770Z</time>
      </trkpt>
      <trkpt lat="44.5241" lon="1.70919">
        <ele>228</ele>
        <time>2019-08-09T09:19:29.757Z</time>
      </trkpt>
      <trkpt lat="44.52405" lon="1.70928">
        <ele>228</ele>
        <time>2019-08-09T09:19:34.768Z</time>
      </trkpt>
      <trkpt lat="44.524" lon="1.70937">
        <ele>231</ele>
        <time>2019-08-09T09:19:39.754Z</time>
      </trkpt>
      <trkpt lat="44.52394" lon="1.70947">
        <ele>231</ele>
        <time>2019-08-09T09:19:44.771Z</time>
      </trkpt>
      <trkpt lat="44.52389" lon="1.70955">
        <ele>231</ele>
        <time>2019-08-09T09:19:49.760Z</time>
      </trkpt>
      <trkpt lat="44.52385" lon="1.7096">
        <ele>238</ele>
        <time>2019-08-09T09:19:54.769Z</time>
      </trkpt>
      <trkpt lat="44.52379" lon="1.70966">
        <ele>238</ele>
        <time>2019-08-09T09:19:59.757Z</time>
      </trkpt>
      <trkpt lat="44.52368" lon="1.70977">
        <ele>235</ele>
        <time>2019-08-09T09:20:19.759Z</time>
      </trkpt>
      <trkpt lat="44.52365" lon="1.70982">
        <ele>235</ele>
        <time>2019-08-09T09:20:24.770Z</time>
      </trkpt>
      <trkpt lat="44.52359" lon="1.70989">
        <ele>239</ele>
        <time>2019-08-09T09:20:29.759Z</time>
      </trkpt>
      <trkpt lat="44.52353" lon="1.70996">
        <ele>239</ele>
        <time>2019-08-09T09:20:34.769Z</time>
      </trkpt>
      <trkpt lat="44.5235" lon="1.71005">
        <ele>239</ele>
        <time>2019-08-09T09:20:39.764Z</time>
      </trkpt>
      <trkpt lat="44.52347" lon="1.71009">
        <ele>237</ele>
        <time>2019-08-09T09:20:48.771Z</time>
      </trkpt>
      <trkpt lat="44.52346" lon="1.71011">
        <ele>237</ele>
        <time>2019-08-09T09:20:53.759Z</time>
      </trkpt>
      <trkpt lat="44.52346" lon="1.71012">
        <ele>237</ele>
        <time>2019-08-09T09:20:57.755Z</time>
      </trkpt>
      <trkpt lat="44.52345" lon="1.71018">
        <ele>240</ele>
        <time>2019-08-09T09:21:02.765Z</time>
      </trkpt>
      <trkpt lat="44.52344" lon="1.71024">
        <ele>240</ele>
        <time>2019-08-09T09:21:07.761Z</time>
      </trkpt>
      <trkpt lat="44.5234" lon="1.7103">
        <ele>240</ele>
        <time>2019-08-09T09:21:12.761Z</time>
      </trkpt>
      <trkpt lat="44.52339" lon="1.71038">
        <ele>240</ele>
        <time>2019-08-09T09:21:17.757Z</time>
      </trkpt>
      <trkpt lat="44.52342" lon="1.71048">
        <ele>241</ele>
        <time>2019-08-09T09:21:22.764Z</time>
      </trkpt>
      <trkpt lat="44.52344" lon="1.71057">
        <ele>241</ele>
        <time>2019-08-09T09:21:27.754Z</time>
      </trkpt>
      <trkpt lat="44.52344" lon="1.71066">
        <ele>241</ele>
        <time>2019-08-09T09:21:32.767Z</time>
      </trkpt>
      <trkpt lat="44.52346" lon="1.71075">
        <ele>242</ele>
        <time>2019-08-09T09:21:37.758Z</time>
      </trkpt>
      <trkpt lat="44.52348" lon="1.71083">
        <ele>245</ele>
        <time>2019-08-09T09:21:42.763Z</time>
      </trkpt>
      <trkpt lat="44.52347" lon="1.71089">
        <ele>242</ele>
        <time>2019-08-09T09:21:46.773Z</time>
      </trkpt>
      <trkpt lat="44.52348" lon="1.71096">
        <ele>245</ele>
        <time>2019-08-09T09:21:51.761Z</time>
      </trkpt>
      <trkpt lat="44.5235" lon="1.71105">
        <ele>245</ele>
        <time>2019-08-09T09:21:56.763Z</time>
      </trkpt>
      <trkpt lat="44.52351" lon="1.71115">
        <ele>245</ele>
        <time>2019-08-09T09:22:01.760Z</time>
      </trkpt>
      <trkpt lat="44.52353" lon="1.71121">
        <ele>245</ele>
        <time>2019-08-09T09:22:05.761Z</time>
      </trkpt>
      <trkpt lat="44.52355" lon="1.71126">
        <ele>245</ele>
        <time>2019-08-09T09:22:10.768Z</time>
      </trkpt>
      <trkpt lat="44.52355" lon="1.71134">
        <ele>245</ele>
        <time>2019-08-09T09:22:15.758Z</time>
      </trkpt>
      <trkpt lat="44.52356" lon="1.71142">
        <ele>245</ele>
        <time>2019-08-09T09:22:19.760Z</time>
      </trkpt>
      <trkpt lat="44.52355" lon="1.7115">
        <ele>245</ele>
        <time>2019-08-09T09:22:24.774Z</time>
      </trkpt>
      <trkpt lat="44.52353" lon="1.71158">
        <ele>244</ele>
        <time>2019-08-09T09:22:29.762Z</time>
      </trkpt>
      <trkpt lat="44.52351" lon="1.71166">
        <ele>244</ele>
        <time>2019-08-09T09:22:33.755Z</time>
      </trkpt>
      <trkpt lat="44.52353" lon="1.71176">
        <ele>244</ele>
        <time>2019-08-09T09:22:38.773Z</time>
      </trkpt>
      <trkpt lat="44.5235" lon="1.71179">
        <ele>244</ele>
        <time>2019-08-09T09:22:43.761Z</time>
      </trkpt>
      <trkpt lat="44.5235" lon="1.71183">
        <ele>242</ele>
        <time>2019-08-09T09:22:48.772Z</time>
      </trkpt>
      <trkpt lat="44.52347" lon="1.71191">
        <ele>242</ele>
        <time>2019-08-09T09:22:53.756Z</time>
      </trkpt>
      <trkpt lat="44.52347" lon="1.71192">
        <ele>238</ele>
        <time>2019-08-09T09:22:58.766Z</time>
      </trkpt>
      <trkpt lat="44.52347" lon="1.71193">
        <ele>242</ele>
        <time>2019-08-09T09:23:03.761Z</time>
      </trkpt>
      <trkpt lat="44.52347" lon="1.71196">
        <ele>238</ele>
        <time>2019-08-09T09:23:08.767Z</time>
      </trkpt>
      <trkpt lat="44.52344" lon="1.71206">
        <ele>238</ele>
        <time>2019-08-09T09:23:13.757Z</time>
      </trkpt>
      <trkpt lat="44.52341" lon="1.71208">
        <ele>236</ele>
        <time>2019-08-09T09:23:18.764Z</time>
      </trkpt>
      <trkpt lat="44.52336" lon="1.71209">
        <ele>236</ele>
        <time>2019-08-09T09:23:23.763Z</time>
      </trkpt>
      <trkpt lat="44.52331" lon="1.71209">
        <ele>236</ele>
        <time>2019-08-09T09:23:27.764Z</time>
      </trkpt>
      <trkpt lat="44.52322" lon="1.71206">
        <ele>238</ele>
        <time>2019-08-09T09:23:32.768Z</time>
      </trkpt>
      <trkpt lat="44.52316" lon="1.71207">
        <ele>235</ele>
        <time>2019-08-09T09:23:36.782Z</time>
      </trkpt>
      <trkpt lat="44.52311" lon="1.71213">
        <ele>230</ele>
        <time>2019-08-09T09:23:41.770Z</time>
      </trkpt>
      <trkpt lat="44.52303" lon="1.71215">
        <ele>230</ele>
        <time>2019-08-09T09:23:46.790Z</time>
      </trkpt>
      <trkpt lat="44.52297" lon="1.71215">
        <ele>230</ele>
        <time>2019-08-09T09:23:51.774Z</time>
      </trkpt>
      <trkpt lat="44.52294" lon="1.71215">
        <ele>230</ele>
        <time>2019-08-09T09:23:55.826Z</time>
      </trkpt>
      <trkpt lat="44.52288" lon="1.71214">
        <ele>226</ele>
        <time>2019-08-09T09:24:00.789Z</time>
      </trkpt>
      <trkpt lat="44.52282" lon="1.71212">
        <ele>226</ele>
        <time>2019-08-09T09:24:05.775Z</time>
      </trkpt>
      <trkpt lat="44.52276" lon="1.7121">
        <ele>226</ele>
        <time>2019-08-09T09:24:09.773Z</time>
      </trkpt>
      <trkpt lat="44.5227" lon="1.71208">
        <ele>226</ele>
        <time>2019-08-09T09:24:13.810Z</time>
      </trkpt>
      <trkpt lat="44.52262" lon="1.71208">
        <ele>221</ele>
        <time>2019-08-09T09:24:18.782Z</time>
      </trkpt>
      <trkpt lat="44.5226" lon="1.71208">
        <ele>231</ele>
        <time>2019-08-09T09:24:23.774Z</time>
      </trkpt>
      <trkpt lat="44.52259" lon="1.71208">
        <ele>231</ele>
        <time>2019-08-09T09:24:28.777Z</time>
      </trkpt>
      <trkpt lat="44.52259" lon="1.71207">
        <ele>231</ele>
        <time>2019-08-09T09:24:32.801Z</time>
      </trkpt>
      <trkpt lat="44.52254" lon="1.71209">
        <ele>221</ele>
        <time>2019-08-09T09:24:37.794Z</time>
      </trkpt>
      <trkpt lat="44.52247" lon="1.7121">
        <ele>221</ele>
        <time>2019-08-09T09:24:42.795Z</time>
      </trkpt>
      <trkpt lat="44.52241" lon="1.7121">
        <ele>221</ele>
        <time>2019-08-09T09:24:47.779Z</time>
      </trkpt>
      <trkpt lat="44.52235" lon="1.71209">
        <ele>217</ele>
        <time>2019-08-09T09:24:52.789Z</time>
      </trkpt>
      <trkpt lat="44.52228" lon="1.71209">
        <ele>217</ele>
        <time>2019-08-09T09:24:57.812Z</time>
      </trkpt>
      <trkpt lat="44.52224" lon="1.71212">
        <ele>217</ele>
        <time>2019-08-09T09:25:02.813Z</time>
      </trkpt>
      <trkpt lat="44.52233" lon="1.71217">
        <ele>217</ele>
        <time>2019-08-09T09:25:45.802Z</time>
      </trkpt>
      <trkpt lat="44.52233" lon="1.71217">
        <ele>217</ele>
        <time>2019-08-09T09:25:50.787Z</time>
      </trkpt>
      <trkpt lat="44.52234" lon="1.71218">
        <ele>217</ele>
        <time>2019-08-09T09:25:55.784Z</time>
      </trkpt>
      <trkpt lat="44.52234" lon="1.71219">
        <ele>217</ele>
        <time>2019-08-09T09:26:00.764Z</time>
      </trkpt>
      <trkpt lat="44.52235" lon="1.7122">
        <ele>217</ele>
        <time>2019-08-09T09:26:04.807Z</time>
      </trkpt>
      <trkpt lat="44.52237" lon="1.71219">
        <ele>221</ele>
        <time>2019-08-09T09:27:08.761Z</time>
      </trkpt>
      <trkpt lat="44.52237" lon="1.71218">
        <ele>221</ele>
        <time>2019-08-09T09:27:13.753Z</time>
      </trkpt>
      <trkpt lat="44.52239" lon="1.71216">
        <ele>221</ele>
        <time>2019-08-09T09:27:18.756Z</time>
      </trkpt>
      <trkpt lat="44.52245" lon="1.71215">
        <ele>221</ele>
        <time>2019-08-09T09:27:23.754Z</time>
      </trkpt>
      <trkpt lat="44.5225" lon="1.71214">
        <ele>221</ele>
        <time>2019-08-09T09:27:28.770Z</time>
      </trkpt>
      <trkpt lat="44.52256" lon="1.71219">
        <ele>221</ele>
        <time>2019-08-09T09:27:33.761Z</time>
      </trkpt>
      <trkpt lat="44.52261" lon="1.71224">
        <ele>221</ele>
        <time>2019-08-09T09:27:38.765Z</time>
      </trkpt>
      <trkpt lat="44.52267" lon="1.71227">
        <ele>226</ele>
        <time>2019-08-09T09:27:43.762Z</time>
      </trkpt>
      <trkpt lat="44.52275" lon="1.71234">
        <ele>226</ele>
        <time>2019-08-09T09:27:48.776Z</time>
      </trkpt>
      <trkpt lat="44.5228" lon="1.71239">
        <ele>220</ele>
        <time>2019-08-09T09:27:53.764Z</time>
      </trkpt>
      <trkpt lat="44.52285" lon="1.71246">
        <ele>220</ele>
        <time>2019-08-09T09:27:58.765Z</time>
      </trkpt>
      <trkpt lat="44.52288" lon="1.71253">
        <ele>220</ele>
        <time>2019-08-09T09:28:03.764Z</time>
      </trkpt>
      <trkpt lat="44.52292" lon="1.71261">
        <ele>226</ele>
        <time>2019-08-09T09:28:08.768Z</time>
      </trkpt>
      <trkpt lat="44.52297" lon="1.71271">
        <ele>221</ele>
        <time>2019-08-09T09:28:13.765Z</time>
      </trkpt>
      <trkpt lat="44.52299" lon="1.71277">
        <ele>221</ele>
        <time>2019-08-09T09:28:18.764Z</time>
      </trkpt>
      <trkpt lat="44.52295" lon="1.7128">
        <ele>221</ele>
        <time>2019-08-09T09:28:23.763Z</time>
      </trkpt>
      <trkpt lat="44.52289" lon="1.71278">
        <ele>214</ele>
        <time>2019-08-09T09:28:27.769Z</time>
      </trkpt>
      <trkpt lat="44.52285" lon="1.71278">
        <ele>214</ele>
        <time>2019-08-09T09:28:32.764Z</time>
      </trkpt>
      <trkpt lat="44.52282" lon="1.71277">
        <ele>214</ele>
        <time>2019-08-09T09:28:37.774Z</time>
      </trkpt>
      <trkpt lat="44.52276" lon="1.71273">
        <ele>214</ele>
        <time>2019-08-09T09:28:42.769Z</time>
      </trkpt>
      <trkpt lat="44.52272" lon="1.7127">
        <ele>214</ele>
        <time>2019-08-09T09:28:47.780Z</time>
      </trkpt>
      <trkpt lat="44.52267" lon="1.71267">
        <ele>214</ele>
        <time>2019-08-09T09:28:52.765Z</time>
      </trkpt>
      <trkpt lat="44.52261" lon="1.71263">
        <ele>214</ele>
        <time>2019-08-09T09:28:57.766Z</time>
      </trkpt>
      <trkpt lat="44.52254" lon="1.71261">
        <ele>214</ele>
        <time>2019-08-09T09:29:02.762Z</time>
      </trkpt>
      <trkpt lat="44.52254" lon="1.71257">
        <ele>214</ele>
        <time>2019-08-09T09:29:07.774Z</time>
      </trkpt>
      <trkpt lat="44.52253" lon="1.71256">
        <ele>214</ele>
        <time>2019-08-09T09:29:12.767Z</time>
      </trkpt>
      <trkpt lat="44.5225" lon="1.71253">
        <ele>214</ele>
        <time>2019-08-09T09:29:17.772Z</time>
      </trkpt>
      <trkpt lat="44.52244" lon="1.71253">
        <ele>214</ele>
        <time>2019-08-09T09:29:21.762Z</time>
      </trkpt>
      <trkpt lat="44.52239" lon="1.71254">
        <ele>214</ele>
        <time>2019-08-09T09:29:26.768Z</time>
      </trkpt>
      <trkpt lat="44.52238" lon="1.71249">
        <ele>214</ele>
        <time>2019-08-09T09:29:31.761Z</time>
      </trkpt>
      <trkpt lat="44.52233" lon="1.71252">
        <ele>207</ele>
        <time>2019-08-09T09:29:36.763Z</time>
      </trkpt>
      <trkpt lat="44.52229" lon="1.71255">
        <ele>207</ele>
        <time>2019-08-09T09:29:41.766Z</time>
      </trkpt>
      <trkpt lat="44.52222" lon="1.71256">
        <ele>207</ele>
        <time>2019-08-09T09:29:46.760Z</time>
      </trkpt>
      <trkpt lat="44.52218" lon="1.71258">
        <ele>207</ele>
        <time>2019-08-09T09:29:51.763Z</time>
      </trkpt>
      <trkpt lat="44.52214" lon="1.71263">
        <ele>207</ele>
        <time>2019-08-09T09:29:56.762Z</time>
      </trkpt>
      <trkpt lat="44.5221" lon="1.71264">
        <ele>202</ele>
        <time>2019-08-09T09:30:01.763Z</time>
      </trkpt>
      <trkpt lat="44.52205" lon="1.71267">
        <ele>201</ele>
        <time>2019-08-09T09:30:06.767Z</time>
      </trkpt>
      <trkpt lat="44.52198" lon="1.71272">
        <ele>201</ele>
        <time>2019-08-09T09:30:11.765Z</time>
      </trkpt>
      <trkpt lat="44.52195" lon="1.71275">
        <ele>201</ele>
        <time>2019-08-09T09:30:16.762Z</time>
      </trkpt>
      <trkpt lat="44.5219" lon="1.71278">
        <ele>201</ele>
        <time>2019-08-09T09:30:21.764Z</time>
      </trkpt>
      <trkpt lat="44.52183" lon="1.71282">
        <ele>201</ele>
        <time>2019-08-09T09:30:26.765Z</time>
      </trkpt>
      <trkpt lat="44.52176" lon="1.71287">
        <ele>201</ele>
        <time>2019-08-09T09:30:31.765Z</time>
      </trkpt>
      <trkpt lat="44.52169" lon="1.71288">
        <ele>201</ele>
        <time>2019-08-09T09:30:36.755Z</time>
      </trkpt>
      <trkpt lat="44.52166" lon="1.7129">
        <ele>201</ele>
        <time>2019-08-09T09:30:40.764Z</time>
      </trkpt>
      <trkpt lat="44.52162" lon="1.71296">
        <ele>199</ele>
        <time>2019-08-09T09:30:45.769Z</time>
      </trkpt>
      <trkpt lat="44.52156" lon="1.713">
        <ele>199</ele>
        <time>2019-08-09T09:30:50.762Z</time>
      </trkpt>
      <trkpt lat="44.52155" lon="1.71298">
        <ele>199</ele>
        <time>2019-08-09T09:30:55.766Z</time>
      </trkpt>
      <trkpt lat="44.52154" lon="1.71297">
        <ele>199</ele>
        <time>2019-08-09T09:31:00.763Z</time>
      </trkpt>
      <trkpt lat="44.52149" lon="1.71305">
        <ele>200</ele>
        <time>2019-08-09T09:31:05.767Z</time>
      </trkpt>
      <trkpt lat="44.52145" lon="1.71309">
        <ele>200</ele>
        <time>2019-08-09T09:31:10.764Z</time>
      </trkpt>
      <trkpt lat="44.52135" lon="1.7132">
        <ele>199</ele>
        <time>2019-08-09T09:32:24.775Z</time>
      </trkpt>
      <trkpt lat="44.52134" lon="1.71321">
        <ele>199</ele>
        <time>2019-08-09T09:32:29.787Z</time>
      </trkpt>
      <trkpt lat="44.52134" lon="1.71324">
        <ele>199</ele>
        <time>2019-08-09T09:32:34.775Z</time>
      </trkpt>
      <trkpt lat="44.52133" lon="1.7133">
        <ele>199</ele>
        <time>2019-08-09T09:32:39.769Z</time>
      </trkpt>
      <trkpt lat="44.52129" lon="1.71339">
        <ele>199</ele>
        <time>2019-08-09T09:32:43.794Z</time>
      </trkpt>
      <trkpt lat="44.52124" lon="1.71347">
        <ele>197</ele>
        <time>2019-08-09T09:32:48.784Z</time>
      </trkpt>
      <trkpt lat="44.52118" lon="1.71352">
        <ele>198</ele>
        <time>2019-08-09T09:32:53.784Z</time>
      </trkpt>
      <trkpt lat="44.52115" lon="1.71356">
        <ele>198</ele>
        <time>2019-08-09T09:32:57.793Z</time>
      </trkpt>
      <trkpt lat="44.52111" lon="1.71357">
        <ele>198</ele>
        <time>2019-08-09T09:33:02.773Z</time>
      </trkpt>
      <trkpt lat="44.52105" lon="1.71361">
        <ele>198</ele>
        <time>2019-08-09T09:33:06.788Z</time>
      </trkpt>
      <trkpt lat="44.52097" lon="1.71372">
        <ele>196</ele>
        <time>2019-08-09T09:33:11.796Z</time>
      </trkpt>
      <trkpt lat="44.5209" lon="1.71382">
        <ele>199</ele>
        <time>2019-08-09T09:33:16.782Z</time>
      </trkpt>
      <trkpt lat="44.52083" lon="1.71389">
        <ele>199</ele>
        <time>2019-08-09T09:33:21.789Z</time>
      </trkpt>
      <trkpt lat="44.52079" lon="1.7139">
        <ele>199</ele>
        <time>2019-08-09T09:33:26.782Z</time>
      </trkpt>
      <trkpt lat="44.52075" lon="1.71392">
        <ele>199</ele>
        <time>2019-08-09T09:33:31.775Z</time>
      </trkpt>
      <trkpt lat="44.52068" lon="1.71397">
        <ele>196</ele>
        <time>2019-08-09T09:33:36.782Z</time>
      </trkpt>
      <trkpt lat="44.52064" lon="1.71405">
        <ele>201</ele>
        <time>2019-08-09T09:33:40.792Z</time>
      </trkpt>
      <trkpt lat="44.52057" lon="1.71415">
        <ele>201</ele>
        <time>2019-08-09T09:33:45.781Z</time>
      </trkpt>
      <trkpt lat="44.52051" lon="1.71421">
        <ele>201</ele>
        <time>2019-08-09T09:33:50.798Z</time>
      </trkpt>
      <trkpt lat="44.52047" lon="1.71429">
        <ele>201</ele>
        <time>2019-08-09T09:33:55.776Z</time>
      </trkpt>
      <trkpt lat="44.52043" lon="1.71437">
        <ele>208</ele>
        <time>2019-08-09T09:33:59.787Z</time>
      </trkpt>
      <trkpt lat="44.52039" lon="1.71445">
        <ele>199</ele>
        <time>2019-08-09T09:34:04.786Z</time>
      </trkpt>
      <trkpt lat="44.52034" lon="1.71454">
        <ele>199</ele>
        <time>2019-08-09T09:34:09.788Z</time>
      </trkpt>
      <trkpt lat="44.52028" lon="1.71459">
        <ele>204</ele>
        <time>2019-08-09T09:34:13.819Z</time>
      </trkpt>
      <trkpt lat="44.52021" lon="1.71461">
        <ele>204</ele>
        <time>2019-08-09T09:34:18.771Z</time>
      </trkpt>
      <trkpt lat="44.52015" lon="1.71466">
        <ele>204</ele>
        <time>2019-08-09T09:34:23.790Z</time>
      </trkpt>
      <trkpt lat="44.52008" lon="1.71474">
        <ele>197</ele>
        <time>2019-08-09T09:34:28.785Z</time>
      </trkpt>
      <trkpt lat="44.52002" lon="1.71482">
        <ele>197</ele>
        <time>2019-08-09T09:34:33.771Z</time>
      </trkpt>
      <trkpt lat="44.51997" lon="1.71488">
        <ele>200</ele>
        <time>2019-08-09T09:34:37.802Z</time>
      </trkpt>
      <trkpt lat="44.51992" lon="1.71494">
        <ele>200</ele>
        <time>2019-08-09T09:34:41.789Z</time>
      </trkpt>
      <trkpt lat="44.51985" lon="1.71502">
        <ele>190</ele>
        <time>2019-08-09T09:34:46.798Z</time>
      </trkpt>
      <trkpt lat="44.5198" lon="1.7151">
        <ele>190</ele>
        <time>2019-08-09T09:34:51.776Z</time>
      </trkpt>
      <trkpt lat="44.51979" lon="1.71515">
        <ele>190</ele>
        <time>2019-08-09T09:34:56.790Z</time>
      </trkpt>
      <trkpt lat="44.51974" lon="1.71527">
        <ele>190</ele>
        <time>2019-08-09T09:35:01.777Z</time>
      </trkpt>
      <trkpt lat="44.5197" lon="1.71534">
        <ele>190</ele>
        <time>2019-08-09T09:35:06.775Z</time>
      </trkpt>
      <trkpt lat="44.51967" lon="1.71539">
        <ele>190</ele>
        <time>2019-08-09T09:35:11.779Z</time>
      </trkpt>
      <trkpt lat="44.51964" lon="1.71546">
        <ele>193</ele>
        <time>2019-08-09T09:35:16.773Z</time>
      </trkpt>
      <trkpt lat="44.51961" lon="1.71557">
        <ele>193</ele>
        <time>2019-08-09T09:35:21.775Z</time>
      </trkpt>
      <trkpt lat="44.51964" lon="1.71567">
        <ele>193</ele>
        <time>2019-08-09T09:35:26.781Z</time>
      </trkpt>
      <trkpt lat="44.51966" lon="1.71574">
        <ele>196</ele>
        <time>2019-08-09T09:35:30.800Z</time>
      </trkpt>
      <trkpt lat="44.51969" lon="1.71582">
        <ele>196</ele>
        <time>2019-08-09T09:35:35.764Z</time>
      </trkpt>
      <trkpt lat="44.51974" lon="1.71588">
        <ele>196</ele>
        <time>2019-08-09T09:35:40.770Z</time>
      </trkpt>
      <trkpt lat="44.51976" lon="1.71592">
        <ele>196</ele>
        <time>2019-08-09T09:35:44.801Z</time>
      </trkpt>
      <trkpt lat="44.51976" lon="1.71602">
        <ele>197</ele>
        <time>2019-08-09T09:35:49.789Z</time>
      </trkpt>
      <trkpt lat="44.51977" lon="1.71609">
        <ele>197</ele>
        <time>2019-08-09T09:35:54.779Z</time>
      </trkpt>
      <trkpt lat="44.51992" lon="1.71629">
        <ele>200</ele>
        <time>2019-08-09T09:36:14.774Z</time>
      </trkpt>
      <trkpt lat="44.51994" lon="1.7163">
        <ele>200</ele>
        <time>2019-08-09T09:36:19.778Z</time>
      </trkpt>
      <trkpt lat="44.51997" lon="1.71634">
        <ele>200</ele>
        <time>2019-08-09T09:36:24.784Z</time>
      </trkpt>
      <trkpt lat="44.51999" lon="1.71642">
        <ele>200</ele>
        <time>2019-08-09T09:36:29.783Z</time>
      </trkpt>
      <trkpt lat="44.52003" lon="1.7165">
        <ele>200</ele>
        <time>2019-08-09T09:36:34.776Z</time>
      </trkpt>
      <trkpt lat="44.52007" lon="1.71655">
        <ele>199</ele>
        <time>2019-08-09T09:36:39.780Z</time>
      </trkpt>
      <trkpt lat="44.52009" lon="1.71662">
        <ele>199</ele>
        <time>2019-08-09T09:36:44.781Z</time>
      </trkpt>
      <trkpt lat="44.5201" lon="1.71669">
        <ele>199</ele>
        <time>2019-08-09T09:36:49.771Z</time>
      </trkpt>
      <trkpt lat="44.52014" lon="1.71678">
        <ele>199</ele>
        <time>2019-08-09T09:36:54.782Z</time>
      </trkpt>
      <trkpt lat="44.52016" lon="1.71683">
        <ele>205</ele>
        <time>2019-08-09T09:36:58.787Z</time>
      </trkpt>
      <trkpt lat="44.5202" lon="1.71693">
        <ele>205</ele>
        <time>2019-08-09T09:37:03.803Z</time>
      </trkpt>
      <trkpt lat="44.52023" lon="1.717">
        <ele>205</ele>
        <time>2019-08-09T09:37:08.772Z</time>
      </trkpt>
      <trkpt lat="44.52022" lon="1.71708">
        <ele>205</ele>
        <time>2019-08-09T09:37:13.780Z</time>
      </trkpt>
      <trkpt lat="44.52023" lon="1.71712">
        <ele>206</ele>
        <time>2019-08-09T09:37:18.775Z</time>
      </trkpt>
      <trkpt lat="44.52025" lon="1.71714">
        <ele>206</ele>
        <time>2019-08-09T09:37:22.780Z</time>
      </trkpt>
      <trkpt lat="44.52027" lon="1.7172">
        <ele>206</ele>
        <time>2019-08-09T09:37:27.778Z</time>
      </trkpt>
      <trkpt lat="44.52028" lon="1.71733">
        <ele>206</ele>
        <time>2019-08-09T09:37:32.776Z</time>
      </trkpt>
      <trkpt lat="44.52032" lon="1.7174">
        <ele>211</ele>
        <time>2019-08-09T09:37:37.776Z</time>
      </trkpt>
      <trkpt lat="44.52033" lon="1.71747">
        <ele>211</ele>
        <time>2019-08-09T09:37:42.774Z</time>
      </trkpt>
      <trkpt lat="44.52034" lon="1.71757">
        <ele>211</ele>
        <time>2019-08-09T09:37:46.788Z</time>
      </trkpt>
      <trkpt lat="44.52033" lon="1.71762">
        <ele>211</ele>
        <time>2019-08-09T09:37:51.780Z</time>
      </trkpt>
      <trkpt lat="44.52041" lon="1.71771">
        <ele>214</ele>
        <time>2019-08-09T09:37:56.775Z</time>
      </trkpt>
      <trkpt lat="44.52046" lon="1.71779">
        <ele>221</ele>
        <time>2019-08-09T09:38:00.790Z</time>
      </trkpt>
      <trkpt lat="44.52046" lon="1.71782">
        <ele>221</ele>
        <time>2019-08-09T09:38:05.777Z</time>
      </trkpt>
      <trkpt lat="44.52047" lon="1.71783">
        <ele>221</ele>
        <time>2019-08-09T09:38:10.833Z</time>
      </trkpt>
      <trkpt lat="44.52045" lon="1.71784">
        <ele>221</ele>
        <time>2019-08-09T09:38:50.780Z</time>
      </trkpt>
      <trkpt lat="44.52044" lon="1.71786">
        <ele>221</ele>
        <time>2019-08-09T09:38:55.783Z</time>
      </trkpt>
      <trkpt lat="44.52044" lon="1.71795">
        <ele>222</ele>
        <time>2019-08-09T09:39:00.802Z</time>
      </trkpt>
      <trkpt lat="44.52047" lon="1.71803">
        <ele>222</ele>
        <time>2019-08-09T09:39:05.795Z</time>
      </trkpt>
      <trkpt lat="44.52049" lon="1.71815">
        <ele>222</ele>
        <time>2019-08-09T09:39:10.777Z</time>
      </trkpt>
      <trkpt lat="44.52048" lon="1.71821">
        <ele>223</ele>
        <time>2019-08-09T09:39:14.793Z</time>
      </trkpt>
      <trkpt lat="44.52047" lon="1.7183">
        <ele>223</ele>
        <time>2019-08-09T09:39:19.785Z</time>
      </trkpt>
      <trkpt lat="44.52044" lon="1.7184">
        <ele>223</ele>
        <time>2019-08-09T09:39:24.786Z</time>
      </trkpt>
      <trkpt lat="44.52042" lon="1.71849">
        <ele>232</ele>
        <time>2019-08-09T09:39:29.767Z</time>
      </trkpt>
      <trkpt lat="44.52042" lon="1.71859">
        <ele>232</ele>
        <time>2019-08-09T09:39:34.790Z</time>
      </trkpt>
      <trkpt lat="44.5204" lon="1.7187">
        <ele>229</ele>
        <time>2019-08-09T09:39:39.760Z</time>
      </trkpt>
      <trkpt lat="44.5204" lon="1.71881">
        <ele>236</ele>
        <time>2019-08-09T09:39:43.776Z</time>
      </trkpt>
      <trkpt lat="44.52039" lon="1.7189">
        <ele>236</ele>
        <time>2019-08-09T09:39:48.784Z</time>
      </trkpt>
      <trkpt lat="44.52042" lon="1.71901">
        <ele>243</ele>
        <time>2019-08-09T09:39:53.772Z</time>
      </trkpt>
      <trkpt lat="44.52041" lon="1.71909">
        <ele>239</ele>
        <time>2019-08-09T09:39:58.772Z</time>
      </trkpt>
      <trkpt lat="44.52042" lon="1.71915">
        <ele>239</ele>
        <time>2019-08-09T09:40:03.772Z</time>
      </trkpt>
      <trkpt lat="44.52041" lon="1.71922">
        <ele>239</ele>
        <time>2019-08-09T09:40:07.793Z</time>
      </trkpt>
      <trkpt lat="44.52039" lon="1.71929">
        <ele>239</ele>
        <time>2019-08-09T09:40:12.777Z</time>
      </trkpt>
      <trkpt lat="44.52036" lon="1.71935">
        <ele>237</ele>
        <time>2019-08-09T09:40:17.768Z</time>
      </trkpt>
      <trkpt lat="44.52032" lon="1.71942">
        <ele>237</ele>
        <time>2019-08-09T09:40:22.772Z</time>
      </trkpt>
      <trkpt lat="44.52027" lon="1.71949">
        <ele>237</ele>
        <time>2019-08-09T09:40:27.770Z</time>
      </trkpt>
      <trkpt lat="44.52021" lon="1.71954">
        <ele>237</ele>
        <time>2019-08-09T09:40:32.777Z</time>
      </trkpt>
      <trkpt lat="44.52018" lon="1.71961">
        <ele>236</ele>
        <time>2019-08-09T09:40:37.781Z</time>
      </trkpt>
      <trkpt lat="44.52012" lon="1.7197">
        <ele>208</ele>
        <time>2019-08-09T09:40:42.777Z</time>
      </trkpt>
      <trkpt lat="44.52008" lon="1.7198">
        <ele>208</ele>
        <time>2019-08-09T09:40:47.785Z</time>
      </trkpt>
      <trkpt lat="44.52004" lon="1.71988">
        <ele>217</ele>
        <time>2019-08-09T09:40:52.774Z</time>
      </trkpt>
      <trkpt lat="44.52001" lon="1.71999">
        <ele>217</ele>
        <time>2019-08-09T09:40:57.781Z</time>
      </trkpt>
      <trkpt lat="44.51996" lon="1.72008">
        <ele>217</ele>
        <time>2019-08-09T09:41:02.768Z</time>
      </trkpt>
      <trkpt lat="44.5199" lon="1.72014">
        <ele>227</ele>
        <time>2019-08-09T09:41:07.804Z</time>
      </trkpt>
      <trkpt lat="44.51984" lon="1.72022">
        <ele>205</ele>
        <time>2019-08-09T09:41:12.774Z</time>
      </trkpt>
      <trkpt lat="44.51981" lon="1.72035">
        <ele>205</ele>
        <time>2019-08-09T09:41:17.779Z</time>
      </trkpt>
      <trkpt lat="44.51979" lon="1.72042">
        <ele>212</ele>
        <time>2019-08-09T09:41:22.780Z</time>
      </trkpt>
      <trkpt lat="44.51977" lon="1.72043">
        <ele>212</ele>
        <time>2019-08-09T09:41:26.790Z</time>
      </trkpt>
      <trkpt lat="44.51967" lon="1.7205">
        <ele>212</ele>
        <time>2019-08-09T09:41:31.769Z</time>
      </trkpt>
      <trkpt lat="44.51964" lon="1.72058">
        <ele>212</ele>
        <time>2019-08-09T09:41:35.779Z</time>
      </trkpt>
      <trkpt lat="44.51955" lon="1.72061">
        <ele>195</ele>
        <time>2019-08-09T09:41:40.775Z</time>
      </trkpt>
      <trkpt lat="44.51952" lon="1.72063">
        <ele>195</ele>
        <time>2019-08-09T09:41:44.802Z</time>
      </trkpt>
      <trkpt lat="44.51948" lon="1.72067">
        <ele>195</ele>
        <time>2019-08-09T09:41:49.770Z</time>
      </trkpt>
      <trkpt lat="44.51943" lon="1.72078">
        <ele>203</ele>
        <time>2019-08-09T09:41:54.754Z</time>
      </trkpt>
      <trkpt lat="44.51936" lon="1.72084">
        <ele>203</ele>
        <time>2019-08-09T09:41:59.766Z</time>
      </trkpt>
      <trkpt lat="44.51929" lon="1.72089">
        <ele>191</ele>
        <time>2019-08-09T09:42:04.762Z</time>
      </trkpt>
      <trkpt lat="44.51924" lon="1.72094">
        <ele>191</ele>
        <time>2019-08-09T09:42:09.762Z</time>
      </trkpt>
      <trkpt lat="44.51911" lon="1.72108">
        <ele>208</ele>
        <time>2019-08-09T09:42:14.762Z</time>
      </trkpt>
      <trkpt lat="44.51894" lon="1.72122">
        <ele>199</ele>
        <time>2019-08-09T09:42:19.765Z</time>
      </trkpt>
      <trkpt lat="44.51872" lon="1.72135">
        <ele>205</ele>
        <time>2019-08-09T09:42:24.764Z</time>
      </trkpt>
      <trkpt lat="44.51856" lon="1.72146">
        <ele>205</ele>
        <time>2019-08-09T09:42:29.760Z</time>
      </trkpt>
      <trkpt lat="44.51843" lon="1.72155">
        <ele>206</ele>
        <time>2019-08-09T09:42:34.754Z</time>
      </trkpt>
      <trkpt lat="44.51836" lon="1.72161">
        <ele>206</ele>
        <time>2019-08-09T09:42:39.752Z</time>
      </trkpt>
      <trkpt lat="44.5183" lon="1.72165">
        <ele>206</ele>
        <time>2019-08-09T09:42:44.752Z</time>
      </trkpt>
      <trkpt lat="44.51823" lon="1.72169">
        <ele>206</ele>
        <time>2019-08-09T09:42:49.748Z</time>
      </trkpt>
      <trkpt lat="44.51819" lon="1.72173">
        <ele>201</ele>
        <time>2019-08-09T09:42:53.761Z</time>
      </trkpt>
      <trkpt lat="44.51813" lon="1.72177">
        <ele>201</ele>
        <time>2019-08-09T09:42:58.763Z</time>
      </trkpt>
      <trkpt lat="44.51808" lon="1.7218">
        <ele>201</ele>
        <time>2019-08-09T09:43:03.755Z</time>
      </trkpt>
      <trkpt lat="44.51801" lon="1.72185">
        <ele>208</ele>
        <time>2019-08-09T09:43:32.761Z</time>
      </trkpt>
      <trkpt lat="44.51803" lon="1.72183">
        <ele>208</ele>
        <time>2019-08-09T09:43:37.766Z</time>
      </trkpt>
      <trkpt lat="44.51809" lon="1.72176">
        <ele>201</ele>
        <time>2019-08-09T09:43:42.762Z</time>
      </trkpt>
      <trkpt lat="44.51811" lon="1.72176">
        <ele>201</ele>
        <time>2019-08-09T09:43:47.764Z</time>
      </trkpt>
      <trkpt lat="44.51812" lon="1.72174">
        <ele>201</ele>
        <time>2019-08-09T09:43:52.762Z</time>
      </trkpt>
      <trkpt lat="44.51813" lon="1.72174">
        <ele>201</ele>
        <time>2019-08-09T09:43:57.760Z</time>
      </trkpt>
      <trkpt lat="44.51815" lon="1.72181">
        <ele>208</ele>
        <time>2019-08-09T09:44:02.764Z</time>
      </trkpt>
      <trkpt lat="44.51814" lon="1.7219">
        <ele>208</ele>
        <time>2019-08-09T09:44:07.762Z</time>
      </trkpt>
      <trkpt lat="44.51812" lon="1.72193">
        <ele>208</ele>
        <time>2019-08-09T09:44:12.763Z</time>
      </trkpt>
      <trkpt lat="44.51808" lon="1.722">
        <ele>208</ele>
        <time>2019-08-09T09:44:17.764Z</time>
      </trkpt>
      <trkpt lat="44.51804" lon="1.72211">
        <ele>212</ele>
        <time>2019-08-09T09:44:22.763Z</time>
      </trkpt>
      <trkpt lat="44.51803" lon="1.72218">
        <ele>212</ele>
        <time>2019-08-09T09:44:26.753Z</time>
      </trkpt>
      <trkpt lat="44.51802" lon="1.72227">
        <ele>212</ele>
        <time>2019-08-09T09:44:31.797Z</time>
      </trkpt>
      <trkpt lat="44.51804" lon="1.72233">
        <ele>212</ele>
        <time>2019-08-09T09:44:36.769Z</time>
      </trkpt>
      <trkpt lat="44.51804" lon="1.72235">
        <ele>212</ele>
        <time>2019-08-09T09:44:41.781Z</time>
      </trkpt>
      <trkpt lat="44.51804" lon="1.72239">
        <ele>213</ele>
        <time>2019-08-09T09:44:45.792Z</time>
      </trkpt>
      <trkpt lat="44.51805" lon="1.72244">
        <ele>213</ele>
        <time>2019-08-09T09:44:50.776Z</time>
      </trkpt>
      <trkpt lat="44.51806" lon="1.72251">
        <ele>213</ele>
        <time>2019-08-09T09:44:54.790Z</time>
      </trkpt>
      <trkpt lat="44.5181" lon="1.72257">
        <ele>213</ele>
        <time>2019-08-09T09:44:59.779Z</time>
      </trkpt>
      <trkpt lat="44.51814" lon="1.72264">
        <ele>213</ele>
        <time>2019-08-09T09:45:04.779Z</time>
      </trkpt>
      <trkpt lat="44.51818" lon="1.72273">
        <ele>213</ele>
        <time>2019-08-09T09:45:09.796Z</time>
      </trkpt>
      <trkpt lat="44.51825" lon="1.72283">
        <ele>221</ele>
        <time>2019-08-09T09:45:14.774Z</time>
      </trkpt>
      <trkpt lat="44.51829" lon="1.72284">
        <ele>221</ele>
        <time>2019-08-09T09:45:19.771Z</time>
      </trkpt>
      <trkpt lat="44.51831" lon="1.72291">
        <ele>221</ele>
        <time>2019-08-09T09:45:24.795Z</time>
      </trkpt>
      <trkpt lat="44.51834" lon="1.72296">
        <ele>219</ele>
        <time>2019-08-09T09:45:29.779Z</time>
      </trkpt>
      <trkpt lat="44.51838" lon="1.72298">
        <ele>219</ele>
        <time>2019-08-09T09:45:34.776Z</time>
      </trkpt>
      <trkpt lat="44.51843" lon="1.72303">
        <ele>219</ele>
        <time>2019-08-09T09:45:39.786Z</time>
      </trkpt>
      <trkpt lat="44.51848" lon="1.72309">
        <ele>225</ele>
        <time>2019-08-09T09:45:44.787Z</time>
      </trkpt>
      <trkpt lat="44.51855" lon="1.72316">
        <ele>225</ele>
        <time>2019-08-09T09:45:49.791Z</time>
      </trkpt>
      <trkpt lat="44.51862" lon="1.72322">
        <ele>219</ele>
        <time>2019-08-09T09:45:54.761Z</time>
      </trkpt>
      <trkpt lat="44.5187" lon="1.72325">
        <ele>219</ele>
        <time>2019-08-09T09:45:59.763Z</time>
      </trkpt>
      <trkpt lat="44.51878" lon="1.72326">
        <ele>226</ele>
        <time>2019-08-09T09:46:04.764Z</time>
      </trkpt>
      <trkpt lat="44.51882" lon="1.72326">
        <ele>226</ele>
        <time>2019-08-09T09:46:09.762Z</time>
      </trkpt>
      <trkpt lat="44.51888" lon="1.72326">
        <ele>226</ele>
        <time>2019-08-09T09:46:14.761Z</time>
      </trkpt>
      <trkpt lat="44.51892" lon="1.7233">
        <ele>226</ele>
        <time>2019-08-09T09:46:19.760Z</time>
      </trkpt>
      <trkpt lat="44.51896" lon="1.72332">
        <ele>226</ele>
        <time>2019-08-09T09:46:24.763Z</time>
      </trkpt>
      <trkpt lat="44.519" lon="1.72337">
        <ele>226</ele>
        <time>2019-08-09T09:46:29.765Z</time>
      </trkpt>
      <trkpt lat="44.51904" lon="1.72342">
        <ele>233</ele>
        <time>2019-08-09T09:46:34.758Z</time>
      </trkpt>
      <trkpt lat="44.51911" lon="1.72344">
        <ele>233</ele>
        <time>2019-08-09T09:46:39.761Z</time>
      </trkpt>
      <trkpt lat="44.5192" lon="1.72341">
        <ele>233</ele>
        <time>2019-08-09T09:46:44.765Z</time>
      </trkpt>
      <trkpt lat="44.51925" lon="1.72344">
        <ele>233</ele>
        <time>2019-08-09T09:46:49.761Z</time>
      </trkpt>
      <trkpt lat="44.51929" lon="1.72346">
        <ele>233</ele>
        <time>2019-08-09T09:46:54.763Z</time>
      </trkpt>
      <trkpt lat="44.51933" lon="1.72347">
        <ele>241</ele>
        <time>2019-08-09T09:46:59.764Z</time>
      </trkpt>
      <trkpt lat="44.51938" lon="1.7235">
        <ele>236</ele>
        <time>2019-08-09T09:47:04.765Z</time>
      </trkpt>
      <trkpt lat="44.51942" lon="1.72354">
        <ele>236</ele>
        <time>2019-08-09T09:47:09.764Z</time>
      </trkpt>
      <trkpt lat="44.51949" lon="1.72356">
        <ele>236</ele>
        <time>2019-08-09T09:47:14.766Z</time>
      </trkpt>
      <trkpt lat="44.51951" lon="1.72356">
        <ele>236</ele>
        <time>2019-08-09T09:47:19.765Z</time>
      </trkpt>
      <trkpt lat="44.51957" lon="1.72357">
        <ele>236</ele>
        <time>2019-08-09T09:47:24.763Z</time>
      </trkpt>
      <trkpt lat="44.51963" lon="1.72358">
        <ele>245</ele>
        <time>2019-08-09T09:47:29.772Z</time>
      </trkpt>
      <trkpt lat="44.5197" lon="1.72362">
        <ele>245</ele>
        <time>2019-08-09T09:47:34.764Z</time>
      </trkpt>
      <trkpt lat="44.51977" lon="1.72368">
        <ele>245</ele>
        <time>2019-08-09T09:47:39.765Z</time>
      </trkpt>
      <trkpt lat="44.5198" lon="1.72371">
        <ele>245</ele>
        <time>2019-08-09T09:47:44.751Z</time>
      </trkpt>
      <trkpt lat="44.51982" lon="1.72371">
        <ele>245</ele>
        <time>2019-08-09T09:47:48.768Z</time>
      </trkpt>
      <trkpt lat="44.51986" lon="1.72367">
        <ele>245</ele>
        <time>2019-08-09T09:47:53.766Z</time>
      </trkpt>
      <trkpt lat="44.51991" lon="1.72366">
        <ele>250</ele>
        <time>2019-08-09T09:47:58.765Z</time>
      </trkpt>
      <trkpt lat="44.51999" lon="1.72366">
        <ele>250</ele>
        <time>2019-08-09T09:48:03.767Z</time>
      </trkpt>
      <trkpt lat="44.52009" lon="1.72369">
        <ele>250</ele>
        <time>2019-08-09T09:48:08.766Z</time>
      </trkpt>
      <trkpt lat="44.52016" lon="1.7237">
        <ele>256</ele>
        <time>2019-08-09T09:48:13.764Z</time>
      </trkpt>
      <trkpt lat="44.52026" lon="1.72371">
        <ele>256</ele>
        <time>2019-08-09T09:48:18.754Z</time>
      </trkpt>
      <trkpt lat="44.52032" lon="1.7237">
        <ele>256</ele>
        <time>2019-08-09T09:48:23.769Z</time>
      </trkpt>
      <trkpt lat="44.52043" lon="1.72368">
        <ele>262</ele>
        <time>2019-08-09T09:48:28.763Z</time>
      </trkpt>
      <trkpt lat="44.52048" lon="1.72372">
        <ele>262</ele>
        <time>2019-08-09T09:48:33.762Z</time>
      </trkpt>
      <trkpt lat="44.52056" lon="1.72371">
        <ele>262</ele>
        <time>2019-08-09T09:48:38.771Z</time>
      </trkpt>
      <trkpt lat="44.52063" lon="1.72371">
        <ele>262</ele>
        <time>2019-08-09T09:48:43.768Z</time>
      </trkpt>
      <trkpt lat="44.52069" lon="1.72376">
        <ele>251</ele>
        <time>2019-08-09T09:48:48.752Z</time>
      </trkpt>
      <trkpt lat="44.52072" lon="1.72378">
        <ele>256</ele>
        <time>2019-08-09T09:48:52.765Z</time>
      </trkpt>
      <trkpt lat="44.52077" lon="1.72375">
        <ele>266</ele>
        <time>2019-08-09T09:48:57.764Z</time>
      </trkpt>
      <trkpt lat="44.52081" lon="1.72373">
        <ele>266</ele>
        <time>2019-08-09T09:49:02.765Z</time>
      </trkpt>
      <trkpt lat="44.52087" lon="1.72376">
        <ele>256</ele>
        <time>2019-08-09T09:49:07.769Z</time>
      </trkpt>
      <trkpt lat="44.52094" lon="1.72375">
        <ele>256</ele>
        <time>2019-08-09T09:49:12.765Z</time>
      </trkpt>
      <trkpt lat="44.52097" lon="1.72375">
        <ele>266</ele>
        <time>2019-08-09T09:49:17.764Z</time>
      </trkpt>
      <trkpt lat="44.521" lon="1.72372">
        <ele>272</ele>
        <time>2019-08-09T09:49:22.762Z</time>
      </trkpt>
      <trkpt lat="44.52101" lon="1.72372">
        <ele>272</ele>
        <time>2019-08-09T09:49:27.763Z</time>
      </trkpt>
      <trkpt lat="44.52107" lon="1.72371">
        <ele>272</ele>
        <time>2019-08-09T09:49:32.765Z</time>
      </trkpt>
      <trkpt lat="44.52114" lon="1.72372">
        <ele>272</ele>
        <time>2019-08-09T09:49:37.764Z</time>
      </trkpt>
      <trkpt lat="44.52119" lon="1.72368">
        <ele>272</ele>
        <time>2019-08-09T09:49:42.762Z</time>
      </trkpt>
      <trkpt lat="44.52123" lon="1.7237">
        <ele>272</ele>
        <time>2019-08-09T09:49:47.758Z</time>
      </trkpt>
      <trkpt lat="44.52124" lon="1.7237">
        <ele>272</ele>
        <time>2019-08-09T09:49:52.746Z</time>
      </trkpt>
      <trkpt lat="44.52128" lon="1.7237">
        <ele>273</ele>
        <time>2019-08-09T09:49:56.756Z</time>
      </trkpt>
      <trkpt lat="44.52133" lon="1.72369">
        <ele>273</ele>
        <time>2019-08-09T09:50:00.769Z</time>
      </trkpt>
      <trkpt lat="44.52136" lon="1.72371">
        <ele>273</ele>
        <time>2019-08-09T09:50:05.766Z</time>
      </trkpt>
      <trkpt lat="44.52142" lon="1.72373">
        <ele>273</ele>
        <time>2019-08-09T09:50:10.758Z</time>
      </trkpt>
      <trkpt lat="44.52146" lon="1.72374">
        <ele>273</ele>
        <time>2019-08-09T09:50:15.760Z</time>
      </trkpt>
      <trkpt lat="44.52149" lon="1.72376">
        <ele>264</ele>
        <time>2019-08-09T09:50:20.761Z</time>
      </trkpt>
      <trkpt lat="44.52155" lon="1.72383">
        <ele>268</ele>
        <time>2019-08-09T09:50:25.758Z</time>
      </trkpt>
      <trkpt lat="44.52158" lon="1.72384">
        <ele>268</ele>
        <time>2019-08-09T09:50:30.756Z</time>
      </trkpt>
      <trkpt lat="44.52163" lon="1.72394">
        <ele>268</ele>
        <time>2019-08-09T09:50:35.766Z</time>
      </trkpt>
      <trkpt lat="44.52171" lon="1.72399">
        <ele>268</ele>
        <time>2019-08-09T09:50:40.758Z</time>
      </trkpt>
      <trkpt lat="44.52179" lon="1.72402">
        <ele>268</ele>
        <time>2019-08-09T09:50:45.763Z</time>
      </trkpt>
      <trkpt lat="44.52185" lon="1.72403">
        <ele>270</ele>
        <time>2019-08-09T09:50:50.760Z</time>
      </trkpt>
      <trkpt lat="44.52191" lon="1.72401">
        <ele>270</ele>
        <time>2019-08-09T09:50:55.758Z</time>
      </trkpt>
      <trkpt lat="44.52196" lon="1.724">
        <ele>270</ele>
        <time>2019-08-09T09:51:00.755Z</time>
      </trkpt>
      <trkpt lat="44.52202" lon="1.72398">
        <ele>270</ele>
        <time>2019-08-09T09:51:05.759Z</time>
      </trkpt>
      <trkpt lat="44.52211" lon="1.72399">
        <ele>271</ele>
        <time>2019-08-09T09:51:10.756Z</time>
      </trkpt>
      <trkpt lat="44.52216" lon="1.72399">
        <ele>271</ele>
        <time>2019-08-09T09:51:15.763Z</time>
      </trkpt>
      <trkpt lat="44.52222" lon="1.72392">
        <ele>271</ele>
        <time>2019-08-09T09:51:20.760Z</time>
      </trkpt>
      <trkpt lat="44.52228" lon="1.7239">
        <ele>271</ele>
        <time>2019-08-09T09:51:25.759Z</time>
      </trkpt>
      <trkpt lat="44.52235" lon="1.72389">
        <ele>271</ele>
        <time>2019-08-09T09:51:30.760Z</time>
      </trkpt>
      <trkpt lat="44.5224" lon="1.72385">
        <ele>272</ele>
        <time>2019-08-09T09:51:35.761Z</time>
      </trkpt>
      <trkpt lat="44.52246" lon="1.72391">
        <ele>272</ele>
        <time>2019-08-09T09:51:40.757Z</time>
      </trkpt>
      <trkpt lat="44.52252" lon="1.72396">
        <ele>272</ele>
        <time>2019-08-09T09:51:45.764Z</time>
      </trkpt>
      <trkpt lat="44.52258" lon="1.72395">
        <ele>272</ele>
        <time>2019-08-09T09:51:50.761Z</time>
      </trkpt>
      <trkpt lat="44.52263" lon="1.72397">
        <ele>272</ele>
        <time>2019-08-09T09:51:55.759Z</time>
      </trkpt>
      <trkpt lat="44.52268" lon="1.72398">
        <ele>272</ele>
        <time>2019-08-09T09:52:00.750Z</time>
      </trkpt>
      <trkpt lat="44.52273" lon="1.72398">
        <ele>272</ele>
        <time>2019-08-09T09:52:04.759Z</time>
      </trkpt>
      <trkpt lat="44.52277" lon="1.72396">
        <ele>272</ele>
        <time>2019-08-09T09:52:09.766Z</time>
      </trkpt>
      <trkpt lat="44.52281" lon="1.72395">
        <ele>272</ele>
        <time>2019-08-09T09:52:14.755Z</time>
      </trkpt>
      <trkpt lat="44.52284" lon="1.72394">
        <ele>272</ele>
        <time>2019-08-09T09:52:19.754Z</time>
      </trkpt>
      <trkpt lat="44.52292" lon="1.72391">
        <ele>274</ele>
        <time>2019-08-09T09:52:24.757Z</time>
      </trkpt>
      <trkpt lat="44.52298" lon="1.72391">
        <ele>274</ele>
        <time>2019-08-09T09:52:29.762Z</time>
      </trkpt>
      <trkpt lat="44.52304" lon="1.72392">
        <ele>274</ele>
        <time>2019-08-09T09:52:34.772Z</time>
      </trkpt>
      <trkpt lat="44.52313" lon="1.72393">
        <ele>274</ele>
        <time>2019-08-09T09:52:39.765Z</time>
      </trkpt>
      <trkpt lat="44.52314" lon="1.72394">
        <ele>274</ele>
        <time>2019-08-09T09:52:44.753Z</time>
      </trkpt>
      <trkpt lat="44.52319" lon="1.72391">
        <ele>274</ele>
        <time>2019-08-09T09:52:49.750Z</time>
      </trkpt>
      <trkpt lat="44.52327" lon="1.72386">
        <ele>275</ele>
        <time>2019-08-09T09:52:53.762Z</time>
      </trkpt>
      <trkpt lat="44.52336" lon="1.72383">
        <ele>275</ele>
        <time>2019-08-09T09:52:58.764Z</time>
      </trkpt>
      <trkpt lat="44.52341" lon="1.72385">
        <ele>275</ele>
        <time>2019-08-09T09:53:03.748Z</time>
      </trkpt>
      <trkpt lat="44.52344" lon="1.72386">
        <ele>275</ele>
        <time>2019-08-09T09:53:07.764Z</time>
      </trkpt>
      <trkpt lat="44.5235" lon="1.72385">
        <ele>275</ele>
        <time>2019-08-09T09:53:12.768Z</time>
      </trkpt>
      <trkpt lat="44.52357" lon="1.72384">
        <ele>275</ele>
        <time>2019-08-09T09:53:17.761Z</time>
      </trkpt>
      <trkpt lat="44.52364" lon="1.72383">
        <ele>275</ele>
        <time>2019-08-09T09:53:22.760Z</time>
      </trkpt>
      <trkpt lat="44.52369" lon="1.72385">
        <ele>275</ele>
        <time>2019-08-09T09:53:27.762Z</time>
      </trkpt>
      <trkpt lat="44.5237" lon="1.72388">
        <ele>275</ele>
        <time>2019-08-09T09:53:32.758Z</time>
      </trkpt>
      <trkpt lat="44.52374" lon="1.72387">
        <ele>275</ele>
        <time>2019-08-09T09:53:37.768Z</time>
      </trkpt>
      <trkpt lat="44.52385" lon="1.72383">
        <ele>279</ele>
        <time>2019-08-09T09:53:42.758Z</time>
      </trkpt>
      <trkpt lat="44.52393" lon="1.72385">
        <ele>279</ele>
        <time>2019-08-09T09:53:47.758Z</time>
      </trkpt>
      <trkpt lat="44.52401" lon="1.72382">
        <ele>279</ele>
        <time>2019-08-09T09:53:52.760Z</time>
      </trkpt>
      <trkpt lat="44.52409" lon="1.72382">
        <ele>283</ele>
        <time>2019-08-09T09:53:57.763Z</time>
      </trkpt>
      <trkpt lat="44.52414" lon="1.72383">
        <ele>283</ele>
        <time>2019-08-09T09:54:02.758Z</time>
      </trkpt>
      <trkpt lat="44.52419" lon="1.72384">
        <ele>283</ele>
        <time>2019-08-09T09:54:07.757Z</time>
      </trkpt>
      <trkpt lat="44.5242" lon="1.72382">
        <ele>283</ele>
        <time>2019-08-09T09:54:12.759Z</time>
      </trkpt>
      <trkpt lat="44.52424" lon="1.72382">
        <ele>283</ele>
        <time>2019-08-09T09:54:17.749Z</time>
      </trkpt>
      <trkpt lat="44.52429" lon="1.72381">
        <ele>283</ele>
        <time>2019-08-09T09:54:21.762Z</time>
      </trkpt>
      <trkpt lat="44.52434" lon="1.72382">
        <ele>286</ele>
        <time>2019-08-09T09:54:26.766Z</time>
      </trkpt>
      <trkpt lat="44.5244" lon="1.72382">
        <ele>286</ele>
        <time>2019-08-09T09:54:31.760Z</time>
      </trkpt>
      <trkpt lat="44.52447" lon="1.72385">
        <ele>286</ele>
        <time>2019-08-09T09:54:36.759Z</time>
      </trkpt>
      <trkpt lat="44.52454" lon="1.72386">
        <ele>286</ele>
        <time>2019-08-09T09:54:41.769Z</time>
      </trkpt>
      <trkpt lat="44.5246" lon="1.72385">
        <ele>288</ele>
        <time>2019-08-09T09:54:46.760Z</time>
      </trkpt>
      <trkpt lat="44.52465" lon="1.72382">
        <ele>288</ele>
        <time>2019-08-09T09:54:51.757Z</time>
      </trkpt>
      <trkpt lat="44.52469" lon="1.72378">
        <ele>288</ele>
        <time>2019-08-09T09:54:56.769Z</time>
      </trkpt>
      <trkpt lat="44.52474" lon="1.72384">
        <ele>288</ele>
        <time>2019-08-09T09:55:01.760Z</time>
      </trkpt>
      <trkpt lat="44.52478" lon="1.72387">
        <ele>288</ele>
        <time>2019-08-09T09:55:06.759Z</time>
      </trkpt>
      <trkpt lat="44.52483" lon="1.72386">
        <ele>288</ele>
        <time>2019-08-09T09:55:11.764Z</time>
      </trkpt>
      <trkpt lat="44.52491" lon="1.72386">
        <ele>291</ele>
        <time>2019-08-09T09:55:16.756Z</time>
      </trkpt>
      <trkpt lat="44.52498" lon="1.72386">
        <ele>291</ele>
        <time>2019-08-09T09:55:21.759Z</time>
      </trkpt>
      <trkpt lat="44.52505" lon="1.72384">
        <ele>291</ele>
        <time>2019-08-09T09:55:26.757Z</time>
      </trkpt>
      <trkpt lat="44.5251" lon="1.72384">
        <ele>291</ele>
        <time>2019-08-09T09:55:31.763Z</time>
      </trkpt>
      <trkpt lat="44.52516" lon="1.72385">
        <ele>291</ele>
        <time>2019-08-09T09:55:36.753Z</time>
      </trkpt>
      <trkpt lat="44.5252" lon="1.72382">
        <ele>291</ele>
        <time>2019-08-09T09:55:41.757Z</time>
      </trkpt>
      <trkpt lat="44.52525" lon="1.72378">
        <ele>291</ele>
        <time>2019-08-09T09:55:46.759Z</time>
      </trkpt>
      <trkpt lat="44.52529" lon="1.72376">
        <ele>291</ele>
        <time>2019-08-09T09:55:51.744Z</time>
      </trkpt>
      <trkpt lat="44.52536" lon="1.72369">
        <ele>293</ele>
        <time>2019-08-09T09:55:56.759Z</time>
      </trkpt>
      <trkpt lat="44.5254" lon="1.72365">
        <ele>293</ele>
        <time>2019-08-09T09:56:01.748Z</time>
      </trkpt>
      <trkpt lat="44.52544" lon="1.72364">
        <ele>293</ele>
        <time>2019-08-09T09:56:06.749Z</time>
      </trkpt>
      <trkpt lat="44.52551" lon="1.72365">
        <ele>293</ele>
        <time>2019-08-09T09:56:11.742Z</time>
      </trkpt>
      <trkpt lat="44.52556" lon="1.72363">
        <ele>293</ele>
        <time>2019-08-09T09:56:15.764Z</time>
      </trkpt>
      <trkpt lat="44.52563" lon="1.72362">
        <ele>293</ele>
        <time>2019-08-09T09:56:20.759Z</time>
      </trkpt>
      <trkpt lat="44.52569" lon="1.72361">
        <ele>293</ele>
        <time>2019-08-09T09:56:25.757Z</time>
      </trkpt>
      <trkpt lat="44.52576" lon="1.72358">
        <ele>295</ele>
        <time>2019-08-09T09:56:30.750Z</time>
      </trkpt>
      <trkpt lat="44.52579" lon="1.72358">
        <ele>295</ele>
        <time>2019-08-09T09:56:34.761Z</time>
      </trkpt>
      <trkpt lat="44.52584" lon="1.72358">
        <ele>295</ele>
        <time>2019-08-09T09:56:39.761Z</time>
      </trkpt>
      <trkpt lat="44.52585" lon="1.72355">
        <ele>295</ele>
        <time>2019-08-09T09:56:44.759Z</time>
      </trkpt>
      <trkpt lat="44.52588" lon="1.72348">
        <ele>295</ele>
        <time>2019-08-09T09:56:49.760Z</time>
      </trkpt>
      <trkpt lat="44.52596" lon="1.72342">
        <ele>294</ele>
        <time>2019-08-09T09:56:54.761Z</time>
      </trkpt>
      <trkpt lat="44.52603" lon="1.72342">
        <ele>295</ele>
        <time>2019-08-09T09:56:59.774Z</time>
      </trkpt>
      <trkpt lat="44.52607" lon="1.72341">
        <ele>295</ele>
        <time>2019-08-09T09:57:04.770Z</time>
      </trkpt>
      <trkpt lat="44.52615" lon="1.7234">
        <ele>295</ele>
        <time>2019-08-09T09:57:09.762Z</time>
      </trkpt>
      <trkpt lat="44.5262" lon="1.72341">
        <ele>295</ele>
        <time>2019-08-09T09:57:14.760Z</time>
      </trkpt>
      <trkpt lat="44.52627" lon="1.7234">
        <ele>293</ele>
        <time>2019-08-09T09:57:19.760Z</time>
      </trkpt>
      <trkpt lat="44.52631" lon="1.72339">
        <ele>293</ele>
        <time>2019-08-09T09:57:24.762Z</time>
      </trkpt>
      <trkpt lat="44.52635" lon="1.72338">
        <ele>293</ele>
        <time>2019-08-09T09:57:29.760Z</time>
      </trkpt>
      <trkpt lat="44.52641" lon="1.72338">
        <ele>293</ele>
        <time>2019-08-09T09:57:34.758Z</time>
      </trkpt>
      <trkpt lat="44.52647" lon="1.72336">
        <ele>293</ele>
        <time>2019-08-09T09:57:39.759Z</time>
      </trkpt>
      <trkpt lat="44.52653" lon="1.72335">
        <ele>293</ele>
        <time>2019-08-09T09:57:44.755Z</time>
      </trkpt>
      <trkpt lat="44.52658" lon="1.72336">
        <ele>293</ele>
        <time>2019-08-09T09:57:49.761Z</time>
      </trkpt>
      <trkpt lat="44.52662" lon="1.72336">
        <ele>293</ele>
        <time>2019-08-09T09:57:54.752Z</time>
      </trkpt>
      <trkpt lat="44.52663" lon="1.72337">
        <ele>293</ele>
        <time>2019-08-09T09:57:59.758Z</time>
      </trkpt>
      <trkpt lat="44.52668" lon="1.72336">
        <ele>293</ele>
        <time>2019-08-09T09:58:04.760Z</time>
      </trkpt>
      <trkpt lat="44.52676" lon="1.72336">
        <ele>293</ele>
        <time>2019-08-09T09:58:09.759Z</time>
      </trkpt>
      <trkpt lat="44.52681" lon="1.72335">
        <ele>293</ele>
        <time>2019-08-09T09:58:14.760Z</time>
      </trkpt>
      <trkpt lat="44.52688" lon="1.72336">
        <ele>293</ele>
        <time>2019-08-09T09:58:19.764Z</time>
      </trkpt>
      <trkpt lat="44.52692" lon="1.72334">
        <ele>293</ele>
        <time>2019-08-09T09:58:24.758Z</time>
      </trkpt>
      <trkpt lat="44.52696" lon="1.72334">
        <ele>293</ele>
        <time>2019-08-09T09:58:29.762Z</time>
      </trkpt>
      <trkpt lat="44.52702" lon="1.72334">
        <ele>293</ele>
        <time>2019-08-09T09:58:34.761Z</time>
      </trkpt>
      <trkpt lat="44.52708" lon="1.72333">
        <ele>293</ele>
        <time>2019-08-09T09:58:39.760Z</time>
      </trkpt>
      <trkpt lat="44.52713" lon="1.72333">
        <ele>293</ele>
        <time>2019-08-09T09:58:44.759Z</time>
      </trkpt>
      <trkpt lat="44.5272" lon="1.72332">
        <ele>293</ele>
        <time>2019-08-09T09:58:49.760Z</time>
      </trkpt>
      <trkpt lat="44.52726" lon="1.72333">
        <ele>293</ele>
        <time>2019-08-09T09:58:54.771Z</time>
      </trkpt>
      <trkpt lat="44.52729" lon="1.72334">
        <ele>293</ele>
        <time>2019-08-09T09:58:59.765Z</time>
      </trkpt>
      <trkpt lat="44.52734" lon="1.72335">
        <ele>293</ele>
        <time>2019-08-09T09:59:04.757Z</time>
      </trkpt>
      <trkpt lat="44.5274" lon="1.72335">
        <ele>292</ele>
        <time>2019-08-09T09:59:09.756Z</time>
      </trkpt>
      <trkpt lat="44.52742" lon="1.72335">
        <ele>292</ele>
        <time>2019-08-09T09:59:14.762Z</time>
      </trkpt>
      <trkpt lat="44.52746" lon="1.72332">
        <ele>292</ele>
        <time>2019-08-09T09:59:19.762Z</time>
      </trkpt>
      <trkpt lat="44.52752" lon="1.72335">
        <ele>292</ele>
        <time>2019-08-09T09:59:24.762Z</time>
      </trkpt>
      <trkpt lat="44.52758" lon="1.72339">
        <ele>292</ele>
        <time>2019-08-09T09:59:29.766Z</time>
      </trkpt>
      <trkpt lat="44.52766" lon="1.72339">
        <ele>293</ele>
        <time>2019-08-09T09:59:34.759Z</time>
      </trkpt>
      <trkpt lat="44.5277" lon="1.7234">
        <ele>293</ele>
        <time>2019-08-09T09:59:39.760Z</time>
      </trkpt>
      <trkpt lat="44.52775" lon="1.72339">
        <ele>293</ele>
        <time>2019-08-09T09:59:44.757Z</time>
      </trkpt>
      <trkpt lat="44.5278" lon="1.72349">
        <ele>293</ele>
        <time>2019-08-09T09:59:49.747Z</time>
      </trkpt>
      <trkpt lat="44.52786" lon="1.72347">
        <ele>293</ele>
        <time>2019-08-09T09:59:54.759Z</time>
      </trkpt>
      <trkpt lat="44.52792" lon="1.72347">
        <ele>293</ele>
        <time>2019-08-09T09:59:59.759Z</time>
      </trkpt>
      <trkpt lat="44.52796" lon="1.72349">
        <ele>293</ele>
        <time>2019-08-09T10:00:04.758Z</time>
      </trkpt>
      <trkpt lat="44.52802" lon="1.7235">
        <ele>293</ele>
        <time>2019-08-09T10:00:09.763Z</time>
      </trkpt>
      <trkpt lat="44.52808" lon="1.7235">
        <ele>293</ele>
        <time>2019-08-09T10:00:14.763Z</time>
      </trkpt>
      <trkpt lat="44.52815" lon="1.7235">
        <ele>293</ele>
        <time>2019-08-09T10:00:19.763Z</time>
      </trkpt>
      <trkpt lat="44.52819" lon="1.72351">
        <ele>293</ele>
        <time>2019-08-09T10:00:24.765Z</time>
      </trkpt>
      <trkpt lat="44.52826" lon="1.72353">
        <ele>294</ele>
        <time>2019-08-09T10:00:29.756Z</time>
      </trkpt>
      <trkpt lat="44.52834" lon="1.72355">
        <ele>294</ele>
        <time>2019-08-09T10:00:34.761Z</time>
      </trkpt>
      <trkpt lat="44.52839" lon="1.72357">
        <ele>294</ele>
        <time>2019-08-09T10:00:39.762Z</time>
      </trkpt>
      <trkpt lat="44.52844" lon="1.72357">
        <ele>294</ele>
        <time>2019-08-09T10:00:44.762Z</time>
      </trkpt>
      <trkpt lat="44.52852" lon="1.72356">
        <ele>293</ele>
        <time>2019-08-09T10:00:49.762Z</time>
      </trkpt>
      <trkpt lat="44.52857" lon="1.72349">
        <ele>293</ele>
        <time>2019-08-09T10:00:54.760Z</time>
      </trkpt>
      <trkpt lat="44.52864" lon="1.72346">
        <ele>292</ele>
        <time>2019-08-09T10:00:59.763Z</time>
      </trkpt>
      <trkpt lat="44.52871" lon="1.72344">
        <ele>292</ele>
        <time>2019-08-09T10:01:04.762Z</time>
      </trkpt>
      <trkpt lat="44.52879" lon="1.72341">
        <ele>292</ele>
        <time>2019-08-09T10:01:09.763Z</time>
      </trkpt>
      <trkpt lat="44.52885" lon="1.72344">
        <ele>292</ele>
        <time>2019-08-09T10:01:14.758Z</time>
      </trkpt>
      <trkpt lat="44.52896" lon="1.72339">
        <ele>292</ele>
        <time>2019-08-09T10:01:19.764Z</time>
      </trkpt>
      <trkpt lat="44.52903" lon="1.72332">
        <ele>292</ele>
        <time>2019-08-09T10:01:24.760Z</time>
      </trkpt>
      <trkpt lat="44.52908" lon="1.72328">
        <ele>292</ele>
        <time>2019-08-09T10:01:29.765Z</time>
      </trkpt>
      <trkpt lat="44.52914" lon="1.72324">
        <ele>292</ele>
        <time>2019-08-09T10:01:34.764Z</time>
      </trkpt>
      <trkpt lat="44.5292" lon="1.7232">
        <ele>292</ele>
        <time>2019-08-09T10:01:39.768Z</time>
      </trkpt>
      <trkpt lat="44.52928" lon="1.72314">
        <ele>290</ele>
        <time>2019-08-09T10:01:44.757Z</time>
      </trkpt>
      <trkpt lat="44.52934" lon="1.72312">
        <ele>290</ele>
        <time>2019-08-09T10:01:49.759Z</time>
      </trkpt>
      <trkpt lat="44.5294" lon="1.72308">
        <ele>290</ele>
        <time>2019-08-09T10:01:54.763Z</time>
      </trkpt>
      <trkpt lat="44.52947" lon="1.72305">
        <ele>290</ele>
        <time>2019-08-09T10:01:59.763Z</time>
      </trkpt>
      <trkpt lat="44.52952" lon="1.72305">
        <ele>290</ele>
        <time>2019-08-09T10:02:04.767Z</time>
      </trkpt>
      <trkpt lat="44.52958" lon="1.72299">
        <ele>290</ele>
        <time>2019-08-09T10:02:09.765Z</time>
      </trkpt>
      <trkpt lat="44.52965" lon="1.72294">
        <ele>288</ele>
        <time>2019-08-09T10:02:14.765Z</time>
      </trkpt>
      <trkpt lat="44.52972" lon="1.7229">
        <ele>288</ele>
        <time>2019-08-09T10:02:19.761Z</time>
      </trkpt>
      <trkpt lat="44.52979" lon="1.72285">
        <ele>288</ele>
        <time>2019-08-09T10:02:24.761Z</time>
      </trkpt>
      <trkpt lat="44.52987" lon="1.72279">
        <ele>287</ele>
        <time>2019-08-09T10:02:29.762Z</time>
      </trkpt>
      <trkpt lat="44.52994" lon="1.72279">
        <ele>287</ele>
        <time>2019-08-09T10:02:34.760Z</time>
      </trkpt>
      <trkpt lat="44.52991" lon="1.7229">
        <ele>287</ele>
        <time>2019-08-09T10:02:38.759Z</time>
      </trkpt>
      <trkpt lat="44.52993" lon="1.72294">
        <ele>287</ele>
        <time>2019-08-09T10:02:43.760Z</time>
      </trkpt>
      <trkpt lat="44.52999" lon="1.72298">
        <ele>287</ele>
        <time>2019-08-09T10:02:48.765Z</time>
      </trkpt>
      <trkpt lat="44.53006" lon="1.72296">
        <ele>287</ele>
        <time>2019-08-09T10:02:53.763Z</time>
      </trkpt>
      <trkpt lat="44.53014" lon="1.72289">
        <ele>287</ele>
        <time>2019-08-09T10:02:58.761Z</time>
      </trkpt>
      <trkpt lat="44.53022" lon="1.72284">
        <ele>287</ele>
        <time>2019-08-09T10:03:03.762Z</time>
      </trkpt>
      <trkpt lat="44.53029" lon="1.72278">
        <ele>287</ele>
        <time>2019-08-09T10:03:08.762Z</time>
      </trkpt>
      <trkpt lat="44.53035" lon="1.72271">
        <ele>287</ele>
        <time>2019-08-09T10:03:13.764Z</time>
      </trkpt>
      <trkpt lat="44.53041" lon="1.72268">
        <ele>287</ele>
        <time>2019-08-09T10:03:18.762Z</time>
      </trkpt>
      <trkpt lat="44.53046" lon="1.72264">
        <ele>288</ele>
        <time>2019-08-09T10:03:23.759Z</time>
      </trkpt>
      <trkpt lat="44.53052" lon="1.72262">
        <ele>288</ele>
        <time>2019-08-09T10:03:28.762Z</time>
      </trkpt>
      <trkpt lat="44.53061" lon="1.72259">
        <ele>288</ele>
        <time>2019-08-09T10:03:33.759Z</time>
      </trkpt>
      <trkpt lat="44.53068" lon="1.72254">
        <ele>288</ele>
        <time>2019-08-09T10:03:38.762Z</time>
      </trkpt>
      <trkpt lat="44.53073" lon="1.72252">
        <ele>288</ele>
        <time>2019-08-09T10:03:43.752Z</time>
      </trkpt>
      <trkpt lat="44.53082" lon="1.7225">
        <ele>288</ele>
        <time>2019-08-09T10:03:48.759Z</time>
      </trkpt>
      <trkpt lat="44.53089" lon="1.72249">
        <ele>288</ele>
        <time>2019-08-09T10:03:53.763Z</time>
      </trkpt>
      <trkpt lat="44.53095" lon="1.72247">
        <ele>288</ele>
        <time>2019-08-09T10:03:58.761Z</time>
      </trkpt>
      <trkpt lat="44.53102" lon="1.72244">
        <ele>289</ele>
        <time>2019-08-09T10:04:03.765Z</time>
      </trkpt>
      <trkpt lat="44.5311" lon="1.72242">
        <ele>289</ele>
        <time>2019-08-09T10:04:08.766Z</time>
      </trkpt>
      <trkpt lat="44.53117" lon="1.7224">
        <ele>289</ele>
        <time>2019-08-09T10:04:13.765Z</time>
      </trkpt>
      <trkpt lat="44.53124" lon="1.72239">
        <ele>289</ele>
        <time>2019-08-09T10:04:18.761Z</time>
      </trkpt>
      <trkpt lat="44.53129" lon="1.72236">
        <ele>288</ele>
        <time>2019-08-09T10:04:23.764Z</time>
      </trkpt>
      <trkpt lat="44.53135" lon="1.72235">
        <ele>288</ele>
        <time>2019-08-09T10:04:28.761Z</time>
      </trkpt>
      <trkpt lat="44.5314" lon="1.72236">
        <ele>288</ele>
        <time>2019-08-09T10:04:33.764Z</time>
      </trkpt>
      <trkpt lat="44.53147" lon="1.72238">
        <ele>288</ele>
        <time>2019-08-09T10:04:38.758Z</time>
      </trkpt>
      <trkpt lat="44.53156" lon="1.72236">
        <ele>287</ele>
        <time>2019-08-09T10:04:43.764Z</time>
      </trkpt>
      <trkpt lat="44.53166" lon="1.72237">
        <ele>287</ele>
        <time>2019-08-09T10:04:48.760Z</time>
      </trkpt>
      <trkpt lat="44.53171" lon="1.72241">
        <ele>287</ele>
        <time>2019-08-09T10:04:53.761Z</time>
      </trkpt>
      <trkpt lat="44.53177" lon="1.72242">
        <ele>287</ele>
        <time>2019-08-09T10:04:58.756Z</time>
      </trkpt>
      <trkpt lat="44.53183" lon="1.72244">
        <ele>287</ele>
        <time>2019-08-09T10:05:03.760Z</time>
      </trkpt>
      <trkpt lat="44.5319" lon="1.72244">
        <ele>287</ele>
        <time>2019-08-09T10:05:08.766Z</time>
      </trkpt>
      <trkpt lat="44.53198" lon="1.72247">
        <ele>287</ele>
        <time>2019-08-09T10:05:13.769Z</time>
      </trkpt>
      <trkpt lat="44.53206" lon="1.72248">
        <ele>287</ele>
        <time>2019-08-09T10:05:18.754Z</time>
      </trkpt>
      <trkpt lat="44.53211" lon="1.72253">
        <ele>287</ele>
        <time>2019-08-09T10:05:22.764Z</time>
      </trkpt>
      <trkpt lat="44.53218" lon="1.72252">
        <ele>287</ele>
        <time>2019-08-09T10:05:27.766Z</time>
      </trkpt>
      <trkpt lat="44.53226" lon="1.72253">
        <ele>287</ele>
        <time>2019-08-09T10:05:32.764Z</time>
      </trkpt>
      <trkpt lat="44.53232" lon="1.72254">
        <ele>287</ele>
        <time>2019-08-09T10:05:37.764Z</time>
      </trkpt>
      <trkpt lat="44.5324" lon="1.72255">
        <ele>287</ele>
        <time>2019-08-09T10:05:42.767Z</time>
      </trkpt>
      <trkpt lat="44.53246" lon="1.72258">
        <ele>287</ele>
        <time>2019-08-09T10:05:47.764Z</time>
      </trkpt>
      <trkpt lat="44.53252" lon="1.7226">
        <ele>287</ele>
        <time>2019-08-09T10:05:52.765Z</time>
      </trkpt>
      <trkpt lat="44.53258" lon="1.72262">
        <ele>287</ele>
        <time>2019-08-09T10:05:57.763Z</time>
      </trkpt>
      <trkpt lat="44.53268" lon="1.72263">
        <ele>289</ele>
        <time>2019-08-09T10:06:02.763Z</time>
      </trkpt>
      <trkpt lat="44.53272" lon="1.72265">
        <ele>289</ele>
        <time>2019-08-09T10:06:07.766Z</time>
      </trkpt>
      <trkpt lat="44.53278" lon="1.72266">
        <ele>289</ele>
        <time>2019-08-09T10:06:12.770Z</time>
      </trkpt>
      <trkpt lat="44.53285" lon="1.72266">
        <ele>289</ele>
        <time>2019-08-09T10:06:17.762Z</time>
      </trkpt>
      <trkpt lat="44.53291" lon="1.72269">
        <ele>289</ele>
        <time>2019-08-09T10:06:22.754Z</time>
      </trkpt>
      <trkpt lat="44.53293" lon="1.72272">
        <ele>291</ele>
        <time>2019-08-09T10:06:26.764Z</time>
      </trkpt>
      <trkpt lat="44.53302" lon="1.72269">
        <ele>291</ele>
        <time>2019-08-09T10:06:31.763Z</time>
      </trkpt>
      <trkpt lat="44.53309" lon="1.7227">
        <ele>291</ele>
        <time>2019-08-09T10:06:36.766Z</time>
      </trkpt>
      <trkpt lat="44.53318" lon="1.7227">
        <ele>291</ele>
        <time>2019-08-09T10:06:41.766Z</time>
      </trkpt>
      <trkpt lat="44.53327" lon="1.72276">
        <ele>293</ele>
        <time>2019-08-09T10:06:46.763Z</time>
      </trkpt>
      <trkpt lat="44.53331" lon="1.72283">
        <ele>293</ele>
        <time>2019-08-09T10:06:51.764Z</time>
      </trkpt>
      <trkpt lat="44.53338" lon="1.72284">
        <ele>293</ele>
        <time>2019-08-09T10:06:56.764Z</time>
      </trkpt>
      <trkpt lat="44.53343" lon="1.72286">
        <ele>293</ele>
        <time>2019-08-09T10:07:01.772Z</time>
      </trkpt>
      <trkpt lat="44.53348" lon="1.72285">
        <ele>293</ele>
        <time>2019-08-09T10:07:06.764Z</time>
      </trkpt>
      <trkpt lat="44.53354" lon="1.72287">
        <ele>293</ele>
        <time>2019-08-09T10:07:11.765Z</time>
      </trkpt>
      <trkpt lat="44.53363" lon="1.72288">
        <ele>293</ele>
        <time>2019-08-09T10:07:16.760Z</time>
      </trkpt>
      <trkpt lat="44.53369" lon="1.72295">
        <ele>293</ele>
        <time>2019-08-09T10:07:21.763Z</time>
      </trkpt>
      <trkpt lat="44.53378" lon="1.72298">
        <ele>294</ele>
        <time>2019-08-09T10:07:26.753Z</time>
      </trkpt>
      <trkpt lat="44.53384" lon="1.723">
        <ele>294</ele>
        <time>2019-08-09T10:07:30.761Z</time>
      </trkpt>
      <trkpt lat="44.53391" lon="1.72301">
        <ele>294</ele>
        <time>2019-08-09T10:07:35.764Z</time>
      </trkpt>
      <trkpt lat="44.53398" lon="1.72302">
        <ele>294</ele>
        <time>2019-08-09T10:07:40.760Z</time>
      </trkpt>
      <trkpt lat="44.53404" lon="1.72303">
        <ele>294</ele>
        <time>2019-08-09T10:07:45.762Z</time>
      </trkpt>
      <trkpt lat="44.53412" lon="1.72305">
        <ele>294</ele>
        <time>2019-08-09T10:07:50.760Z</time>
      </trkpt>
      <trkpt lat="44.53419" lon="1.72306">
        <ele>294</ele>
        <time>2019-08-09T10:07:55.761Z</time>
      </trkpt>
      <trkpt lat="44.53424" lon="1.72312">
        <ele>294</ele>
        <time>2019-08-09T10:08:00.756Z</time>
      </trkpt>
      <trkpt lat="44.53432" lon="1.72316">
        <ele>294</ele>
        <time>2019-08-09T10:08:05.749Z</time>
      </trkpt>
      <trkpt lat="44.53441" lon="1.7232">
        <ele>295</ele>
        <time>2019-08-09T10:08:10.749Z</time>
      </trkpt>
      <trkpt lat="44.53442" lon="1.7232">
        <ele>295</ele>
        <time>2019-08-09T10:08:14.759Z</time>
      </trkpt>
      <trkpt lat="44.53443" lon="1.72325">
        <ele>295</ele>
        <time>2019-08-09T10:08:19.769Z</time>
      </trkpt>
      <trkpt lat="44.53452" lon="1.72331">
        <ele>295</ele>
        <time>2019-08-09T10:08:24.767Z</time>
      </trkpt>
      <trkpt lat="44.53452" lon="1.72341">
        <ele>295</ele>
        <time>2019-08-09T10:08:29.763Z</time>
      </trkpt>
      <trkpt lat="44.53451" lon="1.72352">
        <ele>296</ele>
        <time>2019-08-09T10:08:34.765Z</time>
      </trkpt>
      <trkpt lat="44.53451" lon="1.72363">
        <ele>296</ele>
        <time>2019-08-09T10:08:39.765Z</time>
      </trkpt>
      <trkpt lat="44.53453" lon="1.72371">
        <ele>296</ele>
        <time>2019-08-09T10:08:44.763Z</time>
      </trkpt>
      <trkpt lat="44.53459" lon="1.72376">
        <ele>297</ele>
        <time>2019-08-09T10:08:49.764Z</time>
      </trkpt>
      <trkpt lat="44.53467" lon="1.7238">
        <ele>297</ele>
        <time>2019-08-09T10:08:54.761Z</time>
      </trkpt>
      <trkpt lat="44.53473" lon="1.72384">
        <ele>297</ele>
        <time>2019-08-09T10:08:59.757Z</time>
      </trkpt>
      <trkpt lat="44.53477" lon="1.7239">
        <ele>297</ele>
        <time>2019-08-09T10:09:04.750Z</time>
      </trkpt>
      <trkpt lat="44.53479" lon="1.72399">
        <ele>297</ele>
        <time>2019-08-09T10:09:09.763Z</time>
      </trkpt>
      <trkpt lat="44.53478" lon="1.7241">
        <ele>297</ele>
        <time>2019-08-09T10:09:14.764Z</time>
      </trkpt>
      <trkpt lat="44.53477" lon="1.72422">
        <ele>297</ele>
        <time>2019-08-09T10:09:19.763Z</time>
      </trkpt>
      <trkpt lat="44.53474" lon="1.72431">
        <ele>296</ele>
        <time>2019-08-09T10:09:24.763Z</time>
      </trkpt>
      <trkpt lat="44.53472" lon="1.72442">
        <ele>296</ele>
        <time>2019-08-09T10:09:29.765Z</time>
      </trkpt>
      <trkpt lat="44.53472" lon="1.72453">
        <ele>296</ele>
        <time>2019-08-09T10:09:34.765Z</time>
      </trkpt>
      <trkpt lat="44.53471" lon="1.7246">
        <ele>295</ele>
        <time>2019-08-09T10:09:39.762Z</time>
      </trkpt>
      <trkpt lat="44.5347" lon="1.72469">
        <ele>295</ele>
        <time>2019-08-09T10:09:44.762Z</time>
      </trkpt>
      <trkpt lat="44.53467" lon="1.72479">
        <ele>295</ele>
        <time>2019-08-09T10:09:49.766Z</time>
      </trkpt>
      <trkpt lat="44.53466" lon="1.72487">
        <ele>295</ele>
        <time>2019-08-09T10:09:54.774Z</time>
      </trkpt>
      <trkpt lat="44.53465" lon="1.72494">
        <ele>295</ele>
        <time>2019-08-09T10:09:59.767Z</time>
      </trkpt>
      <trkpt lat="44.53465" lon="1.72494">
        <ele>295</ele>
        <time>2019-08-09T10:10:04.761Z</time>
      </trkpt>
      <trkpt lat="44.53465" lon="1.72506">
        <ele>295</ele>
        <time>2019-08-09T10:10:09.764Z</time>
      </trkpt>
      <trkpt lat="44.53466" lon="1.72514">
        <ele>295</ele>
        <time>2019-08-09T10:10:14.764Z</time>
      </trkpt>
      <trkpt lat="44.53467" lon="1.72521">
        <ele>295</ele>
        <time>2019-08-09T10:10:19.763Z</time>
      </trkpt>
      <trkpt lat="44.53468" lon="1.7253">
        <ele>295</ele>
        <time>2019-08-09T10:10:24.752Z</time>
      </trkpt>
      <trkpt lat="44.53468" lon="1.7254">
        <ele>295</ele>
        <time>2019-08-09T10:10:29.751Z</time>
      </trkpt>
      <trkpt lat="44.5347" lon="1.7255">
        <ele>293</ele>
        <time>2019-08-09T10:10:34.762Z</time>
      </trkpt>
      <trkpt lat="44.53471" lon="1.72559">
        <ele>293</ele>
        <time>2019-08-09T10:10:39.765Z</time>
      </trkpt>
      <trkpt lat="44.5347" lon="1.72569">
        <ele>293</ele>
        <time>2019-08-09T10:10:44.767Z</time>
      </trkpt>
      <trkpt lat="44.5347" lon="1.72578">
        <ele>292</ele>
        <time>2019-08-09T10:10:49.769Z</time>
      </trkpt>
      <trkpt lat="44.5347" lon="1.72587">
        <ele>292</ele>
        <time>2019-08-09T10:10:54.767Z</time>
      </trkpt>
      <trkpt lat="44.53468" lon="1.726">
        <ele>292</ele>
        <time>2019-08-09T10:10:59.770Z</time>
      </trkpt>
      <trkpt lat="44.53466" lon="1.72612">
        <ele>292</ele>
        <time>2019-08-09T10:11:04.764Z</time>
      </trkpt>
      <trkpt lat="44.53466" lon="1.72622">
        <ele>292</ele>
        <time>2019-08-09T10:11:09.767Z</time>
      </trkpt>
      <trkpt lat="44.53464" lon="1.72629">
        <ele>291</ele>
        <time>2019-08-09T10:11:14.766Z</time>
      </trkpt>
      <trkpt lat="44.53463" lon="1.72639">
        <ele>291</ele>
        <time>2019-08-09T10:11:19.757Z</time>
      </trkpt>
      <trkpt lat="44.53461" lon="1.72646">
        <ele>291</ele>
        <time>2019-08-09T10:11:24.762Z</time>
      </trkpt>
      <trkpt lat="44.53461" lon="1.72653">
        <ele>290</ele>
        <time>2019-08-09T10:11:29.764Z</time>
      </trkpt>
      <trkpt lat="44.53461" lon="1.72658">
        <ele>290</ele>
        <time>2019-08-09T10:11:34.766Z</time>
      </trkpt>
      <trkpt lat="44.53465" lon="1.72663">
        <ele>290</ele>
        <time>2019-08-09T10:11:39.763Z</time>
      </trkpt>
      <trkpt lat="44.53471" lon="1.72669">
        <ele>290</ele>
        <time>2019-08-09T10:11:44.762Z</time>
      </trkpt>
      <trkpt lat="44.5348" lon="1.72673">
        <ele>290</ele>
        <time>2019-08-09T10:11:49.762Z</time>
      </trkpt>
      <trkpt lat="44.53486" lon="1.72675">
        <ele>293</ele>
        <time>2019-08-09T10:11:53.774Z</time>
      </trkpt>
      <trkpt lat="44.53495" lon="1.72678">
        <ele>293</ele>
        <time>2019-08-09T10:11:58.767Z</time>
      </trkpt>
      <trkpt lat="44.53501" lon="1.72685">
        <ele>289</ele>
        <time>2019-08-09T10:12:03.755Z</time>
      </trkpt>
      <trkpt lat="44.53504" lon="1.72686">
        <ele>289</ele>
        <time>2019-08-09T10:12:36.767Z</time>
      </trkpt>
      <trkpt lat="44.53505" lon="1.72688">
        <ele>289</ele>
        <time>2019-08-09T10:12:41.764Z</time>
      </trkpt>
      <trkpt lat="44.53513" lon="1.72691">
        <ele>289</ele>
        <time>2019-08-09T10:12:46.766Z</time>
      </trkpt>
      <trkpt lat="44.53523" lon="1.72697">
        <ele>289</ele>
        <time>2019-08-09T10:12:51.764Z</time>
      </trkpt>
      <trkpt lat="44.53532" lon="1.72701">
        <ele>289</ele>
        <time>2019-08-09T10:12:56.766Z</time>
      </trkpt>
      <trkpt lat="44.5354" lon="1.72708">
        <ele>289</ele>
        <time>2019-08-09T10:13:01.763Z</time>
      </trkpt>
      <trkpt lat="44.53546" lon="1.72713">
        <ele>284</ele>
        <time>2019-08-09T10:13:06.763Z</time>
      </trkpt>
      <trkpt lat="44.53552" lon="1.72722">
        <ele>284</ele>
        <time>2019-08-09T10:13:11.768Z</time>
      </trkpt>
      <trkpt lat="44.53558" lon="1.7273">
        <ele>284</ele>
        <time>2019-08-09T10:13:16.751Z</time>
      </trkpt>
      <trkpt lat="44.53564" lon="1.72738">
        <ele>280</ele>
        <time>2019-08-09T10:13:21.768Z</time>
      </trkpt>
      <trkpt lat="44.53566" lon="1.72742">
        <ele>280</ele>
        <time>2019-08-09T10:13:26.767Z</time>
      </trkpt>
      <trkpt lat="44.53566" lon="1.72743">
        <ele>280</ele>
        <time>2019-08-09T10:13:31.773Z</time>
      </trkpt>
      <trkpt lat="44.53569" lon="1.72747">
        <ele>280</ele>
        <time>2019-08-09T10:13:36.769Z</time>
      </trkpt>
      <trkpt lat="44.53574" lon="1.72753">
        <ele>280</ele>
        <time>2019-08-09T10:13:41.765Z</time>
      </trkpt>
      <trkpt lat="44.53579" lon="1.72765">
        <ele>277</ele>
        <time>2019-08-09T10:13:46.764Z</time>
      </trkpt>
      <trkpt lat="44.53579" lon="1.72778">
        <ele>277</ele>
        <time>2019-08-09T10:13:51.763Z</time>
      </trkpt>
      <trkpt lat="44.53575" lon="1.72788">
        <ele>277</ele>
        <time>2019-08-09T10:13:56.763Z</time>
      </trkpt>
      <trkpt lat="44.53571" lon="1.72797">
        <ele>275</ele>
        <time>2019-08-09T10:14:01.769Z</time>
      </trkpt>
      <trkpt lat="44.53567" lon="1.72806">
        <ele>276</ele>
        <time>2019-08-09T10:14:06.764Z</time>
      </trkpt>
      <trkpt lat="44.5356" lon="1.72812">
        <ele>276</ele>
        <time>2019-08-09T10:14:11.763Z</time>
      </trkpt>
      <trkpt lat="44.53553" lon="1.72819">
        <ele>276</ele>
        <time>2019-08-09T10:14:16.767Z</time>
      </trkpt>
      <trkpt lat="44.53547" lon="1.72825">
        <ele>274</ele>
        <time>2019-08-09T10:14:21.779Z</time>
      </trkpt>
      <trkpt lat="44.53543" lon="1.72831">
        <ele>274</ele>
        <time>2019-08-09T10:14:26.761Z</time>
      </trkpt>
      <trkpt lat="44.53536" lon="1.72839">
        <ele>274</ele>
        <time>2019-08-09T10:14:31.761Z</time>
      </trkpt>
      <trkpt lat="44.53529" lon="1.72846">
        <ele>274</ele>
        <time>2019-08-09T10:14:36.753Z</time>
      </trkpt>
      <trkpt lat="44.53524" lon="1.72853">
        <ele>270</ele>
        <time>2019-08-09T10:14:41.765Z</time>
      </trkpt>
      <trkpt lat="44.53521" lon="1.72856">
        <ele>270</ele>
        <time>2019-08-09T10:15:21.757Z</time>
      </trkpt>
      <trkpt lat="44.53518" lon="1.72862">
        <ele>270</ele>
        <time>2019-08-09T10:15:26.759Z</time>
      </trkpt>
      <trkpt lat="44.53512" lon="1.72874">
        <ele>271</ele>
        <time>2019-08-09T10:15:31.764Z</time>
      </trkpt>
      <trkpt lat="44.53512" lon="1.7288">
        <ele>269</ele>
        <time>2019-08-09T10:15:36.763Z</time>
      </trkpt>
      <trkpt lat="44.53514" lon="1.72888">
        <ele>269</ele>
        <time>2019-08-09T10:15:41.764Z</time>
      </trkpt>
      <trkpt lat="44.53514" lon="1.72888">
        <ele>269</ele>
        <time>2019-08-09T10:15:46.761Z</time>
      </trkpt>
      <trkpt lat="44.53522" lon="1.7288">
        <ele>267</ele>
        <time>2019-08-09T10:15:51.763Z</time>
      </trkpt>
      <trkpt lat="44.53532" lon="1.72876">
        <ele>267</ele>
        <time>2019-08-09T10:15:56.756Z</time>
      </trkpt>
      <trkpt lat="44.53539" lon="1.72876">
        <ele>267</ele>
        <time>2019-08-09T10:16:01.770Z</time>
      </trkpt>
      <trkpt lat="44.53546" lon="1.72876">
        <ele>266</ele>
        <time>2019-08-09T10:16:06.763Z</time>
      </trkpt>
      <trkpt lat="44.53552" lon="1.72875">
        <ele>266</ele>
        <time>2019-08-09T10:16:11.763Z</time>
      </trkpt>
      <trkpt lat="44.5356" lon="1.72877">
        <ele>266</ele>
        <time>2019-08-09T10:16:16.762Z</time>
      </trkpt>
      <trkpt lat="44.53567" lon="1.72878">
        <ele>266</ele>
        <time>2019-08-09T10:16:21.765Z</time>
      </trkpt>
      <trkpt lat="44.53573" lon="1.72879">
        <ele>266</ele>
        <time>2019-08-09T10:16:26.760Z</time>
      </trkpt>
      <trkpt lat="44.53576" lon="1.72883">
        <ele>266</ele>
        <time>2019-08-09T10:16:31.761Z</time>
      </trkpt>
      <trkpt lat="44.53579" lon="1.72883">
        <ele>266</ele>
        <time>2019-08-09T10:16:36.760Z</time>
      </trkpt>
      <trkpt lat="44.53583" lon="1.72883">
        <ele>266</ele>
        <time>2019-08-09T10:16:41.762Z</time>
      </trkpt>
      <trkpt lat="44.53583" lon="1.7288">
        <ele>266</ele>
        <time>2019-08-09T10:16:46.766Z</time>
      </trkpt>
      <trkpt lat="44.53583" lon="1.72881">
        <ele>266</ele>
        <time>2019-08-09T10:16:51.766Z</time>
      </trkpt>
      <trkpt lat="44.53583" lon="1.72881">
        <ele>266</ele>
        <time>2019-08-09T10:16:56.765Z</time>
      </trkpt>
      <trkpt lat="44.53581" lon="1.72891">
        <ele>266</ele>
        <time>2019-08-09T10:17:01.763Z</time>
      </trkpt>
      <trkpt lat="44.53587" lon="1.72898">
        <ele>266</ele>
        <time>2019-08-09T10:17:06.763Z</time>
      </trkpt>
      <trkpt lat="44.5359" lon="1.72908">
        <ele>262</ele>
        <time>2019-08-09T10:17:11.763Z</time>
      </trkpt>
      <trkpt lat="44.53598" lon="1.72914">
        <ele>259</ele>
        <time>2019-08-09T10:17:16.759Z</time>
      </trkpt>
      <trkpt lat="44.53606" lon="1.7292">
        <ele>259</ele>
        <time>2019-08-09T10:17:21.764Z</time>
      </trkpt>
      <trkpt lat="44.53609" lon="1.72929">
        <ele>259</ele>
        <time>2019-08-09T10:17:26.760Z</time>
      </trkpt>
      <trkpt lat="44.53612" lon="1.72938">
        <ele>255</ele>
        <time>2019-08-09T10:17:31.764Z</time>
      </trkpt>
      <trkpt lat="44.53617" lon="1.72945">
        <ele>255</ele>
        <time>2019-08-09T10:17:36.762Z</time>
      </trkpt>
      <trkpt lat="44.53622" lon="1.72953">
        <ele>255</ele>
        <time>2019-08-09T10:17:41.768Z</time>
      </trkpt>
      <trkpt lat="44.53628" lon="1.72961">
        <ele>250</ele>
        <time>2019-08-09T10:17:46.762Z</time>
      </trkpt>
      <trkpt lat="44.53634" lon="1.72971">
        <ele>250</ele>
        <time>2019-08-09T10:17:51.764Z</time>
      </trkpt>
      <trkpt lat="44.53638" lon="1.7298">
        <ele>250</ele>
        <time>2019-08-09T10:17:56.765Z</time>
      </trkpt>
      <trkpt lat="44.53643" lon="1.72986">
        <ele>247</ele>
        <time>2019-08-09T10:18:01.764Z</time>
      </trkpt>
      <trkpt lat="44.53647" lon="1.72997">
        <ele>247</ele>
        <time>2019-08-09T10:18:06.758Z</time>
      </trkpt>
      <trkpt lat="44.53654" lon="1.73003">
        <ele>248</ele>
        <time>2019-08-09T10:18:11.766Z</time>
      </trkpt>
      <trkpt lat="44.53659" lon="1.73013">
        <ele>248</ele>
        <time>2019-08-09T10:18:16.767Z</time>
      </trkpt>
      <trkpt lat="44.53665" lon="1.7302">
        <ele>244</ele>
        <time>2019-08-09T10:18:21.761Z</time>
      </trkpt>
      <trkpt lat="44.53671" lon="1.73029">
        <ele>244</ele>
        <time>2019-08-09T10:18:26.764Z</time>
      </trkpt>
      <trkpt lat="44.53675" lon="1.73038">
        <ele>244</ele>
        <time>2019-08-09T10:18:31.760Z</time>
      </trkpt>
      <trkpt lat="44.53679" lon="1.73046">
        <ele>240</ele>
        <time>2019-08-09T10:18:36.751Z</time>
      </trkpt>
      <trkpt lat="44.53684" lon="1.73055">
        <ele>240</ele>
        <time>2019-08-09T10:18:41.760Z</time>
      </trkpt>
      <trkpt lat="44.53684" lon="1.73064">
        <ele>240</ele>
        <time>2019-08-09T10:18:46.765Z</time>
      </trkpt>
      <trkpt lat="44.53686" lon="1.73067">
        <ele>240</ele>
        <time>2019-08-09T10:18:51.753Z</time>
      </trkpt>
      <trkpt lat="44.53689" lon="1.73071">
        <ele>237</ele>
        <time>2019-08-09T10:18:55.763Z</time>
      </trkpt>
      <trkpt lat="44.53692" lon="1.73079">
        <ele>237</ele>
        <time>2019-08-09T10:19:00.748Z</time>
      </trkpt>
      <trkpt lat="44.53697" lon="1.73088">
        <ele>237</ele>
        <time>2019-08-09T10:19:04.761Z</time>
      </trkpt>
      <trkpt lat="44.53701" lon="1.73096">
        <ele>237</ele>
        <time>2019-08-09T10:19:09.762Z</time>
      </trkpt>
      <trkpt lat="44.53704" lon="1.73105">
        <ele>235</ele>
        <time>2019-08-09T10:19:14.765Z</time>
      </trkpt>
      <trkpt lat="44.53707" lon="1.73114">
        <ele>235</ele>
        <time>2019-08-09T10:19:19.764Z</time>
      </trkpt>
      <trkpt lat="44.53709" lon="1.73126">
        <ele>233</ele>
        <time>2019-08-09T10:19:24.768Z</time>
      </trkpt>
      <trkpt lat="44.53711" lon="1.73127">
        <ele>233</ele>
        <time>2019-08-09T10:19:29.769Z</time>
      </trkpt>
      <trkpt lat="44.53711" lon="1.73127">
        <ele>233</ele>
        <time>2019-08-09T10:19:34.761Z</time>
      </trkpt>
      <trkpt lat="44.53709" lon="1.73133">
        <ele>233</ele>
        <time>2019-08-09T10:19:38.771Z</time>
      </trkpt>
      <trkpt lat="44.53712" lon="1.73139">
        <ele>233</ele>
        <time>2019-08-09T10:19:43.764Z</time>
      </trkpt>
      <trkpt lat="44.53715" lon="1.73149">
        <ele>233</ele>
        <time>2019-08-09T10:19:48.761Z</time>
      </trkpt>
      <trkpt lat="44.53723" lon="1.73157">
        <ele>230</ele>
        <time>2019-08-09T10:19:53.763Z</time>
      </trkpt>
      <trkpt lat="44.53732" lon="1.73161">
        <ele>230</ele>
        <time>2019-08-09T10:19:58.764Z</time>
      </trkpt>
      <trkpt lat="44.53739" lon="1.73163">
        <ele>231</ele>
        <time>2019-08-09T10:20:03.760Z</time>
      </trkpt>
      <trkpt lat="44.53738" lon="1.73165">
        <ele>231</ele>
        <time>2019-08-09T10:22:49.753Z</time>
      </trkpt>
      <trkpt lat="44.53738" lon="1.73166">
        <ele>231</ele>
        <time>2019-08-09T10:22:54.751Z</time>
      </trkpt>
      <trkpt lat="44.53738" lon="1.73167">
        <ele>231</ele>
        <time>2019-08-09T10:22:59.749Z</time>
      </trkpt>
      <trkpt lat="44.53742" lon="1.73167">
        <ele>231</ele>
        <time>2019-08-09T10:23:03.760Z</time>
      </trkpt>
      <trkpt lat="44.53747" lon="1.73169">
        <ele>231</ele>
        <time>2019-08-09T10:23:08.760Z</time>
      </trkpt>
      <trkpt lat="44.53753" lon="1.73166">
        <ele>231</ele>
        <time>2019-08-09T10:23:13.761Z</time>
      </trkpt>
      <trkpt lat="44.53762" lon="1.73163">
        <ele>231</ele>
        <time>2019-08-09T10:23:18.762Z</time>
      </trkpt>
      <trkpt lat="44.5377" lon="1.73159">
        <ele>228</ele>
        <time>2019-08-09T10:23:23.767Z</time>
      </trkpt>
      <trkpt lat="44.53774" lon="1.73153">
        <ele>228</ele>
        <time>2019-08-09T10:23:28.757Z</time>
      </trkpt>
      <trkpt lat="44.53781" lon="1.73147">
        <ele>232</ele>
        <time>2019-08-09T10:23:33.764Z</time>
      </trkpt>
      <trkpt lat="44.53786" lon="1.73145">
        <ele>232</ele>
        <time>2019-08-09T10:23:38.759Z</time>
      </trkpt>
      <trkpt lat="44.53793" lon="1.73141">
        <ele>229</ele>
        <time>2019-08-09T10:23:43.758Z</time>
      </trkpt>
      <trkpt lat="44.53801" lon="1.73138">
        <ele>229</ele>
        <time>2019-08-09T10:23:48.762Z</time>
      </trkpt>
      <trkpt lat="44.53806" lon="1.73133">
        <ele>229</ele>
        <time>2019-08-09T10:23:53.761Z</time>
      </trkpt>
      <trkpt lat="44.53816" lon="1.73128">
        <ele>229</ele>
        <time>2019-08-09T10:23:58.754Z</time>
      </trkpt>
      <trkpt lat="44.53824" lon="1.73124">
        <ele>227</ele>
        <time>2019-08-09T10:24:03.755Z</time>
      </trkpt>
      <trkpt lat="44.53829" lon="1.73117">
        <ele>227</ele>
        <time>2019-08-09T10:24:08.759Z</time>
      </trkpt>
      <trkpt lat="44.53833" lon="1.7311">
        <ele>227</ele>
        <time>2019-08-09T10:24:13.760Z</time>
      </trkpt>
      <trkpt lat="44.53839" lon="1.73105">
        <ele>227</ele>
        <time>2019-08-09T10:24:18.755Z</time>
      </trkpt>
      <trkpt lat="44.53843" lon="1.731">
        <ele>227</ele>
        <time>2019-08-09T10:24:22.765Z</time>
      </trkpt>
      <trkpt lat="44.53847" lon="1.73093">
        <ele>227</ele>
        <time>2019-08-09T10:24:27.760Z</time>
      </trkpt>
      <trkpt lat="44.53852" lon="1.73089">
        <ele>227</ele>
        <time>2019-08-09T10:24:31.771Z</time>
      </trkpt>
      <trkpt lat="44.53859" lon="1.73083">
        <ele>227</ele>
        <time>2019-08-09T10:24:36.761Z</time>
      </trkpt>
      <trkpt lat="44.53867" lon="1.73082">
        <ele>227</ele>
        <time>2019-08-09T10:24:41.760Z</time>
      </trkpt>
      <trkpt lat="44.53874" lon="1.73085">
        <ele>227</ele>
        <time>2019-08-09T10:24:46.761Z</time>
      </trkpt>
      <trkpt lat="44.53878" lon="1.73096">
        <ele>229</ele>
        <time>2019-08-09T10:24:51.759Z</time>
      </trkpt>
      <trkpt lat="44.53882" lon="1.73105">
        <ele>227</ele>
        <time>2019-08-09T10:24:56.759Z</time>
      </trkpt>
      <trkpt lat="44.53887" lon="1.73111">
        <ele>227</ele>
        <time>2019-08-09T10:25:01.760Z</time>
      </trkpt>
      <trkpt lat="44.53892" lon="1.73115">
        <ele>227</ele>
        <time>2019-08-09T10:25:06.761Z</time>
      </trkpt>
      <trkpt lat="44.53894" lon="1.73113">
        <ele>227</ele>
        <time>2019-08-09T10:25:11.763Z</time>
      </trkpt>
      <trkpt lat="44.53894" lon="1.73114">
        <ele>227</ele>
        <time>2019-08-09T10:25:16.762Z</time>
      </trkpt>
      <trkpt lat="44.53894" lon="1.73121">
        <ele>227</ele>
        <time>2019-08-09T10:25:21.760Z</time>
      </trkpt>
      <trkpt lat="44.53895" lon="1.73127">
        <ele>225</ele>
        <time>2019-08-09T10:25:26.765Z</time>
      </trkpt>
      <trkpt lat="44.53897" lon="1.73134">
        <ele>225</ele>
        <time>2019-08-09T10:25:31.768Z</time>
      </trkpt>
      <trkpt lat="44.53901" lon="1.7314">
        <ele>225</ele>
        <time>2019-08-09T10:25:36.762Z</time>
      </trkpt>
      <trkpt lat="44.53907" lon="1.73145">
        <ele>228</ele>
        <time>2019-08-09T10:25:41.762Z</time>
      </trkpt>
      <trkpt lat="44.53915" lon="1.73148">
        <ele>228</ele>
        <time>2019-08-09T10:25:46.761Z</time>
      </trkpt>
      <trkpt lat="44.53923" lon="1.73153">
        <ele>228</ele>
        <time>2019-08-09T10:25:51.763Z</time>
      </trkpt>
      <trkpt lat="44.53934" lon="1.73156">
        <ele>227</ele>
        <time>2019-08-09T10:25:56.762Z</time>
      </trkpt>
      <trkpt lat="44.53937" lon="1.7316">
        <ele>227</ele>
        <time>2019-08-09T10:26:01.772Z</time>
      </trkpt>
      <trkpt lat="44.53947" lon="1.73162">
        <ele>227</ele>
        <time>2019-08-09T10:26:06.761Z</time>
      </trkpt>
      <trkpt lat="44.53959" lon="1.73161">
        <ele>227</ele>
        <time>2019-08-09T10:26:11.761Z</time>
      </trkpt>
      <trkpt lat="44.5397" lon="1.73161">
        <ele>227</ele>
        <time>2019-08-09T10:26:16.752Z</time>
      </trkpt>
      <trkpt lat="44.5397" lon="1.73166">
        <ele>227</ele>
        <time>2019-08-09T10:26:20.759Z</time>
      </trkpt>
      <trkpt lat="44.53974" lon="1.73164">
        <ele>227</ele>
        <time>2019-08-09T10:26:25.756Z</time>
      </trkpt>
      <trkpt lat="44.53982" lon="1.73164">
        <ele>227</ele>
        <time>2019-08-09T10:26:30.757Z</time>
      </trkpt>
      <trkpt lat="44.53989" lon="1.73164">
        <ele>229</ele>
        <time>2019-08-09T10:26:35.763Z</time>
      </trkpt>
      <trkpt lat="44.53996" lon="1.73164">
        <ele>229</ele>
        <time>2019-08-09T10:26:40.761Z</time>
      </trkpt>
      <trkpt lat="44.54003" lon="1.73165">
        <ele>229</ele>
        <time>2019-08-09T10:26:45.764Z</time>
      </trkpt>
      <trkpt lat="44.54012" lon="1.73164">
        <ele>229</ele>
        <time>2019-08-09T10:26:50.747Z</time>
      </trkpt>
      <trkpt lat="44.54018" lon="1.73165">
        <ele>231</ele>
        <time>2019-08-09T10:26:54.760Z</time>
      </trkpt>
      <trkpt lat="44.54025" lon="1.73165">
        <ele>231</ele>
        <time>2019-08-09T10:26:59.764Z</time>
      </trkpt>
      <trkpt lat="44.54032" lon="1.73165">
        <ele>231</ele>
        <time>2019-08-09T10:27:04.755Z</time>
      </trkpt>
      <trkpt lat="44.54039" lon="1.73165">
        <ele>231</ele>
        <time>2019-08-09T10:27:09.749Z</time>
      </trkpt>
      <trkpt lat="44.54044" lon="1.73168">
        <ele>232</ele>
        <time>2019-08-09T10:27:14.759Z</time>
      </trkpt>
      <trkpt lat="44.54048" lon="1.73178">
        <ele>232</ele>
        <time>2019-08-09T10:27:19.758Z</time>
      </trkpt>
      <trkpt lat="44.54048" lon="1.73188">
        <ele>227</ele>
        <time>2019-08-09T10:27:24.758Z</time>
      </trkpt>
      <trkpt lat="44.54048" lon="1.73197">
        <ele>227</ele>
        <time>2019-08-09T10:27:29.763Z</time>
      </trkpt>
      <trkpt lat="44.54048" lon="1.73208">
        <ele>227</ele>
        <time>2019-08-09T10:27:34.763Z</time>
      </trkpt>
      <trkpt lat="44.54049" lon="1.73217">
        <ele>223</ele>
        <time>2019-08-09T10:27:39.760Z</time>
      </trkpt>
      <trkpt lat="44.54049" lon="1.73226">
        <ele>223</ele>
        <time>2019-08-09T10:27:44.751Z</time>
      </trkpt>
      <trkpt lat="44.54051" lon="1.73234">
        <ele>223</ele>
        <time>2019-08-09T10:27:48.761Z</time>
      </trkpt>
      <trkpt lat="44.54054" lon="1.73244">
        <ele>222</ele>
        <time>2019-08-09T10:27:53.761Z</time>
      </trkpt>
      <trkpt lat="44.54056" lon="1.73251">
        <ele>222</ele>
        <time>2019-08-09T10:27:58.762Z</time>
      </trkpt>
      <trkpt lat="44.54062" lon="1.73259">
        <ele>222</ele>
        <time>2019-08-09T10:28:03.763Z</time>
      </trkpt>
      <trkpt lat="44.54067" lon="1.73268">
        <ele>221</ele>
        <time>2019-08-09T10:28:08.761Z</time>
      </trkpt>
      <trkpt lat="44.54067" lon="1.73266">
        <ele>221</ele>
        <time>2019-08-09T10:28:13.760Z</time>
      </trkpt>
      <trkpt lat="44.5407" lon="1.73274">
        <ele>227</ele>
        <time>2019-08-09T10:28:18.763Z</time>
      </trkpt>
      <trkpt lat="44.54077" lon="1.73283">
        <ele>227</ele>
        <time>2019-08-09T10:28:23.761Z</time>
      </trkpt>
      <trkpt lat="44.54085" lon="1.73292">
        <ele>224</ele>
        <time>2019-08-09T10:28:28.757Z</time>
      </trkpt>
      <trkpt lat="44.54088" lon="1.73297">
        <ele>224</ele>
        <time>2019-08-09T10:28:33.758Z</time>
      </trkpt>
      <trkpt lat="44.54092" lon="1.73303">
        <ele>224</ele>
        <time>2019-08-09T10:28:38.763Z</time>
      </trkpt>
      <trkpt lat="44.54097" lon="1.73309">
        <ele>226</ele>
        <time>2019-08-09T10:28:43.763Z</time>
      </trkpt>
      <trkpt lat="44.54103" lon="1.73316">
        <ele>226</ele>
        <time>2019-08-09T10:28:48.762Z</time>
      </trkpt>
      <trkpt lat="44.54108" lon="1.73324">
        <ele>224</ele>
        <time>2019-08-09T10:28:53.763Z</time>
      </trkpt>
      <trkpt lat="44.54113" lon="1.73332">
        <ele>224</ele>
        <time>2019-08-09T10:28:58.763Z</time>
      </trkpt>
      <trkpt lat="44.54117" lon="1.73341">
        <ele>224</ele>
        <time>2019-08-09T10:29:03.763Z</time>
      </trkpt>
      <trkpt lat="44.54118" lon="1.73354">
        <ele>226</ele>
        <time>2019-08-09T10:29:08.761Z</time>
      </trkpt>
      <trkpt lat="44.54118" lon="1.73362">
        <ele>226</ele>
        <time>2019-08-09T10:29:13.762Z</time>
      </trkpt>
      <trkpt lat="44.54116" lon="1.7337">
        <ele>226</ele>
        <time>2019-08-09T10:29:18.759Z</time>
      </trkpt>
      <trkpt lat="44.54116" lon="1.73371">
        <ele>226</ele>
        <time>2019-08-09T10:29:22.776Z</time>
      </trkpt>
      <trkpt lat="44.54117" lon="1.73371">
        <ele>226</ele>
        <time>2019-08-09T10:29:27.747Z</time>
      </trkpt>
      <trkpt lat="44.54119" lon="1.73374">
        <ele>226</ele>
        <time>2019-08-09T10:29:32.765Z</time>
      </trkpt>
      <trkpt lat="44.54115" lon="1.73378">
        <ele>229</ele>
        <time>2019-08-09T10:29:37.765Z</time>
      </trkpt>
      <trkpt lat="44.54112" lon="1.73376">
        <ele>229</ele>
        <time>2019-08-09T10:29:42.766Z</time>
      </trkpt>
      <trkpt lat="44.54107" lon="1.73376">
        <ele>229</ele>
        <time>2019-08-09T10:29:47.763Z</time>
      </trkpt>
      <trkpt lat="44.54098" lon="1.73377">
        <ele>229</ele>
        <time>2019-08-09T10:29:52.756Z</time>
      </trkpt>
      <trkpt lat="44.54089" lon="1.73375">
        <ele>231</ele>
        <time>2019-08-09T10:29:57.762Z</time>
      </trkpt>
      <trkpt lat="44.54083" lon="1.73373">
        <ele>227</ele>
        <time>2019-08-09T10:30:02.759Z</time>
      </trkpt>
      <trkpt lat="44.54076" lon="1.7337">
        <ele>227</ele>
        <time>2019-08-09T10:30:07.761Z</time>
      </trkpt>
      <trkpt lat="44.54067" lon="1.73371">
        <ele>229</ele>
        <time>2019-08-09T10:30:12.756Z</time>
      </trkpt>
      <trkpt lat="44.54059" lon="1.73372">
        <ele>229</ele>
        <time>2019-08-09T10:30:17.760Z</time>
      </trkpt>
      <trkpt lat="44.54053" lon="1.73371">
        <ele>229</ele>
        <time>2019-08-09T10:30:22.755Z</time>
      </trkpt>
      <trkpt lat="44.54048" lon="1.73373">
        <ele>229</ele>
        <time>2019-08-09T10:30:27.760Z</time>
      </trkpt>
      <trkpt lat="44.54038" lon="1.73374">
        <ele>229</ele>
        <time>2019-08-09T10:30:32.758Z</time>
      </trkpt>
      <trkpt lat="44.54033" lon="1.73375">
        <ele>229</ele>
        <time>2019-08-09T10:30:36.771Z</time>
      </trkpt>
      <trkpt lat="44.5403" lon="1.73375">
        <ele>229</ele>
        <time>2019-08-09T10:30:41.750Z</time>
      </trkpt>
      <trkpt lat="44.54026" lon="1.73378">
        <ele>235</ele>
        <time>2019-08-09T10:30:45.761Z</time>
      </trkpt>
      <trkpt lat="44.54018" lon="1.73381">
        <ele>235</ele>
        <time>2019-08-09T10:30:50.754Z</time>
      </trkpt>
      <trkpt lat="44.54015" lon="1.73388">
        <ele>235</ele>
        <time>2019-08-09T10:30:55.760Z</time>
      </trkpt>
      <trkpt lat="44.54011" lon="1.734">
        <ele>235</ele>
        <time>2019-08-09T10:31:00.751Z</time>
      </trkpt>
      <trkpt lat="44.54008" lon="1.7341">
        <ele>240</ele>
        <time>2019-08-09T10:31:05.757Z</time>
      </trkpt>
      <trkpt lat="44.54004" lon="1.73417">
        <ele>240</ele>
        <time>2019-08-09T10:31:10.747Z</time>
      </trkpt>
      <trkpt lat="44.54002" lon="1.73422">
        <ele>240</ele>
        <time>2019-08-09T10:31:15.763Z</time>
      </trkpt>
      <trkpt lat="44.54002" lon="1.73427">
        <ele>240</ele>
        <time>2019-08-09T10:31:20.756Z</time>
      </trkpt>
      <trkpt lat="44.54003" lon="1.73434">
        <ele>244</ele>
        <time>2019-08-09T10:31:25.758Z</time>
      </trkpt>
      <trkpt lat="44.54004" lon="1.73445">
        <ele>244</ele>
        <time>2019-08-09T10:31:30.753Z</time>
      </trkpt>
      <trkpt lat="44.54004" lon="1.7345">
        <ele>244</ele>
        <time>2019-08-09T10:31:34.762Z</time>
      </trkpt>
      <trkpt lat="44.54004" lon="1.73456">
        <ele>244</ele>
        <time>2019-08-09T10:31:39.760Z</time>
      </trkpt>
      <trkpt lat="44.54005" lon="1.73459">
        <ele>248</ele>
        <time>2019-08-09T10:31:44.759Z</time>
      </trkpt>
      <trkpt lat="44.54001" lon="1.73468">
        <ele>248</ele>
        <time>2019-08-09T10:31:49.761Z</time>
      </trkpt>
      <trkpt lat="44.53998" lon="1.73477">
        <ele>248</ele>
        <time>2019-08-09T10:31:54.758Z</time>
      </trkpt>
      <trkpt lat="44.53997" lon="1.73485">
        <ele>248</ele>
        <time>2019-08-09T10:31:59.761Z</time>
      </trkpt>
      <trkpt lat="44.53995" lon="1.73492">
        <ele>252</ele>
        <time>2019-08-09T10:32:04.757Z</time>
      </trkpt>
      <trkpt lat="44.53993" lon="1.735">
        <ele>252</ele>
        <time>2019-08-09T10:32:09.758Z</time>
      </trkpt>
      <trkpt lat="44.5399" lon="1.73506">
        <ele>252</ele>
        <time>2019-08-09T10:32:14.764Z</time>
      </trkpt>
      <trkpt lat="44.53986" lon="1.7351">
        <ele>252</ele>
        <time>2019-08-09T10:32:19.763Z</time>
      </trkpt>
      <trkpt lat="44.53986" lon="1.73517">
        <ele>255</ele>
        <time>2019-08-09T10:32:24.763Z</time>
      </trkpt>
      <trkpt lat="44.53986" lon="1.73524">
        <ele>257</ele>
        <time>2019-08-09T10:32:29.752Z</time>
      </trkpt>
      <trkpt lat="44.53986" lon="1.73529">
        <ele>257</ele>
        <time>2019-08-09T10:32:33.765Z</time>
      </trkpt>
      <trkpt lat="44.53987" lon="1.73539">
        <ele>255</ele>
        <time>2019-08-09T10:32:38.761Z</time>
      </trkpt>
      <trkpt lat="44.53987" lon="1.73544">
        <ele>258</ele>
        <time>2019-08-09T10:32:43.760Z</time>
      </trkpt>
      <trkpt lat="44.53987" lon="1.73553">
        <ele>258</ele>
        <time>2019-08-09T10:32:48.763Z</time>
      </trkpt>
      <trkpt lat="44.53989" lon="1.73559">
        <ele>258</ele>
        <time>2019-08-09T10:32:53.751Z</time>
      </trkpt>
      <trkpt lat="44.53992" lon="1.73564">
        <ele>258</ele>
        <time>2019-08-09T10:32:57.755Z</time>
      </trkpt>
      <trkpt lat="44.53996" lon="1.73569">
        <ele>258</ele>
        <time>2019-08-09T10:33:02.758Z</time>
      </trkpt>
      <trkpt lat="44.53998" lon="1.73576">
        <ele>261</ele>
        <time>2019-08-09T10:33:07.760Z</time>
      </trkpt>
      <trkpt lat="44.53998" lon="1.73584">
        <ele>261</ele>
        <time>2019-08-09T10:33:12.759Z</time>
      </trkpt>
      <trkpt lat="44.54" lon="1.73591">
        <ele>261</ele>
        <time>2019-08-09T10:33:17.761Z</time>
      </trkpt>
      <trkpt lat="44.53999" lon="1.73593">
        <ele>261</ele>
        <time>2019-08-09T10:33:21.766Z</time>
      </trkpt>
      <trkpt lat="44.54005" lon="1.73602">
        <ele>263</ele>
        <time>2019-08-09T10:33:26.764Z</time>
      </trkpt>
      <trkpt lat="44.54014" lon="1.73613">
        <ele>263</ele>
        <time>2019-08-09T10:33:31.763Z</time>
      </trkpt>
      <trkpt lat="44.54022" lon="1.73621">
        <ele>263</ele>
        <time>2019-08-09T10:33:36.763Z</time>
      </trkpt>
      <trkpt lat="44.54024" lon="1.73626">
        <ele>264</ele>
        <time>2019-08-09T10:33:41.542Z</time>
      </trkpt>
      <trkpt lat="44.54026" lon="1.73625">
        <ele>263</ele>
        <time>2019-08-09T10:33:45.760Z</time>
      </trkpt>
      <trkpt lat="44.54026" lon="1.73625">
        <ele>263</ele>
        <time>2019-08-09T10:33:50.756Z</time>
      </trkpt>
      <trkpt lat="44.54027" lon="1.73634">
        <ele>264</ele>
        <time>2019-08-09T10:33:54.757Z</time>
      </trkpt>
      <trkpt lat="44.54028" lon="1.73641">
        <ele>264</ele>
        <time>2019-08-09T10:33:59.763Z</time>
      </trkpt>
      <trkpt lat="44.54027" lon="1.73653">
        <ele>264</ele>
        <time>2019-08-09T10:34:04.757Z</time>
      </trkpt>
      <trkpt lat="44.54027" lon="1.73658">
        <ele>265</ele>
        <time>2019-08-09T10:34:08.763Z</time>
      </trkpt>
      <trkpt lat="44.54027" lon="1.73667">
        <ele>265</ele>
        <time>2019-08-09T10:34:13.759Z</time>
      </trkpt>
      <trkpt lat="44.54028" lon="1.73675">
        <ele>265</ele>
        <time>2019-08-09T10:34:17.764Z</time>
      </trkpt>
      <trkpt lat="44.5403" lon="1.73683">
        <ele>264</ele>
        <time>2019-08-09T10:34:22.764Z</time>
      </trkpt>
      <trkpt lat="44.54032" lon="1.73689">
        <ele>264</ele>
        <time>2019-08-09T10:34:26.763Z</time>
      </trkpt>
      <trkpt lat="44.54033" lon="1.73696">
        <ele>264</ele>
        <time>2019-08-09T10:34:31.763Z</time>
      </trkpt>
      <trkpt lat="44.54032" lon="1.73708">
        <ele>264</ele>
        <time>2019-08-09T10:34:36.751Z</time>
      </trkpt>
      <trkpt lat="44.54031" lon="1.73716">
        <ele>267</ele>
        <time>2019-08-09T10:34:40.749Z</time>
      </trkpt>
      <trkpt lat="44.54031" lon="1.73725">
        <ele>267</ele>
        <time>2019-08-09T10:34:45.761Z</time>
      </trkpt>
      <trkpt lat="44.54031" lon="1.73734">
        <ele>267</ele>
        <time>2019-08-09T10:34:50.748Z</time>
      </trkpt>
      <trkpt lat="44.54029" lon="1.73741">
        <ele>269</ele>
        <time>2019-08-09T10:34:54.762Z</time>
      </trkpt>
      <trkpt lat="44.54026" lon="1.73747">
        <ele>269</ele>
        <time>2019-08-09T10:34:59.767Z</time>
      </trkpt>
      <trkpt lat="44.54025" lon="1.73756">
        <ele>269</ele>
        <time>2019-08-09T10:35:04.759Z</time>
      </trkpt>
      <trkpt lat="44.54025" lon="1.73765">
        <ele>270</ele>
        <time>2019-08-09T10:35:09.754Z</time>
      </trkpt>
      <trkpt lat="44.54024" lon="1.73772">
        <ele>270</ele>
        <time>2019-08-09T10:35:13.765Z</time>
      </trkpt>
      <trkpt lat="44.54024" lon="1.7378">
        <ele>270</ele>
        <time>2019-08-09T10:35:18.765Z</time>
      </trkpt>
      <trkpt lat="44.54023" lon="1.7379">
        <ele>270</ele>
        <time>2019-08-09T10:35:23.770Z</time>
      </trkpt>
      <trkpt lat="44.54022" lon="1.73799">
        <ele>270</ele>
        <time>2019-08-09T10:35:28.763Z</time>
      </trkpt>
      <trkpt lat="44.54021" lon="1.73807">
        <ele>270</ele>
        <time>2019-08-09T10:35:33.766Z</time>
      </trkpt>
      <trkpt lat="44.5402" lon="1.73811">
        <ele>270</ele>
        <time>2019-08-09T10:35:38.765Z</time>
      </trkpt>
      <trkpt lat="44.5402" lon="1.73812">
        <ele>270</ele>
        <time>2019-08-09T10:35:43.771Z</time>
      </trkpt>
      <trkpt lat="44.54019" lon="1.73818">
        <ele>270</ele>
        <time>2019-08-09T10:35:48.764Z</time>
      </trkpt>
      <trkpt lat="44.54023" lon="1.73827">
        <ele>268</ele>
        <time>2019-08-09T10:35:53.763Z</time>
      </trkpt>
      <trkpt lat="44.54025" lon="1.73831">
        <ele>268</ele>
        <time>2019-08-09T10:35:58.768Z</time>
      </trkpt>
      <trkpt lat="44.54029" lon="1.73833">
        <ele>268</ele>
        <time>2019-08-09T10:36:03.766Z</time>
      </trkpt>
      <trkpt lat="44.54032" lon="1.73837">
        <ele>268</ele>
        <time>2019-08-09T10:36:08.762Z</time>
      </trkpt>
      <trkpt lat="44.54036" lon="1.7384">
        <ele>268</ele>
        <time>2019-08-09T10:36:13.752Z</time>
      </trkpt>
      <trkpt lat="44.5404" lon="1.73831">
        <ele>268</ele>
        <time>2019-08-09T10:36:17.769Z</time>
      </trkpt>
      <trkpt lat="44.54042" lon="1.73821">
        <ele>263</ele>
        <time>2019-08-09T10:36:22.766Z</time>
      </trkpt>
      <trkpt lat="44.54049" lon="1.73817">
        <ele>264</ele>
        <time>2019-08-09T10:36:27.763Z</time>
      </trkpt>
      <trkpt lat="44.54058" lon="1.73813">
        <ele>264</ele>
        <time>2019-08-09T10:36:32.763Z</time>
      </trkpt>
      <trkpt lat="44.54067" lon="1.73808">
        <ele>264</ele>
        <time>2019-08-09T10:36:37.763Z</time>
      </trkpt>
      <trkpt lat="44.5408" lon="1.73801">
        <ele>261</ele>
        <time>2019-08-09T10:36:42.764Z</time>
      </trkpt>
      <trkpt lat="44.54089" lon="1.73799">
        <ele>261</ele>
        <time>2019-08-09T10:36:47.770Z</time>
      </trkpt>
      <trkpt lat="44.54098" lon="1.73794">
        <ele>262</ele>
        <time>2019-08-09T10:36:52.770Z</time>
      </trkpt>
      <trkpt lat="44.54105" lon="1.73791">
        <ele>262</ele>
        <time>2019-08-09T10:36:57.763Z</time>
      </trkpt>
      <trkpt lat="44.54109" lon="1.7379">
        <ele>262</ele>
        <time>2019-08-09T10:37:02.778Z</time>
      </trkpt>
      <trkpt lat="44.54116" lon="1.73785">
        <ele>262</ele>
        <time>2019-08-09T10:37:07.774Z</time>
      </trkpt>
      <trkpt lat="44.54124" lon="1.73779">
        <ele>262</ele>
        <time>2019-08-09T10:37:12.764Z</time>
      </trkpt>
      <trkpt lat="44.54131" lon="1.73775">
        <ele>264</ele>
        <time>2019-08-09T10:37:17.752Z</time>
      </trkpt>
      <trkpt lat="44.54136" lon="1.7377">
        <ele>264</ele>
        <time>2019-08-09T10:37:21.766Z</time>
      </trkpt>
      <trkpt lat="44.54143" lon="1.73765">
        <ele>264</ele>
        <time>2019-08-09T10:37:26.768Z</time>
      </trkpt>
      <trkpt lat="44.54148" lon="1.73765">
        <ele>264</ele>
        <time>2019-08-09T10:37:30.756Z</time>
      </trkpt>
      <trkpt lat="44.54155" lon="1.73758">
        <ele>264</ele>
        <time>2019-08-09T10:37:35.764Z</time>
      </trkpt>
      <trkpt lat="44.54163" lon="1.73753">
        <ele>264</ele>
        <time>2019-08-09T10:37:40.757Z</time>
      </trkpt>
      <trkpt lat="44.5417" lon="1.73749">
        <ele>264</ele>
        <time>2019-08-09T10:37:45.771Z</time>
      </trkpt>
      <trkpt lat="44.54176" lon="1.73745">
        <ele>264</ele>
        <time>2019-08-09T10:37:50.755Z</time>
      </trkpt>
      <trkpt lat="44.5418" lon="1.73742">
        <ele>264</ele>
        <time>2019-08-09T10:37:55.767Z</time>
      </trkpt>
      <trkpt lat="44.54184" lon="1.73737">
        <ele>266</ele>
        <time>2019-08-09T10:38:00.757Z</time>
      </trkpt>
      <trkpt lat="44.54189" lon="1.73732">
        <ele>264</ele>
        <time>2019-08-09T10:38:05.754Z</time>
      </trkpt>
      <trkpt lat="44.54195" lon="1.73729">
        <ele>264</ele>
        <time>2019-08-09T10:38:10.755Z</time>
      </trkpt>
      <trkpt lat="44.54203" lon="1.73725">
        <ele>264</ele>
        <time>2019-08-09T10:38:15.763Z</time>
      </trkpt>
      <trkpt lat="44.54209" lon="1.73721">
        <ele>266</ele>
        <time>2019-08-09T10:38:20.758Z</time>
      </trkpt>
      <trkpt lat="44.54214" lon="1.73719">
        <ele>266</ele>
        <time>2019-08-09T10:38:25.763Z</time>
      </trkpt>
      <trkpt lat="44.5422" lon="1.73714">
        <ele>266</ele>
        <time>2019-08-09T10:38:30.754Z</time>
      </trkpt>
      <trkpt lat="44.54226" lon="1.73712">
        <ele>266</ele>
        <time>2019-08-09T10:38:35.764Z</time>
      </trkpt>
      <trkpt lat="44.54234" lon="1.73713">
        <ele>266</ele>
        <time>2019-08-09T10:38:40.756Z</time>
      </trkpt>
      <trkpt lat="44.54241" lon="1.73712">
        <ele>269</ele>
        <time>2019-08-09T10:38:45.772Z</time>
      </trkpt>
      <trkpt lat="44.54246" lon="1.73711">
        <ele>269</ele>
        <time>2019-08-09T10:38:50.759Z</time>
      </trkpt>
      <trkpt lat="44.54249" lon="1.73713">
        <ele>269</ele>
        <time>2019-08-09T10:38:54.772Z</time>
      </trkpt>
      <trkpt lat="44.54249" lon="1.73714">
        <ele>269</ele>
        <time>2019-08-09T10:38:59.767Z</time>
      </trkpt>
      <trkpt lat="44.54253" lon="1.73713">
        <ele>269</ele>
        <time>2019-08-09T10:39:04.758Z</time>
      </trkpt>
      <trkpt lat="44.54258" lon="1.73711">
        <ele>269</ele>
        <time>2019-08-09T10:39:08.767Z</time>
      </trkpt>
      <trkpt lat="44.54262" lon="1.73709">
        <ele>269</ele>
        <time>2019-08-09T10:39:13.770Z</time>
      </trkpt>
      <trkpt lat="44.54269" lon="1.73707">
        <ele>270</ele>
        <time>2019-08-09T10:39:18.766Z</time>
      </trkpt>
      <trkpt lat="44.54274" lon="1.73706">
        <ele>270</ele>
        <time>2019-08-09T10:39:22.774Z</time>
      </trkpt>
      <trkpt lat="44.54281" lon="1.73704">
        <ele>270</ele>
        <time>2019-08-09T10:39:27.769Z</time>
      </trkpt>
      <trkpt lat="44.54288" lon="1.73701">
        <ele>270</ele>
        <time>2019-08-09T10:39:32.758Z</time>
      </trkpt>
      <trkpt lat="44.54296" lon="1.73697">
        <ele>271</ele>
        <time>2019-08-09T10:39:37.768Z</time>
      </trkpt>
      <trkpt lat="44.54302" lon="1.73695">
        <ele>271</ele>
        <time>2019-08-09T10:39:42.762Z</time>
      </trkpt>
      <trkpt lat="44.54309" lon="1.73691">
        <ele>271</ele>
        <time>2019-08-09T10:39:47.764Z</time>
      </trkpt>
      <trkpt lat="44.54319" lon="1.73683">
        <ele>271</ele>
        <time>2019-08-09T10:39:52.762Z</time>
      </trkpt>
      <trkpt lat="44.54329" lon="1.73679">
        <ele>270</ele>
        <time>2019-08-09T10:39:57.767Z</time>
      </trkpt>
      <trkpt lat="44.54335" lon="1.73673">
        <ele>270</ele>
        <time>2019-08-09T10:40:02.764Z</time>
      </trkpt>
      <trkpt lat="44.5434" lon="1.73669">
        <ele>270</ele>
        <time>2019-08-09T10:40:07.766Z</time>
      </trkpt>
      <trkpt lat="44.54345" lon="1.73661">
        <ele>270</ele>
        <time>2019-08-09T10:40:12.763Z</time>
      </trkpt>
      <trkpt lat="44.54362" lon="1.73664">
        <ele>272</ele>
        <time>2019-08-09T10:40:52.768Z</time>
      </trkpt>
      <trkpt lat="44.54363" lon="1.73674">
        <ele>272</ele>
        <time>2019-08-09T10:40:57.755Z</time>
      </trkpt>
      <trkpt lat="44.54364" lon="1.73685">
        <ele>274</ele>
        <time>2019-08-09T10:41:02.763Z</time>
      </trkpt>
      <trkpt lat="44.54364" lon="1.73695">
        <ele>274</ele>
        <time>2019-08-09T10:41:07.766Z</time>
      </trkpt>
      <trkpt lat="44.54363" lon="1.73703">
        <ele>274</ele>
        <time>2019-08-09T10:41:12.769Z</time>
      </trkpt>
      <trkpt lat="44.54362" lon="1.73712">
        <ele>275</ele>
        <time>2019-08-09T10:41:17.767Z</time>
      </trkpt>
      <trkpt lat="44.54363" lon="1.7372">
        <ele>275</ele>
        <time>2019-08-09T10:41:22.763Z</time>
      </trkpt>
      <trkpt lat="44.54363" lon="1.73728">
        <ele>275</ele>
        <time>2019-08-09T10:41:26.777Z</time>
      </trkpt>
      <trkpt lat="44.54362" lon="1.73738">
        <ele>277</ele>
        <time>2019-08-09T10:41:31.765Z</time>
      </trkpt>
      <trkpt lat="44.5436" lon="1.73746">
        <ele>277</ele>
        <time>2019-08-09T10:41:36.765Z</time>
      </trkpt>
      <trkpt lat="44.54358" lon="1.73751">
        <ele>277</ele>
        <time>2019-08-09T10:41:40.753Z</time>
      </trkpt>
      <trkpt lat="44.54357" lon="1.7376">
        <ele>277</ele>
        <time>2019-08-09T10:41:45.768Z</time>
      </trkpt>
      <trkpt lat="44.54357" lon="1.73772">
        <ele>279</ele>
        <time>2019-08-09T10:41:50.758Z</time>
      </trkpt>
      <trkpt lat="44.54359" lon="1.73785">
        <ele>279</ele>
        <time>2019-08-09T10:41:55.759Z</time>
      </trkpt>
      <trkpt lat="44.54361" lon="1.73795">
        <ele>281</ele>
        <time>2019-08-09T10:42:00.756Z</time>
      </trkpt>
      <trkpt lat="44.54359" lon="1.73802">
        <ele>281</ele>
        <time>2019-08-09T10:42:05.759Z</time>
      </trkpt>
      <trkpt lat="44.54362" lon="1.73811">
        <ele>281</ele>
        <time>2019-08-09T10:42:09.773Z</time>
      </trkpt>
      <trkpt lat="44.54367" lon="1.73819">
        <ele>281</ele>
        <time>2019-08-09T10:42:14.758Z</time>
      </trkpt>
      <trkpt lat="44.54373" lon="1.73825">
        <ele>281</ele>
        <time>2019-08-09T10:42:19.768Z</time>
      </trkpt>
      <trkpt lat="44.54376" lon="1.73827">
        <ele>283</ele>
        <time>2019-08-09T10:42:24.762Z</time>
      </trkpt>
      <trkpt lat="44.54379" lon="1.73827">
        <ele>283</ele>
        <time>2019-08-09T10:42:29.769Z</time>
      </trkpt>
      <trkpt lat="44.54388" lon="1.73827">
        <ele>283</ele>
        <time>2019-08-09T10:42:34.758Z</time>
      </trkpt>
      <trkpt lat="44.54399" lon="1.73826">
        <ele>283</ele>
        <time>2019-08-09T10:42:39.764Z</time>
      </trkpt>
      <trkpt lat="44.54408" lon="1.73824">
        <ele>284</ele>
        <time>2019-08-09T10:42:44.753Z</time>
      </trkpt>
      <trkpt lat="44.54417" lon="1.73822">
        <ele>284</ele>
        <time>2019-08-09T10:42:49.766Z</time>
      </trkpt>
      <trkpt lat="44.54426" lon="1.73821">
        <ele>284</ele>
        <time>2019-08-09T10:42:54.760Z</time>
      </trkpt>
      <trkpt lat="44.54432" lon="1.73822">
        <ele>285</ele>
        <time>2019-08-09T10:42:59.765Z</time>
      </trkpt>
      <trkpt lat="44.54435" lon="1.73827">
        <ele>285</ele>
        <time>2019-08-09T10:43:04.755Z</time>
      </trkpt>
      <trkpt lat="44.54436" lon="1.73831">
        <ele>285</ele>
        <time>2019-08-09T10:43:09.758Z</time>
      </trkpt>
      <trkpt lat="44.54438" lon="1.73838">
        <ele>285</ele>
        <time>2019-08-09T10:43:14.760Z</time>
      </trkpt>
      <trkpt lat="44.54441" lon="1.73846">
        <ele>285</ele>
        <time>2019-08-09T10:43:19.762Z</time>
      </trkpt>
      <trkpt lat="44.54443" lon="1.73852">
        <ele>285</ele>
        <time>2019-08-09T10:43:23.772Z</time>
      </trkpt>
      <trkpt lat="44.54445" lon="1.73859">
        <ele>285</ele>
        <time>2019-08-09T10:43:28.755Z</time>
      </trkpt>
      <trkpt lat="44.54447" lon="1.73866">
        <ele>285</ele>
        <time>2019-08-09T10:43:32.763Z</time>
      </trkpt>
      <trkpt lat="44.54449" lon="1.73873">
        <ele>285</ele>
        <time>2019-08-09T10:43:37.773Z</time>
      </trkpt>
      <trkpt lat="44.54454" lon="1.73878">
        <ele>285</ele>
        <time>2019-08-09T10:43:42.755Z</time>
      </trkpt>
      <trkpt lat="44.54462" lon="1.73878">
        <ele>285</ele>
        <time>2019-08-09T10:43:47.767Z</time>
      </trkpt>
      <trkpt lat="44.54471" lon="1.73881">
        <ele>285</ele>
        <time>2019-08-09T10:43:52.764Z</time>
      </trkpt>
      <trkpt lat="44.54478" lon="1.73883">
        <ele>285</ele>
        <time>2019-08-09T10:43:57.775Z</time>
      </trkpt>
      <trkpt lat="44.54484" lon="1.73885">
        <ele>285</ele>
        <time>2019-08-09T10:44:02.758Z</time>
      </trkpt>
      <trkpt lat="44.54489" lon="1.73885">
        <ele>287</ele>
        <time>2019-08-09T10:44:06.766Z</time>
      </trkpt>
      <trkpt lat="44.54493" lon="1.73885">
        <ele>287</ele>
        <time>2019-08-09T10:44:10.766Z</time>
      </trkpt>
      <trkpt lat="44.54499" lon="1.73887">
        <ele>287</ele>
        <time>2019-08-09T10:44:15.768Z</time>
      </trkpt>
      <trkpt lat="44.54505" lon="1.73886">
        <ele>287</ele>
        <time>2019-08-09T10:44:20.756Z</time>
      </trkpt>
      <trkpt lat="44.54511" lon="1.73888">
        <ele>287</ele>
        <time>2019-08-09T10:44:25.769Z</time>
      </trkpt>
      <trkpt lat="44.54517" lon="1.73889">
        <ele>289</ele>
        <time>2019-08-09T10:44:30.759Z</time>
      </trkpt>
      <trkpt lat="44.54523" lon="1.73891">
        <ele>289</ele>
        <time>2019-08-09T10:44:35.767Z</time>
      </trkpt>
      <trkpt lat="44.5453" lon="1.73893">
        <ele>289</ele>
        <time>2019-08-09T10:44:40.751Z</time>
      </trkpt>
      <trkpt lat="44.54539" lon="1.73893">
        <ele>289</ele>
        <time>2019-08-09T10:44:45.750Z</time>
      </trkpt>
      <trkpt lat="44.54545" lon="1.73894">
        <ele>290</ele>
        <time>2019-08-09T10:44:49.763Z</time>
      </trkpt>
      <trkpt lat="44.54552" lon="1.73896">
        <ele>290</ele>
        <time>2019-08-09T10:44:54.760Z</time>
      </trkpt>
      <trkpt lat="44.54557" lon="1.73899">
        <ele>290</ele>
        <time>2019-08-09T10:44:59.770Z</time>
      </trkpt>
      <trkpt lat="44.54562" lon="1.73902">
        <ele>290</ele>
        <time>2019-08-09T10:45:04.765Z</time>
      </trkpt>
      <trkpt lat="44.54569" lon="1.73904">
        <ele>289</ele>
        <time>2019-08-09T10:45:09.788Z</time>
      </trkpt>
      <trkpt lat="44.54574" lon="1.73906">
        <ele>290</ele>
        <time>2019-08-09T10:45:14.757Z</time>
      </trkpt>
      <trkpt lat="44.54577" lon="1.7391">
        <ele>290</ele>
        <time>2019-08-09T10:45:19.768Z</time>
      </trkpt>
      <trkpt lat="44.5458" lon="1.73917">
        <ele>290</ele>
        <time>2019-08-09T10:45:24.755Z</time>
      </trkpt>
      <trkpt lat="44.54584" lon="1.73924">
        <ele>290</ele>
        <time>2019-08-09T10:45:29.769Z</time>
      </trkpt>
      <trkpt lat="44.54587" lon="1.73929">
        <ele>290</ele>
        <time>2019-08-09T10:45:34.754Z</time>
      </trkpt>
      <trkpt lat="44.54592" lon="1.73935">
        <ele>290</ele>
        <time>2019-08-09T10:45:39.773Z</time>
      </trkpt>
      <trkpt lat="44.54605" lon="1.73952">
        <ele>292</ele>
        <time>2019-08-09T10:45:44.758Z</time>
      </trkpt>
      <trkpt lat="44.54617" lon="1.73966">
        <ele>292</ele>
        <time>2019-08-09T10:45:49.757Z</time>
      </trkpt>
      <trkpt lat="44.54622" lon="1.73969">
        <ele>292</ele>
        <time>2019-08-09T10:45:53.766Z</time>
      </trkpt>
      <trkpt lat="44.54628" lon="1.73971">
        <ele>294</ele>
        <time>2019-08-09T10:45:58.752Z</time>
      </trkpt>
      <trkpt lat="44.54636" lon="1.73975">
        <ele>294</ele>
        <time>2019-08-09T10:46:03.770Z</time>
      </trkpt>
      <trkpt lat="44.54643" lon="1.73977">
        <ele>294</ele>
        <time>2019-08-09T10:46:08.756Z</time>
      </trkpt>
      <trkpt lat="44.54649" lon="1.73983">
        <ele>294</ele>
        <time>2019-08-09T10:46:13.760Z</time>
      </trkpt>
      <trkpt lat="44.54653" lon="1.73989">
        <ele>294</ele>
        <time>2019-08-09T10:46:17.776Z</time>
      </trkpt>
      <trkpt lat="44.54656" lon="1.73992">
        <ele>294</ele>
        <time>2019-08-09T10:46:22.761Z</time>
      </trkpt>
      <trkpt lat="44.54665" lon="1.73999">
        <ele>294</ele>
        <time>2019-08-09T10:46:27.762Z</time>
      </trkpt>
      <trkpt lat="44.5467" lon="1.74005">
        <ele>294</ele>
        <time>2019-08-09T10:46:32.757Z</time>
      </trkpt>
      <trkpt lat="44.54674" lon="1.74012">
        <ele>294</ele>
        <time>2019-08-09T10:46:37.771Z</time>
      </trkpt>
      <trkpt lat="44.54679" lon="1.7402">
        <ele>292</ele>
        <time>2019-08-09T10:46:42.755Z</time>
      </trkpt>
      <trkpt lat="44.54683" lon="1.74026">
        <ele>293</ele>
        <time>2019-08-09T10:46:47.771Z</time>
      </trkpt>
      <trkpt lat="44.54687" lon="1.74032">
        <ele>293</ele>
        <time>2019-08-09T10:46:52.759Z</time>
      </trkpt>
      <trkpt lat="44.54692" lon="1.74037">
        <ele>293</ele>
        <time>2019-08-09T10:46:57.769Z</time>
      </trkpt>
      <trkpt lat="44.54695" lon="1.74041">
        <ele>293</ele>
        <time>2019-08-09T10:47:02.761Z</time>
      </trkpt>
      <trkpt lat="44.54698" lon="1.74044">
        <ele>292</ele>
        <time>2019-08-09T10:47:07.770Z</time>
      </trkpt>
      <trkpt lat="44.547" lon="1.74049">
        <ele>292</ele>
        <time>2019-08-09T10:47:12.760Z</time>
      </trkpt>
      <trkpt lat="44.54701" lon="1.74055">
        <ele>292</ele>
        <time>2019-08-09T10:47:17.769Z</time>
      </trkpt>
      <trkpt lat="44.54703" lon="1.7406">
        <ele>292</ele>
        <time>2019-08-09T10:47:22.756Z</time>
      </trkpt>
      <trkpt lat="44.54704" lon="1.74064">
        <ele>292</ele>
        <time>2019-08-09T10:47:27.767Z</time>
      </trkpt>
      <trkpt lat="44.54706" lon="1.74071">
        <ele>291</ele>
        <time>2019-08-09T10:47:32.756Z</time>
      </trkpt>
      <trkpt lat="44.5471" lon="1.74077">
        <ele>290</ele>
        <time>2019-08-09T10:47:37.770Z</time>
      </trkpt>
      <trkpt lat="44.54714" lon="1.74083">
        <ele>290</ele>
        <time>2019-08-09T10:47:42.764Z</time>
      </trkpt>
      <trkpt lat="44.54716" lon="1.74089">
        <ele>290</ele>
        <time>2019-08-09T10:47:47.772Z</time>
      </trkpt>
      <trkpt lat="44.54719" lon="1.74096">
        <ele>290</ele>
        <time>2019-08-09T10:47:52.760Z</time>
      </trkpt>
      <trkpt lat="44.54722" lon="1.74106">
        <ele>288</ele>
        <time>2019-08-09T10:47:56.760Z</time>
      </trkpt>
      <trkpt lat="44.54726" lon="1.74114">
        <ele>288</ele>
        <time>2019-08-09T10:48:01.775Z</time>
      </trkpt>
      <trkpt lat="44.54725" lon="1.74127">
        <ele>285</ele>
        <time>2019-08-09T10:48:06.757Z</time>
      </trkpt>
      <trkpt lat="44.54726" lon="1.74137">
        <ele>285</ele>
        <time>2019-08-09T10:48:10.760Z</time>
      </trkpt>
      <trkpt lat="44.54725" lon="1.74147">
        <ele>285</ele>
        <time>2019-08-09T10:48:15.771Z</time>
      </trkpt>
      <trkpt lat="44.54721" lon="1.74158">
        <ele>283</ele>
        <time>2019-08-09T10:48:20.765Z</time>
      </trkpt>
      <trkpt lat="44.54717" lon="1.74169">
        <ele>283</ele>
        <time>2019-08-09T10:48:25.766Z</time>
      </trkpt>
      <trkpt lat="44.54713" lon="1.74171">
        <ele>283</ele>
        <time>2019-08-09T10:48:30.757Z</time>
      </trkpt>
      <trkpt lat="44.54711" lon="1.74174">
        <ele>283</ele>
        <time>2019-08-09T10:48:35.768Z</time>
      </trkpt>
      <trkpt lat="44.54706" lon="1.74176">
        <ele>284</ele>
        <time>2019-08-09T10:48:40.755Z</time>
      </trkpt>
      <trkpt lat="44.54698" lon="1.74189">
        <ele>283</ele>
        <time>2019-08-09T10:49:05.778Z</time>
      </trkpt>
      <trkpt lat="44.54697" lon="1.74192">
        <ele>283</ele>
        <time>2019-08-09T10:49:10.759Z</time>
      </trkpt>
      <trkpt lat="44.54697" lon="1.74193">
        <ele>283</ele>
        <time>2019-08-09T10:49:15.776Z</time>
      </trkpt>
      <trkpt lat="44.54697" lon="1.74193">
        <ele>283</ele>
        <time>2019-08-09T10:49:20.763Z</time>
      </trkpt>
      <trkpt lat="44.54698" lon="1.74193">
        <ele>283</ele>
        <time>2019-08-09T10:49:25.774Z</time>
      </trkpt>
      <trkpt lat="44.54699" lon="1.74197">
        <ele>283</ele>
        <time>2019-08-09T10:50:04.757Z</time>
      </trkpt>
      <trkpt lat="44.54699" lon="1.74198">
        <ele>283</ele>
        <time>2019-08-09T10:50:09.778Z</time>
      </trkpt>
      <trkpt lat="44.54699" lon="1.74198">
        <ele>283</ele>
        <time>2019-08-09T10:50:14.752Z</time>
      </trkpt>
      <trkpt lat="44.547" lon="1.74204">
        <ele>283</ele>
        <time>2019-08-09T10:50:18.758Z</time>
      </trkpt>
      <trkpt lat="44.54701" lon="1.74209">
        <ele>282</ele>
        <time>2019-08-09T10:50:23.777Z</time>
      </trkpt>
      <trkpt lat="44.54702" lon="1.74215">
        <ele>282</ele>
        <time>2019-08-09T10:50:28.765Z</time>
      </trkpt>
      <trkpt lat="44.54701" lon="1.74221">
        <ele>282</ele>
        <time>2019-08-09T10:50:33.772Z</time>
      </trkpt>
      <trkpt lat="44.54702" lon="1.74226">
        <ele>282</ele>
        <time>2019-08-09T10:50:38.761Z</time>
      </trkpt>
      <trkpt lat="44.54704" lon="1.74235">
        <ele>282</ele>
        <time>2019-08-09T10:50:43.778Z</time>
      </trkpt>
      <trkpt lat="44.5471" lon="1.74246">
        <ele>278</ele>
        <time>2019-08-09T10:50:57.785Z</time>
      </trkpt>
      <trkpt lat="44.5471" lon="1.74248">
        <ele>278</ele>
        <time>2019-08-09T10:51:02.760Z</time>
      </trkpt>
      <trkpt lat="44.54708" lon="1.74249">
        <ele>282</ele>
        <time>2019-08-09T10:51:06.769Z</time>
      </trkpt>
      <trkpt lat="44.54708" lon="1.7425">
        <ele>282</ele>
        <time>2019-08-09T10:51:10.772Z</time>
      </trkpt>
      <trkpt lat="44.54703" lon="1.74256">
        <ele>282</ele>
        <time>2019-08-09T10:51:15.784Z</time>
      </trkpt>
      <trkpt lat="44.54711" lon="1.74264">
        <ele>278</ele>
        <time>2019-08-09T10:51:20.759Z</time>
      </trkpt>
      <trkpt lat="44.54718" lon="1.7427">
        <ele>276</ele>
        <time>2019-08-09T10:51:25.773Z</time>
      </trkpt>
      <trkpt lat="44.54723" lon="1.74277">
        <ele>276</ele>
        <time>2019-08-09T10:51:30.784Z</time>
      </trkpt>
      <trkpt lat="44.54725" lon="1.74283">
        <ele>276</ele>
        <time>2019-08-09T10:51:35.780Z</time>
      </trkpt>
      <trkpt lat="44.54725" lon="1.74286">
        <ele>276</ele>
        <time>2019-08-09T10:51:40.767Z</time>
      </trkpt>
      <trkpt lat="44.54726" lon="1.7429">
        <ele>276</ele>
        <time>2019-08-09T10:51:45.775Z</time>
      </trkpt>
      <trkpt lat="44.54729" lon="1.74295">
        <ele>274</ele>
        <time>2019-08-09T10:51:50.757Z</time>
      </trkpt>
      <trkpt lat="44.54734" lon="1.74303">
        <ele>274</ele>
        <time>2019-08-09T10:51:55.777Z</time>
      </trkpt>
      <trkpt lat="44.54737" lon="1.7431">
        <ele>270</ele>
        <time>2019-08-09T10:52:00.767Z</time>
      </trkpt>
      <trkpt lat="44.54736" lon="1.74311">
        <ele>274</ele>
        <time>2019-08-09T10:52:04.764Z</time>
      </trkpt>
      <trkpt lat="44.54738" lon="1.74315">
        <ele>270</ele>
        <time>2019-08-09T10:52:09.782Z</time>
      </trkpt>
      <trkpt lat="44.54741" lon="1.74324">
        <ele>268</ele>
        <time>2019-08-09T10:52:14.771Z</time>
      </trkpt>
      <trkpt lat="44.54744" lon="1.74328">
        <ele>268</ele>
        <time>2019-08-09T10:52:19.784Z</time>
      </trkpt>
      <trkpt lat="44.54745" lon="1.74333">
        <ele>268</ele>
        <time>2019-08-09T10:52:24.757Z</time>
      </trkpt>
      <trkpt lat="44.54745" lon="1.74333">
        <ele>268</ele>
        <time>2019-08-09T10:52:29.768Z</time>
      </trkpt>
      <trkpt lat="44.54745" lon="1.74334">
        <ele>268</ele>
        <time>2019-08-09T10:52:34.761Z</time>
      </trkpt>
      <trkpt lat="44.54748" lon="1.74342">
        <ele>268</ele>
        <time>2019-08-09T10:52:39.789Z</time>
      </trkpt>
      <trkpt lat="44.54751" lon="1.74349">
        <ele>265</ele>
        <time>2019-08-09T10:52:44.759Z</time>
      </trkpt>
      <trkpt lat="44.54754" lon="1.74357">
        <ele>265</ele>
        <time>2019-08-09T10:52:49.770Z</time>
      </trkpt>
      <trkpt lat="44.54757" lon="1.74362">
        <ele>265</ele>
        <time>2019-08-09T10:52:54.761Z</time>
      </trkpt>
      <trkpt lat="44.54762" lon="1.74366">
        <ele>265</ele>
        <time>2019-08-09T10:52:59.768Z</time>
      </trkpt>
      <trkpt lat="44.54769" lon="1.74365">
        <ele>263</ele>
        <time>2019-08-09T10:53:04.770Z</time>
      </trkpt>
      <trkpt lat="44.54773" lon="1.74363">
        <ele>263</ele>
        <time>2019-08-09T10:53:09.777Z</time>
      </trkpt>
      <trkpt lat="44.54774" lon="1.74363">
        <ele>263</ele>
        <time>2019-08-09T10:53:14.761Z</time>
      </trkpt>
      <trkpt lat="44.5478" lon="1.74364">
        <ele>263</ele>
        <time>2019-08-09T10:53:19.771Z</time>
      </trkpt>
      <trkpt lat="44.5479" lon="1.74366">
        <ele>263</ele>
        <time>2019-08-09T10:53:24.763Z</time>
      </trkpt>
      <trkpt lat="44.54798" lon="1.7437">
        <ele>261</ele>
        <time>2019-08-09T10:53:29.784Z</time>
      </trkpt>
      <trkpt lat="44.54799" lon="1.74369">
        <ele>261</ele>
        <time>2019-08-09T10:53:34.763Z</time>
      </trkpt>
      <trkpt lat="44.54802" lon="1.74368">
        <ele>261</ele>
        <time>2019-08-09T10:53:39.765Z</time>
      </trkpt>
      <trkpt lat="44.54807" lon="1.7437">
        <ele>261</ele>
        <time>2019-08-09T10:53:44.759Z</time>
      </trkpt>
      <trkpt lat="44.54812" lon="1.74374">
        <ele>261</ele>
        <time>2019-08-09T10:53:49.757Z</time>
      </trkpt>
      <trkpt lat="44.54813" lon="1.74381">
        <ele>258</ele>
        <time>2019-08-09T10:53:53.775Z</time>
      </trkpt>
      <trkpt lat="44.54811" lon="1.74388">
        <ele>258</ele>
        <time>2019-08-09T10:53:58.762Z</time>
      </trkpt>
      <trkpt lat="44.54808" lon="1.74397">
        <ele>258</ele>
        <time>2019-08-09T10:54:02.766Z</time>
      </trkpt>
      <trkpt lat="44.54805" lon="1.74405">
        <ele>254</ele>
        <time>2019-08-09T10:54:07.773Z</time>
      </trkpt>
      <trkpt lat="44.54802" lon="1.74413">
        <ele>254</ele>
        <time>2019-08-09T10:54:12.756Z</time>
      </trkpt>
      <trkpt lat="44.548" lon="1.7442">
        <ele>254</ele>
        <time>2019-08-09T10:54:16.758Z</time>
      </trkpt>
      <trkpt lat="44.54799" lon="1.74427">
        <ele>254</ele>
        <time>2019-08-09T10:54:20.758Z</time>
      </trkpt>
      <trkpt lat="44.54794" lon="1.74433">
        <ele>252</ele>
        <time>2019-08-09T10:54:25.776Z</time>
      </trkpt>
      <trkpt lat="44.54791" lon="1.74439">
        <ele>256</ele>
        <time>2019-08-09T10:54:30.759Z</time>
      </trkpt>
      <trkpt lat="44.54792" lon="1.74445">
        <ele>252</ele>
        <time>2019-08-09T10:54:34.760Z</time>
      </trkpt>
      <trkpt lat="44.54801" lon="1.74453">
        <ele>252</ele>
        <time>2019-08-09T10:54:57.771Z</time>
      </trkpt>
      <trkpt lat="44.54801" lon="1.74453">
        <ele>252</ele>
        <time>2019-08-09T10:55:01.783Z</time>
      </trkpt>
      <trkpt lat="44.54802" lon="1.74455">
        <ele>252</ele>
        <time>2019-08-09T10:55:06.766Z</time>
      </trkpt>
      <trkpt lat="44.54805" lon="1.74455">
        <ele>252</ele>
        <time>2019-08-09T10:55:10.756Z</time>
      </trkpt>
      <trkpt lat="44.54808" lon="1.74459">
        <ele>248</ele>
        <time>2019-08-09T10:55:15.777Z</time>
      </trkpt>
      <trkpt lat="44.54814" lon="1.74465">
        <ele>248</ele>
        <time>2019-08-09T10:55:20.762Z</time>
      </trkpt>
      <trkpt lat="44.54819" lon="1.74467">
        <ele>248</ele>
        <time>2019-08-09T10:55:25.755Z</time>
      </trkpt>
      <trkpt lat="44.54825" lon="1.74467">
        <ele>244</ele>
        <time>2019-08-09T10:55:29.776Z</time>
      </trkpt>
      <trkpt lat="44.5483" lon="1.7447">
        <ele>244</ele>
        <time>2019-08-09T10:55:34.757Z</time>
      </trkpt>
      <trkpt lat="44.54834" lon="1.74471">
        <ele>244</ele>
        <time>2019-08-09T10:55:39.767Z</time>
      </trkpt>
      <trkpt lat="44.54838" lon="1.74475">
        <ele>244</ele>
        <time>2019-08-09T10:55:44.760Z</time>
      </trkpt>
      <trkpt lat="44.54842" lon="1.7448">
        <ele>244</ele>
        <time>2019-08-09T10:55:49.777Z</time>
      </trkpt>
      <trkpt lat="44.54847" lon="1.74483">
        <ele>244</ele>
        <time>2019-08-09T10:55:54.764Z</time>
      </trkpt>
      <trkpt lat="44.5485" lon="1.74486">
        <ele>239</ele>
        <time>2019-08-09T10:55:58.766Z</time>
      </trkpt>
      <trkpt lat="44.54853" lon="1.74492">
        <ele>239</ele>
        <time>2019-08-09T10:56:03.786Z</time>
      </trkpt>
      <trkpt lat="44.54857" lon="1.74497">
        <ele>239</ele>
        <time>2019-08-09T10:56:08.759Z</time>
      </trkpt>
      <trkpt lat="44.5486" lon="1.74502">
        <ele>239</ele>
        <time>2019-08-09T10:56:12.773Z</time>
      </trkpt>
      <trkpt lat="44.54864" lon="1.74506">
        <ele>239</ele>
        <time>2019-08-09T10:56:17.775Z</time>
      </trkpt>
      <trkpt lat="44.54867" lon="1.74511">
        <ele>239</ele>
        <time>2019-08-09T10:56:22.765Z</time>
      </trkpt>
      <trkpt lat="44.54871" lon="1.74515">
        <ele>237</ele>
        <time>2019-08-09T10:56:26.763Z</time>
      </trkpt>
      <trkpt lat="44.54874" lon="1.7452">
        <ele>237</ele>
        <time>2019-08-09T10:56:31.782Z</time>
      </trkpt>
      <trkpt lat="44.54877" lon="1.74526">
        <ele>236</ele>
        <time>2019-08-09T10:56:36.761Z</time>
      </trkpt>
      <trkpt lat="44.54881" lon="1.74531">
        <ele>236</ele>
        <time>2019-08-09T10:56:41.768Z</time>
      </trkpt>
      <trkpt lat="44.54886" lon="1.74534">
        <ele>236</ele>
        <time>2019-08-09T10:56:46.755Z</time>
      </trkpt>
      <trkpt lat="44.54888" lon="1.74533">
        <ele>236</ele>
        <time>2019-08-09T10:56:50.755Z</time>
      </trkpt>
      <trkpt lat="44.54891" lon="1.74539">
        <ele>236</ele>
        <time>2019-08-09T10:56:55.766Z</time>
      </trkpt>
      <trkpt lat="44.54893" lon="1.74549">
        <ele>233</ele>
        <time>2019-08-09T10:57:00.762Z</time>
      </trkpt>
      <trkpt lat="44.54896" lon="1.74557">
        <ele>233</ele>
        <time>2019-08-09T10:57:05.781Z</time>
      </trkpt>
      <trkpt lat="44.549" lon="1.74562">
        <ele>233</ele>
        <time>2019-08-09T10:57:10.763Z</time>
      </trkpt>
      <trkpt lat="44.54904" lon="1.74562">
        <ele>228</ele>
        <time>2019-08-09T10:57:15.780Z</time>
      </trkpt>
      <trkpt lat="44.5491" lon="1.74557">
        <ele>228</ele>
        <time>2019-08-09T10:57:20.765Z</time>
      </trkpt>
      <trkpt lat="44.54914" lon="1.74553">
        <ele>228</ele>
        <time>2019-08-09T10:57:24.765Z</time>
      </trkpt>
      <trkpt lat="44.54918" lon="1.74552">
        <ele>228</ele>
        <time>2019-08-09T10:57:29.769Z</time>
      </trkpt>
      <trkpt lat="44.54918" lon="1.74553">
        <ele>228</ele>
        <time>2019-08-09T10:57:59.772Z</time>
      </trkpt>
      <trkpt lat="44.54922" lon="1.74551">
        <ele>228</ele>
        <time>2019-08-09T10:58:04.758Z</time>
      </trkpt>
      <trkpt lat="44.54927" lon="1.74542">
        <ele>228</ele>
        <time>2019-08-09T10:58:09.782Z</time>
      </trkpt>
      <trkpt lat="44.54932" lon="1.74535">
        <ele>221</ele>
        <time>2019-08-09T10:58:14.766Z</time>
      </trkpt>
      <trkpt lat="44.54938" lon="1.74528">
        <ele>221</ele>
        <time>2019-08-09T10:58:19.776Z</time>
      </trkpt>
      <trkpt lat="44.54944" lon="1.74523">
        <ele>221</ele>
        <time>2019-08-09T10:58:24.760Z</time>
      </trkpt>
      <trkpt lat="44.54948" lon="1.74515">
        <ele>221</ele>
        <time>2019-08-09T10:58:29.766Z</time>
      </trkpt>
      <trkpt lat="44.54953" lon="1.74513">
        <ele>225</ele>
        <time>2019-08-09T10:58:34.771Z</time>
      </trkpt>
      <trkpt lat="44.54958" lon="1.74507">
        <ele>225</ele>
        <time>2019-08-09T10:58:39.780Z</time>
      </trkpt>
      <trkpt lat="44.54973" lon="1.74502">
        <ele>215</ele>
        <time>2019-08-09T10:59:04.768Z</time>
      </trkpt>
      <trkpt lat="44.54973" lon="1.74502">
        <ele>215</ele>
        <time>2019-08-09T10:59:09.763Z</time>
      </trkpt>
      <trkpt lat="44.54975" lon="1.74504">
        <ele>215</ele>
        <time>2019-08-09T10:59:13.775Z</time>
      </trkpt>
      <trkpt lat="44.54974" lon="1.74513">
        <ele>215</ele>
        <time>2019-08-09T10:59:18.762Z</time>
      </trkpt>
      <trkpt lat="44.54971" lon="1.74522">
        <ele>212</ele>
        <time>2019-08-09T10:59:22.769Z</time>
      </trkpt>
      <trkpt lat="44.54969" lon="1.74523">
        <ele>212</ele>
        <time>2019-08-09T10:59:27.771Z</time>
      </trkpt>
      <trkpt lat="44.5497" lon="1.74523">
        <ele>212</ele>
        <time>2019-08-09T10:59:32.759Z</time>
      </trkpt>
      <trkpt lat="44.54967" lon="1.74531">
        <ele>212</ele>
        <time>2019-08-09T10:59:36.769Z</time>
      </trkpt>
      <trkpt lat="44.54964" lon="1.74535">
        <ele>212</ele>
        <time>2019-08-09T10:59:40.758Z</time>
      </trkpt>
      <trkpt lat="44.54964" lon="1.74533">
        <ele>212</ele>
        <time>2019-08-09T11:00:04.767Z</time>
      </trkpt>
      <trkpt lat="44.54964" lon="1.74533">
        <ele>212</ele>
        <time>2019-08-09T11:00:09.775Z</time>
      </trkpt>
      <trkpt lat="44.54965" lon="1.74536">
        <ele>212</ele>
        <time>2019-08-09T11:00:14.757Z</time>
      </trkpt>
      <trkpt lat="44.54961" lon="1.74539">
        <ele>212</ele>
        <time>2019-08-09T11:00:18.769Z</time>
      </trkpt>
      <trkpt lat="44.54957" lon="1.74547">
        <ele>219</ele>
        <time>2019-08-09T11:00:23.768Z</time>
      </trkpt>
      <trkpt lat="44.54954" lon="1.74552">
        <ele>219</ele>
        <time>2019-08-09T11:00:27.783Z</time>
      </trkpt>
      <trkpt lat="44.54952" lon="1.74553">
        <ele>219</ele>
        <time>2019-08-09T11:00:32.756Z</time>
      </trkpt>
      <trkpt lat="44.54952" lon="1.74555">
        <ele>219</ele>
        <time>2019-08-09T11:00:36.754Z</time>
      </trkpt>
      <trkpt lat="44.54951" lon="1.74562">
        <ele>219</ele>
        <time>2019-08-09T11:00:40.757Z</time>
      </trkpt>
      <trkpt lat="44.54951" lon="1.74575">
        <ele>215</ele>
        <time>2019-08-09T11:00:45.754Z</time>
      </trkpt>
      <trkpt lat="44.54953" lon="1.74587">
        <ele>215</ele>
        <time>2019-08-09T11:00:59.772Z</time>
      </trkpt>
      <trkpt lat="44.54954" lon="1.74587">
        <ele>215</ele>
        <time>2019-08-09T11:01:04.767Z</time>
      </trkpt>
      <trkpt lat="44.54954" lon="1.74597">
        <ele>215</ele>
        <time>2019-08-09T11:01:08.771Z</time>
      </trkpt>
      <trkpt lat="44.54952" lon="1.74605">
        <ele>213</ele>
        <time>2019-08-09T11:01:13.774Z</time>
      </trkpt>
      <trkpt lat="44.54951" lon="1.74614">
        <ele>213</ele>
        <time>2019-08-09T11:01:18.776Z</time>
      </trkpt>
      <trkpt lat="44.54951" lon="1.74619">
        <ele>213</ele>
        <time>2019-08-09T11:01:23.779Z</time>
      </trkpt>
      <trkpt lat="44.54951" lon="1.74619">
        <ele>213</ele>
        <time>2019-08-09T11:01:28.760Z</time>
      </trkpt>
      <trkpt lat="44.54951" lon="1.74619">
        <ele>213</ele>
        <time>2019-08-09T11:01:32.760Z</time>
      </trkpt>
      <trkpt lat="44.5495" lon="1.74627">
        <ele>209</ele>
        <time>2019-08-09T11:01:37.765Z</time>
      </trkpt>
      <trkpt lat="44.54952" lon="1.74634">
        <ele>209</ele>
        <time>2019-08-09T11:01:42.759Z</time>
      </trkpt>
      <trkpt lat="44.54953" lon="1.74641">
        <ele>209</ele>
        <time>2019-08-09T11:01:56.760Z</time>
      </trkpt>
      <trkpt lat="44.5495" lon="1.74645">
        <ele>209</ele>
        <time>2019-08-09T11:02:00.757Z</time>
      </trkpt>
      <trkpt lat="44.54945" lon="1.74653">
        <ele>204</ele>
        <time>2019-08-09T11:02:05.768Z</time>
      </trkpt>
      <trkpt lat="44.54941" lon="1.74659">
        <ele>204</ele>
        <time>2019-08-09T11:02:10.764Z</time>
      </trkpt>
      <trkpt lat="44.54935" lon="1.74665">
        <ele>204</ele>
        <time>2019-08-09T11:02:15.766Z</time>
      </trkpt>
      <trkpt lat="44.5493" lon="1.74672">
        <ele>211</ele>
        <time>2019-08-09T11:02:20.762Z</time>
      </trkpt>
      <trkpt lat="44.54927" lon="1.74679">
        <ele>211</ele>
        <time>2019-08-09T11:02:25.768Z</time>
      </trkpt>
      <trkpt lat="44.54924" lon="1.74683">
        <ele>204</ele>
        <time>2019-08-09T11:02:30.756Z</time>
      </trkpt>
      <trkpt lat="44.54919" lon="1.7469">
        <ele>204</ele>
        <time>2019-08-09T11:02:35.766Z</time>
      </trkpt>
      <trkpt lat="44.54912" lon="1.74709">
        <ele>192</ele>
        <time>2019-08-09T11:03:00.758Z</time>
      </trkpt>
      <trkpt lat="44.5493" lon="1.74707">
        <ele>204</ele>
        <time>2019-08-09T11:03:05.767Z</time>
      </trkpt>
      <trkpt lat="44.54941" lon="1.74706">
        <ele>196</ele>
        <time>2019-08-09T11:03:10.756Z</time>
      </trkpt>
      <trkpt lat="44.54952" lon="1.74705">
        <ele>196</ele>
        <time>2019-08-09T11:03:15.764Z</time>
      </trkpt>
      <trkpt lat="44.54956" lon="1.74711">
        <ele>186</ele>
        <time>2019-08-09T11:03:20.756Z</time>
      </trkpt>
      <trkpt lat="44.5495" lon="1.74711">
        <ele>186</ele>
        <time>2019-08-09T11:03:34.758Z</time>
      </trkpt>
      <trkpt lat="44.54958" lon="1.7471">
        <ele>186</ele>
        <time>2019-08-09T11:03:39.766Z</time>
      </trkpt>
      <trkpt lat="44.54964" lon="1.74709">
        <ele>178</ele>
        <time>2019-08-09T11:03:44.761Z</time>
      </trkpt>
      <trkpt lat="44.54971" lon="1.74708">
        <ele>187</ele>
        <time>2019-08-09T11:03:49.764Z</time>
      </trkpt>
      <trkpt lat="44.5498" lon="1.74707">
        <ele>187</ele>
        <time>2019-08-09T11:03:54.757Z</time>
      </trkpt>
      <trkpt lat="44.54982" lon="1.74715">
        <ele>178</ele>
        <time>2019-08-09T11:03:59.757Z</time>
      </trkpt>
      <trkpt lat="44.54976" lon="1.74724">
        <ele>178</ele>
        <time>2019-08-09T11:04:04.759Z</time>
      </trkpt>
      <trkpt lat="44.54966" lon="1.74731">
        <ele>178</ele>
        <time>2019-08-09T11:04:09.765Z</time>
      </trkpt>
      <trkpt lat="44.54961" lon="1.74734">
        <ele>178</ele>
        <time>2019-08-09T11:04:14.760Z</time>
      </trkpt>
      <trkpt lat="44.54978" lon="1.74739">
        <ele>171</ele>
        <time>2019-08-09T11:04:19.766Z</time>
      </trkpt>
      <trkpt lat="44.54981" lon="1.74741">
        <ele>171</ele>
        <time>2019-08-09T11:04:24.765Z</time>
      </trkpt>
      <trkpt lat="44.54981" lon="1.74743">
        <ele>171</ele>
        <time>2019-08-09T11:04:29.755Z</time>
      </trkpt>
      <trkpt lat="44.54981" lon="1.74747">
        <ele>171</ele>
        <time>2019-08-09T11:04:33.767Z</time>
      </trkpt>
      <trkpt lat="44.54982" lon="1.74751">
        <ele>171</ele>
        <time>2019-08-09T11:04:38.762Z</time>
      </trkpt>
      <trkpt lat="44.54976" lon="1.74749">
        <ele>171</ele>
        <time>2019-08-09T11:05:08.765Z</time>
      </trkpt>
      <trkpt lat="44.54974" lon="1.74752">
        <ele>171</ele>
        <time>2019-08-09T11:05:13.756Z</time>
      </trkpt>
      <trkpt lat="44.54972" lon="1.74756">
        <ele>171</ele>
        <time>2019-08-09T11:05:17.767Z</time>
      </trkpt>
      <trkpt lat="44.54967" lon="1.74767">
        <ele>169</ele>
        <time>2019-08-09T11:05:22.760Z</time>
      </trkpt>
      <trkpt lat="44.54965" lon="1.74776">
        <ele>169</ele>
        <time>2019-08-09T11:05:26.769Z</time>
      </trkpt>
      <trkpt lat="44.54964" lon="1.74782">
        <ele>169</ele>
        <time>2019-08-09T11:05:30.755Z</time>
      </trkpt>
      <trkpt lat="44.54966" lon="1.7479">
        <ele>169</ele>
        <time>2019-08-09T11:05:35.767Z</time>
      </trkpt>
      <trkpt lat="44.54968" lon="1.74801">
        <ele>172</ele>
        <time>2019-08-09T11:05:40.759Z</time>
      </trkpt>
      <trkpt lat="44.54971" lon="1.7481">
        <ele>172</ele>
        <time>2019-08-09T11:05:45.766Z</time>
      </trkpt>
      <trkpt lat="44.54974" lon="1.74813">
        <ele>172</ele>
        <time>2019-08-09T11:07:10.747Z</time>
      </trkpt>
      <trkpt lat="44.54977" lon="1.7481">
        <ele>172</ele>
        <time>2019-08-09T11:07:15.757Z</time>
      </trkpt>
      <trkpt lat="44.54983" lon="1.74808">
        <ele>172</ele>
        <time>2019-08-09T11:07:20.758Z</time>
      </trkpt>
      <trkpt lat="44.5499" lon="1.74807">
        <ele>173</ele>
        <time>2019-08-09T11:07:25.766Z</time>
      </trkpt>
      <trkpt lat="44.54991" lon="1.74811">
        <ele>173</ele>
        <time>2019-08-09T11:07:30.759Z</time>
      </trkpt>
      <trkpt lat="44.54998" lon="1.74812">
        <ele>173</ele>
        <time>2019-08-09T11:07:35.761Z</time>
      </trkpt>
      <trkpt lat="44.55007" lon="1.74807">
        <ele>173</ele>
        <time>2019-08-09T11:07:40.759Z</time>
      </trkpt>
      <trkpt lat="44.55014" lon="1.74806">
        <ele>174</ele>
        <time>2019-08-09T11:07:45.759Z</time>
      </trkpt>
      <trkpt lat="44.55024" lon="1.748">
        <ele>174</ele>
        <time>2019-08-09T11:07:50.762Z</time>
      </trkpt>
      <trkpt lat="44.5503" lon="1.748">
        <ele>174</ele>
        <time>2019-08-09T11:07:55.760Z</time>
      </trkpt>
      <trkpt lat="44.55035" lon="1.74799">
        <ele>174</ele>
        <time>2019-08-09T11:08:00.756Z</time>
      </trkpt>
      <trkpt lat="44.55042" lon="1.74798">
        <ele>174</ele>
        <time>2019-08-09T11:08:05.764Z</time>
      </trkpt>
      <trkpt lat="44.5505" lon="1.74792">
        <ele>175</ele>
        <time>2019-08-09T11:08:10.759Z</time>
      </trkpt>
      <trkpt lat="44.55073" lon="1.74789">
        <ele>170</ele>
        <time>2019-08-09T11:08:30.757Z</time>
      </trkpt>
      <trkpt lat="44.55077" lon="1.74794">
        <ele>176</ele>
        <time>2019-08-09T11:08:35.763Z</time>
      </trkpt>
      <trkpt lat="44.55083" lon="1.74794">
        <ele>176</ele>
        <time>2019-08-09T11:08:40.775Z</time>
      </trkpt>
      <trkpt lat="44.5509" lon="1.748">
        <ele>176</ele>
        <time>2019-08-09T11:08:45.755Z</time>
      </trkpt>
      <trkpt lat="44.55093" lon="1.748">
        <ele>176</ele>
        <time>2019-08-09T11:08:49.763Z</time>
      </trkpt>
      <trkpt lat="44.55096" lon="1.748">
        <ele>176</ele>
        <time>2019-08-09T11:09:19.766Z</time>
      </trkpt>
      <trkpt lat="44.5509" lon="1.74797">
        <ele>176</ele>
        <time>2019-08-09T11:09:24.761Z</time>
      </trkpt>
      <trkpt lat="44.55085" lon="1.74792">
        <ele>176</ele>
        <time>2019-08-09T11:09:28.784Z</time>
      </trkpt>
      <trkpt lat="44.55085" lon="1.7479">
        <ele>170</ele>
        <time>2019-08-09T11:09:33.761Z</time>
      </trkpt>
      <trkpt lat="44.55083" lon="1.74785">
        <ele>170</ele>
        <time>2019-08-09T11:09:38.761Z</time>
      </trkpt>
      <trkpt lat="44.55078" lon="1.74782">
        <ele>170</ele>
        <time>2019-08-09T11:10:43.760Z</time>
      </trkpt>
      <trkpt lat="44.55078" lon="1.74783">
        <ele>170</ele>
        <time>2019-08-09T11:10:47.771Z</time>
      </trkpt>
      <trkpt lat="44.55078" lon="1.74789">
        <ele>170</ele>
        <time>2019-08-09T11:10:52.765Z</time>
      </trkpt>
      <trkpt lat="44.55079" lon="1.7479">
        <ele>170</ele>
        <time>2019-08-09T11:10:57.763Z</time>
      </trkpt>
      <trkpt lat="44.55079" lon="1.74794">
        <ele>176</ele>
        <time>2019-08-09T11:11:02.766Z</time>
      </trkpt>
      <trkpt lat="44.55085" lon="1.74792">
        <ele>176</ele>
        <time>2019-08-09T11:11:07.770Z</time>
      </trkpt>
      <trkpt lat="44.55092" lon="1.74793">
        <ele>176</ele>
        <time>2019-08-09T11:11:12.761Z</time>
      </trkpt>
      <trkpt lat="44.55094" lon="1.74797">
        <ele>176</ele>
        <time>2019-08-09T11:11:16.780Z</time>
      </trkpt>
      <trkpt lat="44.55099" lon="1.74799">
        <ele>179</ele>
        <time>2019-08-09T11:11:21.775Z</time>
      </trkpt>
      <trkpt lat="44.55105" lon="1.748">
        <ele>179</ele>
        <time>2019-08-09T11:11:26.761Z</time>
      </trkpt>
      <trkpt lat="44.5511" lon="1.74804">
        <ele>179</ele>
        <time>2019-08-09T11:11:31.753Z</time>
      </trkpt>
      <trkpt lat="44.55113" lon="1.74807">
        <ele>179</ele>
        <time>2019-08-09T11:11:35.763Z</time>
      </trkpt>
      <trkpt lat="44.55118" lon="1.74808">
        <ele>179</ele>
        <time>2019-08-09T11:11:40.755Z</time>
      </trkpt>
      <trkpt lat="44.55119" lon="1.74807">
        <ele>179</ele>
        <time>2019-08-09T11:11:45.762Z</time>
      </trkpt>
      <trkpt lat="44.55121" lon="1.74811">
        <ele>179</ele>
        <time>2019-08-09T11:11:50.755Z</time>
      </trkpt>
      <trkpt lat="44.55123" lon="1.74813">
        <ele>179</ele>
        <time>2019-08-09T11:11:55.759Z</time>
      </trkpt>
      <trkpt lat="44.55127" lon="1.74817">
        <ele>182</ele>
        <time>2019-08-09T11:12:00.754Z</time>
      </trkpt>
      <trkpt lat="44.5513" lon="1.74819">
        <ele>182</ele>
        <time>2019-08-09T11:12:05.762Z</time>
      </trkpt>
      <trkpt lat="44.55132" lon="1.74822">
        <ele>192</ele>
        <time>2019-08-09T11:12:10.754Z</time>
      </trkpt>
      <trkpt lat="44.55134" lon="1.74824">
        <ele>192</ele>
        <time>2019-08-09T11:12:15.764Z</time>
      </trkpt>
      <trkpt lat="44.55143" lon="1.74823">
        <ele>192</ele>
        <time>2019-08-09T11:12:20.751Z</time>
      </trkpt>
      <trkpt lat="44.55153" lon="1.74835">
        <ele>200</ele>
        <time>2019-08-09T11:13:00.746Z</time>
      </trkpt>
      <trkpt lat="44.55154" lon="1.74835">
        <ele>200</ele>
        <time>2019-08-09T11:13:05.760Z</time>
      </trkpt>
      <trkpt lat="44.55154" lon="1.74836">
        <ele>200</ele>
        <time>2019-08-09T11:13:10.744Z</time>
      </trkpt>
      <trkpt lat="44.55154" lon="1.74839">
        <ele>200</ele>
        <time>2019-08-09T11:13:15.761Z</time>
      </trkpt>
      <trkpt lat="44.55148" lon="1.74843">
        <ele>192</ele>
        <time>2019-08-09T11:13:19.782Z</time>
      </trkpt>
      <trkpt lat="44.55144" lon="1.74849">
        <ele>205</ele>
        <time>2019-08-09T11:13:24.762Z</time>
      </trkpt>
      <trkpt lat="44.5514" lon="1.74849">
        <ele>205</ele>
        <time>2019-08-09T11:13:29.766Z</time>
      </trkpt>
      <trkpt lat="44.55133" lon="1.74854">
        <ele>205</ele>
        <time>2019-08-09T11:13:34.758Z</time>
      </trkpt>
      <trkpt lat="44.55127" lon="1.74859">
        <ele>205</ele>
        <time>2019-08-09T11:13:39.763Z</time>
      </trkpt>
      <trkpt lat="44.55123" lon="1.74862">
        <ele>201</ele>
        <time>2019-08-09T11:13:44.763Z</time>
      </trkpt>
      <trkpt lat="44.55116" lon="1.74868">
        <ele>201</ele>
        <time>2019-08-09T11:13:49.763Z</time>
      </trkpt>
      <trkpt lat="44.55111" lon="1.74873">
        <ele>201</ele>
        <time>2019-08-09T11:13:54.763Z</time>
      </trkpt>
      <trkpt lat="44.55108" lon="1.74876">
        <ele>214</ele>
        <time>2019-08-09T11:13:59.766Z</time>
      </trkpt>
      <trkpt lat="44.55102" lon="1.74881">
        <ele>214</ele>
        <time>2019-08-09T11:14:04.759Z</time>
      </trkpt>
      <trkpt lat="44.55098" lon="1.74882">
        <ele>214</ele>
        <time>2019-08-09T11:14:09.761Z</time>
      </trkpt>
      <trkpt lat="44.55093" lon="1.74883">
        <ele>213</ele>
        <time>2019-08-09T11:14:14.762Z</time>
      </trkpt>
      <trkpt lat="44.55089" lon="1.74885">
        <ele>213</ele>
        <time>2019-08-09T11:14:19.758Z</time>
      </trkpt>
      <trkpt lat="44.55086" lon="1.7489">
        <ele>213</ele>
        <time>2019-08-09T11:14:29.761Z</time>
      </trkpt>
      <trkpt lat="44.55087" lon="1.74892">
        <ele>213</ele>
        <time>2019-08-09T11:14:34.761Z</time>
      </trkpt>
      <trkpt lat="44.55087" lon="1.74894">
        <ele>213</ele>
        <time>2019-08-09T11:14:39.763Z</time>
      </trkpt>
      <trkpt lat="44.55091" lon="1.74899">
        <ele>213</ele>
        <time>2019-08-09T11:14:44.764Z</time>
      </trkpt>
      <trkpt lat="44.55095" lon="1.74903">
        <ele>224</ele>
        <time>2019-08-09T11:14:49.765Z</time>
      </trkpt>
      <trkpt lat="44.55095" lon="1.74903">
        <ele>224</ele>
        <time>2019-08-09T11:14:54.767Z</time>
      </trkpt>
      <trkpt lat="44.55096" lon="1.74905">
        <ele>224</ele>
        <time>2019-08-09T11:14:59.766Z</time>
      </trkpt>
      <trkpt lat="44.55097" lon="1.7491">
        <ele>224</ele>
        <time>2019-08-09T11:15:04.761Z</time>
      </trkpt>
      <trkpt lat="44.55102" lon="1.74913">
        <ele>224</ele>
        <time>2019-08-09T11:15:09.750Z</time>
      </trkpt>
      <trkpt lat="44.55106" lon="1.74919">
        <ele>224</ele>
        <time>2019-08-09T11:15:37.762Z</time>
      </trkpt>
      <trkpt lat="44.55106" lon="1.74919">
        <ele>224</ele>
        <time>2019-08-09T11:15:42.769Z</time>
      </trkpt>
      <trkpt lat="44.55108" lon="1.74922">
        <ele>224</ele>
        <time>2019-08-09T11:15:47.763Z</time>
      </trkpt>
      <trkpt lat="44.55108" lon="1.74924">
        <ele>224</ele>
        <time>2019-08-09T11:15:52.759Z</time>
      </trkpt>
      <trkpt lat="44.55111" lon="1.74927">
        <ele>224</ele>
        <time>2019-08-09T11:15:57.759Z</time>
      </trkpt>
      <trkpt lat="44.55112" lon="1.74931">
        <ele>224</ele>
        <time>2019-08-09T11:16:02.760Z</time>
      </trkpt>
      <trkpt lat="44.55109" lon="1.74935">
        <ele>232</ele>
        <time>2019-08-09T11:16:07.760Z</time>
      </trkpt>
      <trkpt lat="44.55105" lon="1.74939">
        <ele>232</ele>
        <time>2019-08-09T11:16:12.758Z</time>
      </trkpt>
      <trkpt lat="44.55101" lon="1.7494">
        <ele>232</ele>
        <time>2019-08-09T11:16:17.758Z</time>
      </trkpt>
      <trkpt lat="44.55097" lon="1.74946">
        <ele>233</ele>
        <time>2019-08-09T11:16:22.755Z</time>
      </trkpt>
      <trkpt lat="44.55093" lon="1.7495">
        <ele>233</ele>
        <time>2019-08-09T11:16:26.762Z</time>
      </trkpt>
      <trkpt lat="44.55089" lon="1.74954">
        <ele>233</ele>
        <time>2019-08-09T11:16:30.749Z</time>
      </trkpt>
      <trkpt lat="44.55085" lon="1.7496">
        <ele>240</ele>
        <time>2019-08-09T11:16:35.762Z</time>
      </trkpt>
      <trkpt lat="44.5508" lon="1.74965">
        <ele>240</ele>
        <time>2019-08-09T11:16:40.752Z</time>
      </trkpt>
      <trkpt lat="44.55079" lon="1.74971">
        <ele>240</ele>
        <time>2019-08-09T11:16:45.749Z</time>
      </trkpt>
      <trkpt lat="44.55078" lon="1.74977">
        <ele>240</ele>
        <time>2019-08-09T11:16:49.760Z</time>
      </trkpt>
      <trkpt lat="44.55077" lon="1.74983">
        <ele>240</ele>
        <time>2019-08-09T11:16:54.763Z</time>
      </trkpt>
      <trkpt lat="44.55078" lon="1.74992">
        <ele>245</ele>
        <time>2019-08-09T11:16:59.762Z</time>
      </trkpt>
      <trkpt lat="44.55079" lon="1.74999">
        <ele>245</ele>
        <time>2019-08-09T11:17:04.763Z</time>
      </trkpt>
      <trkpt lat="44.5508" lon="1.75005">
        <ele>245</ele>
        <time>2019-08-09T11:17:09.757Z</time>
      </trkpt>
      <trkpt lat="44.55081" lon="1.75007">
        <ele>245</ele>
        <time>2019-08-09T11:17:13.773Z</time>
      </trkpt>
      <trkpt lat="44.55084" lon="1.75013">
        <ele>245</ele>
        <time>2019-08-09T11:17:18.776Z</time>
      </trkpt>
      <trkpt lat="44.55082" lon="1.7502">
        <ele>249</ele>
        <time>2019-08-09T11:17:23.759Z</time>
      </trkpt>
      <trkpt lat="44.55081" lon="1.75027">
        <ele>249</ele>
        <time>2019-08-09T11:17:28.764Z</time>
      </trkpt>
      <trkpt lat="44.55082" lon="1.75032">
        <ele>249</ele>
        <time>2019-08-09T11:17:33.761Z</time>
      </trkpt>
      <trkpt lat="44.5508" lon="1.75041">
        <ele>249</ele>
        <time>2019-08-09T11:17:38.763Z</time>
      </trkpt>
      <trkpt lat="44.55082" lon="1.75048">
        <ele>251</ele>
        <time>2019-08-09T11:17:43.765Z</time>
      </trkpt>
      <trkpt lat="44.55081" lon="1.75056">
        <ele>251</ele>
        <time>2019-08-09T11:17:48.763Z</time>
      </trkpt>
      <trkpt lat="44.55081" lon="1.75064">
        <ele>251</ele>
        <time>2019-08-09T11:17:53.769Z</time>
      </trkpt>
      <trkpt lat="44.55079" lon="1.75069">
        <ele>251</ele>
        <time>2019-08-09T11:17:58.763Z</time>
      </trkpt>
      <trkpt lat="44.55081" lon="1.75077">
        <ele>252</ele>
        <time>2019-08-09T11:18:03.767Z</time>
      </trkpt>
      <trkpt lat="44.55081" lon="1.75084">
        <ele>252</ele>
        <time>2019-08-09T11:18:08.770Z</time>
      </trkpt>
      <trkpt lat="44.55079" lon="1.75091">
        <ele>252</ele>
        <time>2019-08-09T11:18:13.771Z</time>
      </trkpt>
      <trkpt lat="44.55076" lon="1.75099">
        <ele>254</ele>
        <time>2019-08-09T11:18:18.763Z</time>
      </trkpt>
      <trkpt lat="44.55073" lon="1.75105">
        <ele>254</ele>
        <time>2019-08-09T11:18:23.764Z</time>
      </trkpt>
      <trkpt lat="44.55071" lon="1.75108">
        <ele>254</ele>
        <time>2019-08-09T11:18:27.775Z</time>
      </trkpt>
      <trkpt lat="44.55066" lon="1.75111">
        <ele>251</ele>
        <time>2019-08-09T11:18:32.760Z</time>
      </trkpt>
      <trkpt lat="44.55065" lon="1.75113">
        <ele>251</ele>
        <time>2019-08-09T11:18:36.767Z</time>
      </trkpt>
      <trkpt lat="44.55064" lon="1.7512">
        <ele>251</ele>
        <time>2019-08-09T11:18:40.759Z</time>
      </trkpt>
      <trkpt lat="44.55066" lon="1.75131">
        <ele>252</ele>
        <time>2019-08-09T11:18:45.753Z</time>
      </trkpt>
      <trkpt lat="44.55068" lon="1.75138">
        <ele>252</ele>
        <time>2019-08-09T11:18:49.765Z</time>
      </trkpt>
      <trkpt lat="44.55069" lon="1.75147">
        <ele>252</ele>
        <time>2019-08-09T11:18:54.769Z</time>
      </trkpt>
      <trkpt lat="44.5507" lon="1.75153">
        <ele>257</ele>
        <time>2019-08-09T11:18:59.766Z</time>
      </trkpt>
      <trkpt lat="44.55071" lon="1.75162">
        <ele>257</ele>
        <time>2019-08-09T11:19:04.763Z</time>
      </trkpt>
      <trkpt lat="44.55072" lon="1.7517">
        <ele>257</ele>
        <time>2019-08-09T11:19:09.764Z</time>
      </trkpt>
      <trkpt lat="44.55074" lon="1.75176">
        <ele>257</ele>
        <time>2019-08-09T11:19:14.767Z</time>
      </trkpt>
      <trkpt lat="44.55075" lon="1.75184">
        <ele>259</ele>
        <time>2019-08-09T11:19:19.761Z</time>
      </trkpt>
      <trkpt lat="44.55073" lon="1.75193">
        <ele>259</ele>
        <time>2019-08-09T11:19:24.768Z</time>
      </trkpt>
      <trkpt lat="44.55072" lon="1.75201">
        <ele>259</ele>
        <time>2019-08-09T11:19:29.779Z</time>
      </trkpt>
      <trkpt lat="44.55072" lon="1.75206">
        <ele>259</ele>
        <time>2019-08-09T11:19:34.768Z</time>
      </trkpt>
      <trkpt lat="44.5507" lon="1.75211">
        <ele>262</ele>
        <time>2019-08-09T11:19:39.768Z</time>
      </trkpt>
      <trkpt lat="44.55068" lon="1.7522">
        <ele>259</ele>
        <time>2019-08-09T11:19:44.770Z</time>
      </trkpt>
      <trkpt lat="44.55065" lon="1.75227">
        <ele>259</ele>
        <time>2019-08-09T11:19:49.769Z</time>
      </trkpt>
      <trkpt lat="44.55062" lon="1.75233">
        <ele>259</ele>
        <time>2019-08-09T11:19:54.769Z</time>
      </trkpt>
      <trkpt lat="44.55056" lon="1.75241">
        <ele>260</ele>
        <time>2019-08-09T11:19:59.764Z</time>
      </trkpt>
      <trkpt lat="44.55054" lon="1.75251">
        <ele>260</ele>
        <time>2019-08-09T11:20:04.763Z</time>
      </trkpt>
      <trkpt lat="44.55055" lon="1.7526">
        <ele>260</ele>
        <time>2019-08-09T11:20:09.766Z</time>
      </trkpt>
      <trkpt lat="44.55054" lon="1.75266">
        <ele>261</ele>
        <time>2019-08-09T11:20:14.765Z</time>
      </trkpt>
      <trkpt lat="44.55058" lon="1.75275">
        <ele>261</ele>
        <time>2019-08-09T11:20:19.766Z</time>
      </trkpt>
      <trkpt lat="44.55059" lon="1.75281">
        <ele>261</ele>
        <time>2019-08-09T11:20:24.763Z</time>
      </trkpt>
      <trkpt lat="44.55058" lon="1.75286">
        <ele>261</ele>
        <time>2019-08-09T11:20:29.757Z</time>
      </trkpt>
      <trkpt lat="44.55057" lon="1.75293">
        <ele>263</ele>
        <time>2019-08-09T11:20:34.760Z</time>
      </trkpt>
      <trkpt lat="44.55055" lon="1.75296">
        <ele>263</ele>
        <time>2019-08-09T11:20:39.762Z</time>
      </trkpt>
      <trkpt lat="44.55051" lon="1.75299">
        <ele>263</ele>
        <time>2019-08-09T11:20:44.766Z</time>
      </trkpt>
      <trkpt lat="44.55051" lon="1.75304">
        <ele>263</ele>
        <time>2019-08-09T11:20:49.763Z</time>
      </trkpt>
      <trkpt lat="44.55051" lon="1.75307">
        <ele>263</ele>
        <time>2019-08-09T11:20:54.763Z</time>
      </trkpt>
      <trkpt lat="44.55051" lon="1.75321">
        <ele>263</ele>
        <time>2019-08-09T11:20:59.760Z</time>
      </trkpt>
      <trkpt lat="44.55049" lon="1.75332">
        <ele>263</ele>
        <time>2019-08-09T11:21:03.764Z</time>
      </trkpt>
      <trkpt lat="44.55048" lon="1.75342">
        <ele>263</ele>
        <time>2019-08-09T11:21:08.763Z</time>
      </trkpt>
      <trkpt lat="44.55048" lon="1.75348">
        <ele>264</ele>
        <time>2019-08-09T11:21:13.767Z</time>
      </trkpt>
      <trkpt lat="44.55046" lon="1.75353">
        <ele>264</ele>
        <time>2019-08-09T11:21:18.764Z</time>
      </trkpt>
      <trkpt lat="44.55043" lon="1.75357">
        <ele>264</ele>
        <time>2019-08-09T11:21:23.765Z</time>
      </trkpt>
      <trkpt lat="44.55041" lon="1.75363">
        <ele>262</ele>
        <time>2019-08-09T11:21:28.772Z</time>
      </trkpt>
      <trkpt lat="44.55041" lon="1.75371">
        <ele>262</ele>
        <time>2019-08-09T11:21:33.758Z</time>
      </trkpt>
      <trkpt lat="44.55041" lon="1.75377">
        <ele>261</ele>
        <time>2019-08-09T11:21:37.768Z</time>
      </trkpt>
      <trkpt lat="44.55039" lon="1.75385">
        <ele>261</ele>
        <time>2019-08-09T11:21:42.765Z</time>
      </trkpt>
      <trkpt lat="44.55037" lon="1.75391">
        <ele>261</ele>
        <time>2019-08-09T11:21:47.765Z</time>
      </trkpt>
      <trkpt lat="44.55035" lon="1.75396">
        <ele>261</ele>
        <time>2019-08-09T11:21:52.762Z</time>
      </trkpt>
      <trkpt lat="44.55035" lon="1.754">
        <ele>261</ele>
        <time>2019-08-09T11:21:57.764Z</time>
      </trkpt>
      <trkpt lat="44.55034" lon="1.75406">
        <ele>261</ele>
        <time>2019-08-09T11:22:02.764Z</time>
      </trkpt>
      <trkpt lat="44.55034" lon="1.75413">
        <ele>261</ele>
        <time>2019-08-09T11:22:07.765Z</time>
      </trkpt>
      <trkpt lat="44.55032" lon="1.75421">
        <ele>261</ele>
        <time>2019-08-09T11:22:12.766Z</time>
      </trkpt>
      <trkpt lat="44.55037" lon="1.75429">
        <ele>261</ele>
        <time>2019-08-09T11:22:17.765Z</time>
      </trkpt>
      <trkpt lat="44.55038" lon="1.75435">
        <ele>261</ele>
        <time>2019-08-09T11:22:22.765Z</time>
      </trkpt>
      <trkpt lat="44.55037" lon="1.75442">
        <ele>261</ele>
        <time>2019-08-09T11:22:27.765Z</time>
      </trkpt>
      <trkpt lat="44.55038" lon="1.75451">
        <ele>261</ele>
        <time>2019-08-09T11:22:32.769Z</time>
      </trkpt>
      <trkpt lat="44.5504" lon="1.75456">
        <ele>261</ele>
        <time>2019-08-09T11:22:37.756Z</time>
      </trkpt>
      <trkpt lat="44.55042" lon="1.75461">
        <ele>261</ele>
        <time>2019-08-09T11:22:41.769Z</time>
      </trkpt>
      <trkpt lat="44.55042" lon="1.75463">
        <ele>261</ele>
        <time>2019-08-09T11:22:46.766Z</time>
      </trkpt>
      <trkpt lat="44.55038" lon="1.75467">
        <ele>260</ele>
        <time>2019-08-09T11:22:50.755Z</time>
      </trkpt>
      <trkpt lat="44.55041" lon="1.75478">
        <ele>260</ele>
        <time>2019-08-09T11:22:55.765Z</time>
      </trkpt>
      <trkpt lat="44.55038" lon="1.75482">
        <ele>260</ele>
        <time>2019-08-09T11:23:00.764Z</time>
      </trkpt>
      <trkpt lat="44.55037" lon="1.75484">
        <ele>260</ele>
        <time>2019-08-09T11:23:05.764Z</time>
      </trkpt>
      <trkpt lat="44.55038" lon="1.75491">
        <ele>258</ele>
        <time>2019-08-09T11:23:10.759Z</time>
      </trkpt>
      <trkpt lat="44.55037" lon="1.75499">
        <ele>258</ele>
        <time>2019-08-09T11:23:15.762Z</time>
      </trkpt>
      <trkpt lat="44.5504" lon="1.75508">
        <ele>258</ele>
        <time>2019-08-09T11:23:20.754Z</time>
      </trkpt>
      <trkpt lat="44.55044" lon="1.75516">
        <ele>259</ele>
        <time>2019-08-09T11:23:25.763Z</time>
      </trkpt>
      <trkpt lat="44.55046" lon="1.75519">
        <ele>259</ele>
        <time>2019-08-09T11:23:29.780Z</time>
      </trkpt>
      <trkpt lat="44.5505" lon="1.75522">
        <ele>259</ele>
        <time>2019-08-09T11:23:34.768Z</time>
      </trkpt>
      <trkpt lat="44.5505" lon="1.75527">
        <ele>259</ele>
        <time>2019-08-09T11:23:39.764Z</time>
      </trkpt>
      <trkpt lat="44.55051" lon="1.75532">
        <ele>259</ele>
        <time>2019-08-09T11:23:44.763Z</time>
      </trkpt>
      <trkpt lat="44.55053" lon="1.75538">
        <ele>259</ele>
        <time>2019-08-09T11:23:49.765Z</time>
      </trkpt>
      <trkpt lat="44.55053" lon="1.75542">
        <ele>257</ele>
        <time>2019-08-09T11:23:54.762Z</time>
      </trkpt>
      <trkpt lat="44.55054" lon="1.75545">
        <ele>257</ele>
        <time>2019-08-09T11:23:59.780Z</time>
      </trkpt>
      <trkpt lat="44.55052" lon="1.75554">
        <ele>257</ele>
        <time>2019-08-09T11:24:04.762Z</time>
      </trkpt>
      <trkpt lat="44.55054" lon="1.75568">
        <ele>257</ele>
        <time>2019-08-09T11:24:09.766Z</time>
      </trkpt>
      <trkpt lat="44.55055" lon="1.75571">
        <ele>255</ele>
        <time>2019-08-09T11:24:14.758Z</time>
      </trkpt>
      <trkpt lat="44.55055" lon="1.75577">
        <ele>255</ele>
        <time>2019-08-09T11:24:19.764Z</time>
      </trkpt>
      <trkpt lat="44.55055" lon="1.75578">
        <ele>255</ele>
        <time>2019-08-09T11:24:24.764Z</time>
      </trkpt>
      <trkpt lat="44.55054" lon="1.75584">
        <ele>255</ele>
        <time>2019-08-09T11:24:29.774Z</time>
      </trkpt>
      <trkpt lat="44.55054" lon="1.75594">
        <ele>255</ele>
        <time>2019-08-09T11:24:34.779Z</time>
      </trkpt>
      <trkpt lat="44.55054" lon="1.75598">
        <ele>253</ele>
        <time>2019-08-09T11:24:39.762Z</time>
      </trkpt>
      <trkpt lat="44.55053" lon="1.75607">
        <ele>253</ele>
        <time>2019-08-09T11:24:44.755Z</time>
      </trkpt>
      <trkpt lat="44.55054" lon="1.75614">
        <ele>253</ele>
        <time>2019-08-09T11:24:48.768Z</time>
      </trkpt>
      <trkpt lat="44.5506" lon="1.75625">
        <ele>253</ele>
        <time>2019-08-09T11:24:53.764Z</time>
      </trkpt>
      <trkpt lat="44.55061" lon="1.75632">
        <ele>251</ele>
        <time>2019-08-09T11:24:58.767Z</time>
      </trkpt>
      <trkpt lat="44.55061" lon="1.75635">
        <ele>251</ele>
        <time>2019-08-09T11:25:03.758Z</time>
      </trkpt>
      <trkpt lat="44.55058" lon="1.75639">
        <ele>251</ele>
        <time>2019-08-09T11:25:08.768Z</time>
      </trkpt>
      <trkpt lat="44.55057" lon="1.75644">
        <ele>251</ele>
        <time>2019-08-09T11:25:13.763Z</time>
      </trkpt>
      <trkpt lat="44.55057" lon="1.7565">
        <ele>251</ele>
        <time>2019-08-09T11:25:18.757Z</time>
      </trkpt>
      <trkpt lat="44.55057" lon="1.75655">
        <ele>249</ele>
        <time>2019-08-09T11:25:23.764Z</time>
      </trkpt>
      <trkpt lat="44.55059" lon="1.75661">
        <ele>249</ele>
        <time>2019-08-09T11:25:28.766Z</time>
      </trkpt>
      <trkpt lat="44.55058" lon="1.75665">
        <ele>249</ele>
        <time>2019-08-09T11:25:33.776Z</time>
      </trkpt>
      <trkpt lat="44.55065" lon="1.75677">
        <ele>249</ele>
        <time>2019-08-09T11:25:38.763Z</time>
      </trkpt>
      <trkpt lat="44.5507" lon="1.75684">
        <ele>249</ele>
        <time>2019-08-09T11:25:43.764Z</time>
      </trkpt>
      <trkpt lat="44.55074" lon="1.75691">
        <ele>249</ele>
        <time>2019-08-09T11:25:48.771Z</time>
      </trkpt>
      <trkpt lat="44.55077" lon="1.75698">
        <ele>249</ele>
        <time>2019-08-09T11:25:53.767Z</time>
      </trkpt>
      <trkpt lat="44.55084" lon="1.75707">
        <ele>249</ele>
        <time>2019-08-09T11:25:58.771Z</time>
      </trkpt>
      <trkpt lat="44.55087" lon="1.75712">
        <ele>248</ele>
        <time>2019-08-09T11:26:03.767Z</time>
      </trkpt>
      <trkpt lat="44.55089" lon="1.75716">
        <ele>248</ele>
        <time>2019-08-09T11:26:08.768Z</time>
      </trkpt>
      <trkpt lat="44.5509" lon="1.7572">
        <ele>248</ele>
        <time>2019-08-09T11:26:13.769Z</time>
      </trkpt>
      <trkpt lat="44.55091" lon="1.75724">
        <ele>248</ele>
        <time>2019-08-09T11:26:18.767Z</time>
      </trkpt>
      <trkpt lat="44.5509" lon="1.75727">
        <ele>248</ele>
        <time>2019-08-09T11:26:23.763Z</time>
      </trkpt>
      <trkpt lat="44.55088" lon="1.75734">
        <ele>248</ele>
        <time>2019-08-09T11:26:28.771Z</time>
      </trkpt>
      <trkpt lat="44.55087" lon="1.7574">
        <ele>246</ele>
        <time>2019-08-09T11:26:33.761Z</time>
      </trkpt>
      <trkpt lat="44.55085" lon="1.75746">
        <ele>246</ele>
        <time>2019-08-09T11:26:38.761Z</time>
      </trkpt>
      <trkpt lat="44.55085" lon="1.75753">
        <ele>246</ele>
        <time>2019-08-09T11:26:43.766Z</time>
      </trkpt>
      <trkpt lat="44.55081" lon="1.7576">
        <ele>246</ele>
        <time>2019-08-09T11:26:48.764Z</time>
      </trkpt>
      <trkpt lat="44.55078" lon="1.75766">
        <ele>245</ele>
        <time>2019-08-09T11:26:53.755Z</time>
      </trkpt>
      <trkpt lat="44.55079" lon="1.75772">
        <ele>245</ele>
        <time>2019-08-09T11:26:58.771Z</time>
      </trkpt>
      <trkpt lat="44.55086" lon="1.7578">
        <ele>245</ele>
        <time>2019-08-09T11:27:03.764Z</time>
      </trkpt>
      <trkpt lat="44.55089" lon="1.75785">
        <ele>245</ele>
        <time>2019-08-09T11:27:08.766Z</time>
      </trkpt>
      <trkpt lat="44.55097" lon="1.7579">
        <ele>245</ele>
        <time>2019-08-09T11:27:13.770Z</time>
      </trkpt>
      <trkpt lat="44.55103" lon="1.75795">
        <ele>245</ele>
        <time>2019-08-09T11:27:18.764Z</time>
      </trkpt>
      <trkpt lat="44.55108" lon="1.75802">
        <ele>245</ele>
        <time>2019-08-09T11:27:23.766Z</time>
      </trkpt>
      <trkpt lat="44.55112" lon="1.7581">
        <ele>245</ele>
        <time>2019-08-09T11:27:28.768Z</time>
      </trkpt>
      <trkpt lat="44.55118" lon="1.7582">
        <ele>246</ele>
        <time>2019-08-09T11:27:33.769Z</time>
      </trkpt>
      <trkpt lat="44.55119" lon="1.75828">
        <ele>246</ele>
        <time>2019-08-09T11:27:38.769Z</time>
      </trkpt>
      <trkpt lat="44.55123" lon="1.75838">
        <ele>246</ele>
        <time>2019-08-09T11:27:43.768Z</time>
      </trkpt>
      <trkpt lat="44.55126" lon="1.75849">
        <ele>248</ele>
        <time>2019-08-09T11:27:48.768Z</time>
      </trkpt>
      <trkpt lat="44.5513" lon="1.75856">
        <ele>248</ele>
        <time>2019-08-09T11:27:53.762Z</time>
      </trkpt>
      <trkpt lat="44.55131" lon="1.75865">
        <ele>248</ele>
        <time>2019-08-09T11:27:58.756Z</time>
      </trkpt>
      <trkpt lat="44.5513" lon="1.75871">
        <ele>248</ele>
        <time>2019-08-09T11:28:02.761Z</time>
      </trkpt>
      <trkpt lat="44.55134" lon="1.75879">
        <ele>250</ele>
        <time>2019-08-09T11:28:07.764Z</time>
      </trkpt>
      <trkpt lat="44.55139" lon="1.75888">
        <ele>250</ele>
        <time>2019-08-09T11:28:12.767Z</time>
      </trkpt>
      <trkpt lat="44.55143" lon="1.75896">
        <ele>250</ele>
        <time>2019-08-09T11:28:17.761Z</time>
      </trkpt>
      <trkpt lat="44.55146" lon="1.75903">
        <ele>251</ele>
        <time>2019-08-09T11:28:22.752Z</time>
      </trkpt>
      <trkpt lat="44.55146" lon="1.75908">
        <ele>251</ele>
        <time>2019-08-09T11:28:26.763Z</time>
      </trkpt>
      <trkpt lat="44.55146" lon="1.7591">
        <ele>251</ele>
        <time>2019-08-09T11:28:30.754Z</time>
      </trkpt>
      <trkpt lat="44.55148" lon="1.7592">
        <ele>251</ele>
        <time>2019-08-09T11:28:35.765Z</time>
      </trkpt>
      <trkpt lat="44.55148" lon="1.75929">
        <ele>251</ele>
        <time>2019-08-09T11:28:40.758Z</time>
      </trkpt>
      <trkpt lat="44.55148" lon="1.75936">
        <ele>251</ele>
        <time>2019-08-09T11:28:45.765Z</time>
      </trkpt>
      <trkpt lat="44.55149" lon="1.75947">
        <ele>251</ele>
        <time>2019-08-09T11:28:50.758Z</time>
      </trkpt>
      <trkpt lat="44.55152" lon="1.75956">
        <ele>251</ele>
        <time>2019-08-09T11:28:55.764Z</time>
      </trkpt>
      <trkpt lat="44.55154" lon="1.75965">
        <ele>249</ele>
        <time>2019-08-09T11:29:00.757Z</time>
      </trkpt>
      <trkpt lat="44.55156" lon="1.7597">
        <ele>249</ele>
        <time>2019-08-09T11:29:05.761Z</time>
      </trkpt>
      <trkpt lat="44.5516" lon="1.75975">
        <ele>249</ele>
        <time>2019-08-09T11:29:10.756Z</time>
      </trkpt>
      <trkpt lat="44.55164" lon="1.75978">
        <ele>249</ele>
        <time>2019-08-09T11:29:15.768Z</time>
      </trkpt>
      <trkpt lat="44.55167" lon="1.75984">
        <ele>249</ele>
        <time>2019-08-09T11:29:20.754Z</time>
      </trkpt>
      <trkpt lat="44.55168" lon="1.75986">
        <ele>249</ele>
        <time>2019-08-09T11:29:25.763Z</time>
      </trkpt>
      <trkpt lat="44.55168" lon="1.75987">
        <ele>248</ele>
        <time>2019-08-09T11:29:29.771Z</time>
      </trkpt>
      <trkpt lat="44.5517" lon="1.75993">
        <ele>248</ele>
        <time>2019-08-09T11:29:34.763Z</time>
      </trkpt>
      <trkpt lat="44.55173" lon="1.76">
        <ele>248</ele>
        <time>2019-08-09T11:29:39.770Z</time>
      </trkpt>
      <trkpt lat="44.55182" lon="1.76003">
        <ele>253</ele>
        <time>2019-08-09T11:29:44.775Z</time>
      </trkpt>
      <trkpt lat="44.55184" lon="1.76009">
        <ele>253</ele>
        <time>2019-08-09T11:29:49.772Z</time>
      </trkpt>
      <trkpt lat="44.55186" lon="1.76019">
        <ele>249</ele>
        <time>2019-08-09T11:29:54.773Z</time>
      </trkpt>
      <trkpt lat="44.55185" lon="1.76031">
        <ele>249</ele>
        <time>2019-08-09T11:29:59.776Z</time>
      </trkpt>
      <trkpt lat="44.55182" lon="1.76035">
        <ele>249</ele>
        <time>2019-08-09T11:30:04.758Z</time>
      </trkpt>
      <trkpt lat="44.55181" lon="1.76036">
        <ele>249</ele>
        <time>2019-08-09T11:30:08.776Z</time>
      </trkpt>
      <trkpt lat="44.55181" lon="1.76036">
        <ele>249</ele>
        <time>2019-08-09T11:30:13.776Z</time>
      </trkpt>
      <trkpt lat="44.55184" lon="1.76038">
        <ele>249</ele>
        <time>2019-08-09T11:30:18.775Z</time>
      </trkpt>
      <trkpt lat="44.55188" lon="1.76041">
        <ele>249</ele>
        <time>2019-08-09T11:30:23.771Z</time>
      </trkpt>
      <trkpt lat="44.55191" lon="1.76044">
        <ele>247</ele>
        <time>2019-08-09T11:30:28.778Z</time>
      </trkpt>
      <trkpt lat="44.55193" lon="1.76046">
        <ele>247</ele>
        <time>2019-08-09T11:30:33.774Z</time>
      </trkpt>
      <trkpt lat="44.55197" lon="1.76051">
        <ele>247</ele>
        <time>2019-08-09T11:30:38.777Z</time>
      </trkpt>
      <trkpt lat="44.552" lon="1.76059">
        <ele>247</ele>
        <time>2019-08-09T11:30:43.771Z</time>
      </trkpt>
      <trkpt lat="44.55202" lon="1.76064">
        <ele>247</ele>
        <time>2019-08-09T11:30:48.761Z</time>
      </trkpt>
      <trkpt lat="44.55205" lon="1.76073">
        <ele>238</ele>
        <time>2019-08-09T11:30:53.767Z</time>
      </trkpt>
      <trkpt lat="44.55208" lon="1.76084">
        <ele>238</ele>
        <time>2019-08-09T11:30:58.760Z</time>
      </trkpt>
      <trkpt lat="44.55212" lon="1.7609">
        <ele>249</ele>
        <time>2019-08-09T11:31:02.798Z</time>
      </trkpt>
      <trkpt lat="44.55215" lon="1.76101">
        <ele>241</ele>
        <time>2019-08-09T11:31:07.818Z</time>
      </trkpt>
      <trkpt lat="44.55216" lon="1.76111">
        <ele>241</ele>
        <time>2019-08-09T11:31:12.790Z</time>
      </trkpt>
      <trkpt lat="44.55217" lon="1.76118">
        <ele>241</ele>
        <time>2019-08-09T11:31:16.803Z</time>
      </trkpt>
      <trkpt lat="44.55221" lon="1.76124">
        <ele>241</ele>
        <time>2019-08-09T11:31:21.798Z</time>
      </trkpt>
      <trkpt lat="44.55224" lon="1.76129">
        <ele>236</ele>
        <time>2019-08-09T11:31:26.769Z</time>
      </trkpt>
      <trkpt lat="44.55229" lon="1.76135">
        <ele>236</ele>
        <time>2019-08-09T11:31:31.766Z</time>
      </trkpt>
      <trkpt lat="44.55234" lon="1.76138">
        <ele>236</ele>
        <time>2019-08-09T11:31:36.776Z</time>
      </trkpt>
      <trkpt lat="44.55236" lon="1.76143">
        <ele>236</ele>
        <time>2019-08-09T11:31:41.771Z</time>
      </trkpt>
      <trkpt lat="44.55239" lon="1.76147">
        <ele>251</ele>
        <time>2019-08-09T11:31:46.774Z</time>
      </trkpt>
      <trkpt lat="44.55242" lon="1.76153">
        <ele>251</ele>
        <time>2019-08-09T11:31:51.773Z</time>
      </trkpt>
      <trkpt lat="44.55245" lon="1.7616">
        <ele>249</ele>
        <time>2019-08-09T11:31:56.771Z</time>
      </trkpt>
      <trkpt lat="44.55249" lon="1.76167">
        <ele>249</ele>
        <time>2019-08-09T11:32:01.772Z</time>
      </trkpt>
      <trkpt lat="44.55252" lon="1.76169">
        <ele>249</ele>
        <time>2019-08-09T11:32:06.768Z</time>
      </trkpt>
      <trkpt lat="44.55254" lon="1.7618">
        <ele>249</ele>
        <time>2019-08-09T11:32:11.771Z</time>
      </trkpt>
      <trkpt lat="44.55258" lon="1.7619">
        <ele>244</ele>
        <time>2019-08-09T11:32:16.763Z</time>
      </trkpt>
      <trkpt lat="44.55261" lon="1.76197">
        <ele>244</ele>
        <time>2019-08-09T11:32:21.770Z</time>
      </trkpt>
      <trkpt lat="44.55263" lon="1.76204">
        <ele>244</ele>
        <time>2019-08-09T11:32:25.789Z</time>
      </trkpt>
      <trkpt lat="44.55267" lon="1.76213">
        <ele>249</ele>
        <time>2019-08-09T11:32:30.773Z</time>
      </trkpt>
      <trkpt lat="44.5527" lon="1.76217">
        <ele>249</ele>
        <time>2019-08-09T11:32:35.759Z</time>
      </trkpt>
      <trkpt lat="44.55272" lon="1.76226">
        <ele>249</ele>
        <time>2019-08-09T11:32:40.765Z</time>
      </trkpt>
      <trkpt lat="44.55276" lon="1.76228">
        <ele>249</ele>
        <time>2019-08-09T11:32:45.773Z</time>
      </trkpt>
      <trkpt lat="44.5528" lon="1.7623">
        <ele>249</ele>
        <time>2019-08-09T11:32:50.770Z</time>
      </trkpt>
      <trkpt lat="44.55286" lon="1.76235">
        <ele>249</ele>
        <time>2019-08-09T11:32:55.775Z</time>
      </trkpt>
      <trkpt lat="44.55289" lon="1.76244">
        <ele>244</ele>
        <time>2019-08-09T11:33:00.774Z</time>
      </trkpt>
      <trkpt lat="44.55295" lon="1.76253">
        <ele>253</ele>
        <time>2019-08-09T11:33:05.774Z</time>
      </trkpt>
      <trkpt lat="44.55298" lon="1.76262">
        <ele>253</ele>
        <time>2019-08-09T11:33:10.771Z</time>
      </trkpt>
      <trkpt lat="44.55302" lon="1.76264">
        <ele>248</ele>
        <time>2019-08-09T11:33:15.768Z</time>
      </trkpt>
      <trkpt lat="44.55305" lon="1.7627">
        <ele>248</ele>
        <time>2019-08-09T11:33:20.758Z</time>
      </trkpt>
      <trkpt lat="44.55306" lon="1.76276">
        <ele>248</ele>
        <time>2019-08-09T11:33:24.772Z</time>
      </trkpt>
      <trkpt lat="44.55307" lon="1.76287">
        <ele>248</ele>
        <time>2019-08-09T11:33:29.776Z</time>
      </trkpt>
      <trkpt lat="44.55309" lon="1.76296">
        <ele>245</ele>
        <time>2019-08-09T11:33:34.771Z</time>
      </trkpt>
      <trkpt lat="44.55312" lon="1.763">
        <ele>245</ele>
        <time>2019-08-09T11:33:39.775Z</time>
      </trkpt>
      <trkpt lat="44.55314" lon="1.76307">
        <ele>245</ele>
        <time>2019-08-09T11:33:44.772Z</time>
      </trkpt>
      <trkpt lat="44.55317" lon="1.76313">
        <ele>245</ele>
        <time>2019-08-09T11:33:49.771Z</time>
      </trkpt>
      <trkpt lat="44.5532" lon="1.76317">
        <ele>254</ele>
        <time>2019-08-09T11:33:54.771Z</time>
      </trkpt>
      <trkpt lat="44.55322" lon="1.76323">
        <ele>251</ele>
        <time>2019-08-09T11:33:59.789Z</time>
      </trkpt>
      <trkpt lat="44.55324" lon="1.76331">
        <ele>251</ele>
        <time>2019-08-09T11:34:04.788Z</time>
      </trkpt>
      <trkpt lat="44.55327" lon="1.76338">
        <ele>251</ele>
        <time>2019-08-09T11:34:09.771Z</time>
      </trkpt>
      <trkpt lat="44.55329" lon="1.76345">
        <ele>251</ele>
        <time>2019-08-09T11:34:14.776Z</time>
      </trkpt>
      <trkpt lat="44.55331" lon="1.7635">
        <ele>247</ele>
        <time>2019-08-09T11:34:19.771Z</time>
      </trkpt>
      <trkpt lat="44.55334" lon="1.76357">
        <ele>247</ele>
        <time>2019-08-09T11:34:24.766Z</time>
      </trkpt>
      <trkpt lat="44.55336" lon="1.76369">
        <ele>247</ele>
        <time>2019-08-09T11:34:28.777Z</time>
      </trkpt>
      <trkpt lat="44.55339" lon="1.76377">
        <ele>243</ele>
        <time>2019-08-09T11:34:33.772Z</time>
      </trkpt>
      <trkpt lat="44.55344" lon="1.76386">
        <ele>243</ele>
        <time>2019-08-09T11:34:38.770Z</time>
      </trkpt>
      <trkpt lat="44.5535" lon="1.76393">
        <ele>252</ele>
        <time>2019-08-09T11:34:43.775Z</time>
      </trkpt>
      <trkpt lat="44.55355" lon="1.764">
        <ele>252</ele>
        <time>2019-08-09T11:34:48.772Z</time>
      </trkpt>
      <trkpt lat="44.55358" lon="1.76406">
        <ele>249</ele>
        <time>2019-08-09T11:34:53.775Z</time>
      </trkpt>
      <trkpt lat="44.5536" lon="1.76414">
        <ele>249</ele>
        <time>2019-08-09T11:34:58.775Z</time>
      </trkpt>
      <trkpt lat="44.55365" lon="1.76421">
        <ele>249</ele>
        <time>2019-08-09T11:35:03.770Z</time>
      </trkpt>
      <trkpt lat="44.55368" lon="1.76422">
        <ele>249</ele>
        <time>2019-08-09T11:35:08.784Z</time>
      </trkpt>
      <trkpt lat="44.55371" lon="1.76433">
        <ele>245</ele>
        <time>2019-08-09T11:35:13.773Z</time>
      </trkpt>
      <trkpt lat="44.55377" lon="1.76438">
        <ele>252</ele>
        <time>2019-08-09T11:35:18.772Z</time>
      </trkpt>
      <trkpt lat="44.55381" lon="1.76445">
        <ele>252</ele>
        <time>2019-08-09T11:35:23.774Z</time>
      </trkpt>
      <trkpt lat="44.55389" lon="1.76445">
        <ele>252</ele>
        <time>2019-08-09T11:35:28.763Z</time>
      </trkpt>
      <trkpt lat="44.55395" lon="1.76447">
        <ele>252</ele>
        <time>2019-08-09T11:35:33.771Z</time>
      </trkpt>
      <trkpt lat="44.554" lon="1.76452">
        <ele>252</ele>
        <time>2019-08-09T11:35:38.774Z</time>
      </trkpt>
      <trkpt lat="44.55408" lon="1.76454">
        <ele>258</ele>
        <time>2019-08-09T11:35:43.774Z</time>
      </trkpt>
      <trkpt lat="44.55419" lon="1.76456">
        <ele>258</ele>
        <time>2019-08-09T11:35:48.771Z</time>
      </trkpt>
      <trkpt lat="44.55424" lon="1.76458">
        <ele>258</ele>
        <time>2019-08-09T11:35:53.770Z</time>
      </trkpt>
      <trkpt lat="44.55429" lon="1.76459">
        <ele>255</ele>
        <time>2019-08-09T11:35:58.770Z</time>
      </trkpt>
      <trkpt lat="44.55434" lon="1.76459">
        <ele>257</ele>
        <time>2019-08-09T11:36:03.770Z</time>
      </trkpt>
      <trkpt lat="44.5544" lon="1.76459">
        <ele>257</ele>
        <time>2019-08-09T11:36:08.768Z</time>
      </trkpt>
      <trkpt lat="44.55448" lon="1.76461">
        <ele>257</ele>
        <time>2019-08-09T11:36:13.767Z</time>
      </trkpt>
      <trkpt lat="44.55453" lon="1.76458">
        <ele>257</ele>
        <time>2019-08-09T11:36:18.769Z</time>
      </trkpt>
      <trkpt lat="44.55459" lon="1.76454">
        <ele>262</ele>
        <time>2019-08-09T11:36:23.771Z</time>
      </trkpt>
      <trkpt lat="44.55464" lon="1.76454">
        <ele>262</ele>
        <time>2019-08-09T11:36:28.765Z</time>
      </trkpt>
      <trkpt lat="44.55473" lon="1.76459">
        <ele>257</ele>
        <time>2019-08-09T11:36:33.770Z</time>
      </trkpt>
      <trkpt lat="44.55478" lon="1.76458">
        <ele>262</ele>
        <time>2019-08-09T11:36:38.768Z</time>
      </trkpt>
      <trkpt lat="44.55488" lon="1.76457">
        <ele>260</ele>
        <time>2019-08-09T11:36:43.771Z</time>
      </trkpt>
      <trkpt lat="44.55498" lon="1.76458">
        <ele>260</ele>
        <time>2019-08-09T11:36:48.772Z</time>
      </trkpt>
      <trkpt lat="44.55508" lon="1.76457">
        <ele>260</ele>
        <time>2019-08-09T11:36:53.770Z</time>
      </trkpt>
      <trkpt lat="44.55512" lon="1.76459">
        <ele>254</ele>
        <time>2019-08-09T11:36:58.761Z</time>
      </trkpt>
      <trkpt lat="44.55516" lon="1.76464">
        <ele>254</ele>
        <time>2019-08-09T11:37:03.762Z</time>
      </trkpt>
      <trkpt lat="44.5552" lon="1.76471">
        <ele>254</ele>
        <time>2019-08-09T11:37:08.761Z</time>
      </trkpt>
      <trkpt lat="44.55523" lon="1.76479">
        <ele>254</ele>
        <time>2019-08-09T11:37:13.776Z</time>
      </trkpt>
      <trkpt lat="44.55527" lon="1.76486">
        <ele>250</ele>
        <time>2019-08-09T11:37:18.772Z</time>
      </trkpt>
      <trkpt lat="44.55531" lon="1.76495">
        <ele>250</ele>
        <time>2019-08-09T11:37:23.770Z</time>
      </trkpt>
      <trkpt lat="44.55534" lon="1.76502">
        <ele>250</ele>
        <time>2019-08-09T11:37:28.771Z</time>
      </trkpt>
      <trkpt lat="44.55537" lon="1.76513">
        <ele>250</ele>
        <time>2019-08-09T11:37:33.770Z</time>
      </trkpt>
      <trkpt lat="44.5554" lon="1.7652">
        <ele>246</ele>
        <time>2019-08-09T11:37:38.774Z</time>
      </trkpt>
      <trkpt lat="44.55541" lon="1.76522">
        <ele>246</ele>
        <time>2019-08-09T11:37:43.780Z</time>
      </trkpt>
      <trkpt lat="44.5554" lon="1.76523">
        <ele>246</ele>
        <time>2019-08-09T11:37:48.772Z</time>
      </trkpt>
      <trkpt lat="44.5554" lon="1.76523">
        <ele>246</ele>
        <time>2019-08-09T11:37:53.771Z</time>
      </trkpt>
      <trkpt lat="44.5554" lon="1.76529">
        <ele>246</ele>
        <time>2019-08-09T11:37:58.773Z</time>
      </trkpt>
      <trkpt lat="44.55542" lon="1.76538">
        <ele>252</ele>
        <time>2019-08-09T11:38:03.776Z</time>
      </trkpt>
      <trkpt lat="44.55545" lon="1.76546">
        <ele>247</ele>
        <time>2019-08-09T11:38:08.768Z</time>
      </trkpt>
      <trkpt lat="44.55546" lon="1.76553">
        <ele>247</ele>
        <time>2019-08-09T11:38:12.788Z</time>
      </trkpt>
      <trkpt lat="44.55546" lon="1.7656">
        <ele>247</ele>
        <time>2019-08-09T11:38:17.772Z</time>
      </trkpt>
      <trkpt lat="44.55547" lon="1.76569">
        <ele>247</ele>
        <time>2019-08-09T11:38:22.775Z</time>
      </trkpt>
      <trkpt lat="44.55549" lon="1.76575">
        <ele>242</ele>
        <time>2019-08-09T11:38:27.767Z</time>
      </trkpt>
      <trkpt lat="44.55551" lon="1.76579">
        <ele>242</ele>
        <time>2019-08-09T11:38:31.775Z</time>
      </trkpt>
      <trkpt lat="44.55552" lon="1.76586">
        <ele>242</ele>
        <time>2019-08-09T11:38:36.773Z</time>
      </trkpt>
      <trkpt lat="44.55556" lon="1.76595">
        <ele>242</ele>
        <time>2019-08-09T11:38:41.775Z</time>
      </trkpt>
      <trkpt lat="44.5556" lon="1.76603">
        <ele>238</ele>
        <time>2019-08-09T11:38:46.772Z</time>
      </trkpt>
      <trkpt lat="44.55565" lon="1.76612">
        <ele>238</ele>
        <time>2019-08-09T11:38:51.769Z</time>
      </trkpt>
      <trkpt lat="44.5557" lon="1.76622">
        <ele>247</ele>
        <time>2019-08-09T11:38:56.772Z</time>
      </trkpt>
      <trkpt lat="44.55575" lon="1.76629">
        <ele>242</ele>
        <time>2019-08-09T11:39:01.774Z</time>
      </trkpt>
      <trkpt lat="44.55582" lon="1.76634">
        <ele>242</ele>
        <time>2019-08-09T11:39:06.776Z</time>
      </trkpt>
      <trkpt lat="44.55588" lon="1.76638">
        <ele>242</ele>
        <time>2019-08-09T11:39:11.763Z</time>
      </trkpt>
      <trkpt lat="44.55593" lon="1.76639">
        <ele>242</ele>
        <time>2019-08-09T11:39:15.773Z</time>
      </trkpt>
      <trkpt lat="44.55599" lon="1.76642">
        <ele>245</ele>
        <time>2019-08-09T11:39:20.773Z</time>
      </trkpt>
      <trkpt lat="44.55603" lon="1.76644">
        <ele>245</ele>
        <time>2019-08-09T11:39:25.771Z</time>
      </trkpt>
      <trkpt lat="44.55607" lon="1.76647">
        <ele>245</ele>
        <time>2019-08-09T11:39:30.771Z</time>
      </trkpt>
      <trkpt lat="44.55614" lon="1.76649">
        <ele>245</ele>
        <time>2019-08-09T11:39:35.768Z</time>
      </trkpt>
      <trkpt lat="44.55621" lon="1.76649">
        <ele>245</ele>
        <time>2019-08-09T11:39:40.769Z</time>
      </trkpt>
      <trkpt lat="44.5563" lon="1.76648">
        <ele>247</ele>
        <time>2019-08-09T11:39:45.772Z</time>
      </trkpt>
      <trkpt lat="44.55638" lon="1.76651">
        <ele>247</ele>
        <time>2019-08-09T11:39:50.771Z</time>
      </trkpt>
      <trkpt lat="44.55644" lon="1.76652">
        <ele>247</ele>
        <time>2019-08-09T11:39:55.771Z</time>
      </trkpt>
      <trkpt lat="44.55649" lon="1.76656">
        <ele>244</ele>
        <time>2019-08-09T11:40:00.772Z</time>
      </trkpt>
      <trkpt lat="44.55654" lon="1.76658">
        <ele>250</ele>
        <time>2019-08-09T11:40:05.767Z</time>
      </trkpt>
      <trkpt lat="44.5566" lon="1.76662">
        <ele>250</ele>
        <time>2019-08-09T11:40:10.772Z</time>
      </trkpt>
      <trkpt lat="44.55666" lon="1.76663">
        <ele>250</ele>
        <time>2019-08-09T11:40:15.759Z</time>
      </trkpt>
      <trkpt lat="44.55673" lon="1.76664">
        <ele>250</ele>
        <time>2019-08-09T11:40:19.772Z</time>
      </trkpt>
      <trkpt lat="44.55682" lon="1.76668">
        <ele>253</ele>
        <time>2019-08-09T11:40:24.767Z</time>
      </trkpt>
      <trkpt lat="44.55687" lon="1.76673">
        <ele>253</ele>
        <time>2019-08-09T11:40:29.775Z</time>
      </trkpt>
      <trkpt lat="44.55692" lon="1.76677">
        <ele>253</ele>
        <time>2019-08-09T11:40:34.772Z</time>
      </trkpt>
      <trkpt lat="44.557" lon="1.76681">
        <ele>248</ele>
        <time>2019-08-09T11:40:39.771Z</time>
      </trkpt>
      <trkpt lat="44.55707" lon="1.76683">
        <ele>248</ele>
        <time>2019-08-09T11:40:44.768Z</time>
      </trkpt>
      <trkpt lat="44.55713" lon="1.76686">
        <ele>251</ele>
        <time>2019-08-09T11:40:49.771Z</time>
      </trkpt>
      <trkpt lat="44.55719" lon="1.76687">
        <ele>251</ele>
        <time>2019-08-09T11:40:54.774Z</time>
      </trkpt>
      <trkpt lat="44.55724" lon="1.7669">
        <ele>251</ele>
        <time>2019-08-09T11:40:59.775Z</time>
      </trkpt>
      <trkpt lat="44.55731" lon="1.76691">
        <ele>251</ele>
        <time>2019-08-09T11:41:04.768Z</time>
      </trkpt>
      <trkpt lat="44.55739" lon="1.76693">
        <ele>254</ele>
        <time>2019-08-09T11:41:09.772Z</time>
      </trkpt>
      <trkpt lat="44.55747" lon="1.76692">
        <ele>254</ele>
        <time>2019-08-09T11:41:14.771Z</time>
      </trkpt>
      <trkpt lat="44.55756" lon="1.76694">
        <ele>254</ele>
        <time>2019-08-09T11:41:19.764Z</time>
      </trkpt>
      <trkpt lat="44.55761" lon="1.76696">
        <ele>254</ele>
        <time>2019-08-09T11:41:24.772Z</time>
      </trkpt>
      <trkpt lat="44.55767" lon="1.76696">
        <ele>255</ele>
        <time>2019-08-09T11:41:29.776Z</time>
      </trkpt>
      <trkpt lat="44.55772" lon="1.76698">
        <ele>255</ele>
        <time>2019-08-09T11:41:34.770Z</time>
      </trkpt>
      <trkpt lat="44.55779" lon="1.76699">
        <ele>255</ele>
        <time>2019-08-09T11:41:39.773Z</time>
      </trkpt>
      <trkpt lat="44.55787" lon="1.767">
        <ele>255</ele>
        <time>2019-08-09T11:41:44.785Z</time>
      </trkpt>
      <trkpt lat="44.55792" lon="1.76701">
        <ele>254</ele>
        <time>2019-08-09T11:41:49.761Z</time>
      </trkpt>
      <trkpt lat="44.55797" lon="1.76701">
        <ele>254</ele>
        <time>2019-08-09T11:41:53.773Z</time>
      </trkpt>
      <trkpt lat="44.55806" lon="1.767">
        <ele>254</ele>
        <time>2019-08-09T11:41:58.762Z</time>
      </trkpt>
      <trkpt lat="44.5581" lon="1.76702">
        <ele>254</ele>
        <time>2019-08-09T11:42:02.771Z</time>
      </trkpt>
      <trkpt lat="44.55812" lon="1.76703">
        <ele>254</ele>
        <time>2019-08-09T11:42:07.771Z</time>
      </trkpt>
      <trkpt lat="44.55816" lon="1.76702">
        <ele>254</ele>
        <time>2019-08-09T11:42:12.771Z</time>
      </trkpt>
      <trkpt lat="44.55822" lon="1.76699">
        <ele>254</ele>
        <time>2019-08-09T11:42:16.761Z</time>
      </trkpt>
      <trkpt lat="44.55829" lon="1.76697">
        <ele>254</ele>
        <time>2019-08-09T11:42:21.770Z</time>
      </trkpt>
      <trkpt lat="44.55837" lon="1.76695">
        <ele>254</ele>
        <time>2019-08-09T11:42:26.760Z</time>
      </trkpt>
      <trkpt lat="44.55843" lon="1.76692">
        <ele>254</ele>
        <time>2019-08-09T11:42:30.773Z</time>
      </trkpt>
      <trkpt lat="44.5585" lon="1.76688">
        <ele>253</ele>
        <time>2019-08-09T11:42:35.768Z</time>
      </trkpt>
      <trkpt lat="44.55858" lon="1.76687">
        <ele>253</ele>
        <time>2019-08-09T11:42:40.767Z</time>
      </trkpt>
      <trkpt lat="44.55866" lon="1.76686">
        <ele>253</ele>
        <time>2019-08-09T11:42:45.767Z</time>
      </trkpt>
      <trkpt lat="44.55873" lon="1.76683">
        <ele>253</ele>
        <time>2019-08-09T11:42:50.768Z</time>
      </trkpt>
      <trkpt lat="44.55877" lon="1.76679">
        <ele>256</ele>
        <time>2019-08-09T11:42:55.770Z</time>
      </trkpt>
      <trkpt lat="44.55885" lon="1.76674">
        <ele>256</ele>
        <time>2019-08-09T11:43:00.769Z</time>
      </trkpt>
      <trkpt lat="44.55893" lon="1.7667">
        <ele>256</ele>
        <time>2019-08-09T11:43:05.768Z</time>
      </trkpt>
      <trkpt lat="44.55899" lon="1.76665">
        <ele>256</ele>
        <time>2019-08-09T11:43:10.766Z</time>
      </trkpt>
      <trkpt lat="44.55905" lon="1.76658">
        <ele>254</ele>
        <time>2019-08-09T11:43:15.774Z</time>
      </trkpt>
      <trkpt lat="44.55912" lon="1.76642">
        <ele>257</ele>
        <time>2019-08-09T11:43:30.772Z</time>
      </trkpt>
      <trkpt lat="44.55915" lon="1.76642">
        <ele>257</ele>
        <time>2019-08-09T11:43:35.767Z</time>
      </trkpt>
      <trkpt lat="44.55921" lon="1.7664">
        <ele>257</ele>
        <time>2019-08-09T11:43:40.767Z</time>
      </trkpt>
      <trkpt lat="44.55928" lon="1.76638">
        <ele>257</ele>
        <time>2019-08-09T11:43:45.768Z</time>
      </trkpt>
      <trkpt lat="44.55936" lon="1.76637">
        <ele>257</ele>
        <time>2019-08-09T11:43:50.771Z</time>
      </trkpt>
      <trkpt lat="44.55943" lon="1.76637">
        <ele>257</ele>
        <time>2019-08-09T11:43:54.854Z</time>
      </trkpt>
      <trkpt lat="44.5595" lon="1.76638">
        <ele>257</ele>
        <time>2019-08-09T11:43:59.768Z</time>
      </trkpt>
      <trkpt lat="44.55955" lon="1.76641">
        <ele>257</ele>
        <time>2019-08-09T11:44:04.768Z</time>
      </trkpt>
      <trkpt lat="44.5596" lon="1.76642">
        <ele>256</ele>
        <time>2019-08-09T11:44:09.771Z</time>
      </trkpt>
      <trkpt lat="44.55964" lon="1.76646">
        <ele>256</ele>
        <time>2019-08-09T11:44:14.769Z</time>
      </trkpt>
      <trkpt lat="44.55969" lon="1.76651">
        <ele>256</ele>
        <time>2019-08-09T11:44:19.771Z</time>
      </trkpt>
      <trkpt lat="44.55974" lon="1.76656">
        <ele>255</ele>
        <time>2019-08-09T11:44:24.769Z</time>
      </trkpt>
      <trkpt lat="44.55982" lon="1.76656">
        <ele>255</ele>
        <time>2019-08-09T11:44:29.768Z</time>
      </trkpt>
      <trkpt lat="44.5599" lon="1.76657">
        <ele>255</ele>
        <time>2019-08-09T11:44:34.763Z</time>
      </trkpt>
      <trkpt lat="44.55997" lon="1.76658">
        <ele>255</ele>
        <time>2019-08-09T11:44:39.770Z</time>
      </trkpt>
      <trkpt lat="44.56005" lon="1.76656">
        <ele>255</ele>
        <time>2019-08-09T11:44:44.767Z</time>
      </trkpt>
      <trkpt lat="44.56011" lon="1.76656">
        <ele>255</ele>
        <time>2019-08-09T11:44:49.768Z</time>
      </trkpt>
      <trkpt lat="44.56019" lon="1.76656">
        <ele>254</ele>
        <time>2019-08-09T11:44:54.770Z</time>
      </trkpt>
      <trkpt lat="44.56022" lon="1.76656">
        <ele>254</ele>
        <time>2019-08-09T11:44:59.767Z</time>
      </trkpt>
      <trkpt lat="44.56025" lon="1.76657">
        <ele>254</ele>
        <time>2019-08-09T11:45:04.771Z</time>
      </trkpt>
      <trkpt lat="44.56032" lon="1.76658">
        <ele>254</ele>
        <time>2019-08-09T11:45:09.769Z</time>
      </trkpt>
      <trkpt lat="44.56039" lon="1.76659">
        <ele>254</ele>
        <time>2019-08-09T11:45:14.770Z</time>
      </trkpt>
      <trkpt lat="44.56045" lon="1.76662">
        <ele>252</ele>
        <time>2019-08-09T11:45:19.767Z</time>
      </trkpt>
      <trkpt lat="44.56051" lon="1.76664">
        <ele>252</ele>
        <time>2019-08-09T11:45:24.771Z</time>
      </trkpt>
      <trkpt lat="44.56059" lon="1.76664">
        <ele>252</ele>
        <time>2019-08-09T11:45:29.767Z</time>
      </trkpt>
      <trkpt lat="44.56064" lon="1.76662">
        <ele>252</ele>
        <time>2019-08-09T11:45:34.769Z</time>
      </trkpt>
      <trkpt lat="44.56072" lon="1.76661">
        <ele>252</ele>
        <time>2019-08-09T11:45:39.762Z</time>
      </trkpt>
      <trkpt lat="44.56078" lon="1.76659">
        <ele>252</ele>
        <time>2019-08-09T11:45:43.778Z</time>
      </trkpt>
      <trkpt lat="44.56086" lon="1.76658">
        <ele>252</ele>
        <time>2019-08-09T11:45:48.766Z</time>
      </trkpt>
      <trkpt lat="44.56095" lon="1.76657">
        <ele>252</ele>
        <time>2019-08-09T11:45:53.778Z</time>
      </trkpt>
      <trkpt lat="44.56104" lon="1.76656">
        <ele>253</ele>
        <time>2019-08-09T11:45:58.766Z</time>
      </trkpt>
      <trkpt lat="44.56111" lon="1.76652">
        <ele>253</ele>
        <time>2019-08-09T11:46:03.768Z</time>
      </trkpt>
      <trkpt lat="44.56117" lon="1.76652">
        <ele>253</ele>
        <time>2019-08-09T11:46:08.764Z</time>
      </trkpt>
      <trkpt lat="44.56123" lon="1.7665">
        <ele>253</ele>
        <time>2019-08-09T11:46:13.767Z</time>
      </trkpt>
      <trkpt lat="44.56128" lon="1.7665">
        <ele>254</ele>
        <time>2019-08-09T11:46:18.765Z</time>
      </trkpt>
      <trkpt lat="44.56134" lon="1.7665">
        <ele>254</ele>
        <time>2019-08-09T11:46:23.763Z</time>
      </trkpt>
      <trkpt lat="44.56142" lon="1.76648">
        <ele>254</ele>
        <time>2019-08-09T11:46:28.767Z</time>
      </trkpt>
      <trkpt lat="44.56149" lon="1.76647">
        <ele>254</ele>
        <time>2019-08-09T11:46:33.767Z</time>
      </trkpt>
      <trkpt lat="44.56154" lon="1.76644">
        <ele>255</ele>
        <time>2019-08-09T11:46:38.766Z</time>
      </trkpt>
      <trkpt lat="44.56158" lon="1.7664">
        <ele>255</ele>
        <time>2019-08-09T11:46:43.765Z</time>
      </trkpt>
      <trkpt lat="44.56164" lon="1.76638">
        <ele>255</ele>
        <time>2019-08-09T11:46:48.766Z</time>
      </trkpt>
      <trkpt lat="44.5617" lon="1.76639">
        <ele>255</ele>
        <time>2019-08-09T11:46:52.779Z</time>
      </trkpt>
      <trkpt lat="44.56175" lon="1.76641">
        <ele>255</ele>
        <time>2019-08-09T11:46:57.772Z</time>
      </trkpt>
      <trkpt lat="44.56181" lon="1.76643">
        <ele>258</ele>
        <time>2019-08-09T11:47:02.765Z</time>
      </trkpt>
      <trkpt lat="44.56187" lon="1.76646">
        <ele>258</ele>
        <time>2019-08-09T11:47:07.759Z</time>
      </trkpt>
      <trkpt lat="44.56193" lon="1.76648">
        <ele>258</ele>
        <time>2019-08-09T11:47:11.771Z</time>
      </trkpt>
      <trkpt lat="44.56199" lon="1.76651">
        <ele>258</ele>
        <time>2019-08-09T11:47:16.766Z</time>
      </trkpt>
      <trkpt lat="44.56205" lon="1.76653">
        <ele>258</ele>
        <time>2019-08-09T11:47:20.772Z</time>
      </trkpt>
      <trkpt lat="44.56214" lon="1.76654">
        <ele>261</ele>
        <time>2019-08-09T11:47:25.767Z</time>
      </trkpt>
      <trkpt lat="44.5622" lon="1.76655">
        <ele>261</ele>
        <time>2019-08-09T11:47:29.757Z</time>
      </trkpt>
      <trkpt lat="44.56226" lon="1.76655">
        <ele>261</ele>
        <time>2019-08-09T11:47:34.763Z</time>
      </trkpt>
      <trkpt lat="44.56233" lon="1.76657">
        <ele>261</ele>
        <time>2019-08-09T11:47:39.764Z</time>
      </trkpt>
      <trkpt lat="44.56242" lon="1.7666">
        <ele>259</ele>
        <time>2019-08-09T11:47:44.769Z</time>
      </trkpt>
      <trkpt lat="44.5625" lon="1.76658">
        <ele>259</ele>
        <time>2019-08-09T11:47:49.770Z</time>
      </trkpt>
      <trkpt lat="44.56256" lon="1.76656">
        <ele>259</ele>
        <time>2019-08-09T11:47:54.767Z</time>
      </trkpt>
      <trkpt lat="44.5626" lon="1.76652">
        <ele>258</ele>
        <time>2019-08-09T11:47:59.766Z</time>
      </trkpt>
      <trkpt lat="44.56268" lon="1.76648">
        <ele>259</ele>
        <time>2019-08-09T11:48:04.769Z</time>
      </trkpt>
      <trkpt lat="44.56274" lon="1.76646">
        <ele>259</ele>
        <time>2019-08-09T11:48:09.768Z</time>
      </trkpt>
      <trkpt lat="44.56279" lon="1.76644">
        <ele>259</ele>
        <time>2019-08-09T11:48:13.777Z</time>
      </trkpt>
      <trkpt lat="44.56287" lon="1.76643">
        <ele>259</ele>
        <time>2019-08-09T11:48:18.773Z</time>
      </trkpt>
      <trkpt lat="44.56294" lon="1.76638">
        <ele>263</ele>
        <time>2019-08-09T11:48:23.768Z</time>
      </trkpt>
      <trkpt lat="44.563" lon="1.76638">
        <ele>263</ele>
        <time>2019-08-09T11:48:28.770Z</time>
      </trkpt>
      <trkpt lat="44.56305" lon="1.76636">
        <ele>263</ele>
        <time>2019-08-09T11:48:33.758Z</time>
      </trkpt>
      <trkpt lat="44.56312" lon="1.76632">
        <ele>263</ele>
        <time>2019-08-09T11:48:38.760Z</time>
      </trkpt>
      <trkpt lat="44.56317" lon="1.76629">
        <ele>263</ele>
        <time>2019-08-09T11:48:43.765Z</time>
      </trkpt>
      <trkpt lat="44.5632" lon="1.7663">
        <ele>265</ele>
        <time>2019-08-09T11:48:48.766Z</time>
      </trkpt>
      <trkpt lat="44.56321" lon="1.76629">
        <ele>265</ele>
        <time>2019-08-09T11:48:53.770Z</time>
      </trkpt>
      <trkpt lat="44.56326" lon="1.76629">
        <ele>265</ele>
        <time>2019-08-09T11:48:58.769Z</time>
      </trkpt>
      <trkpt lat="44.56332" lon="1.76623">
        <ele>266</ele>
        <time>2019-08-09T11:49:03.773Z</time>
      </trkpt>
      <trkpt lat="44.56339" lon="1.76622">
        <ele>266</ele>
        <time>2019-08-09T11:49:08.767Z</time>
      </trkpt>
      <trkpt lat="44.56349" lon="1.76626">
        <ele>265</ele>
        <time>2019-08-09T11:49:13.765Z</time>
      </trkpt>
      <trkpt lat="44.56356" lon="1.76626">
        <ele>265</ele>
        <time>2019-08-09T11:49:18.771Z</time>
      </trkpt>
      <trkpt lat="44.56359" lon="1.76619">
        <ele>266</ele>
        <time>2019-08-09T11:49:23.765Z</time>
      </trkpt>
      <trkpt lat="44.56365" lon="1.76616">
        <ele>266</ele>
        <time>2019-08-09T11:49:33.765Z</time>
      </trkpt>
      <trkpt lat="44.56365" lon="1.76616">
        <ele>266</ele>
        <time>2019-08-09T11:49:38.770Z</time>
      </trkpt>
      <trkpt lat="44.56367" lon="1.76616">
        <ele>266</ele>
        <time>2019-08-09T11:49:43.771Z</time>
      </trkpt>
      <trkpt lat="44.56373" lon="1.76613">
        <ele>266</ele>
        <time>2019-08-09T11:49:48.768Z</time>
      </trkpt>
      <trkpt lat="44.56378" lon="1.7661">
        <ele>265</ele>
        <time>2019-08-09T11:49:53.766Z</time>
      </trkpt>
      <trkpt lat="44.56382" lon="1.76609">
        <ele>265</ele>
        <time>2019-08-09T11:49:58.766Z</time>
      </trkpt>
      <trkpt lat="44.56385" lon="1.76608">
        <ele>265</ele>
        <time>2019-08-09T11:50:03.767Z</time>
      </trkpt>
      <trkpt lat="44.56392" lon="1.76605">
        <ele>265</ele>
        <time>2019-08-09T11:50:08.766Z</time>
      </trkpt>
      <trkpt lat="44.56399" lon="1.76602">
        <ele>265</ele>
        <time>2019-08-09T11:50:13.766Z</time>
      </trkpt>
      <trkpt lat="44.56405" lon="1.76599">
        <ele>268</ele>
        <time>2019-08-09T11:50:18.763Z</time>
      </trkpt>
      <trkpt lat="44.56408" lon="1.766">
        <ele>268</ele>
        <time>2019-08-09T11:50:23.763Z</time>
      </trkpt>
      <trkpt lat="44.56416" lon="1.76598">
        <ele>268</ele>
        <time>2019-08-09T11:50:28.764Z</time>
      </trkpt>
      <trkpt lat="44.56424" lon="1.76598">
        <ele>268</ele>
        <time>2019-08-09T11:50:33.764Z</time>
      </trkpt>
      <trkpt lat="44.56431" lon="1.76599">
        <ele>270</ele>
        <time>2019-08-09T11:50:38.762Z</time>
      </trkpt>
      <trkpt lat="44.56438" lon="1.76598">
        <ele>270</ele>
        <time>2019-08-09T11:50:43.770Z</time>
      </trkpt>
      <trkpt lat="44.56442" lon="1.76597">
        <ele>272</ele>
        <time>2019-08-09T11:50:48.769Z</time>
      </trkpt>
      <trkpt lat="44.56442" lon="1.76593">
        <ele>272</ele>
        <time>2019-08-09T11:50:53.774Z</time>
      </trkpt>
      <trkpt lat="44.56446" lon="1.7659">
        <ele>272</ele>
        <time>2019-08-09T11:50:58.767Z</time>
      </trkpt>
      <trkpt lat="44.56456" lon="1.76586">
        <ele>272</ele>
        <time>2019-08-09T11:51:03.768Z</time>
      </trkpt>
      <trkpt lat="44.56464" lon="1.76585">
        <ele>273</ele>
        <time>2019-08-09T11:51:08.764Z</time>
      </trkpt>
      <trkpt lat="44.56472" lon="1.76582">
        <ele>273</ele>
        <time>2019-08-09T11:51:13.765Z</time>
      </trkpt>
      <trkpt lat="44.5648" lon="1.76577">
        <ele>273</ele>
        <time>2019-08-09T11:51:18.764Z</time>
      </trkpt>
      <trkpt lat="44.56488" lon="1.76576">
        <ele>276</ele>
        <time>2019-08-09T11:51:23.763Z</time>
      </trkpt>
      <trkpt lat="44.56494" lon="1.76573">
        <ele>276</ele>
        <time>2019-08-09T11:51:28.768Z</time>
      </trkpt>
      <trkpt lat="44.565" lon="1.76569">
        <ele>276</ele>
        <time>2019-08-09T11:51:33.768Z</time>
      </trkpt>
      <trkpt lat="44.56507" lon="1.76566">
        <ele>276</ele>
        <time>2019-08-09T11:51:38.769Z</time>
      </trkpt>
      <trkpt lat="44.56516" lon="1.76565">
        <ele>277</ele>
        <time>2019-08-09T11:51:43.765Z</time>
      </trkpt>
      <trkpt lat="44.56522" lon="1.76562">
        <ele>277</ele>
        <time>2019-08-09T11:51:48.765Z</time>
      </trkpt>
      <trkpt lat="44.56528" lon="1.76557">
        <ele>277</ele>
        <time>2019-08-09T11:51:53.766Z</time>
      </trkpt>
      <trkpt lat="44.56536" lon="1.76552">
        <ele>277</ele>
        <time>2019-08-09T11:51:58.767Z</time>
      </trkpt>
      <trkpt lat="44.56543" lon="1.76547">
        <ele>278</ele>
        <time>2019-08-09T11:52:03.766Z</time>
      </trkpt>
      <trkpt lat="44.56547" lon="1.7654">
        <ele>278</ele>
        <time>2019-08-09T11:52:08.761Z</time>
      </trkpt>
      <trkpt lat="44.56553" lon="1.76535">
        <ele>278</ele>
        <time>2019-08-09T11:52:13.761Z</time>
      </trkpt>
      <trkpt lat="44.56557" lon="1.76528">
        <ele>278</ele>
        <time>2019-08-09T11:52:18.764Z</time>
      </trkpt>
      <trkpt lat="44.56562" lon="1.76521">
        <ele>278</ele>
        <time>2019-08-09T11:52:23.763Z</time>
      </trkpt>
      <trkpt lat="44.56564" lon="1.76517">
        <ele>278</ele>
        <time>2019-08-09T11:52:28.767Z</time>
      </trkpt>
      <trkpt lat="44.56564" lon="1.76515">
        <ele>278</ele>
        <time>2019-08-09T11:52:33.769Z</time>
      </trkpt>
      <trkpt lat="44.56564" lon="1.76508">
        <ele>277</ele>
        <time>2019-08-09T11:52:38.764Z</time>
      </trkpt>
      <trkpt lat="44.56567" lon="1.765">
        <ele>277</ele>
        <time>2019-08-09T11:52:43.767Z</time>
      </trkpt>
      <trkpt lat="44.56576" lon="1.76492">
        <ele>276</ele>
        <time>2019-08-09T11:52:48.764Z</time>
      </trkpt>
      <trkpt lat="44.56585" lon="1.76487">
        <ele>276</ele>
        <time>2019-08-09T11:52:53.770Z</time>
      </trkpt>
      <trkpt lat="44.56591" lon="1.7648">
        <ele>275</ele>
        <time>2019-08-09T11:52:58.767Z</time>
      </trkpt>
      <trkpt lat="44.56597" lon="1.76474">
        <ele>275</ele>
        <time>2019-08-09T11:53:03.763Z</time>
      </trkpt>
      <trkpt lat="44.56603" lon="1.76467">
        <ele>274</ele>
        <time>2019-08-09T11:53:08.759Z</time>
      </trkpt>
      <trkpt lat="44.56606" lon="1.76459">
        <ele>274</ele>
        <time>2019-08-09T11:53:13.764Z</time>
      </trkpt>
      <trkpt lat="44.56612" lon="1.76453">
        <ele>275</ele>
        <time>2019-08-09T11:53:18.753Z</time>
      </trkpt>
      <trkpt lat="44.56615" lon="1.76448">
        <ele>275</ele>
        <time>2019-08-09T11:53:22.764Z</time>
      </trkpt>
      <trkpt lat="44.56621" lon="1.76441">
        <ele>275</ele>
        <time>2019-08-09T11:53:27.769Z</time>
      </trkpt>
      <trkpt lat="44.56627" lon="1.76435">
        <ele>275</ele>
        <time>2019-08-09T11:53:32.755Z</time>
      </trkpt>
      <trkpt lat="44.56632" lon="1.76431">
        <ele>275</ele>
        <time>2019-08-09T11:53:36.764Z</time>
      </trkpt>
      <trkpt lat="44.56637" lon="1.76426">
        <ele>276</ele>
        <time>2019-08-09T11:53:41.766Z</time>
      </trkpt>
      <trkpt lat="44.56642" lon="1.76416">
        <ele>276</ele>
        <time>2019-08-09T11:53:46.765Z</time>
      </trkpt>
      <trkpt lat="44.56646" lon="1.76407">
        <ele>276</ele>
        <time>2019-08-09T11:53:51.762Z</time>
      </trkpt>
      <trkpt lat="44.56651" lon="1.76401">
        <ele>276</ele>
        <time>2019-08-09T11:53:55.772Z</time>
      </trkpt>
      <trkpt lat="44.56657" lon="1.76394">
        <ele>276</ele>
        <time>2019-08-09T11:54:00.762Z</time>
      </trkpt>
      <trkpt lat="44.56661" lon="1.76389">
        <ele>276</ele>
        <time>2019-08-09T11:54:05.761Z</time>
      </trkpt>
      <trkpt lat="44.56665" lon="1.76381">
        <ele>276</ele>
        <time>2019-08-09T11:54:10.760Z</time>
      </trkpt>
      <trkpt lat="44.5667" lon="1.76376">
        <ele>276</ele>
        <time>2019-08-09T11:54:15.753Z</time>
      </trkpt>
      <trkpt lat="44.56672" lon="1.76369">
        <ele>277</ele>
        <time>2019-08-09T11:54:20.760Z</time>
      </trkpt>
      <trkpt lat="44.56672" lon="1.76368">
        <ele>277</ele>
        <time>2019-08-09T11:54:24.770Z</time>
      </trkpt>
      <trkpt lat="44.56673" lon="1.76363">
        <ele>277</ele>
        <time>2019-08-09T11:54:29.764Z</time>
      </trkpt>
      <trkpt lat="44.56681" lon="1.76357">
        <ele>276</ele>
        <time>2019-08-09T11:54:34.762Z</time>
      </trkpt>
      <trkpt lat="44.56687" lon="1.76352">
        <ele>276</ele>
        <time>2019-08-09T11:54:38.775Z</time>
      </trkpt>
      <trkpt lat="44.56692" lon="1.76344">
        <ele>277</ele>
        <time>2019-08-09T11:54:43.766Z</time>
      </trkpt>
      <trkpt lat="44.56697" lon="1.76339">
        <ele>277</ele>
        <time>2019-08-09T11:54:48.764Z</time>
      </trkpt>
      <trkpt lat="44.56701" lon="1.76333">
        <ele>277</ele>
        <time>2019-08-09T11:54:53.761Z</time>
      </trkpt>
      <trkpt lat="44.56706" lon="1.76325">
        <ele>277</ele>
        <time>2019-08-09T11:54:58.764Z</time>
      </trkpt>
      <trkpt lat="44.56711" lon="1.76317">
        <ele>278</ele>
        <time>2019-08-09T11:55:03.763Z</time>
      </trkpt>
      <trkpt lat="44.56714" lon="1.76314">
        <ele>278</ele>
        <time>2019-08-09T11:55:08.763Z</time>
      </trkpt>
      <trkpt lat="44.56714" lon="1.76313">
        <ele>278</ele>
        <time>2019-08-09T11:55:13.768Z</time>
      </trkpt>
      <trkpt lat="44.56718" lon="1.76308">
        <ele>278</ele>
        <time>2019-08-09T11:55:18.765Z</time>
      </trkpt>
      <trkpt lat="44.56726" lon="1.76302">
        <ele>278</ele>
        <time>2019-08-09T11:55:23.763Z</time>
      </trkpt>
      <trkpt lat="44.56732" lon="1.76296">
        <ele>278</ele>
        <time>2019-08-09T11:55:28.766Z</time>
      </trkpt>
      <trkpt lat="44.56738" lon="1.7629">
        <ele>278</ele>
        <time>2019-08-09T11:55:33.765Z</time>
      </trkpt>
      <trkpt lat="44.56744" lon="1.76286">
        <ele>278</ele>
        <time>2019-08-09T11:55:38.769Z</time>
      </trkpt>
      <trkpt lat="44.56748" lon="1.76282">
        <ele>278</ele>
        <time>2019-08-09T11:55:43.764Z</time>
      </trkpt>
      <trkpt lat="44.56752" lon="1.76278">
        <ele>278</ele>
        <time>2019-08-09T11:55:48.766Z</time>
      </trkpt>
      <trkpt lat="44.56757" lon="1.76272">
        <ele>278</ele>
        <time>2019-08-09T11:55:53.763Z</time>
      </trkpt>
      <trkpt lat="44.56762" lon="1.76266">
        <ele>278</ele>
        <time>2019-08-09T11:55:58.763Z</time>
      </trkpt>
      <trkpt lat="44.56762" lon="1.76263">
        <ele>281</ele>
        <time>2019-08-09T11:56:03.751Z</time>
      </trkpt>
      <trkpt lat="44.56763" lon="1.76262">
        <ele>281</ele>
        <time>2019-08-09T11:56:07.763Z</time>
      </trkpt>
      <trkpt lat="44.56768" lon="1.76257">
        <ele>279</ele>
        <time>2019-08-09T11:56:12.760Z</time>
      </trkpt>
      <trkpt lat="44.56774" lon="1.76252">
        <ele>279</ele>
        <time>2019-08-09T11:56:17.766Z</time>
      </trkpt>
      <trkpt lat="44.56779" lon="1.76248">
        <ele>279</ele>
        <time>2019-08-09T11:56:22.767Z</time>
      </trkpt>
      <trkpt lat="44.56785" lon="1.76242">
        <ele>279</ele>
        <time>2019-08-09T11:56:27.757Z</time>
      </trkpt>
      <trkpt lat="44.56791" lon="1.76239">
        <ele>279</ele>
        <time>2019-08-09T11:56:31.767Z</time>
      </trkpt>
      <trkpt lat="44.56797" lon="1.76235">
        <ele>283</ele>
        <time>2019-08-09T11:56:36.768Z</time>
      </trkpt>
      <trkpt lat="44.56804" lon="1.76232">
        <ele>283</ele>
        <time>2019-08-09T11:56:41.765Z</time>
      </trkpt>
      <trkpt lat="44.56812" lon="1.76229">
        <ele>283</ele>
        <time>2019-08-09T11:56:46.765Z</time>
      </trkpt>
      <trkpt lat="44.56819" lon="1.76226">
        <ele>283</ele>
        <time>2019-08-09T11:56:51.770Z</time>
      </trkpt>
      <trkpt lat="44.56827" lon="1.76224">
        <ele>281</ele>
        <time>2019-08-09T11:56:56.770Z</time>
      </trkpt>
      <trkpt lat="44.56833" lon="1.76224">
        <ele>281</ele>
        <time>2019-08-09T11:57:01.754Z</time>
      </trkpt>
      <trkpt lat="44.56839" lon="1.76223">
        <ele>281</ele>
        <time>2019-08-09T11:57:05.762Z</time>
      </trkpt>
      <trkpt lat="44.56856" lon="1.76222">
        <ele>281</ele>
        <time>2019-08-09T11:57:25.763Z</time>
      </trkpt>
      <trkpt lat="44.56857" lon="1.76222">
        <ele>281</ele>
        <time>2019-08-09T11:57:30.767Z</time>
      </trkpt>
      <trkpt lat="44.56858" lon="1.76221">
        <ele>281</ele>
        <time>2019-08-09T11:57:35.766Z</time>
      </trkpt>
      <trkpt lat="44.56863" lon="1.76217">
        <ele>281</ele>
        <time>2019-08-09T11:57:40.764Z</time>
      </trkpt>
      <trkpt lat="44.56869" lon="1.76215">
        <ele>281</ele>
        <time>2019-08-09T11:57:45.768Z</time>
      </trkpt>
      <trkpt lat="44.56875" lon="1.76213">
        <ele>281</ele>
        <time>2019-08-09T11:57:50.760Z</time>
      </trkpt>
      <trkpt lat="44.56883" lon="1.76213">
        <ele>281</ele>
        <time>2019-08-09T11:57:55.767Z</time>
      </trkpt>
      <trkpt lat="44.56889" lon="1.76212">
        <ele>281</ele>
        <time>2019-08-09T11:58:00.769Z</time>
      </trkpt>
      <trkpt lat="44.56893" lon="1.76215">
        <ele>281</ele>
        <time>2019-08-09T11:58:04.830Z</time>
      </trkpt>
      <trkpt lat="44.56897" lon="1.76219">
        <ele>281</ele>
        <time>2019-08-09T11:58:09.764Z</time>
      </trkpt>
      <trkpt lat="44.56905" lon="1.76216">
        <ele>280</ele>
        <time>2019-08-09T11:58:14.770Z</time>
      </trkpt>
      <trkpt lat="44.56913" lon="1.76214">
        <ele>280</ele>
        <time>2019-08-09T11:58:19.752Z</time>
      </trkpt>
      <trkpt lat="44.5692" lon="1.76213">
        <ele>280</ele>
        <time>2019-08-09T11:58:24.766Z</time>
      </trkpt>
      <trkpt lat="44.56924" lon="1.76213">
        <ele>280</ele>
        <time>2019-08-09T11:58:29.761Z</time>
      </trkpt>
      <trkpt lat="44.5693" lon="1.76215">
        <ele>280</ele>
        <time>2019-08-09T11:58:33.770Z</time>
      </trkpt>
      <trkpt lat="44.56938" lon="1.76218">
        <ele>280</ele>
        <time>2019-08-09T11:58:38.770Z</time>
      </trkpt>
      <trkpt lat="44.56944" lon="1.76222">
        <ele>280</ele>
        <time>2019-08-09T11:58:43.770Z</time>
      </trkpt>
      <trkpt lat="44.5695" lon="1.76224">
        <ele>280</ele>
        <time>2019-08-09T11:58:48.767Z</time>
      </trkpt>
      <trkpt lat="44.56957" lon="1.76227">
        <ele>280</ele>
        <time>2019-08-09T11:58:53.767Z</time>
      </trkpt>
      <trkpt lat="44.56966" lon="1.76228">
        <ele>281</ele>
        <time>2019-08-09T11:58:58.767Z</time>
      </trkpt>
      <trkpt lat="44.56972" lon="1.76231">
        <ele>281</ele>
        <time>2019-08-09T11:59:03.774Z</time>
      </trkpt>
      <trkpt lat="44.56981" lon="1.76235">
        <ele>281</ele>
        <time>2019-08-09T11:59:18.769Z</time>
      </trkpt>
      <trkpt lat="44.56986" lon="1.76237">
        <ele>277</ele>
        <time>2019-08-09T11:59:23.770Z</time>
      </trkpt>
      <trkpt lat="44.56993" lon="1.76239">
        <ele>278</ele>
        <time>2019-08-09T11:59:28.765Z</time>
      </trkpt>
      <trkpt lat="44.57001" lon="1.76241">
        <ele>278</ele>
        <time>2019-08-09T11:59:33.772Z</time>
      </trkpt>
      <trkpt lat="44.57008" lon="1.76244">
        <ele>278</ele>
        <time>2019-08-09T11:59:38.766Z</time>
      </trkpt>
      <trkpt lat="44.57015" lon="1.76244">
        <ele>280</ele>
        <time>2019-08-09T11:59:43.763Z</time>
      </trkpt>
      <trkpt lat="44.57026" lon="1.76242">
        <ele>280</ele>
        <time>2019-08-09T11:59:48.759Z</time>
      </trkpt>
      <trkpt lat="44.57035" lon="1.76243">
        <ele>280</ele>
        <time>2019-08-09T11:59:53.764Z</time>
      </trkpt>
      <trkpt lat="44.57041" lon="1.76245">
        <ele>280</ele>
        <time>2019-08-09T11:59:58.763Z</time>
      </trkpt>
      <trkpt lat="44.57047" lon="1.76247">
        <ele>282</ele>
        <time>2019-08-09T12:00:03.770Z</time>
      </trkpt>
      <trkpt lat="44.57053" lon="1.7625">
        <ele>282</ele>
        <time>2019-08-09T12:00:08.760Z</time>
      </trkpt>
      <trkpt lat="44.57058" lon="1.76252">
        <ele>282</ele>
        <time>2019-08-09T12:00:12.768Z</time>
      </trkpt>
      <trkpt lat="44.57066" lon="1.76255">
        <ele>282</ele>
        <time>2019-08-09T12:00:17.765Z</time>
      </trkpt>
      <trkpt lat="44.57073" lon="1.76259">
        <ele>284</ele>
        <time>2019-08-09T12:00:22.766Z</time>
      </trkpt>
      <trkpt lat="44.57079" lon="1.76263">
        <ele>284</ele>
        <time>2019-08-09T12:00:27.764Z</time>
      </trkpt>
      <trkpt lat="44.57085" lon="1.76267">
        <ele>279</ele>
        <time>2019-08-09T12:00:32.755Z</time>
      </trkpt>
      <trkpt lat="44.5709" lon="1.7627">
        <ele>279</ele>
        <time>2019-08-09T12:00:36.764Z</time>
      </trkpt>
      <trkpt lat="44.57097" lon="1.76273">
        <ele>279</ele>
        <time>2019-08-09T12:00:41.764Z</time>
      </trkpt>
      <trkpt lat="44.57105" lon="1.7628">
        <ele>283</ele>
        <time>2019-08-09T12:00:46.753Z</time>
      </trkpt>
      <trkpt lat="44.57109" lon="1.76282">
        <ele>283</ele>
        <time>2019-08-09T12:00:51.756Z</time>
      </trkpt>
      <trkpt lat="44.5711" lon="1.76283">
        <ele>283</ele>
        <time>2019-08-09T12:00:56.757Z</time>
      </trkpt>
      <trkpt lat="44.57112" lon="1.76285">
        <ele>283</ele>
        <time>2019-08-09T12:01:01.769Z</time>
      </trkpt>
      <trkpt lat="44.5712" lon="1.76291">
        <ele>283</ele>
        <time>2019-08-09T12:01:06.762Z</time>
      </trkpt>
      <trkpt lat="44.57126" lon="1.76297">
        <ele>283</ele>
        <time>2019-08-09T12:01:11.765Z</time>
      </trkpt>
      <trkpt lat="44.57131" lon="1.76304">
        <ele>283</ele>
        <time>2019-08-09T12:01:16.766Z</time>
      </trkpt>
      <trkpt lat="44.57137" lon="1.7631">
        <ele>283</ele>
        <time>2019-08-09T12:01:21.766Z</time>
      </trkpt>
      <trkpt lat="44.57143" lon="1.76317">
        <ele>283</ele>
        <time>2019-08-09T12:01:26.768Z</time>
      </trkpt>
      <trkpt lat="44.57146" lon="1.76326">
        <ele>280</ele>
        <time>2019-08-09T12:01:31.772Z</time>
      </trkpt>
      <trkpt lat="44.57149" lon="1.76334">
        <ele>280</ele>
        <time>2019-08-09T12:01:36.762Z</time>
      </trkpt>
      <trkpt lat="44.57153" lon="1.76342">
        <ele>286</ele>
        <time>2019-08-09T12:01:41.756Z</time>
      </trkpt>
      <trkpt lat="44.57156" lon="1.76349">
        <ele>287</ele>
        <time>2019-08-09T12:01:45.768Z</time>
      </trkpt>
      <trkpt lat="44.57159" lon="1.76357">
        <ele>287</ele>
        <time>2019-08-09T12:01:50.763Z</time>
      </trkpt>
      <trkpt lat="44.57161" lon="1.76366">
        <ele>287</ele>
        <time>2019-08-09T12:01:55.763Z</time>
      </trkpt>
      <trkpt lat="44.57164" lon="1.76373">
        <ele>287</ele>
        <time>2019-08-09T12:02:00.769Z</time>
      </trkpt>
      <trkpt lat="44.57168" lon="1.76381">
        <ele>287</ele>
        <time>2019-08-09T12:02:05.766Z</time>
      </trkpt>
      <trkpt lat="44.57172" lon="1.76388">
        <ele>287</ele>
        <time>2019-08-09T12:02:10.764Z</time>
      </trkpt>
      <trkpt lat="44.57176" lon="1.76398">
        <ele>287</ele>
        <time>2019-08-09T12:02:15.763Z</time>
      </trkpt>
      <trkpt lat="44.57178" lon="1.76405">
        <ele>287</ele>
        <time>2019-08-09T12:02:20.769Z</time>
      </trkpt>
      <trkpt lat="44.57183" lon="1.76412">
        <ele>292</ele>
        <time>2019-08-09T12:02:25.761Z</time>
      </trkpt>
      <trkpt lat="44.57186" lon="1.7642">
        <ele>292</ele>
        <time>2019-08-09T12:02:30.764Z</time>
      </trkpt>
      <trkpt lat="44.57189" lon="1.76428">
        <ele>292</ele>
        <time>2019-08-09T12:02:35.768Z</time>
      </trkpt>
      <trkpt lat="44.57194" lon="1.76435">
        <ele>292</ele>
        <time>2019-08-09T12:02:40.761Z</time>
      </trkpt>
      <trkpt lat="44.57197" lon="1.76444">
        <ele>292</ele>
        <time>2019-08-09T12:02:45.767Z</time>
      </trkpt>
      <trkpt lat="44.572" lon="1.76451">
        <ele>292</ele>
        <time>2019-08-09T12:02:50.762Z</time>
      </trkpt>
      <trkpt lat="44.57204" lon="1.76459">
        <ele>292</ele>
        <time>2019-08-09T12:02:55.764Z</time>
      </trkpt>
      <trkpt lat="44.57207" lon="1.76466">
        <ele>292</ele>
        <time>2019-08-09T12:03:00.764Z</time>
      </trkpt>
      <trkpt lat="44.57211" lon="1.76473">
        <ele>297</ele>
        <time>2019-08-09T12:03:05.763Z</time>
      </trkpt>
      <trkpt lat="44.57215" lon="1.76482">
        <ele>297</ele>
        <time>2019-08-09T12:03:10.766Z</time>
      </trkpt>
      <trkpt lat="44.57219" lon="1.7649">
        <ele>296</ele>
        <time>2019-08-09T12:03:15.775Z</time>
      </trkpt>
      <trkpt lat="44.57222" lon="1.76498">
        <ele>296</ele>
        <time>2019-08-09T12:03:20.769Z</time>
      </trkpt>
      <trkpt lat="44.57226" lon="1.76505">
        <ele>296</ele>
        <time>2019-08-09T12:03:25.758Z</time>
      </trkpt>
      <trkpt lat="44.57229" lon="1.76511">
        <ele>296</ele>
        <time>2019-08-09T12:03:29.768Z</time>
      </trkpt>
      <trkpt lat="44.57231" lon="1.76518">
        <ele>296</ele>
        <time>2019-08-09T12:03:34.765Z</time>
      </trkpt>
      <trkpt lat="44.57233" lon="1.76528">
        <ele>296</ele>
        <time>2019-08-09T12:03:39.765Z</time>
      </trkpt>
      <trkpt lat="44.57236" lon="1.76539">
        <ele>296</ele>
        <time>2019-08-09T12:03:44.767Z</time>
      </trkpt>
      <trkpt lat="44.57239" lon="1.76548">
        <ele>298</ele>
        <time>2019-08-09T12:03:49.763Z</time>
      </trkpt>
      <trkpt lat="44.57241" lon="1.76554">
        <ele>298</ele>
        <time>2019-08-09T12:03:54.766Z</time>
      </trkpt>
      <trkpt lat="44.57244" lon="1.76563">
        <ele>298</ele>
        <time>2019-08-09T12:03:59.756Z</time>
      </trkpt>
      <trkpt lat="44.57248" lon="1.7657">
        <ele>298</ele>
        <time>2019-08-09T12:04:03.765Z</time>
      </trkpt>
      <trkpt lat="44.57251" lon="1.76578">
        <ele>298</ele>
        <time>2019-08-09T12:04:08.764Z</time>
      </trkpt>
      <trkpt lat="44.57253" lon="1.76584">
        <ele>298</ele>
        <time>2019-08-09T12:04:13.764Z</time>
      </trkpt>
      <trkpt lat="44.57257" lon="1.76592">
        <ele>298</ele>
        <time>2019-08-09T12:04:18.762Z</time>
      </trkpt>
      <trkpt lat="44.57261" lon="1.76601">
        <ele>298</ele>
        <time>2019-08-09T12:04:23.764Z</time>
      </trkpt>
      <trkpt lat="44.57266" lon="1.76608">
        <ele>300</ele>
        <time>2019-08-09T12:04:28.764Z</time>
      </trkpt>
      <trkpt lat="44.57269" lon="1.76616">
        <ele>300</ele>
        <time>2019-08-09T12:04:33.780Z</time>
      </trkpt>
      <trkpt lat="44.57272" lon="1.76623">
        <ele>300</ele>
        <time>2019-08-09T12:04:38.772Z</time>
      </trkpt>
      <trkpt lat="44.57276" lon="1.76631">
        <ele>300</ele>
        <time>2019-08-09T12:04:43.765Z</time>
      </trkpt>
      <trkpt lat="44.5728" lon="1.76638">
        <ele>300</ele>
        <time>2019-08-09T12:04:48.762Z</time>
      </trkpt>
      <trkpt lat="44.57284" lon="1.76647">
        <ele>300</ele>
        <time>2019-08-09T12:04:53.764Z</time>
      </trkpt>
      <trkpt lat="44.57291" lon="1.76653">
        <ele>298</ele>
        <time>2019-08-09T12:05:43.750Z</time>
      </trkpt>
      <trkpt lat="44.57291" lon="1.76653">
        <ele>298</ele>
        <time>2019-08-09T12:05:48.751Z</time>
      </trkpt>
      <trkpt lat="44.57291" lon="1.76654">
        <ele>298</ele>
        <time>2019-08-09T12:05:53.757Z</time>
      </trkpt>
      <trkpt lat="44.57292" lon="1.76655">
        <ele>301</ele>
        <time>2019-08-09T12:05:58.759Z</time>
      </trkpt>
      <trkpt lat="44.57296" lon="1.76662">
        <ele>301</ele>
        <time>2019-08-09T12:06:03.767Z</time>
      </trkpt>
      <trkpt lat="44.57301" lon="1.76674">
        <ele>301</ele>
        <time>2019-08-09T12:07:03.753Z</time>
      </trkpt>
      <trkpt lat="44.57301" lon="1.76675">
        <ele>301</ele>
        <time>2019-08-09T12:07:08.756Z</time>
      </trkpt>
      <trkpt lat="44.573" lon="1.7668">
        <ele>301</ele>
        <time>2019-08-09T12:07:13.762Z</time>
      </trkpt>
      <trkpt lat="44.57298" lon="1.76683">
        <ele>299</ele>
        <time>2019-08-09T12:07:18.762Z</time>
      </trkpt>
      <trkpt lat="44.57295" lon="1.76684">
        <ele>299</ele>
        <time>2019-08-09T12:07:23.764Z</time>
      </trkpt>
      <trkpt lat="44.57293" lon="1.76685">
        <ele>299</ele>
        <time>2019-08-09T12:07:28.765Z</time>
      </trkpt>
      <trkpt lat="44.57293" lon="1.76685">
        <ele>299</ele>
        <time>2019-08-09T12:07:33.764Z</time>
      </trkpt>
      <trkpt lat="44.57289" lon="1.76686">
        <ele>297</ele>
        <time>2019-08-09T12:07:38.763Z</time>
      </trkpt>
      <trkpt lat="44.57283" lon="1.76688">
        <ele>297</ele>
        <time>2019-08-09T12:07:43.763Z</time>
      </trkpt>
      <trkpt lat="44.57278" lon="1.76692">
        <ele>297</ele>
        <time>2019-08-09T12:07:48.768Z</time>
      </trkpt>
      <trkpt lat="44.57273" lon="1.76696">
        <ele>297</ele>
        <time>2019-08-09T12:07:53.768Z</time>
      </trkpt>
      <trkpt lat="44.57268" lon="1.767">
        <ele>297</ele>
        <time>2019-08-09T12:07:58.765Z</time>
      </trkpt>
      <trkpt lat="44.57261" lon="1.76703">
        <ele>295</ele>
        <time>2019-08-09T12:08:03.766Z</time>
      </trkpt>
      <trkpt lat="44.57256" lon="1.76706">
        <ele>295</ele>
        <time>2019-08-09T12:08:08.764Z</time>
      </trkpt>
      <trkpt lat="44.5725" lon="1.76709">
        <ele>294</ele>
        <time>2019-08-09T12:08:13.766Z</time>
      </trkpt>
      <trkpt lat="44.57242" lon="1.76711">
        <ele>294</ele>
        <time>2019-08-09T12:08:18.764Z</time>
      </trkpt>
      <trkpt lat="44.57236" lon="1.76713">
        <ele>294</ele>
        <time>2019-08-09T12:08:23.761Z</time>
      </trkpt>
      <trkpt lat="44.57227" lon="1.76715">
        <ele>294</ele>
        <time>2019-08-09T12:08:28.764Z</time>
      </trkpt>
      <trkpt lat="44.57221" lon="1.76717">
        <ele>294</ele>
        <time>2019-08-09T12:08:33.761Z</time>
      </trkpt>
      <trkpt lat="44.57216" lon="1.76717">
        <ele>294</ele>
        <time>2019-08-09T12:08:38.765Z</time>
      </trkpt>
      <trkpt lat="44.57209" lon="1.76719">
        <ele>294</ele>
        <time>2019-08-09T12:08:43.766Z</time>
      </trkpt>
      <trkpt lat="44.57203" lon="1.76722">
        <ele>293</ele>
        <time>2019-08-09T12:08:48.764Z</time>
      </trkpt>
      <trkpt lat="44.57197" lon="1.76727">
        <ele>293</ele>
        <time>2019-08-09T12:08:53.767Z</time>
      </trkpt>
      <trkpt lat="44.57193" lon="1.76732">
        <ele>293</ele>
        <time>2019-08-09T12:08:58.761Z</time>
      </trkpt>
      <trkpt lat="44.57193" lon="1.76734">
        <ele>293</ele>
        <time>2019-08-09T12:09:03.759Z</time>
      </trkpt>
      <trkpt lat="44.57193" lon="1.76734">
        <ele>293</ele>
        <time>2019-08-09T12:09:13.761Z</time>
      </trkpt>
      <trkpt lat="44.57194" lon="1.76736">
        <ele>293</ele>
        <time>2019-08-09T12:09:18.763Z</time>
      </trkpt>
      <trkpt lat="44.57193" lon="1.76737">
        <ele>292</ele>
        <time>2019-08-09T12:09:23.761Z</time>
      </trkpt>
      <trkpt lat="44.57195" lon="1.7674">
        <ele>292</ele>
        <time>2019-08-09T12:09:28.763Z</time>
      </trkpt>
      <trkpt lat="44.57198" lon="1.76745">
        <ele>292</ele>
        <time>2019-08-09T12:09:33.761Z</time>
      </trkpt>
      <trkpt lat="44.57201" lon="1.76762">
        <ele>292</ele>
        <time>2019-08-09T12:18:33.747Z</time>
      </trkpt>
      <trkpt lat="44.572" lon="1.76763">
        <ele>292</ele>
        <time>2019-08-09T12:18:38.762Z</time>
      </trkpt>
      <trkpt lat="44.572" lon="1.76763">
        <ele>292</ele>
        <time>2019-08-09T12:18:43.751Z</time>
      </trkpt>
      <trkpt lat="44.572" lon="1.76763">
        <ele>292</ele>
        <time>2019-08-09T12:18:48.756Z</time>
      </trkpt>
      <trkpt lat="44.57199" lon="1.76764">
        <ele>292</ele>
        <time>2019-08-09T12:18:53.749Z</time>
      </trkpt>
    </trkseg>
  </trk>
</gpx>